<?xml version="1.0"?>
<gpx xmlns="http://www.topografix.com/GPX/1/1" xmlns:xsi="http://www.w3.org/2001/XMLSchema-instance" xmlns:wptx1="http://www.garmin.com/xmlschemas/WaypointExtension/v1" xmlns:gpxtrx="http://www.garmin.com/xmlschemas/GpxExtensions/v3" xmlns:gpxtpx="http://www.garmin.com/xmlschemas/TrackPointExtension/v1" xmlns:gpxx="http://www.garmin.com/xmlschemas/GpxExtensions/v3" xmlns:trp="http://www.garmin.com/xmlschemas/TripExtensions/v1" xmlns:adv="http://www.garmin.com/xmlschemas/AdventuresExtensions/v1" xmlns:prs="http://www.garmin.com/xmlschemas/PressureExtension/v1" xmlns:tmd="http://www.garmin.com/xmlschemas/TripMetaDataExtensions/v1" xmlns:vptm="http://www.garmin.com/xmlschemas/ViaPointTransportationModeExtensions/v1" xmlns:ctx="http://www.garmin.com/xmlschemas/CreationTimeExtension/v1" xmlns:gpxacc="http://www.garmin.com/xmlschemas/AccelerationExtension/v1" xmlns:gpxpx="http://www.garmin.com/xmlschemas/PowerExtension/v1" xmlns:vidx1="http://www.garmin.com/xmlschemas/VideoExtension/v1" creator="Garmin Desktop App" version="1.1" xsi:schemaLocation="http://www.topografix.com/GPX/1/1 http://www.topografix.com/GPX/1/1/gpx.xsd http://www.garmin.com/xmlschemas/WaypointExtension/v1 http://www8.garmin.com/xmlschemas/WaypointExtensionv1.xsd http://www.garmin.com/xmlschemas/TrackPointExtension/v1 http://www.garmin.com/xmlschemas/TrackPointExtensionv1.xsd http://www.garmin.com/xmlschemas/GpxExtensions/v3 http://www8.garmin.com/xmlschemas/GpxExtensionsv3.xsd http://www.garmin.com/xmlschemas/ActivityExtension/v1 http://www8.garmin.com/xmlschemas/ActivityExtensionv1.xsd http://www.garmin.com/xmlschemas/AdventuresExtensions/v1 http://www8.garmin.com/xmlschemas/AdventuresExtensionv1.xsd http://www.garmin.com/xmlschemas/PressureExtension/v1 http://www.garmin.com/xmlschemas/PressureExtensionv1.xsd http://www.garmin.com/xmlschemas/TripExtensions/v1 http://www.garmin.com/xmlschemas/TripExtensionsv1.xsd http://www.garmin.com/xmlschemas/TripMetaDataExtensions/v1 http://www.garmin.com/xmlschemas/TripMetaDataExtensionsv1.xsd http://www.garmin.com/xmlschemas/ViaPointTransportationModeExtensions/v1 http://www.garmin.com/xmlschemas/ViaPointTransportationModeExtensionsv1.xsd http://www.garmin.com/xmlschemas/CreationTimeExtension/v1 http://www.garmin.com/xmlschemas/CreationTimeExtensionsv1.xsd http://www.garmin.com/xmlschemas/AccelerationExtension/v1 http://www.garmin.com/xmlschemas/AccelerationExtensionv1.xsd http://www.garmin.com/xmlschemas/PowerExtension/v1 http://www.garmin.com/xmlschemas/PowerExtensionv1.xsd http://www.garmin.com/xmlschemas/VideoExtension/v1 http://www.garmin.com/xmlschemas/VideoExtensionv1.xsd">

  <metadata>
    <link href="http://www.garmin.com">
      <text>Garmin International</text>
    </link>
    <time>2014-06-15T18:34:53Z</time>
    <bounds maxlat="46.499538738280535" maxlon="6.976863099262118" minlat="46.412388067692518" minlon="6.901006707921624"/>
  </metadata>

  <trk>
    <name>Tracé actuel: 15 JUIN 2014 11:25</name>
    <extensions>
      <gpxx:TrackExtension>
        <gpxx:DisplayColor>DarkGray</gpxx:DisplayColor>
      </gpxx:TrackExtension>
    </extensions>
    <trkseg>
      <trkpt lat="46.412414889782667" lon="6.930278744548559">
        <ele>394.759999999999991</ele>
        <time>2014-06-15T11:25:56Z</time>
      </trkpt>
      <trkpt lat="46.412564087659121" lon="6.930256951600313">
        <ele>392.839999999999975</ele>
        <time>2014-06-15T11:26:08Z</time>
      </trkpt>
      <trkpt lat="46.413078401237726" lon="6.929796952754259">
        <ele>390.910000000000025</ele>
        <time>2014-06-15T11:26:21Z</time>
      </trkpt>
      <trkpt lat="46.413230029866099" lon="6.92965186201036">
        <ele>390.430000000000007</ele>
        <time>2014-06-15T11:26:24Z</time>
      </trkpt>
      <trkpt lat="46.413256684318185" lon="6.929626548662782">
        <ele>390.430000000000007</ele>
        <time>2014-06-15T11:26:25Z</time>
      </trkpt>
      <trkpt lat="46.414009127765894" lon="6.928930347785354">
        <ele>391.870000000000005</ele>
        <time>2014-06-15T11:26:41Z</time>
      </trkpt>
      <trkpt lat="46.414801217615604" lon="6.928392397239804">
        <ele>392.360000000000014</ele>
        <time>2014-06-15T11:26:59Z</time>
      </trkpt>
      <trkpt lat="46.41565172933042" lon="6.928176814690232">
        <ele>395.720000000000027</ele>
        <time>2014-06-15T11:27:18Z</time>
      </trkpt>
      <trkpt lat="46.416419595479965" lon="6.928144209086895">
        <ele>396.680000000000007</ele>
        <time>2014-06-15T11:27:35Z</time>
      </trkpt>
      <trkpt lat="46.417152341455221" lon="6.928118476644158">
        <ele>397.639999999999986</ele>
        <time>2014-06-15T11:27:51Z</time>
      </trkpt>
      <trkpt lat="46.417386950924993" lon="6.928147729486227">
        <ele>397.160000000000025</ele>
        <time>2014-06-15T11:27:56Z</time>
      </trkpt>
      <trkpt lat="46.418002434074879" lon="6.928445287048817">
        <ele>398.600000000000023</ele>
        <time>2014-06-15T11:28:11Z</time>
      </trkpt>
      <trkpt lat="46.418093126267195" lon="6.928469846025109">
        <ele>398.600000000000023</ele>
        <time>2014-06-15T11:28:13Z</time>
      </trkpt>
      <trkpt lat="46.418332261964679" lon="6.928477305918932">
        <ele>399.079999999999984</ele>
        <time>2014-06-15T11:28:18Z</time>
      </trkpt>
      <trkpt lat="46.418821346014738" lon="6.928282510489225">
        <ele>401.970000000000027</ele>
        <time>2014-06-15T11:28:29Z</time>
      </trkpt>
      <trkpt lat="46.418967777863145" lon="6.928130378946662">
        <ele>403.410000000000025</ele>
        <time>2014-06-15T11:28:33Z</time>
      </trkpt>
      <trkpt lat="46.418997114524245" lon="6.928086373955011">
        <ele>403.889999999999986</ele>
        <time>2014-06-15T11:28:34Z</time>
      </trkpt>
      <trkpt lat="46.419424088671803" lon="6.927219517529011">
        <ele>405.329999999999984</ele>
        <time>2014-06-15T11:28:50Z</time>
      </trkpt>
      <trkpt lat="46.419675378128886" lon="6.92676454782486">
        <ele>404.850000000000023</ele>
        <time>2014-06-15T11:28:59Z</time>
      </trkpt>
      <trkpt lat="46.4199907053262" lon="6.926326090469956">
        <ele>404.370000000000005</ele>
        <time>2014-06-15T11:29:09Z</time>
      </trkpt>
      <trkpt lat="46.420026579871774" lon="6.926292479038239">
        <ele>404.370000000000005</ele>
        <time>2014-06-15T11:29:10Z</time>
      </trkpt>
      <trkpt lat="46.420584563165903" lon="6.926021156832576">
        <ele>404.370000000000005</ele>
        <time>2014-06-15T11:29:24Z</time>
      </trkpt>
      <trkpt lat="46.421280009672046" lon="6.925762156024575">
        <ele>405.810000000000002</ele>
        <time>2014-06-15T11:29:40Z</time>
      </trkpt>
      <trkpt lat="46.421361062675714" lon="6.925719156861305">
        <ele>406.29000000000002</ele>
        <time>2014-06-15T11:29:42Z</time>
      </trkpt>
      <trkpt lat="46.421667505055666" lon="6.925654197111726">
        <ele>407.259999999999991</ele>
        <time>2014-06-15T11:29:49Z</time>
      </trkpt>
      <trkpt lat="46.421718383207917" lon="6.925666015595198">
        <ele>407.740000000000009</ele>
        <time>2014-06-15T11:29:50Z</time>
      </trkpt>
      <trkpt lat="46.421764316037297" lon="6.925709014758468">
        <ele>407.740000000000009</ele>
        <time>2014-06-15T11:29:52Z</time>
      </trkpt>
      <trkpt lat="46.421795748174191" lon="6.925754277035594">
        <ele>408.220000000000027</ele>
        <time>2014-06-15T11:29:53Z</time>
      </trkpt>
      <trkpt lat="46.421840004622936" lon="6.92580197006464">
        <ele>408.699999999999989</ele>
        <time>2014-06-15T11:29:54Z</time>
      </trkpt>
      <trkpt lat="46.421866659075022" lon="6.925814878195524">
        <ele>408.699999999999989</ele>
        <time>2014-06-15T11:29:55Z</time>
      </trkpt>
      <trkpt lat="46.421892307698727" lon="6.925817476585507">
        <ele>409.180000000000007</ele>
        <time>2014-06-15T11:29:56Z</time>
      </trkpt>
      <trkpt lat="46.421924913302064" lon="6.925819152966142">
        <ele>409.660000000000025</ele>
        <time>2014-06-15T11:29:57Z</time>
      </trkpt>
      <trkpt lat="46.422281982377172" lon="6.925800461322069">
        <ele>413.5</ele>
        <time>2014-06-15T11:30:10Z</time>
      </trkpt>
      <trkpt lat="46.422632848843932" lon="6.92602040246129">
        <ele>416.870000000000005</ele>
        <time>2014-06-15T11:30:25Z</time>
      </trkpt>
      <trkpt lat="46.422965945675969" lon="6.92637168802321">
        <ele>419.75</ele>
        <time>2014-06-15T11:30:41Z</time>
      </trkpt>
      <trkpt lat="46.423050854355097" lon="6.92655592225492">
        <ele>421.680000000000007</ele>
        <time>2014-06-15T11:30:48Z</time>
      </trkpt>
      <trkpt lat="46.423272304236889" lon="6.926841409876943">
        <ele>424.079999999999984</ele>
        <time>2014-06-15T11:31:00Z</time>
      </trkpt>
      <trkpt lat="46.423556534573436" lon="6.927000414580107">
        <ele>426</ele>
        <time>2014-06-15T11:31:12Z</time>
      </trkpt>
      <trkpt lat="46.423982670530677" lon="6.926798578351736">
        <ele>426.95999999999998</ele>
        <time>2014-06-15T11:31:26Z</time>
      </trkpt>
      <trkpt lat="46.424419116228819" lon="6.926364060491323">
        <ele>428.889999999999986</ele>
        <time>2014-06-15T11:31:41Z</time>
      </trkpt>
      <trkpt lat="46.424769060686231" lon="6.926041021943092">
        <ele>430.810000000000002</ele>
        <time>2014-06-15T11:31:54Z</time>
      </trkpt>
      <trkpt lat="46.425219252705574" lon="6.925874222069979">
        <ele>432.730000000000018</ele>
        <time>2014-06-15T11:32:10Z</time>
      </trkpt>
      <trkpt lat="46.425552181899548" lon="6.925462419167161">
        <ele>435.610000000000014</ele>
        <time>2014-06-15T11:32:25Z</time>
      </trkpt>
      <trkpt lat="46.425866587087512" lon="6.925142984837294">
        <ele>438.5</ele>
        <time>2014-06-15T11:32:41Z</time>
      </trkpt>
      <trkpt lat="46.426201947033405" lon="6.924891443923116">
        <ele>441.379999999999995</ele>
        <time>2014-06-15T11:32:58Z</time>
      </trkpt>
      <trkpt lat="46.42626665532589" lon="6.924604615196586">
        <ele>441.860000000000014</ele>
        <time>2014-06-15T11:33:06Z</time>
      </trkpt>
      <trkpt lat="46.426283419132233" lon="6.924539236351848">
        <ele>441.379999999999995</ele>
        <time>2014-06-15T11:33:07Z</time>
      </trkpt>
      <trkpt lat="46.426313342526555" lon="6.924470756202936">
        <ele>440.899999999999977</ele>
        <time>2014-06-15T11:33:08Z</time>
      </trkpt>
      <trkpt lat="46.426355503499508" lon="6.924408227205276">
        <ele>440.899999999999977</ele>
        <time>2014-06-15T11:33:09Z</time>
      </trkpt>
      <trkpt lat="46.426408980041742" lon="6.924353828653693">
        <ele>439.939999999999998</ele>
        <time>2014-06-15T11:33:10Z</time>
      </trkpt>
      <trkpt lat="46.426468323916197" lon="6.924306554719806">
        <ele>439.45999999999998</ele>
        <time>2014-06-15T11:33:11Z</time>
      </trkpt>
      <trkpt lat="46.426533199846745" lon="6.924261627718806">
        <ele>438.5</ele>
        <time>2014-06-15T11:33:12Z</time>
      </trkpt>
      <trkpt lat="46.427399469539523" lon="6.923661734908819">
        <ele>434.170000000000016</ele>
        <time>2014-06-15T11:33:24Z</time>
      </trkpt>
      <trkpt lat="46.427653525024652" lon="6.923415809869766">
        <ele>433.20999999999998</ele>
        <time>2014-06-15T11:33:28Z</time>
      </trkpt>
      <trkpt lat="46.427785372361541" lon="6.923312041908503">
        <ele>432.730000000000018</ele>
        <time>2014-06-15T11:33:30Z</time>
      </trkpt>
      <trkpt lat="46.42784639261663" lon="6.923249512910843">
        <ele>432.730000000000018</ele>
        <time>2014-06-15T11:33:31Z</time>
      </trkpt>
      <trkpt lat="46.427904143929482" lon="6.923180446028709">
        <ele>432.730000000000018</ele>
        <time>2014-06-15T11:33:32Z</time>
      </trkpt>
      <trkpt lat="46.428279234096408" lon="6.922634532675147">
        <ele>431.769999999999982</ele>
        <time>2014-06-15T11:33:39Z</time>
      </trkpt>
      <trkpt lat="46.428320556879044" lon="6.922542499378324">
        <ele>431.769999999999982</ele>
        <time>2014-06-15T11:33:40Z</time>
      </trkpt>
      <trkpt lat="46.428489284589887" lon="6.92218953743577">
        <ele>431.29000000000002</ele>
        <time>2014-06-15T11:33:44Z</time>
      </trkpt>
      <trkpt lat="46.428540833294392" lon="6.922112423926592">
        <ele>430.810000000000002</ele>
        <time>2014-06-15T11:33:45Z</time>
      </trkpt>
      <trkpt lat="46.429128404706717" lon="6.921472800895572">
        <ele>429.370000000000005</ele>
        <time>2014-06-15T11:33:55Z</time>
      </trkpt>
      <trkpt lat="46.42918087542057" lon="6.921403147280216">
        <ele>428.889999999999986</ele>
        <time>2014-06-15T11:33:56Z</time>
      </trkpt>
      <trkpt lat="46.429231502115726" lon="6.921327542513609">
        <ele>428.889999999999986</ele>
        <time>2014-06-15T11:33:57Z</time>
      </trkpt>
      <trkpt lat="46.430097352713346" lon="6.920033795759082">
        <ele>426.480000000000018</ele>
        <time>2014-06-15T11:34:14Z</time>
      </trkpt>
      <trkpt lat="46.430220063775778" lon="6.91983581520617">
        <ele>425.519999999999982</ele>
        <time>2014-06-15T11:34:16Z</time>
      </trkpt>
      <trkpt lat="46.430422905832529" lon="6.91933885216713">
        <ele>421.189999999999998</ele>
        <time>2014-06-15T11:34:21Z</time>
      </trkpt>
      <trkpt lat="46.430725660175085" lon="6.918925708159804">
        <ele>419.269999999999982</ele>
        <time>2014-06-15T11:34:33Z</time>
      </trkpt>
      <trkpt lat="46.43095750361681" lon="6.918582217767835">
        <ele>424.079999999999984</ele>
        <time>2014-06-15T11:34:46Z</time>
      </trkpt>
      <trkpt lat="46.431123549118638" lon="6.918217604979873">
        <ele>426.480000000000018</ele>
        <time>2014-06-15T11:34:57Z</time>
      </trkpt>
      <trkpt lat="46.431153975427151" lon="6.91820771433413">
        <ele>426.95999999999998</ele>
        <time>2014-06-15T11:34:58Z</time>
      </trkpt>
      <trkpt lat="46.431174427270889" lon="6.918205032125115">
        <ele>426.95999999999998</ele>
        <time>2014-06-15T11:34:59Z</time>
      </trkpt>
      <trkpt lat="46.431201752275229" lon="6.918202349916101">
        <ele>426.95999999999998</ele>
        <time>2014-06-15T11:35:00Z</time>
      </trkpt>
      <trkpt lat="46.431227484717965" lon="6.9181954767555">
        <ele>426.95999999999998</ele>
        <time>2014-06-15T11:35:01Z</time>
      </trkpt>
      <trkpt lat="46.431251876056194" lon="6.918186340481043">
        <ele>426.95999999999998</ele>
        <time>2014-06-15T11:35:02Z</time>
      </trkpt>
      <trkpt lat="46.431275513023138" lon="6.918175024911761">
        <ele>426.95999999999998</ele>
        <time>2014-06-15T11:35:03Z</time>
      </trkpt>
      <trkpt lat="46.43129562959075" lon="6.918155997991562">
        <ele>427.439999999999998</ele>
        <time>2014-06-15T11:35:04Z</time>
      </trkpt>
      <trkpt lat="46.43131616525352" lon="6.918136300519109">
        <ele>427.439999999999998</ele>
        <time>2014-06-15T11:35:05Z</time>
      </trkpt>
      <trkpt lat="46.431335527449846" lon="6.918113837018609">
        <ele>427.439999999999998</ele>
        <time>2014-06-15T11:35:06Z</time>
      </trkpt>
      <trkpt lat="46.431353716179729" lon="6.918097995221615">
        <ele>427.920000000000016</ele>
        <time>2014-06-15T11:35:07Z</time>
      </trkpt>
      <trkpt lat="46.431375090032816" lon="6.918081566691399">
        <ele>427.920000000000016</ele>
        <time>2014-06-15T11:35:08Z</time>
      </trkpt>
      <trkpt lat="46.431709192693233" lon="6.917784344404936">
        <ele>431.29000000000002</ele>
        <time>2014-06-15T11:35:25Z</time>
      </trkpt>
      <trkpt lat="46.432089898735285" lon="6.91752559505403">
        <ele>434.649999999999977</ele>
        <time>2014-06-15T11:35:45Z</time>
      </trkpt>
      <trkpt lat="46.4323965087533" lon="6.917346641421318">
        <ele>438.5</ele>
        <time>2014-06-15T11:36:00Z</time>
      </trkpt>
      <trkpt lat="46.432637656107545" lon="6.917128711938858">
        <ele>442.339999999999975</ele>
        <time>2014-06-15T11:36:13Z</time>
      </trkpt>
      <trkpt lat="46.432907553389668" lon="6.916739456355572">
        <ele>446.670000000000016</ele>
        <time>2014-06-15T11:36:29Z</time>
      </trkpt>
      <trkpt lat="46.432916773483157" lon="6.916718166321516">
        <ele>447.149999999999977</ele>
        <time>2014-06-15T11:36:30Z</time>
      </trkpt>
      <trkpt lat="46.433071754872799" lon="6.916489759460092">
        <ele>450.029999999999973</ele>
        <time>2014-06-15T11:36:38Z</time>
      </trkpt>
      <trkpt lat="46.433102935552597" lon="6.916488418355584">
        <ele>450.029999999999973</ele>
        <time>2014-06-15T11:36:39Z</time>
      </trkpt>
      <trkpt lat="46.433141240850091" lon="6.916500236839056">
        <ele>450.029999999999973</ele>
        <time>2014-06-15T11:36:40Z</time>
      </trkpt>
      <trkpt lat="46.433217767626047" lon="6.916533261537552">
        <ele>450.029999999999973</ele>
        <time>2014-06-15T11:36:42Z</time>
      </trkpt>
      <trkpt lat="46.433297647163272" lon="6.916583217680454">
        <ele>450.029999999999973</ele>
        <time>2014-06-15T11:36:44Z</time>
      </trkpt>
      <trkpt lat="46.433341400697827" lon="6.916600484400988">
        <ele>450.029999999999973</ele>
        <time>2014-06-15T11:36:45Z</time>
      </trkpt>
      <trkpt lat="46.43338649533689" lon="6.916613727807999">
        <ele>450.029999999999973</ele>
        <time>2014-06-15T11:36:46Z</time>
      </trkpt>
      <trkpt lat="46.43343192525208" lon="6.916626719757915">
        <ele>450.029999999999973</ele>
        <time>2014-06-15T11:36:47Z</time>
      </trkpt>
      <trkpt lat="46.433480540290475" lon="6.916642980650067">
        <ele>450.029999999999973</ele>
        <time>2014-06-15T11:36:48Z</time>
      </trkpt>
      <trkpt lat="46.433536950498819" lon="6.916650021448731">
        <ele>450.029999999999973</ele>
        <time>2014-06-15T11:36:49Z</time>
      </trkpt>
      <trkpt lat="46.433599395677447" lon="6.916629401966929">
        <ele>449.550000000000011</ele>
        <time>2014-06-15T11:36:50Z</time>
      </trkpt>
      <trkpt lat="46.433658320456743" lon="6.91660207696259">
        <ele>449.550000000000011</ele>
        <time>2014-06-15T11:36:51Z</time>
      </trkpt>
      <trkpt lat="46.433719424530864" lon="6.916570393368602">
        <ele>449.550000000000011</ele>
        <time>2014-06-15T11:36:52Z</time>
      </trkpt>
      <trkpt lat="46.433769045397639" lon="6.916533512994647">
        <ele>449.550000000000011</ele>
        <time>2014-06-15T11:36:53Z</time>
      </trkpt>
      <trkpt lat="46.433815648779273" lon="6.916489256545901">
        <ele>449.550000000000011</ele>
        <time>2014-06-15T11:36:54Z</time>
      </trkpt>
      <trkpt lat="46.433905502781272" lon="6.916396887972951">
        <ele>449.550000000000011</ele>
        <time>2014-06-15T11:36:56Z</time>
      </trkpt>
      <trkpt lat="46.434065764769912" lon="6.916238721460104">
        <ele>453.399999999999977</ele>
        <time>2014-06-15T11:37:05Z</time>
      </trkpt>
      <trkpt lat="46.434306493028998" lon="6.916065216064453">
        <ele>458.689999999999998</ele>
        <time>2014-06-15T11:37:22Z</time>
      </trkpt>
      <trkpt lat="46.434347312897444" lon="6.916006878018379">
        <ele>459.170000000000016</ele>
        <time>2014-06-15T11:37:27Z</time>
      </trkpt>
      <trkpt lat="46.4343530125916" lon="6.916004698723555">
        <ele>458.689999999999998</ele>
        <time>2014-06-15T11:37:28Z</time>
      </trkpt>
      <trkpt lat="46.434363992884755" lon="6.916002603247762">
        <ele>458.689999999999998</ele>
        <time>2014-06-15T11:37:29Z</time>
      </trkpt>
      <trkpt lat="46.43436960875988" lon="6.915995143353939">
        <ele>458.20999999999998</ele>
        <time>2014-06-15T11:37:30Z</time>
      </trkpt>
      <trkpt lat="46.434379080310464" lon="6.9159937184304">
        <ele>457.720000000000027</ele>
        <time>2014-06-15T11:37:31Z</time>
      </trkpt>
      <trkpt lat="46.434516543522477" lon="6.916016265749931">
        <ele>456.279999999999973</ele>
        <time>2014-06-15T11:37:42Z</time>
      </trkpt>
      <trkpt lat="46.434535486623645" lon="6.91602841950953">
        <ele>456.759999999999991</ele>
        <time>2014-06-15T11:37:44Z</time>
      </trkpt>
      <trkpt lat="46.434549735859036" lon="6.916017858311534">
        <ele>457.240000000000009</ele>
        <time>2014-06-15T11:37:45Z</time>
      </trkpt>
      <trkpt lat="46.434563398361206" lon="6.916008302941918">
        <ele>457.240000000000009</ele>
        <time>2014-06-15T11:37:46Z</time>
      </trkpt>
      <trkpt lat="46.434575133025646" lon="6.916003860533237">
        <ele>457.720000000000027</ele>
        <time>2014-06-15T11:37:47Z</time>
      </trkpt>
      <trkpt lat="46.434641601517797" lon="6.915963459759951">
        <ele>458.689999999999998</ele>
        <time>2014-06-15T11:37:52Z</time>
      </trkpt>
      <trkpt lat="46.434841677546501" lon="6.915844101458788">
        <ele>463.490000000000009</ele>
        <time>2014-06-15T11:38:07Z</time>
      </trkpt>
      <trkpt lat="46.434913594275713" lon="6.915737399831414">
        <ele>463.970000000000027</ele>
        <time>2014-06-15T11:38:15Z</time>
      </trkpt>
      <trkpt lat="46.434923317283392" lon="6.915729185566306">
        <ele>463.970000000000027</ele>
        <time>2014-06-15T11:38:16Z</time>
      </trkpt>
      <trkpt lat="46.434933627024293" lon="6.915718792006373">
        <ele>464.449999999999989</ele>
        <time>2014-06-15T11:38:17Z</time>
      </trkpt>
      <trkpt lat="46.435090284794569" lon="6.915513938292861">
        <ele>468.779999999999973</ele>
        <time>2014-06-15T11:38:35Z</time>
      </trkpt>
      <trkpt lat="46.435191119089723" lon="6.915439758449793">
        <ele>471.180000000000007</ele>
        <time>2014-06-15T11:38:44Z</time>
      </trkpt>
      <trkpt lat="46.435210313647985" lon="6.915423329919577">
        <ele>472.139999999999986</ele>
        <time>2014-06-15T11:38:46Z</time>
      </trkpt>
      <trkpt lat="46.435222299769521" lon="6.91541763022542">
        <ele>472.139999999999986</ele>
        <time>2014-06-15T11:38:47Z</time>
      </trkpt>
      <trkpt lat="46.435235207900405" lon="6.915408410131931">
        <ele>472.629999999999995</ele>
        <time>2014-06-15T11:38:48Z</time>
      </trkpt>
      <trkpt lat="46.435245350003242" lon="6.915394328534603">
        <ele>473.110000000000014</ele>
        <time>2014-06-15T11:38:49Z</time>
      </trkpt>
      <trkpt lat="46.435247864574194" lon="6.915380163118243">
        <ele>473.110000000000014</ele>
        <time>2014-06-15T11:38:50Z</time>
      </trkpt>
      <trkpt lat="46.435253228992224" lon="6.915366500616074">
        <ele>473.589999999999975</ele>
        <time>2014-06-15T11:38:51Z</time>
      </trkpt>
      <trkpt lat="46.435259263962507" lon="6.915352670475841">
        <ele>473.589999999999975</ele>
        <time>2014-06-15T11:38:52Z</time>
      </trkpt>
      <trkpt lat="46.435265550389886" lon="6.915339343249798">
        <ele>474.069999999999993</ele>
        <time>2014-06-15T11:38:53Z</time>
      </trkpt>
      <trkpt lat="46.435275441035628" lon="6.915331883355975">
        <ele>474.069999999999993</ele>
        <time>2014-06-15T11:38:54Z</time>
      </trkpt>
      <trkpt lat="46.435286086052656" lon="6.915327860042453">
        <ele>474.550000000000011</ele>
        <time>2014-06-15T11:38:55Z</time>
      </trkpt>
      <trkpt lat="46.435296982526779" lon="6.915319729596376">
        <ele>474.550000000000011</ele>
        <time>2014-06-15T11:38:56Z</time>
      </trkpt>
      <trkpt lat="46.435455232858658" lon="6.915193498134613">
        <ele>481.759999999999991</ele>
        <time>2014-06-15T11:39:13Z</time>
      </trkpt>
      <trkpt lat="46.435481971129775" lon="6.915166089311242">
        <ele>484.639999999999986</ele>
        <time>2014-06-15T11:39:26Z</time>
      </trkpt>
      <trkpt lat="46.435515331104398" lon="6.915151253342628">
        <ele>486.079999999999984</ele>
        <time>2014-06-15T11:39:32Z</time>
      </trkpt>
      <trkpt lat="46.435528658330441" lon="6.915152510628104">
        <ele>486.560000000000002</ele>
        <time>2014-06-15T11:39:33Z</time>
      </trkpt>
      <trkpt lat="46.435541231185198" lon="6.915153181180358">
        <ele>487.050000000000011</ele>
        <time>2014-06-15T11:39:34Z</time>
      </trkpt>
      <trkpt lat="46.435723956674337" lon="6.915159802883863">
        <ele>492.329999999999984</ele>
        <time>2014-06-15T11:39:47Z</time>
      </trkpt>
      <trkpt lat="46.435981364920735" lon="6.915201963856816">
        <ele>493.769999999999982</ele>
        <time>2014-06-15T11:40:01Z</time>
      </trkpt>
      <trkpt lat="46.436209101229906" lon="6.91521730273962">
        <ele>495.220000000000027</ele>
        <time>2014-06-15T11:40:15Z</time>
      </trkpt>
      <trkpt lat="46.436526607722044" lon="6.915201712399721">
        <ele>496.180000000000007</ele>
        <time>2014-06-15T11:40:33Z</time>
      </trkpt>
      <trkpt lat="46.436804803088307" lon="6.915077324956656">
        <ele>496.660000000000025</ele>
        <time>2014-06-15T11:40:52Z</time>
      </trkpt>
      <trkpt lat="46.437141168862581" lon="6.914863334968686">
        <ele>499.54000000000002</ele>
        <time>2014-06-15T11:41:15Z</time>
      </trkpt>
      <trkpt lat="46.43742891959846" lon="6.914723692461848">
        <ele>502.910000000000025</ele>
        <time>2014-06-15T11:41:33Z</time>
      </trkpt>
      <trkpt lat="46.437726812437177" lon="6.914593437686563">
        <ele>507.230000000000018</ele>
        <time>2014-06-15T11:41:52Z</time>
      </trkpt>
      <trkpt lat="46.438059657812119" lon="6.914456142112613">
        <ele>511.560000000000002</ele>
        <time>2014-06-15T11:42:13Z</time>
      </trkpt>
      <trkpt lat="46.438338607549667" lon="6.91454297862947">
        <ele>516.370000000000005</ele>
        <time>2014-06-15T11:42:32Z</time>
      </trkpt>
      <trkpt lat="46.438505407422781" lon="6.914771385490894">
        <ele>518.769999999999982</ele>
        <time>2014-06-15T11:42:46Z</time>
      </trkpt>
      <trkpt lat="46.438742280006409" lon="6.914966935291886">
        <ele>522.610000000000014</ele>
        <time>2014-06-15T11:43:03Z</time>
      </trkpt>
      <trkpt lat="46.438970603048801" lon="6.914740204811096">
        <ele>524.059999999999945</ele>
        <time>2014-06-15T11:43:21Z</time>
      </trkpt>
      <trkpt lat="46.439199931919575" lon="6.914761075749993">
        <ele>527.419999999999959</ele>
        <time>2014-06-15T11:43:36Z</time>
      </trkpt>
      <trkpt lat="46.439438480883837" lon="6.915032230317593">
        <ele>530.299999999999955</ele>
        <time>2014-06-15T11:43:54Z</time>
      </trkpt>
      <trkpt lat="46.439593378454447" lon="6.915227109566331">
        <ele>532.230000000000018</ele>
        <time>2014-06-15T11:44:07Z</time>
      </trkpt>
      <trkpt lat="46.439770571887493" lon="6.915393574163318">
        <ele>534.629999999999995</ele>
        <time>2014-06-15T11:44:22Z</time>
      </trkpt>
      <trkpt lat="46.439819103106856" lon="6.915422827005386">
        <ele>534.629999999999995</ele>
        <time>2014-06-15T11:44:26Z</time>
      </trkpt>
      <trkpt lat="46.439826814457774" lon="6.915421904996037">
        <ele>534.629999999999995</ele>
        <time>2014-06-15T11:44:27Z</time>
      </trkpt>
      <trkpt lat="46.439838297665119" lon="6.91543229855597">
        <ele>535.110000000000014</ele>
        <time>2014-06-15T11:44:28Z</time>
      </trkpt>
      <trkpt lat="46.439851960167289" lon="6.91544696688652">
        <ele>535.590000000000032</ele>
        <time>2014-06-15T11:44:29Z</time>
      </trkpt>
      <trkpt lat="46.439865874126554" lon="6.915458953008056">
        <ele>535.110000000000014</ele>
        <time>2014-06-15T11:44:30Z</time>
      </trkpt>
      <trkpt lat="46.440126802772284" lon="6.915571773424745">
        <ele>533.190000000000055</ele>
        <time>2014-06-15T11:44:44Z</time>
      </trkpt>
      <trkpt lat="46.440405836328864" lon="6.915385192260146">
        <ele>539.440000000000055</ele>
        <time>2014-06-15T11:45:02Z</time>
      </trkpt>
      <trkpt lat="46.440666345879436" lon="6.915038768202066">
        <ele>543.759999999999991</ele>
        <time>2014-06-15T11:45:24Z</time>
      </trkpt>
      <trkpt lat="46.440945211797953" lon="6.914858557283878">
        <ele>547.129999999999995</ele>
        <time>2014-06-15T11:45:43Z</time>
      </trkpt>
      <trkpt lat="46.441207900643349" lon="6.914729056879878">
        <ele>549.529999999999973</ele>
        <time>2014-06-15T11:46:00Z</time>
      </trkpt>
      <trkpt lat="46.441490203142166" lon="6.914498889818788">
        <ele>553.860000000000014</ele>
        <time>2014-06-15T11:46:20Z</time>
      </trkpt>
      <trkpt lat="46.441726153716445" lon="6.914267130196095">
        <ele>557.220000000000027</ele>
        <time>2014-06-15T11:46:38Z</time>
      </trkpt>
      <trkpt lat="46.441978784278035" lon="6.914003267884254">
        <ele>562.509999999999991</ele>
        <time>2014-06-15T11:46:58Z</time>
      </trkpt>
      <trkpt lat="46.442201239988208" lon="6.91379732452333">
        <ele>564.42999999999995</ele>
        <time>2014-06-15T11:47:15Z</time>
      </trkpt>
      <trkpt lat="46.442483207210898" lon="6.91342206671834">
        <ele>568.759999999999991</ele>
        <time>2014-06-15T11:47:37Z</time>
      </trkpt>
      <trkpt lat="46.442713541910052" lon="6.912975227460265">
        <ele>571.159999999999968</ele>
        <time>2014-06-15T11:47:54Z</time>
      </trkpt>
      <trkpt lat="46.442898027598858" lon="6.912590079009533">
        <ele>575.490000000000009</ele>
        <time>2014-06-15T11:48:10Z</time>
      </trkpt>
      <trkpt lat="46.443091984838247" lon="6.912174923345447">
        <ele>579.330000000000041</ele>
        <time>2014-06-15T11:48:30Z</time>
      </trkpt>
      <trkpt lat="46.443236488848925" lon="6.911954814568162">
        <ele>581.730000000000018</ele>
        <time>2014-06-15T11:48:44Z</time>
      </trkpt>
      <trkpt lat="46.44334377720952" lon="6.911945762112737">
        <ele>582.700000000000045</ele>
        <time>2014-06-15T11:48:51Z</time>
      </trkpt>
      <trkpt lat="46.443359702825546" lon="6.911930507048965">
        <ele>582.700000000000045</ele>
        <time>2014-06-15T11:48:52Z</time>
      </trkpt>
      <trkpt lat="46.443554330617189" lon="6.911481488496065">
        <ele>582.220000000000027</ele>
        <time>2014-06-15T11:49:04Z</time>
      </trkpt>
      <trkpt lat="46.44363010302186" lon="6.911338660866022">
        <ele>581.730000000000018</ele>
        <time>2014-06-15T11:49:07Z</time>
      </trkpt>
      <trkpt lat="46.44365306943655" lon="6.911281161010265">
        <ele>581.730000000000018</ele>
        <time>2014-06-15T11:49:08Z</time>
      </trkpt>
      <trkpt lat="46.443883236497641" lon="6.910757292062044">
        <ele>582.700000000000045</ele>
        <time>2014-06-15T11:49:17Z</time>
      </trkpt>
      <trkpt lat="46.443915003910661" lon="6.910708593204618">
        <ele>582.700000000000045</ele>
        <time>2014-06-15T11:49:18Z</time>
      </trkpt>
      <trkpt lat="46.443946687504649" lon="6.910670371726155">
        <ele>583.17999999999995</ele>
        <time>2014-06-15T11:49:19Z</time>
      </trkpt>
      <trkpt lat="46.443970324471593" lon="6.91064715385437">
        <ele>583.17999999999995</ele>
        <time>2014-06-15T11:49:20Z</time>
      </trkpt>
      <trkpt lat="46.443997984752059" lon="6.910635586827993">
        <ele>583.17999999999995</ele>
        <time>2014-06-15T11:49:21Z</time>
      </trkpt>
      <trkpt lat="46.444026567041874" lon="6.91062469035387">
        <ele>583.17999999999995</ele>
        <time>2014-06-15T11:49:22Z</time>
      </trkpt>
      <trkpt lat="46.444051880389452" lon="6.910616056993604">
        <ele>583.659999999999968</ele>
        <time>2014-06-15T11:49:23Z</time>
      </trkpt>
      <trkpt lat="46.444072918966413" lon="6.910610273480415">
        <ele>583.659999999999968</ele>
        <time>2014-06-15T11:49:24Z</time>
      </trkpt>
      <trkpt lat="46.444088090211153" lon="6.910601891577244">
        <ele>584.139999999999986</ele>
        <time>2014-06-15T11:49:25Z</time>
      </trkpt>
      <trkpt lat="46.444105105474591" lon="6.910593593493104">
        <ele>584.139999999999986</ele>
        <time>2014-06-15T11:49:26Z</time>
      </trkpt>
      <trkpt lat="46.444120025262237" lon="6.910585798323154">
        <ele>584.620000000000005</ele>
        <time>2014-06-15T11:49:27Z</time>
      </trkpt>
      <trkpt lat="46.444135699421167" lon="6.910583283752203">
        <ele>584.620000000000005</ele>
        <time>2014-06-15T11:49:28Z</time>
      </trkpt>
      <trkpt lat="46.444152630865574" lon="6.910582613199949">
        <ele>585.100000000000023</ele>
        <time>2014-06-15T11:49:29Z</time>
      </trkpt>
      <trkpt lat="46.444167969748378" lon="6.910579679533839">
        <ele>585.100000000000023</ele>
        <time>2014-06-15T11:49:30Z</time>
      </trkpt>
      <trkpt lat="46.444183057174087" lon="6.910576494410634">
        <ele>585.100000000000023</ele>
        <time>2014-06-15T11:49:31Z</time>
      </trkpt>
      <trkpt lat="46.444197474047542" lon="6.910573979839683">
        <ele>585.100000000000023</ele>
        <time>2014-06-15T11:49:32Z</time>
      </trkpt>
      <trkpt lat="46.444213148206472" lon="6.910571046173573">
        <ele>585.580000000000041</ele>
        <time>2014-06-15T11:49:33Z</time>
      </trkpt>
      <trkpt lat="46.444228151813149" lon="6.910568363964558">
        <ele>585.580000000000041</ele>
        <time>2014-06-15T11:49:34Z</time>
      </trkpt>
      <trkpt lat="46.44424332305789" lon="6.910566436126828">
        <ele>586.059999999999945</ele>
        <time>2014-06-15T11:49:35Z</time>
      </trkpt>
      <trkpt lat="46.444254470989108" lon="6.91056115552783">
        <ele>586.059999999999945</ele>
        <time>2014-06-15T11:49:36Z</time>
      </trkpt>
      <trkpt lat="46.444343235343695" lon="6.910516479983926">
        <ele>586.539999999999964</ele>
        <time>2014-06-15T11:49:43Z</time>
      </trkpt>
      <trkpt lat="46.444356311112642" lon="6.910519413650036">
        <ele>586.539999999999964</ele>
        <time>2014-06-15T11:49:44Z</time>
      </trkpt>
      <trkpt lat="46.444541048258543" lon="6.910528549924493">
        <ele>590.870000000000005</ele>
        <time>2014-06-15T11:49:59Z</time>
      </trkpt>
      <trkpt lat="46.444771802052855" lon="6.910435762256384">
        <ele>596.149999999999977</ele>
        <time>2014-06-15T11:50:12Z</time>
      </trkpt>
      <trkpt lat="46.4450060762465" lon="6.910108616575599">
        <ele>599.039999999999964</ele>
        <time>2014-06-15T11:50:29Z</time>
      </trkpt>
      <trkpt lat="46.445259544998407" lon="6.909848609939218">
        <ele>600.480000000000018</ele>
        <time>2014-06-15T11:50:45Z</time>
      </trkpt>
      <trkpt lat="46.445633796975017" lon="6.909672254696488">
        <ele>602.879999999999995</ele>
        <time>2014-06-15T11:51:01Z</time>
      </trkpt>
      <trkpt lat="46.44604149274528" lon="6.909566977992654">
        <ele>604.809999999999945</ele>
        <time>2014-06-15T11:51:18Z</time>
      </trkpt>
      <trkpt lat="46.446274509653449" lon="6.909494725987315">
        <ele>606.25</ele>
        <time>2014-06-15T11:51:32Z</time>
      </trkpt>
      <trkpt lat="46.446469724178314" lon="6.909458851441741">
        <ele>607.690000000000055</ele>
        <time>2014-06-15T11:51:46Z</time>
      </trkpt>
      <trkpt lat="46.446854285895824" lon="6.909354664385319">
        <ele>609.129999999999995</ele>
        <time>2014-06-15T11:51:59Z</time>
      </trkpt>
      <trkpt lat="46.447346890345216" lon="6.909240754321218">
        <ele>611.059999999999945</ele>
        <time>2014-06-15T11:52:15Z</time>
      </trkpt>
      <trkpt lat="46.44789288751781" lon="6.909002456814051">
        <ele>612.5</ele>
        <time>2014-06-15T11:52:32Z</time>
      </trkpt>
      <trkpt lat="46.448571318760514" lon="6.908641615882516">
        <ele>613.940000000000055</ele>
        <time>2014-06-15T11:52:51Z</time>
      </trkpt>
      <trkpt lat="46.449176408350468" lon="6.9082763325423">
        <ele>615.860000000000014</ele>
        <time>2014-06-15T11:53:09Z</time>
      </trkpt>
      <trkpt lat="46.449569016695023" lon="6.908136354759336">
        <ele>618.75</ele>
        <time>2014-06-15T11:53:23Z</time>
      </trkpt>
      <trkpt lat="46.449845703318715" lon="6.908036777749658">
        <ele>621.629999999999995</ele>
        <time>2014-06-15T11:53:39Z</time>
      </trkpt>
      <trkpt lat="46.450167652219534" lon="6.907983887940645">
        <ele>626.440000000000055</ele>
        <time>2014-06-15T11:53:59Z</time>
      </trkpt>
      <trkpt lat="46.45037560723722" lon="6.907985061407089">
        <ele>628.840000000000032</ele>
        <time>2014-06-15T11:54:13Z</time>
      </trkpt>
      <trkpt lat="46.450656149536371" lon="6.907955221831799">
        <ele>631.720000000000027</ele>
        <time>2014-06-15T11:54:31Z</time>
      </trkpt>
      <trkpt lat="46.450867624953389" lon="6.907918509095907">
        <ele>633.169999999999959</ele>
        <time>2014-06-15T11:54:46Z</time>
      </trkpt>
      <trkpt lat="46.450882880017161" lon="6.907920436933637">
        <ele>633.169999999999959</ele>
        <time>2014-06-15T11:54:47Z</time>
      </trkpt>
      <trkpt lat="46.450897380709648" lon="6.907917084172368">
        <ele>633.649999999999977</ele>
        <time>2014-06-15T11:54:48Z</time>
      </trkpt>
      <trkpt lat="46.450911797583103" lon="6.907914150506258">
        <ele>633.649999999999977</ele>
        <time>2014-06-15T11:54:49Z</time>
      </trkpt>
      <trkpt lat="46.450927807018161" lon="6.907913060858846">
        <ele>634.129999999999995</ele>
        <time>2014-06-15T11:54:50Z</time>
      </trkpt>
      <trkpt lat="46.450942810624838" lon="6.907911216840148">
        <ele>634.129999999999995</ele>
        <time>2014-06-15T11:54:51Z</time>
      </trkpt>
      <trkpt lat="46.450956808403134" lon="6.907909540459514">
        <ele>634.129999999999995</ele>
        <time>2014-06-15T11:54:52Z</time>
      </trkpt>
      <trkpt lat="46.450971979647875" lon="6.907906522974372">
        <ele>634.129999999999995</ele>
        <time>2014-06-15T11:54:53Z</time>
      </trkpt>
      <trkpt lat="46.450988324359059" lon="6.907902415841818">
        <ele>634.610000000000014</ele>
        <time>2014-06-15T11:54:54Z</time>
      </trkpt>
      <trkpt lat="46.451102150604129" lon="6.907885065302253">
        <ele>636.529999999999973</ele>
        <time>2014-06-15T11:55:02Z</time>
      </trkpt>
      <trkpt lat="46.451116232201457" lon="6.907879868522286">
        <ele>637.009999999999991</ele>
        <time>2014-06-15T11:55:03Z</time>
      </trkpt>
      <trkpt lat="46.451129894703627" lon="6.907876348122954">
        <ele>637.009999999999991</ele>
        <time>2014-06-15T11:55:04Z</time>
      </trkpt>
      <trkpt lat="46.451382944360375" lon="6.907827565446496">
        <ele>639.889999999999986</ele>
        <time>2014-06-15T11:55:21Z</time>
      </trkpt>
      <trkpt lat="46.451684441417456" lon="6.907780710607767">
        <ele>643.259999999999991</ele>
        <time>2014-06-15T11:55:42Z</time>
      </trkpt>
      <trkpt lat="46.452003289014101" lon="6.907729497179389">
        <ele>646.620000000000005</ele>
        <time>2014-06-15T11:56:04Z</time>
      </trkpt>
      <trkpt lat="46.452244184911251" lon="6.907672835513949">
        <ele>650.470000000000027</ele>
        <time>2014-06-15T11:56:21Z</time>
      </trkpt>
      <trkpt lat="46.45251240581274" lon="6.907639978453517">
        <ele>652.870000000000005</ele>
        <time>2014-06-15T11:56:39Z</time>
      </trkpt>
      <trkpt lat="46.452747266739607" lon="6.907592704519629">
        <ele>655.279999999999973</ele>
        <time>2014-06-15T11:56:55Z</time>
      </trkpt>
      <trkpt lat="46.452980367466807" lon="6.907549872994423">
        <ele>657.67999999999995</ele>
        <time>2014-06-15T11:57:11Z</time>
      </trkpt>
      <trkpt lat="46.453052451834083" lon="6.907538138329983">
        <ele>658.639999999999986</ele>
        <time>2014-06-15T11:57:16Z</time>
      </trkpt>
      <trkpt lat="46.453067036345601" lon="6.90753118135035">
        <ele>659.120000000000005</ele>
        <time>2014-06-15T11:57:17Z</time>
      </trkpt>
      <trkpt lat="46.453081537038088" lon="6.907529588788748">
        <ele>659.120000000000005</ele>
        <time>2014-06-15T11:57:18Z</time>
      </trkpt>
      <trkpt lat="46.453096205368638" lon="6.907528499141335">
        <ele>659.600000000000023</ele>
        <time>2014-06-15T11:57:19Z</time>
      </trkpt>
      <trkpt lat="46.453109364956617" lon="6.907528163865209">
        <ele>659.600000000000023</ele>
        <time>2014-06-15T11:57:20Z</time>
      </trkpt>
      <trkpt lat="46.453360905870795" lon="6.90751114860177">
        <ele>662.490000000000009</ele>
        <time>2014-06-15T11:57:37Z</time>
      </trkpt>
      <trkpt lat="46.453565089032054" lon="6.907504359260201">
        <ele>663.92999999999995</ele>
        <time>2014-06-15T11:57:50Z</time>
      </trkpt>
      <trkpt lat="46.453876812011003" lon="6.907512322068214">
        <ele>669.220000000000027</ele>
        <time>2014-06-15T11:58:06Z</time>
      </trkpt>
      <trkpt lat="46.454219464212656" lon="6.907469993457198">
        <ele>674.019999999999982</ele>
        <time>2014-06-15T11:58:22Z</time>
      </trkpt>
      <trkpt lat="46.454415014013648" lon="6.907505616545677">
        <ele>675.940000000000055</ele>
        <time>2014-06-15T11:58:36Z</time>
      </trkpt>
      <trkpt lat="46.454451810568571" lon="6.907637380063534">
        <ele>677.870000000000005</ele>
        <time>2014-06-15T11:58:44Z</time>
      </trkpt>
      <trkpt lat="46.454279478639364" lon="6.90776620991528">
        <ele>678.830000000000041</ele>
        <time>2014-06-15T11:58:59Z</time>
      </trkpt>
      <trkpt lat="46.45401737652719" lon="6.90787810832262">
        <ele>681.230000000000018</ele>
        <time>2014-06-15T11:59:17Z</time>
      </trkpt>
      <trkpt lat="46.453810594975948" lon="6.908050691708922">
        <ele>683.629999999999995</ele>
        <time>2014-06-15T11:59:33Z</time>
      </trkpt>
      <trkpt lat="46.453693751245737" lon="6.908337436616421">
        <ele>685.559999999999945</ele>
        <time>2014-06-15T11:59:49Z</time>
      </trkpt>
      <trkpt lat="46.453758291900158" lon="6.908452352508903">
        <ele>687</ele>
        <time>2014-06-15T11:59:56Z</time>
      </trkpt>
      <trkpt lat="46.453770194202662" lon="6.908463668078184">
        <ele>687.480000000000018</ele>
        <time>2014-06-15T11:59:57Z</time>
      </trkpt>
      <trkpt lat="46.453783689066768" lon="6.908472971990705">
        <ele>687.480000000000018</ele>
        <time>2014-06-15T11:59:58Z</time>
      </trkpt>
      <trkpt lat="46.453796764835715" lon="6.9084800966084">
        <ele>687.960000000000036</ele>
        <time>2014-06-15T11:59:59Z</time>
      </trkpt>
      <trkpt lat="46.453810343518853" lon="6.908486299216747">
        <ele>687.960000000000036</ele>
        <time>2014-06-15T12:00:00Z</time>
      </trkpt>
      <trkpt lat="46.453822245821357" lon="6.908489232882857">
        <ele>688.440000000000055</ele>
        <time>2014-06-15T12:00:01Z</time>
      </trkpt>
      <trkpt lat="46.453834567219019" lon="6.908489651978016">
        <ele>688.919999999999959</ele>
        <time>2014-06-15T12:00:02Z</time>
      </trkpt>
      <trkpt lat="46.454096836969256" lon="6.908431816846132">
        <ele>691.809999999999945</ele>
        <time>2014-06-15T12:00:19Z</time>
      </trkpt>
      <trkpt lat="46.454112259671092" lon="6.908429218456149">
        <ele>691.809999999999945</ele>
        <time>2014-06-15T12:00:20Z</time>
      </trkpt>
      <trkpt lat="46.454127514734864" lon="6.908430308103561">
        <ele>691.809999999999945</ele>
        <time>2014-06-15T12:00:21Z</time>
      </trkpt>
      <trkpt lat="46.45436329767108" lon="6.908451681956649">
        <ele>694.690000000000055</ele>
        <time>2014-06-15T12:00:37Z</time>
      </trkpt>
      <trkpt lat="46.454590279608965" lon="6.90848152153194">
        <ele>697.57000000000005</ele>
        <time>2014-06-15T12:00:53Z</time>
      </trkpt>
      <trkpt lat="46.454813573509455" lon="6.908470038324594">
        <ele>700.940000000000055</ele>
        <time>2014-06-15T12:01:07Z</time>
      </trkpt>
      <trkpt lat="46.455262089148164" lon="6.908547906205058">
        <ele>703.340000000000032</ele>
        <time>2014-06-15T12:01:26Z</time>
      </trkpt>
      <trkpt lat="46.455709850415587" lon="6.90864915959537">
        <ele>705.259999999999991</ele>
        <time>2014-06-15T12:01:45Z</time>
      </trkpt>
      <trkpt lat="46.456143194809556" lon="6.908922577276826">
        <ele>707.669999999999959</ele>
        <time>2014-06-15T12:02:05Z</time>
      </trkpt>
      <trkpt lat="46.456521973013878" lon="6.909223822876811">
        <ele>711.029999999999973</ele>
        <time>2014-06-15T12:02:24Z</time>
      </trkpt>
      <trkpt lat="46.456827241927385" lon="6.909509059041739">
        <ele>714.399999999999977</ele>
        <time>2014-06-15T12:02:43Z</time>
      </trkpt>
      <trkpt lat="46.457048105075955" lon="6.909717349335551">
        <ele>717.279999999999973</ele>
        <time>2014-06-15T12:02:58Z</time>
      </trkpt>
      <trkpt lat="46.457086494192481" lon="6.910044411197305">
        <ele>719.67999999999995</ele>
        <time>2014-06-15T12:03:15Z</time>
      </trkpt>
      <trkpt lat="46.456992365419865" lon="6.910406006500125">
        <ele>721.610000000000014</ele>
        <time>2014-06-15T12:03:34Z</time>
      </trkpt>
      <trkpt lat="46.457092026248574" lon="6.91071605309844">
        <ele>724.009999999999991</ele>
        <time>2014-06-15T12:03:49Z</time>
      </trkpt>
      <trkpt lat="46.457188250496984" lon="6.911002211272717">
        <ele>726.409999999999968</ele>
        <time>2014-06-15T12:04:04Z</time>
      </trkpt>
      <trkpt lat="46.457256563007832" lon="6.91140160895884">
        <ele>731.220000000000027</ele>
        <time>2014-06-15T12:04:25Z</time>
      </trkpt>
      <trkpt lat="46.457316745072603" lon="6.911698076874018">
        <ele>734.580000000000041</ele>
        <time>2014-06-15T12:04:41Z</time>
      </trkpt>
      <trkpt lat="46.457404587417841" lon="6.912053804844618">
        <ele>738.42999999999995</ele>
        <time>2014-06-15T12:05:00Z</time>
      </trkpt>
      <trkpt lat="46.45739184692502" lon="6.91244431771338">
        <ele>741.309999999999945</ele>
        <time>2014-06-15T12:05:19Z</time>
      </trkpt>
      <trkpt lat="46.45739084109664" lon="6.912801135331392">
        <ele>744.67999999999995</ele>
        <time>2014-06-15T12:05:36Z</time>
      </trkpt>
      <trkpt lat="46.457429314032197" lon="6.913104057312012">
        <ele>749.490000000000009</ele>
        <time>2014-06-15T12:05:51Z</time>
      </trkpt>
      <trkpt lat="46.457479102537036" lon="6.913452241569757">
        <ele>755.730000000000018</ele>
        <time>2014-06-15T12:06:11Z</time>
      </trkpt>
      <trkpt lat="46.457493351772428" lon="6.913519715890288">
        <ele>756.210000000000036</ele>
        <time>2014-06-15T12:06:15Z</time>
      </trkpt>
      <trkpt lat="46.457501146942377" lon="6.913532959297299">
        <ele>756.210000000000036</ele>
        <time>2014-06-15T12:06:16Z</time>
      </trkpt>
      <trkpt lat="46.457509780302644" lon="6.913546957075596">
        <ele>756.690000000000055</ele>
        <time>2014-06-15T12:06:17Z</time>
      </trkpt>
      <trkpt lat="46.457650596275926" lon="6.913766311481595">
        <ele>762.460000000000036</ele>
        <time>2014-06-15T12:06:33Z</time>
      </trkpt>
      <trkpt lat="46.457783868536353" lon="6.913957167416811">
        <ele>765.830000000000041</ele>
        <time>2014-06-15T12:06:48Z</time>
      </trkpt>
      <trkpt lat="46.457936335355043" lon="6.914218934252858">
        <ele>771.600000000000023</ele>
        <time>2014-06-15T12:07:08Z</time>
      </trkpt>
      <trkpt lat="46.457976065576077" lon="6.914276015013456">
        <ele>773.519999999999982</ele>
        <time>2014-06-15T12:07:13Z</time>
      </trkpt>
      <trkpt lat="46.45813163369894" lon="6.914512133225799">
        <ele>777.840000000000032</ele>
        <time>2014-06-15T12:07:32Z</time>
      </trkpt>
      <trkpt lat="46.458316622301936" lon="6.914663007482886">
        <ele>781.210000000000036</ele>
        <time>2014-06-15T12:07:49Z</time>
      </trkpt>
      <trkpt lat="46.458503035828471" lon="6.914793262258172">
        <ele>783.129999999999995</ele>
        <time>2014-06-15T12:08:05Z</time>
      </trkpt>
      <trkpt lat="46.45872825756669" lon="6.914920834824443">
        <ele>783.610000000000014</ele>
        <time>2014-06-15T12:08:21Z</time>
      </trkpt>
      <trkpt lat="46.458799336105585" lon="6.91491924226284">
        <ele>786.019999999999982</ele>
        <time>2014-06-15T12:08:33Z</time>
      </trkpt>
      <trkpt lat="46.458799839019775" lon="6.914848247542977">
        <ele>785.049999999999955</ele>
        <time>2014-06-15T12:09:04Z</time>
      </trkpt>
      <trkpt lat="46.458800928667188" lon="6.914839949458838">
        <ele>788.419999999999959</ele>
        <time>2014-06-15T12:09:32Z</time>
      </trkpt>
      <trkpt lat="46.458809645846486" lon="6.914863167330623">
        <ele>787.940000000000055</ele>
        <time>2014-06-15T12:09:48Z</time>
      </trkpt>
      <trkpt lat="46.459025898948312" lon="6.91502426750958">
        <ele>788.899999999999977</ele>
        <time>2014-06-15T12:10:02Z</time>
      </trkpt>
      <trkpt lat="46.459218682721257" lon="6.915238844230771">
        <ele>790.82000000000005</ele>
        <time>2014-06-15T12:10:15Z</time>
      </trkpt>
      <trkpt lat="46.45930577069521" lon="6.915387371554971">
        <ele>796.110000000000014</ele>
        <time>2014-06-15T12:10:27Z</time>
      </trkpt>
      <trkpt lat="46.459343237802386" lon="6.915478063747287">
        <ele>798.509999999999991</ele>
        <time>2014-06-15T12:10:33Z</time>
      </trkpt>
      <trkpt lat="46.45938933826983" lon="6.915548974648118">
        <ele>801.879999999999995</ele>
        <time>2014-06-15T12:10:39Z</time>
      </trkpt>
      <trkpt lat="46.459471564739943" lon="6.915578059852123">
        <ele>805.720000000000027</ele>
        <time>2014-06-15T12:10:47Z</time>
      </trkpt>
      <trkpt lat="46.459632581099868" lon="6.915640085935593">
        <ele>814.370000000000005</ele>
        <time>2014-06-15T12:11:00Z</time>
      </trkpt>
      <trkpt lat="46.459820587188005" lon="6.915649138391018">
        <ele>821.580000000000041</ele>
        <time>2014-06-15T12:11:14Z</time>
      </trkpt>
      <trkpt lat="46.459847828373313" lon="6.915654754266143">
        <ele>822.059999999999945</ele>
        <time>2014-06-15T12:11:16Z</time>
      </trkpt>
      <trkpt lat="46.460089394822717" lon="6.915846699848771">
        <ele>823.990000000000009</ele>
        <time>2014-06-15T12:11:26Z</time>
      </trkpt>
      <trkpt lat="46.460130466148257" lon="6.915875617414713">
        <ele>823.990000000000009</ele>
        <time>2014-06-15T12:11:27Z</time>
      </trkpt>
      <trkpt lat="46.460167011246085" lon="6.915908893570304">
        <ele>823.990000000000009</ele>
        <time>2014-06-15T12:11:28Z</time>
      </trkpt>
      <trkpt lat="46.460203807801008" lon="6.915960777550936">
        <ele>824.470000000000027</ele>
        <time>2014-06-15T12:11:29Z</time>
      </trkpt>
      <trkpt lat="46.460240101441741" lon="6.916019031777978">
        <ele>824.470000000000027</ele>
        <time>2014-06-15T12:11:30Z</time>
      </trkpt>
      <trkpt lat="46.460276646539569" lon="6.916083069518209">
        <ele>824.470000000000027</ele>
        <time>2014-06-15T12:11:31Z</time>
      </trkpt>
      <trkpt lat="46.460299780592322" lon="6.916156159713864">
        <ele>823.990000000000009</ele>
        <time>2014-06-15T12:11:32Z</time>
      </trkpt>
      <trkpt lat="46.460304642096162" lon="6.916229669004679">
        <ele>823.509999999999991</ele>
        <time>2014-06-15T12:11:33Z</time>
      </trkpt>
      <trkpt lat="46.460294080898166" lon="6.916305106133223">
        <ele>823.029999999999973</ele>
        <time>2014-06-15T12:11:34Z</time>
      </trkpt>
      <trkpt lat="46.460276143625379" lon="6.916381046175957">
        <ele>822.549999999999955</ele>
        <time>2014-06-15T12:11:35Z</time>
      </trkpt>
      <trkpt lat="46.460260720923543" lon="6.916456399485469">
        <ele>822.059999999999945</ele>
        <time>2014-06-15T12:11:36Z</time>
      </trkpt>
      <trkpt lat="46.460249992087483" lon="6.916534351184964">
        <ele>822.059999999999945</ele>
        <time>2014-06-15T12:11:37Z</time>
      </trkpt>
      <trkpt lat="46.460243621841073" lon="6.916619343683124">
        <ele>822.059999999999945</ele>
        <time>2014-06-15T12:11:38Z</time>
      </trkpt>
      <trkpt lat="46.46024496294558" lon="6.916716489940882">
        <ele>821.580000000000041</ele>
        <time>2014-06-15T12:11:39Z</time>
      </trkpt>
      <trkpt lat="46.460256110876799" lon="6.916817827150226">
        <ele>821.100000000000023</ele>
        <time>2014-06-15T12:11:40Z</time>
      </trkpt>
      <trkpt lat="46.460277317091823" lon="6.916913548484445">
        <ele>820.620000000000005</ele>
        <time>2014-06-15T12:11:41Z</time>
      </trkpt>
      <trkpt lat="46.460308916866779" lon="6.916994182392955">
        <ele>820.139999999999986</ele>
        <time>2014-06-15T12:11:42Z</time>
      </trkpt>
      <trkpt lat="46.460357531905174" lon="6.917048748582602">
        <ele>820.139999999999986</ele>
        <time>2014-06-15T12:11:43Z</time>
      </trkpt>
      <trkpt lat="46.460425760596991" lon="6.917110020294785">
        <ele>819.659999999999968</ele>
        <time>2014-06-15T12:11:44Z</time>
      </trkpt>
      <trkpt lat="46.460496000945568" lon="6.917168274521828">
        <ele>818.700000000000045</ele>
        <time>2014-06-15T12:11:45Z</time>
      </trkpt>
      <trkpt lat="46.460556602105498" lon="6.91724949516356">
        <ele>817.740000000000009</ele>
        <time>2014-06-15T12:11:46Z</time>
      </trkpt>
      <trkpt lat="46.460607228800654" lon="6.917348904535174">
        <ele>816.779999999999973</ele>
        <time>2014-06-15T12:11:47Z</time>
      </trkpt>
      <trkpt lat="46.460658274590969" lon="6.91744688898325">
        <ele>815.82000000000005</ele>
        <time>2014-06-15T12:11:48Z</time>
      </trkpt>
      <trkpt lat="46.46071644499898" lon="6.917527439072728">
        <ele>814.850000000000023</ele>
        <time>2014-06-15T12:11:49Z</time>
      </trkpt>
      <trkpt lat="46.460778554901481" lon="6.917588962242007">
        <ele>813.889999999999986</ele>
        <time>2014-06-15T12:11:50Z</time>
      </trkpt>
      <trkpt lat="46.460845274850726" lon="6.917641600593925">
        <ele>813.409999999999968</ele>
        <time>2014-06-15T12:11:51Z</time>
      </trkpt>
      <trkpt lat="46.46091484464705" lon="6.917693400755525">
        <ele>811.970000000000027</ele>
        <time>2014-06-15T12:11:52Z</time>
      </trkpt>
      <trkpt lat="46.461152890697122" lon="6.917854668572545">
        <ele>809.090000000000032</ele>
        <time>2014-06-15T12:11:56Z</time>
      </trkpt>
      <trkpt lat="46.461201505735517" lon="6.917907223105431">
        <ele>808.610000000000014</ele>
        <time>2014-06-15T12:11:57Z</time>
      </trkpt>
      <trkpt lat="46.461243415251374" lon="6.917968913912773">
        <ele>808.129999999999995</ele>
        <time>2014-06-15T12:11:58Z</time>
      </trkpt>
      <trkpt lat="46.46138439886272" lon="6.918272003531456">
        <ele>810.049999999999955</ele>
        <time>2014-06-15T12:12:06Z</time>
      </trkpt>
      <trkpt lat="46.461415244266391" lon="6.918441988527775">
        <ele>813.409999999999968</ele>
        <time>2014-06-15T12:12:12Z</time>
      </trkpt>
      <trkpt lat="46.461425051093102" lon="6.918466044589877">
        <ele>813.409999999999968</ele>
        <time>2014-06-15T12:12:13Z</time>
      </trkpt>
      <trkpt lat="46.461434103548527" lon="6.918491693213582">
        <ele>813.889999999999986</ele>
        <time>2014-06-15T12:12:14Z</time>
      </trkpt>
      <trkpt lat="46.461598053574562" lon="6.91877257078886">
        <ele>817.740000000000009</ele>
        <time>2014-06-15T12:12:28Z</time>
      </trkpt>
      <trkpt lat="46.461690254509449" lon="6.918877176940441">
        <ele>820.620000000000005</ele>
        <time>2014-06-15T12:12:35Z</time>
      </trkpt>
      <trkpt lat="46.461883541196585" lon="6.919203987345099">
        <ele>821.580000000000041</ele>
        <time>2014-06-15T12:12:48Z</time>
      </trkpt>
      <trkpt lat="46.461905334144831" lon="6.919609336182475">
        <ele>817.740000000000009</ele>
        <time>2014-06-15T12:13:02Z</time>
      </trkpt>
      <trkpt lat="46.461860155686736" lon="6.919684102758765">
        <ele>815.340000000000032</ele>
        <time>2014-06-15T12:13:07Z</time>
      </trkpt>
      <trkpt lat="46.461816066876054" lon="6.919877305626869">
        <ele>811.009999999999991</ele>
        <time>2014-06-15T12:13:15Z</time>
      </trkpt>
      <trkpt lat="46.461804248392582" lon="6.919979061931372">
        <ele>809.57000000000005</ele>
        <time>2014-06-15T12:13:18Z</time>
      </trkpt>
      <trkpt lat="46.461819251999259" lon="6.920121219009161">
        <ele>808.610000000000014</ele>
        <time>2014-06-15T12:13:23Z</time>
      </trkpt>
      <trkpt lat="46.46196979098022" lon="6.920496812090278">
        <ele>812.450000000000045</ele>
        <time>2014-06-15T12:13:34Z</time>
      </trkpt>
      <trkpt lat="46.462287465110421" lon="6.921082707121968">
        <ele>819.17999999999995</ele>
        <time>2014-06-15T12:13:46Z</time>
      </trkpt>
      <trkpt lat="46.462367177009583" lon="6.921256715431809">
        <ele>823.509999999999991</ele>
        <time>2014-06-15T12:13:51Z</time>
      </trkpt>
      <trkpt lat="46.462369272485375" lon="6.921307342126966">
        <ele>823.509999999999991</ele>
        <time>2014-06-15T12:13:52Z</time>
      </trkpt>
      <trkpt lat="46.462362818419933" lon="6.921345144510269">
        <ele>823.509999999999991</ele>
        <time>2014-06-15T12:13:53Z</time>
      </trkpt>
      <trkpt lat="46.462328536435962" lon="6.921485122293234">
        <ele>823.029999999999973</ele>
        <time>2014-06-15T12:13:57Z</time>
      </trkpt>
      <trkpt lat="46.462334655225277" lon="6.921576485037804">
        <ele>822.549999999999955</ele>
        <time>2014-06-15T12:14:00Z</time>
      </trkpt>
      <trkpt lat="46.4624681789428" lon="6.921839257702231">
        <ele>824.470000000000027</ele>
        <time>2014-06-15T12:14:12Z</time>
      </trkpt>
      <trkpt lat="46.462533725425601" lon="6.921881334856153">
        <ele>823.990000000000009</ele>
        <time>2014-06-15T12:14:23Z</time>
      </trkpt>
      <trkpt lat="46.462604636326432" lon="6.921914611011744">
        <ele>820.620000000000005</ele>
        <time>2014-06-15T12:14:32Z</time>
      </trkpt>
      <trkpt lat="46.462679570540786" lon="6.921954927965999">
        <ele>819.17999999999995</ele>
        <time>2014-06-15T12:14:36Z</time>
      </trkpt>
      <trkpt lat="46.462740423157811" lon="6.922015612944961">
        <ele>819.659999999999968</ele>
        <time>2014-06-15T12:14:41Z</time>
      </trkpt>
      <trkpt lat="46.462756432592869" lon="6.922020558267832">
        <ele>820.139999999999986</ele>
        <time>2014-06-15T12:14:42Z</time>
      </trkpt>
      <trkpt lat="46.462964890524745" lon="6.922052493318915">
        <ele>817.259999999999991</ele>
        <time>2014-06-15T12:14:53Z</time>
      </trkpt>
      <trkpt lat="46.463000429794192" lon="6.922048386186361">
        <ele>817.259999999999991</ele>
        <time>2014-06-15T12:14:55Z</time>
      </trkpt>
      <trkpt lat="46.463055415078998" lon="6.922050062566996">
        <ele>818.220000000000027</ele>
        <time>2014-06-15T12:15:04Z</time>
      </trkpt>
      <trkpt lat="46.463107299059629" lon="6.921983174979687">
        <ele>821.100000000000023</ele>
        <time>2014-06-15T12:15:14Z</time>
      </trkpt>
      <trkpt lat="46.463099671527743" lon="6.921884687617421">
        <ele>823.990000000000009</ele>
        <time>2014-06-15T12:15:26Z</time>
      </trkpt>
      <trkpt lat="46.463086763396859" lon="6.921680336818099">
        <ele>829.269999999999982</ele>
        <time>2014-06-15T12:15:36Z</time>
      </trkpt>
      <trkpt lat="46.463123643770814" lon="6.921560307964683">
        <ele>832.159999999999968</ele>
        <time>2014-06-15T12:15:49Z</time>
      </trkpt>
      <trkpt lat="46.463131858035922" lon="6.921502389013767">
        <ele>833.120000000000005</ele>
        <time>2014-06-15T12:15:53Z</time>
      </trkpt>
      <trkpt lat="46.463125236332417" lon="6.921364506706595">
        <ele>833.600000000000023</ele>
        <time>2014-06-15T12:16:00Z</time>
      </trkpt>
      <trkpt lat="46.463129930198193" lon="6.92133542150259">
        <ele>834.080000000000041</ele>
        <time>2014-06-15T12:16:01Z</time>
      </trkpt>
      <trkpt lat="46.463174186646938" lon="6.921126041561365">
        <ele>836</ele>
        <time>2014-06-15T12:16:08Z</time>
      </trkpt>
      <trkpt lat="46.46323973312974" lon="6.920914817601442">
        <ele>835.039999999999964</ele>
        <time>2014-06-15T12:16:13Z</time>
      </trkpt>
      <trkpt lat="46.463248617947102" lon="6.92084826529026">
        <ele>835.039999999999964</ele>
        <time>2014-06-15T12:16:14Z</time>
      </trkpt>
      <trkpt lat="46.463256748393178" lon="6.920792944729328">
        <ele>835.039999999999964</ele>
        <time>2014-06-15T12:16:15Z</time>
      </trkpt>
      <trkpt lat="46.463272171095014" lon="6.920745000243187">
        <ele>835.039999999999964</ele>
        <time>2014-06-15T12:16:16Z</time>
      </trkpt>
      <trkpt lat="46.463286504149437" lon="6.920705521479249">
        <ele>835.519999999999982</ele>
        <time>2014-06-15T12:16:17Z</time>
      </trkpt>
      <trkpt lat="46.463297819718719" lon="6.920667802914977">
        <ele>836.480000000000018</ele>
        <time>2014-06-15T12:16:18Z</time>
      </trkpt>
      <trkpt lat="46.463304106146097" lon="6.920625558122993">
        <ele>837.450000000000045</ele>
        <time>2014-06-15T12:16:19Z</time>
      </trkpt>
      <trkpt lat="46.463376106694341" lon="6.920079896226525">
        <ele>834.559999999999945</ele>
        <time>2014-06-15T12:16:29Z</time>
      </trkpt>
      <trkpt lat="46.463407455012202" lon="6.919980151578784">
        <ele>833.120000000000005</ele>
        <time>2014-06-15T12:16:32Z</time>
      </trkpt>
      <trkpt lat="46.463460931554437" lon="6.919676559045911">
        <ele>831.200000000000045</ele>
        <time>2014-06-15T12:16:44Z</time>
      </trkpt>
      <trkpt lat="46.463465206325054" lon="6.919492157176137">
        <ele>835.519999999999982</ele>
        <time>2014-06-15T12:16:53Z</time>
      </trkpt>
      <trkpt lat="46.463467553257942" lon="6.919466592371464">
        <ele>835.519999999999982</ele>
        <time>2014-06-15T12:16:54Z</time>
      </trkpt>
      <trkpt lat="46.463470906019211" lon="6.919444380328059">
        <ele>835.519999999999982</ele>
        <time>2014-06-15T12:16:55Z</time>
      </trkpt>
      <trkpt lat="46.463482473045588" lon="6.919175907969475">
        <ele>835.519999999999982</ele>
        <time>2014-06-15T12:17:06Z</time>
      </trkpt>
      <trkpt lat="46.463485658168793" lon="6.919150175526738">
        <ele>835.519999999999982</ele>
        <time>2014-06-15T12:17:07Z</time>
      </trkpt>
      <trkpt lat="46.463488005101681" lon="6.919123688712716">
        <ele>836</ele>
        <time>2014-06-15T12:17:08Z</time>
      </trkpt>
      <trkpt lat="46.463493704795837" lon="6.919095274060965">
        <ele>836</ele>
        <time>2014-06-15T12:17:09Z</time>
      </trkpt>
      <trkpt lat="46.463502002879977" lon="6.919052945449948">
        <ele>836</ele>
        <time>2014-06-15T12:17:10Z</time>
      </trkpt>
      <trkpt lat="46.463512815535069" lon="6.918990332633257">
        <ele>836</ele>
        <time>2014-06-15T12:17:11Z</time>
      </trkpt>
      <trkpt lat="46.463582804426551" lon="6.918396223336458">
        <ele>839.370000000000005</ele>
        <time>2014-06-15T12:17:19Z</time>
      </trkpt>
      <trkpt lat="46.463571153581142" lon="6.918192123994231">
        <ele>839.850000000000023</ele>
        <time>2014-06-15T12:17:23Z</time>
      </trkpt>
      <trkpt lat="46.463552378118038" lon="6.918133618310094">
        <ele>839.850000000000023</ele>
        <time>2014-06-15T12:17:24Z</time>
      </trkpt>
      <trkpt lat="46.463448274880648" lon="6.917806472629309">
        <ele>837.92999999999995</ele>
        <time>2014-06-15T12:17:28Z</time>
      </trkpt>
      <trkpt lat="46.463425811380148" lon="6.917700860649347">
        <ele>836.960000000000036</ele>
        <time>2014-06-15T12:17:29Z</time>
      </trkpt>
      <trkpt lat="46.463412651792169" lon="6.917599691078067">
        <ele>835.519999999999982</ele>
        <time>2014-06-15T12:17:30Z</time>
      </trkpt>
      <trkpt lat="46.463408879935741" lon="6.917509501799941">
        <ele>834.080000000000041</ele>
        <time>2014-06-15T12:17:31Z</time>
      </trkpt>
      <trkpt lat="46.463410053402185" lon="6.917424676939845">
        <ele>832.639999999999986</ele>
        <time>2014-06-15T12:17:32Z</time>
      </trkpt>
      <trkpt lat="46.463415501639247" lon="6.917332224547863">
        <ele>830.240000000000009</ele>
        <time>2014-06-15T12:17:33Z</time>
      </trkpt>
      <trkpt lat="46.463430086150765" lon="6.917220409959555">
        <ele>827.350000000000023</ele>
        <time>2014-06-15T12:17:34Z</time>
      </trkpt>
      <trkpt lat="46.463444838300347" lon="6.91710096783936">
        <ele>824.470000000000027</ele>
        <time>2014-06-15T12:17:35Z</time>
      </trkpt>
      <trkpt lat="46.463452214375138" lon="6.916978508234024">
        <ele>822.059999999999945</ele>
        <time>2014-06-15T12:17:36Z</time>
      </trkpt>
      <trkpt lat="46.463450537994504" lon="6.916855126619339">
        <ele>819.17999999999995</ele>
        <time>2014-06-15T12:17:37Z</time>
      </trkpt>
      <trkpt lat="46.46344006061554" lon="6.916750771924853">
        <ele>817.740000000000009</ele>
        <time>2014-06-15T12:17:38Z</time>
      </trkpt>
      <trkpt lat="46.463415417820215" lon="6.916662761941552">
        <ele>816.299999999999955</ele>
        <time>2014-06-15T12:17:39Z</time>
      </trkpt>
      <trkpt lat="46.463379124179482" lon="6.916603585705161">
        <ele>814.850000000000023</ele>
        <time>2014-06-15T12:17:40Z</time>
      </trkpt>
      <trkpt lat="46.463345345109701" lon="6.916545247659087">
        <ele>812.92999999999995</ele>
        <time>2014-06-15T12:17:41Z</time>
      </trkpt>
      <trkpt lat="46.463319528847933" lon="6.916485065594316">
        <ele>811.009999999999991</ele>
        <time>2014-06-15T12:17:42Z</time>
      </trkpt>
      <trkpt lat="46.463303016498685" lon="6.91642614081502">
        <ele>810.049999999999955</ele>
        <time>2014-06-15T12:17:43Z</time>
      </trkpt>
      <trkpt lat="46.46329790353775" lon="6.916339807212353">
        <ele>808.129999999999995</ele>
        <time>2014-06-15T12:17:44Z</time>
      </trkpt>
      <trkpt lat="46.46330326795578" lon="6.916245007887483">
        <ele>805.720000000000027</ele>
        <time>2014-06-15T12:17:45Z</time>
      </trkpt>
      <trkpt lat="46.46331399679184" lon="6.916153142228723">
        <ele>803.799999999999955</ele>
        <time>2014-06-15T12:17:46Z</time>
      </trkpt>
      <trkpt lat="46.463332772254944" lon="6.916063874959946">
        <ele>802.840000000000032</ele>
        <time>2014-06-15T12:17:47Z</time>
      </trkpt>
      <trkpt lat="46.463356744498014" lon="6.915978463366628">
        <ele>801.879999999999995</ele>
        <time>2014-06-15T12:17:48Z</time>
      </trkpt>
      <trkpt lat="46.463496638461947" lon="6.915301373228431">
        <ele>797.549999999999955</ele>
        <time>2014-06-15T12:17:56Z</time>
      </trkpt>
      <trkpt lat="46.463508289307356" lon="6.915212105959654">
        <ele>797.07000000000005</ele>
        <time>2014-06-15T12:17:57Z</time>
      </trkpt>
      <trkpt lat="46.463513150811195" lon="6.915117474272847">
        <ele>796.590000000000032</ele>
        <time>2014-06-15T12:17:58Z</time>
      </trkpt>
      <trkpt lat="46.463512312620878" lon="6.915034158155322">
        <ele>796.110000000000014</ele>
        <time>2014-06-15T12:17:59Z</time>
      </trkpt>
      <trkpt lat="46.463509798049927" lon="6.914951512590051">
        <ele>796.110000000000014</ele>
        <time>2014-06-15T12:18:00Z</time>
      </trkpt>
      <trkpt lat="46.463510803878307" lon="6.914880936965346">
        <ele>795.629999999999995</ele>
        <time>2014-06-15T12:18:01Z</time>
      </trkpt>
      <trkpt lat="46.463515497744083" lon="6.914814887568355">
        <ele>795.629999999999995</ele>
        <time>2014-06-15T12:18:02Z</time>
      </trkpt>
      <trkpt lat="46.463521867990494" lon="6.914752945303917">
        <ele>795.629999999999995</ele>
        <time>2014-06-15T12:18:03Z</time>
      </trkpt>
      <trkpt lat="46.463536033406854" lon="6.914622271433473">
        <ele>794.669999999999959</ele>
        <time>2014-06-15T12:18:05Z</time>
      </trkpt>
      <trkpt lat="46.463533602654934" lon="6.914539877325296">
        <ele>794.190000000000055</ele>
        <time>2014-06-15T12:18:06Z</time>
      </trkpt>
      <trkpt lat="46.463521616533399" lon="6.914446167647839">
        <ele>793.220000000000027</ele>
        <time>2014-06-15T12:18:07Z</time>
      </trkpt>
      <trkpt lat="46.463498147204518" lon="6.9143480155617">
        <ele>792.740000000000009</ele>
        <time>2014-06-15T12:18:08Z</time>
      </trkpt>
      <trkpt lat="46.463464871048927" lon="6.9142444152385">
        <ele>792.259999999999991</ele>
        <time>2014-06-15T12:18:09Z</time>
      </trkpt>
      <trkpt lat="46.46324509754777" lon="6.913492390885949">
        <ele>789.379999999999995</ele>
        <time>2014-06-15T12:18:17Z</time>
      </trkpt>
      <trkpt lat="46.463238559663296" lon="6.91342843696475">
        <ele>789.379999999999995</ele>
        <time>2014-06-15T12:18:18Z</time>
      </trkpt>
      <trkpt lat="46.46323730237782" lon="6.913366243243217">
        <ele>788.899999999999977</ele>
        <time>2014-06-15T12:18:19Z</time>
      </trkpt>
      <trkpt lat="46.463241158053279" lon="6.91330379806459">
        <ele>788.419999999999959</ele>
        <time>2014-06-15T12:18:20Z</time>
      </trkpt>
      <trkpt lat="46.463248450309038" lon="6.913240347057581">
        <ele>788.419999999999959</ele>
        <time>2014-06-15T12:18:21Z</time>
      </trkpt>
      <trkpt lat="46.463257418945432" lon="6.913175471127033">
        <ele>788.419999999999959</ele>
        <time>2014-06-15T12:18:22Z</time>
      </trkpt>
      <trkpt lat="46.463295640423894" lon="6.912962067872286">
        <ele>787.940000000000055</ele>
        <time>2014-06-15T12:18:25Z</time>
      </trkpt>
      <trkpt lat="46.463326821103692" lon="6.912747994065285">
        <ele>787.460000000000036</ele>
        <time>2014-06-15T12:18:28Z</time>
      </trkpt>
      <trkpt lat="46.463344339281321" lon="6.912681441754103">
        <ele>787.460000000000036</ele>
        <time>2014-06-15T12:18:29Z</time>
      </trkpt>
      <trkpt lat="46.463370407000184" lon="6.9126246124506">
        <ele>787.460000000000036</ele>
        <time>2014-06-15T12:18:30Z</time>
      </trkpt>
      <trkpt lat="46.463402761146426" lon="6.91258798353374">
        <ele>787.460000000000036</ele>
        <time>2014-06-15T12:18:31Z</time>
      </trkpt>
      <trkpt lat="46.463439809158444" lon="6.912577506154776">
        <ele>787.940000000000055</ele>
        <time>2014-06-15T12:18:32Z</time>
      </trkpt>
      <trkpt lat="46.463481048122048" lon="6.912585133686662">
        <ele>787.940000000000055</ele>
        <time>2014-06-15T12:18:33Z</time>
      </trkpt>
      <trkpt lat="46.463517090305686" lon="6.912594940513372">
        <ele>787.940000000000055</ele>
        <time>2014-06-15T12:18:34Z</time>
      </trkpt>
      <trkpt lat="46.463552797213197" lon="6.912608686834574">
        <ele>788.419999999999959</ele>
        <time>2014-06-15T12:18:35Z</time>
      </trkpt>
      <trkpt lat="46.4635837264359" lon="6.912622852250934">
        <ele>788.419999999999959</ele>
        <time>2014-06-15T12:18:36Z</time>
      </trkpt>
      <trkpt lat="46.463617337867618" lon="6.912628971040249">
        <ele>788.899999999999977</ele>
        <time>2014-06-15T12:18:37Z</time>
      </trkpt>
      <trkpt lat="46.463648686185479" lon="6.912611955776811">
        <ele>788.419999999999959</ele>
        <time>2014-06-15T12:18:38Z</time>
      </trkpt>
      <trkpt lat="46.463690930977464" lon="6.912387739866972">
        <ele>787.460000000000036</ele>
        <time>2014-06-15T12:18:43Z</time>
      </trkpt>
      <trkpt lat="46.463610297068954" lon="6.912009213119745">
        <ele>790.340000000000032</ele>
        <time>2014-06-15T12:18:52Z</time>
      </trkpt>
      <trkpt lat="46.46360669285059" lon="6.911971243098378">
        <ele>790.82000000000005</ele>
        <time>2014-06-15T12:18:53Z</time>
      </trkpt>
      <trkpt lat="46.463604345917702" lon="6.911936122924089">
        <ele>791.299999999999955</ele>
        <time>2014-06-15T12:18:54Z</time>
      </trkpt>
      <trkpt lat="46.463605770841241" lon="6.911887591704726">
        <ele>792.259999999999991</ele>
        <time>2014-06-15T12:18:55Z</time>
      </trkpt>
      <trkpt lat="46.463612895458937" lon="6.911826152354479">
        <ele>792.740000000000009</ele>
        <time>2014-06-15T12:18:56Z</time>
      </trkpt>
      <trkpt lat="46.463622618466616" lon="6.911758678033948">
        <ele>792.740000000000009</ele>
        <time>2014-06-15T12:18:57Z</time>
      </trkpt>
      <trkpt lat="46.463660169392824" lon="6.911517195403576">
        <ele>793.220000000000027</ele>
        <time>2014-06-15T12:19:00Z</time>
      </trkpt>
      <trkpt lat="46.463698726147413" lon="6.911142691969872">
        <ele>791.299999999999955</ele>
        <time>2014-06-15T12:19:03Z</time>
      </trkpt>
      <trkpt lat="46.463729068636894" lon="6.911037834361196">
        <ele>790.82000000000005</ele>
        <time>2014-06-15T12:19:04Z</time>
      </trkpt>
      <trkpt lat="46.463772989809513" lon="6.910955188795924">
        <ele>789.860000000000014</ele>
        <time>2014-06-15T12:19:05Z</time>
      </trkpt>
      <trkpt lat="46.463863430544734" lon="6.910814791917801">
        <ele>788.419999999999959</ele>
        <time>2014-06-15T12:19:07Z</time>
      </trkpt>
      <trkpt lat="46.463891509920359" lon="6.910761063918471">
        <ele>787.940000000000055</ele>
        <time>2014-06-15T12:19:08Z</time>
      </trkpt>
      <trkpt lat="46.463900478556752" lon="6.9107302185148">
        <ele>787.940000000000055</ele>
        <time>2014-06-15T12:19:09Z</time>
      </trkpt>
      <trkpt lat="46.463888743892312" lon="6.910689985379577">
        <ele>788.419999999999959</ele>
        <time>2014-06-15T12:19:10Z</time>
      </trkpt>
      <trkpt lat="46.463867286220193" lon="6.910642795264721">
        <ele>788.899999999999977</ele>
        <time>2014-06-15T12:19:11Z</time>
      </trkpt>
      <trkpt lat="46.463774666190147" lon="6.910428470000625">
        <ele>789.379999999999995</ele>
        <time>2014-06-15T12:19:14Z</time>
      </trkpt>
      <trkpt lat="46.46374549716711" lon="6.910340627655387">
        <ele>789.379999999999995</ele>
        <time>2014-06-15T12:19:15Z</time>
      </trkpt>
      <trkpt lat="46.463602250441909" lon="6.909692706540227">
        <ele>782.169999999999959</ele>
        <time>2014-06-15T12:19:24Z</time>
      </trkpt>
      <trkpt lat="46.463645752519369" lon="6.909378301352262">
        <ele>776.399999999999977</ele>
        <time>2014-06-15T12:19:35Z</time>
      </trkpt>
      <trkpt lat="46.463664108887315" lon="6.909243771806359">
        <ele>776.399999999999977</ele>
        <time>2014-06-15T12:19:41Z</time>
      </trkpt>
      <trkpt lat="46.463704090565443" lon="6.909133214503527">
        <ele>777.840000000000032</ele>
        <time>2014-06-15T12:19:49Z</time>
      </trkpt>
      <trkpt lat="46.463713813573122" lon="6.909121060743928">
        <ele>778.32000000000005</ele>
        <time>2014-06-15T12:19:50Z</time>
      </trkpt>
      <trkpt lat="46.463723368942738" lon="6.909104296937585">
        <ele>778.32000000000005</ele>
        <time>2014-06-15T12:19:51Z</time>
      </trkpt>
      <trkpt lat="46.463732002303004" lon="6.909085102379322">
        <ele>778.32000000000005</ele>
        <time>2014-06-15T12:19:52Z</time>
      </trkpt>
      <trkpt lat="46.46374105475843" lon="6.909063644707203">
        <ele>778.32000000000005</ele>
        <time>2014-06-15T12:19:53Z</time>
      </trkpt>
      <trkpt lat="46.463819928467274" lon="6.908867340534925">
        <ele>781.210000000000036</ele>
        <time>2014-06-15T12:20:03Z</time>
      </trkpt>
      <trkpt lat="46.463926043361425" lon="6.908682268112898">
        <ele>784.57000000000005</ele>
        <time>2014-06-15T12:20:15Z</time>
      </trkpt>
      <trkpt lat="46.463990248739719" lon="6.908445982262492">
        <ele>789.379999999999995</ele>
        <time>2014-06-15T12:20:29Z</time>
      </trkpt>
      <trkpt lat="46.464061830192804" lon="6.908244146034122">
        <ele>791.779999999999973</ele>
        <time>2014-06-15T12:20:41Z</time>
      </trkpt>
      <trkpt lat="46.464184876531363" lon="6.908052619546652">
        <ele>793.220000000000027</ele>
        <time>2014-06-15T12:20:52Z</time>
      </trkpt>
      <trkpt lat="46.464313622564077" lon="6.907788421958685">
        <ele>792.259999999999991</ele>
        <time>2014-06-15T12:21:08Z</time>
      </trkpt>
      <trkpt lat="46.464385120198131" lon="6.907617514953017">
        <ele>795.149999999999977</ele>
        <time>2014-06-15T12:21:19Z</time>
      </trkpt>
      <trkpt lat="46.464465335011482" lon="6.907549034804106">
        <ele>797.549999999999955</ele>
        <time>2014-06-15T12:21:31Z</time>
      </trkpt>
      <trkpt lat="46.464472711086273" lon="6.907387180253863">
        <ele>797.549999999999955</ele>
        <time>2014-06-15T12:21:44Z</time>
      </trkpt>
      <trkpt lat="46.464505149051547" lon="6.907206131145358">
        <ele>798.029999999999973</ele>
        <time>2014-06-15T12:21:59Z</time>
      </trkpt>
      <trkpt lat="46.464519649744034" lon="6.90708551555872">
        <ele>802.360000000000014</ele>
        <time>2014-06-15T12:22:11Z</time>
      </trkpt>
      <trkpt lat="46.464552842080593" lon="6.906953165307641">
        <ele>806.200000000000045</ele>
        <time>2014-06-15T12:22:25Z</time>
      </trkpt>
      <trkpt lat="46.464557116851211" lon="6.906743869185448">
        <ele>812.92999999999995</ele>
        <time>2014-06-15T12:22:43Z</time>
      </trkpt>
      <trkpt lat="46.464632721617818" lon="6.906576734036207">
        <ele>815.340000000000032</ele>
        <time>2014-06-15T12:22:56Z</time>
      </trkpt>
      <trkpt lat="46.464657615870237" lon="6.906549409031868">
        <ele>815.82000000000005</ele>
        <time>2014-06-15T12:22:59Z</time>
      </trkpt>
      <trkpt lat="46.464784601703286" lon="6.906491490080953">
        <ele>817.259999999999991</ele>
        <time>2014-06-15T12:23:14Z</time>
      </trkpt>
      <trkpt lat="46.464801616966724" lon="6.906485790386796">
        <ele>817.740000000000009</ele>
        <time>2014-06-15T12:23:16Z</time>
      </trkpt>
      <trkpt lat="46.464959029108286" lon="6.906131487339735">
        <ele>816.779999999999973</ele>
        <time>2014-06-15T12:23:24Z</time>
      </trkpt>
      <trkpt lat="46.465314421802759" lon="6.905378540977836">
        <ele>812.92999999999995</ele>
        <time>2014-06-15T12:23:32Z</time>
      </trkpt>
      <trkpt lat="46.465343590825796" lon="6.905272342264652">
        <ele>811.970000000000027</ele>
        <time>2014-06-15T12:23:33Z</time>
      </trkpt>
      <trkpt lat="46.465475438162684" lon="6.904762387275696">
        <ele>806.67999999999995</ele>
        <time>2014-06-15T12:23:39Z</time>
      </trkpt>
      <trkpt lat="46.465502679347992" lon="6.904721483588219">
        <ele>806.200000000000045</ele>
        <time>2014-06-15T12:23:40Z</time>
      </trkpt>
      <trkpt lat="46.465530674904585" lon="6.904703713953495">
        <ele>805.720000000000027</ele>
        <time>2014-06-15T12:23:41Z</time>
      </trkpt>
      <trkpt lat="46.46554559469223" lon="6.904699439182878">
        <ele>805.720000000000027</ele>
        <time>2014-06-15T12:23:42Z</time>
      </trkpt>
      <trkpt lat="46.465561101213098" lon="6.904699020087719">
        <ele>805.720000000000027</ele>
        <time>2014-06-15T12:23:43Z</time>
      </trkpt>
      <trkpt lat="46.465577445924282" lon="6.904705306515098">
        <ele>805.720000000000027</ele>
        <time>2014-06-15T12:23:44Z</time>
      </trkpt>
      <trkpt lat="46.465585408732295" lon="6.904711509123445">
        <ele>805.720000000000027</ele>
        <time>2014-06-15T12:23:45Z</time>
      </trkpt>
      <trkpt lat="46.46559638902545" lon="6.904727937653661">
        <ele>806.200000000000045</ele>
        <time>2014-06-15T12:23:46Z</time>
      </trkpt>
      <trkpt lat="46.465605525299907" lon="6.904742103070021">
        <ele>806.200000000000045</ele>
        <time>2014-06-15T12:23:47Z</time>
      </trkpt>
      <trkpt lat="46.46565648727119" lon="6.904832376167178">
        <ele>808.129999999999995</ele>
        <time>2014-06-15T12:23:54Z</time>
      </trkpt>
      <trkpt lat="46.465665455907583" lon="6.904843524098396">
        <ele>808.129999999999995</ele>
        <time>2014-06-15T12:23:55Z</time>
      </trkpt>
      <trkpt lat="46.465701162815094" lon="6.9048778899014">
        <ele>810.049999999999955</ele>
        <time>2014-06-15T12:23:59Z</time>
      </trkpt>
      <trkpt lat="46.465787077322602" lon="6.904887109994888">
        <ele>811.970000000000027</ele>
        <time>2014-06-15T12:24:07Z</time>
      </trkpt>
      <trkpt lat="46.465800907462835" lon="6.904891384765506">
        <ele>812.450000000000045</ele>
        <time>2014-06-15T12:24:08Z</time>
      </trkpt>
      <trkpt lat="46.465814067050815" lon="6.904894234612584">
        <ele>812.92999999999995</ele>
        <time>2014-06-15T12:24:09Z</time>
      </trkpt>
      <trkpt lat="46.465827059000731" lon="6.904895072802901">
        <ele>812.92999999999995</ele>
        <time>2014-06-15T12:24:10Z</time>
      </trkpt>
      <trkpt lat="46.465839296579361" lon="6.90489549189806">
        <ele>813.409999999999968</ele>
        <time>2014-06-15T12:24:11Z</time>
      </trkpt>
      <trkpt lat="46.466064853593707" lon="6.904867915436625">
        <ele>818.220000000000027</ele>
        <time>2014-06-15T12:24:30Z</time>
      </trkpt>
      <trkpt lat="46.466168202459812" lon="6.904834555462003">
        <ele>819.17999999999995</ele>
        <time>2014-06-15T12:24:39Z</time>
      </trkpt>
      <trkpt lat="46.466200808063149" lon="6.904815528541803">
        <ele>820.139999999999986</ele>
        <time>2014-06-15T12:24:42Z</time>
      </trkpt>
      <trkpt lat="46.466226791962981" lon="6.904793987050653">
        <ele>820.620000000000005</ele>
        <time>2014-06-15T12:24:45Z</time>
      </trkpt>
      <trkpt lat="46.466439440846443" lon="6.904730955138803">
        <ele>822.059999999999945</ele>
        <time>2014-06-15T12:25:02Z</time>
      </trkpt>
      <trkpt lat="46.466492498293519" lon="6.90471176058054">
        <ele>822.059999999999945</ele>
        <time>2014-06-15T12:25:12Z</time>
      </trkpt>
      <trkpt lat="46.466543124988675" lon="6.904610171914101">
        <ele>825.909999999999968</ele>
        <time>2014-06-15T12:25:28Z</time>
      </trkpt>
      <trkpt lat="46.46660104393959" lon="6.904486957937479">
        <ele>835.519999999999982</ele>
        <time>2014-06-15T12:25:41Z</time>
      </trkpt>
      <trkpt lat="46.466625854372978" lon="6.904196860268712">
        <ele>833.120000000000005</ele>
        <time>2014-06-15T12:25:49Z</time>
      </trkpt>
      <trkpt lat="46.466682013124228" lon="6.904028970748186">
        <ele>833.120000000000005</ele>
        <time>2014-06-15T12:25:53Z</time>
      </trkpt>
      <trkpt lat="46.466790474951267" lon="6.903855968266726">
        <ele>833.600000000000023</ele>
        <time>2014-06-15T12:26:00Z</time>
      </trkpt>
      <trkpt lat="46.466883681714535" lon="6.903753289952874">
        <ele>836</ele>
        <time>2014-06-15T12:26:08Z</time>
      </trkpt>
      <trkpt lat="46.467068502679467" lon="6.903525553643703">
        <ele>842.25</ele>
        <time>2014-06-15T12:26:25Z</time>
      </trkpt>
      <trkpt lat="46.467201942577958" lon="6.903390437364578">
        <ele>842.730000000000018</ele>
        <time>2014-06-15T12:26:36Z</time>
      </trkpt>
      <trkpt lat="46.467351894825697" lon="6.903343331068754">
        <ele>843.210000000000036</ele>
        <time>2014-06-15T12:26:43Z</time>
      </trkpt>
      <trkpt lat="46.467565968632698" lon="6.903213243931532">
        <ele>845.620000000000005</ele>
        <time>2014-06-15T12:26:56Z</time>
      </trkpt>
      <trkpt lat="46.467588013038039" lon="6.903202598914504">
        <ele>846.100000000000023</ele>
        <time>2014-06-15T12:26:57Z</time>
      </trkpt>
      <trkpt lat="46.46767015568912" lon="6.903171250596642">
        <ele>847.539999999999964</ele>
        <time>2014-06-15T12:27:01Z</time>
      </trkpt>
      <trkpt lat="46.467969221994281" lon="6.902979388833046">
        <ele>852.350000000000023</ele>
        <time>2014-06-15T12:27:15Z</time>
      </trkpt>
      <trkpt lat="46.468097046017647" lon="6.902880566194654">
        <ele>857.629999999999995</ele>
        <time>2014-06-15T12:27:22Z</time>
      </trkpt>
      <trkpt lat="46.468192348256707" lon="6.902826754376292">
        <ele>860.519999999999982</ele>
        <time>2014-06-15T12:27:27Z</time>
      </trkpt>
      <trkpt lat="46.468224618583918" lon="6.902810158208013">
        <ele>861.960000000000036</ele>
        <time>2014-06-15T12:27:29Z</time>
      </trkpt>
      <trkpt lat="46.468289662152529" lon="6.902760369703174">
        <ele>865.799999999999955</ele>
        <time>2014-06-15T12:27:36Z</time>
      </trkpt>
      <trkpt lat="46.468399548903108" lon="6.902737822383642">
        <ele>867.730000000000018</ele>
        <time>2014-06-15T12:27:42Z</time>
      </trkpt>
      <trkpt lat="46.468470878899097" lon="6.902718963101506">
        <ele>868.690000000000055</ele>
        <time>2014-06-15T12:27:46Z</time>
      </trkpt>
      <trkpt lat="46.468654945492744" lon="6.902634473517537">
        <ele>871.090000000000032</ele>
        <time>2014-06-15T12:27:57Z</time>
      </trkpt>
      <trkpt lat="46.468671793118119" lon="6.902624415233731">
        <ele>870.610000000000014</ele>
        <time>2014-06-15T12:27:58Z</time>
      </trkpt>
      <trkpt lat="46.469030790030956" lon="6.902476139366627">
        <ele>867.25</ele>
        <time>2014-06-15T12:28:14Z</time>
      </trkpt>
      <trkpt lat="46.469378219917417" lon="6.902378322556615">
        <ele>863.879999999999995</ele>
        <time>2014-06-15T12:28:25Z</time>
      </trkpt>
      <trkpt lat="46.469624815508723" lon="6.902356194332242">
        <ele>860.519999999999982</ele>
        <time>2014-06-15T12:28:37Z</time>
      </trkpt>
      <trkpt lat="46.469786418601871" lon="6.902360050007701">
        <ele>860.519999999999982</ele>
        <time>2014-06-15T12:28:43Z</time>
      </trkpt>
      <trkpt lat="46.469903849065304" lon="6.902306489646435">
        <ele>860.519999999999982</ele>
        <time>2014-06-15T12:28:47Z</time>
      </trkpt>
      <trkpt lat="46.4700698107481" lon="6.902278494089842">
        <ele>860.039999999999964</ele>
        <time>2014-06-15T12:28:53Z</time>
      </trkpt>
      <trkpt lat="46.47023887373507" lon="6.902189729735255">
        <ele>861.480000000000018</ele>
        <time>2014-06-15T12:29:05Z</time>
      </trkpt>
      <trkpt lat="46.470329817384481" lon="6.902104904875159">
        <ele>863.399999999999977</ele>
        <time>2014-06-15T12:29:16Z</time>
      </trkpt>
      <trkpt lat="46.470555793493986" lon="6.901986300945282">
        <ele>864.840000000000032</ele>
        <time>2014-06-15T12:29:28Z</time>
      </trkpt>
      <trkpt lat="46.470586890354753" lon="6.901985378935933">
        <ele>864.840000000000032</ele>
        <time>2014-06-15T12:29:29Z</time>
      </trkpt>
      <trkpt lat="46.470962651073933" lon="6.902032317593694">
        <ele>861</ele>
        <time>2014-06-15T12:29:41Z</time>
      </trkpt>
      <trkpt lat="46.471258364617825" lon="6.901890244334936">
        <ele>862.919999999999959</ele>
        <time>2014-06-15T12:29:50Z</time>
      </trkpt>
      <trkpt lat="46.471417536959052" lon="6.901800138875842">
        <ele>863.879999999999995</ele>
        <time>2014-06-15T12:29:55Z</time>
      </trkpt>
      <trkpt lat="46.471689697355032" lon="6.90181422047317">
        <ele>866.289999999999964</ele>
        <time>2014-06-15T12:30:06Z</time>
      </trkpt>
      <trkpt lat="46.471952302381396" lon="6.901789912953973">
        <ele>868.210000000000036</ele>
        <time>2014-06-15T12:30:16Z</time>
      </trkpt>
      <trkpt lat="46.472044503316283" lon="6.901785722002387">
        <ele>867.730000000000018</ele>
        <time>2014-06-15T12:30:20Z</time>
      </trkpt>
      <trkpt lat="46.47225153632462" lon="6.90174431540072">
        <ele>866.769999999999982</ele>
        <time>2014-06-15T12:30:31Z</time>
      </trkpt>
      <trkpt lat="46.472380952909589" lon="6.901775496080518">
        <ele>865.32000000000005</ele>
        <time>2014-06-15T12:30:42Z</time>
      </trkpt>
      <trkpt lat="46.472536101937294" lon="6.901875492185354">
        <ele>861</ele>
        <time>2014-06-15T12:30:56Z</time>
      </trkpt>
      <trkpt lat="46.472641043365002" lon="6.901907846331596">
        <ele>858.590000000000032</ele>
        <time>2014-06-15T12:31:00Z</time>
      </trkpt>
      <trkpt lat="46.47276702336967" lon="6.901707937940955">
        <ele>856.669999999999959</ele>
        <time>2014-06-15T12:31:07Z</time>
      </trkpt>
      <trkpt lat="46.472807675600052" lon="6.90168522298336">
        <ele>856.190000000000055</ele>
        <time>2014-06-15T12:31:08Z</time>
      </trkpt>
      <trkpt lat="46.4728535246104" lon="6.901674577966332">
        <ele>856.190000000000055</ele>
        <time>2014-06-15T12:31:09Z</time>
      </trkpt>
      <trkpt lat="46.4728984516114" lon="6.901677595451474">
        <ele>855.710000000000036</ele>
        <time>2014-06-15T12:31:10Z</time>
      </trkpt>
      <trkpt lat="46.472934577614069" lon="6.90168765373528">
        <ele>855.710000000000036</ele>
        <time>2014-06-15T12:31:11Z</time>
      </trkpt>
      <trkpt lat="46.473018564283848" lon="6.901693185791373">
        <ele>856.190000000000055</ele>
        <time>2014-06-15T12:31:16Z</time>
      </trkpt>
      <trkpt lat="46.473097689449787" lon="6.901645325124264">
        <ele>856.669999999999959</ele>
        <time>2014-06-15T12:31:22Z</time>
      </trkpt>
      <trkpt lat="46.473158458247781" lon="6.90158355049789">
        <ele>857.629999999999995</ele>
        <time>2014-06-15T12:31:28Z</time>
      </trkpt>
      <trkpt lat="46.473200200125575" lon="6.90151859074831">
        <ele>858.110000000000014</ele>
        <time>2014-06-15T12:31:38Z</time>
      </trkpt>
      <trkpt lat="46.473220819607377" lon="6.901482632383704">
        <ele>859.080000000000041</ele>
        <time>2014-06-15T12:31:56Z</time>
      </trkpt>
      <trkpt lat="46.473248228430748" lon="6.901466622948647">
        <ele>858.110000000000014</ele>
        <time>2014-06-15T12:32:32Z</time>
      </trkpt>
      <trkpt lat="46.473249653354287" lon="6.901434939354658">
        <ele>859.080000000000041</ele>
        <time>2014-06-15T12:33:08Z</time>
      </trkpt>
      <trkpt lat="46.473295334726572" lon="6.901520686224103">
        <ele>860.519999999999982</ele>
        <time>2014-06-15T12:33:33Z</time>
      </trkpt>
      <trkpt lat="46.473325258120894" lon="6.901504509150982">
        <ele>859.559999999999945</ele>
        <time>2014-06-15T12:33:38Z</time>
      </trkpt>
      <trkpt lat="46.473481077700853" lon="6.901215249672532">
        <ele>860.519999999999982</ele>
        <time>2014-06-15T12:33:51Z</time>
      </trkpt>
      <trkpt lat="46.473721386864781" lon="6.901006707921624">
        <ele>861.960000000000036</ele>
        <time>2014-06-15T12:34:04Z</time>
      </trkpt>
      <trkpt lat="46.473718788474798" lon="6.90101676620543">
        <ele>861.960000000000036</ele>
        <time>2014-06-15T12:34:05Z</time>
      </trkpt>
      <trkpt lat="46.473697498440742" lon="6.901052137836814">
        <ele>861.480000000000018</ele>
        <time>2014-06-15T12:34:08Z</time>
      </trkpt>
      <trkpt lat="46.473690876737237" lon="6.901068817824125">
        <ele>861.480000000000018</ele>
        <time>2014-06-15T12:34:09Z</time>
      </trkpt>
      <trkpt lat="46.473681405186653" lon="6.901085246354342">
        <ele>861</ele>
        <time>2014-06-15T12:34:10Z</time>
      </trkpt>
      <trkpt lat="46.47358207963407" lon="6.901312060654163">
        <ele>861</ele>
        <time>2014-06-15T12:34:24Z</time>
      </trkpt>
      <trkpt lat="46.47350043989718" lon="6.901502329856157">
        <ele>864.360000000000014</ele>
        <time>2014-06-15T12:34:38Z</time>
      </trkpt>
      <trkpt lat="46.473451741039753" lon="6.901663932949305">
        <ele>863.399999999999977</ele>
        <time>2014-06-15T12:34:49Z</time>
      </trkpt>
      <trkpt lat="46.47344084456563" lon="6.901688994839787">
        <ele>863.399999999999977</ele>
        <time>2014-06-15T12:34:51Z</time>
      </trkpt>
      <trkpt lat="46.473408071324229" lon="6.90180147998035">
        <ele>864.840000000000032</ele>
        <time>2014-06-15T12:35:05Z</time>
      </trkpt>
      <trkpt lat="46.473297849297523" lon="6.901960149407387">
        <ele>867.730000000000018</ele>
        <time>2014-06-15T12:35:18Z</time>
      </trkpt>
      <trkpt lat="46.473249150440097" lon="6.902031563222408">
        <ele>870.610000000000014</ele>
        <time>2014-06-15T12:35:25Z</time>
      </trkpt>
      <trkpt lat="46.473352499306202" lon="6.902090068906546">
        <ele>873.5</ele>
        <time>2014-06-15T12:35:38Z</time>
      </trkpt>
      <trkpt lat="46.473494824022055" lon="6.902076322585344">
        <ele>875.899999999999977</ele>
        <time>2014-06-15T12:35:52Z</time>
      </trkpt>
      <trkpt lat="46.473503541201353" lon="6.902072383090854">
        <ele>875.899999999999977</ele>
        <time>2014-06-15T12:35:53Z</time>
      </trkpt>
      <trkpt lat="46.473536482080817" lon="6.902089230716228">
        <ele>876.379999999999995</ele>
        <time>2014-06-15T12:35:56Z</time>
      </trkpt>
      <trkpt lat="46.473673107102513" lon="6.902102055028081">
        <ele>878.779999999999973</ele>
        <time>2014-06-15T12:36:10Z</time>
      </trkpt>
      <trkpt lat="46.473833536729217" lon="6.902107838541269">
        <ele>883.110000000000014</ele>
        <time>2014-06-15T12:36:26Z</time>
      </trkpt>
      <trkpt lat="46.47402036935091" lon="6.902114292606711">
        <ele>886.950000000000045</ele>
        <time>2014-06-15T12:36:41Z</time>
      </trkpt>
      <trkpt lat="46.474134782329202" lon="6.902060899883509">
        <ele>891.759999999999991</ele>
        <time>2014-06-15T12:36:52Z</time>
      </trkpt>
      <trkpt lat="46.474341060966253" lon="6.90203650854528">
        <ele>897.049999999999955</ele>
        <time>2014-06-15T12:37:09Z</time>
      </trkpt>
      <trkpt lat="46.474505430087447" lon="6.902030892670155">
        <ele>896.57000000000005</ele>
        <time>2014-06-15T12:37:23Z</time>
      </trkpt>
      <trkpt lat="46.474525462836027" lon="6.902036257088184">
        <ele>896.57000000000005</ele>
        <time>2014-06-15T12:37:25Z</time>
      </trkpt>
      <trkpt lat="46.474708775058389" lon="6.902058888226748">
        <ele>898.490000000000009</ele>
        <time>2014-06-15T12:37:40Z</time>
      </trkpt>
      <trkpt lat="46.474869623780251" lon="6.902092332020402">
        <ele>900.409999999999968</ele>
        <time>2014-06-15T12:37:53Z</time>
      </trkpt>
      <trkpt lat="46.475084368139505" lon="6.902159722521901">
        <ele>905.220000000000027</ele>
        <time>2014-06-15T12:38:11Z</time>
      </trkpt>
      <trkpt lat="46.475216215476394" lon="6.902231136336923">
        <ele>906.659999999999968</ele>
        <time>2014-06-15T12:38:23Z</time>
      </trkpt>
      <trkpt lat="46.475333645939827" lon="6.902290396392345">
        <ele>910.029999999999973</ele>
        <time>2014-06-15T12:38:36Z</time>
      </trkpt>
      <trkpt lat="46.475481083616614" lon="6.902374215424061">
        <ele>913.870000000000005</ele>
        <time>2014-06-15T12:38:48Z</time>
      </trkpt>
      <trkpt lat="46.475521232932806" lon="6.902423081919551">
        <ele>914.830000000000041</ele>
        <time>2014-06-15T12:38:52Z</time>
      </trkpt>
      <trkpt lat="46.475571608170867" lon="6.902480581775308">
        <ele>916.269999999999982</ele>
        <time>2014-06-15T12:38:57Z</time>
      </trkpt>
      <trkpt lat="46.475648554041982" lon="6.902514193207026">
        <ele>919.159999999999968</ele>
        <time>2014-06-15T12:39:03Z</time>
      </trkpt>
      <trkpt lat="46.475705383345485" lon="6.902519054710865">
        <ele>920.120000000000005</ele>
        <time>2014-06-15T12:39:08Z</time>
      </trkpt>
      <trkpt lat="46.475739078596234" lon="6.902526849880815">
        <ele>920.600000000000023</ele>
        <time>2014-06-15T12:39:12Z</time>
      </trkpt>
      <trkpt lat="46.47588006220758" lon="6.902493070811033">
        <ele>922.519999999999982</ele>
        <time>2014-06-15T12:39:28Z</time>
      </trkpt>
      <trkpt lat="46.475889701396227" lon="6.902491059154272">
        <ele>923</ele>
        <time>2014-06-15T12:39:29Z</time>
      </trkpt>
      <trkpt lat="46.476036719977856" lon="6.902474127709866">
        <ele>930.210000000000036</ele>
        <time>2014-06-15T12:39:45Z</time>
      </trkpt>
      <trkpt lat="46.476156581193209" lon="6.902502877637744">
        <ele>935.019999999999982</ele>
        <time>2014-06-15T12:39:58Z</time>
      </trkpt>
      <trkpt lat="46.476298402994871" lon="6.902536824345589">
        <ele>937.899999999999977</ele>
        <time>2014-06-15T12:40:10Z</time>
      </trkpt>
      <trkpt lat="46.476441649720073" lon="6.902559120208025">
        <ele>941.269999999999982</ele>
        <time>2014-06-15T12:40:22Z</time>
      </trkpt>
      <trkpt lat="46.476653879508376" lon="6.902604382485151">
        <ele>947.039999999999964</ele>
        <time>2014-06-15T12:40:39Z</time>
      </trkpt>
      <trkpt lat="46.476792600005865" lon="6.902618044987321">
        <ele>948.960000000000036</ele>
        <time>2014-06-15T12:40:53Z</time>
      </trkpt>
      <trkpt lat="46.476958896964788" lon="6.902639754116535">
        <ele>951.840000000000032</ele>
        <time>2014-06-15T12:41:06Z</time>
      </trkpt>
      <trkpt lat="46.477104742079973" lon="6.902639586478472">
        <ele>954.25</ele>
        <time>2014-06-15T12:41:20Z</time>
      </trkpt>
      <trkpt lat="46.477135922759771" lon="6.902638496831059">
        <ele>954.730000000000018</ele>
        <time>2014-06-15T12:41:23Z</time>
      </trkpt>
      <trkpt lat="46.477250503376126" lon="6.90262483432889">
        <ele>956.649999999999977</ele>
        <time>2014-06-15T12:41:33Z</time>
      </trkpt>
      <trkpt lat="46.477400036528707" lon="6.902639167383313">
        <ele>957.610000000000014</ele>
        <time>2014-06-15T12:41:44Z</time>
      </trkpt>
      <trkpt lat="46.477558622136712" lon="6.902639335021377">
        <ele>957.610000000000014</ele>
        <time>2014-06-15T12:41:58Z</time>
      </trkpt>
      <trkpt lat="46.477579241618514" lon="6.902648638933897">
        <ele>958.090000000000032</ele>
        <time>2014-06-15T12:42:00Z</time>
      </trkpt>
      <trkpt lat="46.47775492630899" lon="6.90261117182672">
        <ele>960.009999999999991</ele>
        <time>2014-06-15T12:42:15Z</time>
      </trkpt>
      <trkpt lat="46.477930108085275" lon="6.902601113542914">
        <ele>961.940000000000055</ele>
        <time>2014-06-15T12:42:30Z</time>
      </trkpt>
      <trkpt lat="46.477943183854222" lon="6.902603628113866">
        <ele>961.940000000000055</ele>
        <time>2014-06-15T12:42:31Z</time>
      </trkpt>
      <trkpt lat="46.478098835796118" lon="6.902655595913529">
        <ele>960.009999999999991</ele>
        <time>2014-06-15T12:42:44Z</time>
      </trkpt>
      <trkpt lat="46.478250129148364" lon="6.902632042765617">
        <ele>961.460000000000036</ele>
        <time>2014-06-15T12:42:59Z</time>
      </trkpt>
      <trkpt lat="46.478293966501951" lon="6.902620811015368">
        <ele>963.860000000000014</ele>
        <time>2014-06-15T12:43:04Z</time>
      </trkpt>
      <trkpt lat="46.478342162445188" lon="6.902622571215034">
        <ele>965.299999999999955</ele>
        <time>2014-06-15T12:43:08Z</time>
      </trkpt>
      <trkpt lat="46.478385413065553" lon="6.902624582871795">
        <ele>966.740000000000009</ele>
        <time>2014-06-15T12:43:11Z</time>
      </trkpt>
      <trkpt lat="46.478542741388083" lon="6.902583343908191">
        <ele>973.470000000000027</ele>
        <time>2014-06-15T12:43:23Z</time>
      </trkpt>
      <trkpt lat="46.478580292314291" lon="6.902606058865786">
        <ele>975.389999999999986</ele>
        <time>2014-06-15T12:43:26Z</time>
      </trkpt>
      <trkpt lat="46.478718845173717" lon="6.902648052200675">
        <ele>980.200000000000045</ele>
        <time>2014-06-15T12:43:38Z</time>
      </trkpt>
      <trkpt lat="46.478871395811439" lon="6.902626175433397">
        <ele>982.120000000000005</ele>
        <time>2014-06-15T12:43:50Z</time>
      </trkpt>
      <trkpt lat="46.47896284237504" lon="6.902615530416369">
        <ele>987.889999999999986</ele>
        <time>2014-06-15T12:44:04Z</time>
      </trkpt>
      <trkpt lat="46.479008104652166" lon="6.902674622833729">
        <ele>987.889999999999986</ele>
        <time>2014-06-15T12:44:14Z</time>
      </trkpt>
      <trkpt lat="46.479027969762683" lon="6.902721226215363">
        <ele>989.330000000000041</ele>
        <time>2014-06-15T12:44:24Z</time>
      </trkpt>
      <trkpt lat="46.47905713878572" lon="6.902680657804012">
        <ele>992.700000000000045</ele>
        <time>2014-06-15T12:44:36Z</time>
      </trkpt>
      <trkpt lat="46.479145316407084" lon="6.90268836915493">
        <ele>994.620000000000005</ele>
        <time>2014-06-15T12:44:50Z</time>
      </trkpt>
      <trkpt lat="46.479219328612089" lon="6.902704797685146">
        <ele>991.740000000000009</ele>
        <time>2014-06-15T12:45:02Z</time>
      </trkpt>
      <trkpt lat="46.479379339143634" lon="6.902825580909848">
        <ele>989.809999999999945</ele>
        <time>2014-06-15T12:45:16Z</time>
      </trkpt>
      <trkpt lat="46.479423008859158" lon="6.902809655293822">
        <ele>991.259999999999991</ele>
        <time>2014-06-15T12:45:23Z</time>
      </trkpt>
      <trkpt lat="46.47941823117435" lon="6.902797501534224">
        <ele>991.259999999999991</ele>
        <time>2014-06-15T12:45:24Z</time>
      </trkpt>
      <trkpt lat="46.479411358013749" lon="6.90278509631753">
        <ele>991.740000000000009</ele>
        <time>2014-06-15T12:45:25Z</time>
      </trkpt>
      <trkpt lat="46.479397946968675" lon="6.902761794626713">
        <ele>992.700000000000045</ele>
        <time>2014-06-15T12:45:27Z</time>
      </trkpt>
      <trkpt lat="46.479378417134285" lon="6.902714855968952">
        <ele>998.470000000000027</ele>
        <time>2014-06-15T12:45:38Z</time>
      </trkpt>
      <trkpt lat="46.47938160225749" lon="6.902643442153931">
        <ele>1000.389999999999986</ele>
        <time>2014-06-15T12:45:48Z</time>
      </trkpt>
      <trkpt lat="46.479399707168341" lon="6.902582589536905">
        <ele>1000.870000000000005</ele>
        <time>2014-06-15T12:45:51Z</time>
      </trkpt>
      <trkpt lat="46.47941286675632" lon="6.902568927034736">
        <ele>1000.389999999999986</ele>
        <time>2014-06-15T12:45:52Z</time>
      </trkpt>
      <trkpt lat="46.479437761008739" lon="6.902558449655771">
        <ele>999.909999999999968</ele>
        <time>2014-06-15T12:45:54Z</time>
      </trkpt>
      <trkpt lat="46.479473384097219" lon="6.902518048882484">
        <ele>998.470000000000027</ele>
        <time>2014-06-15T12:45:57Z</time>
      </trkpt>
      <trkpt lat="46.479491656646132" lon="6.902503296732903">
        <ele>998.470000000000027</ele>
        <time>2014-06-15T12:45:58Z</time>
      </trkpt>
      <trkpt lat="46.479510683566332" lon="6.902493154630065">
        <ele>997.990000000000009</ele>
        <time>2014-06-15T12:45:59Z</time>
      </trkpt>
      <trkpt lat="46.479661474004388" lon="6.902412604540586">
        <ele>994.139999999999986</ele>
        <time>2014-06-15T12:46:08Z</time>
      </trkpt>
      <trkpt lat="46.479672035202384" lon="6.902399528771639">
        <ele>994.139999999999986</ele>
        <time>2014-06-15T12:46:09Z</time>
      </trkpt>
      <trkpt lat="46.479706317186356" lon="6.902354350313544">
        <ele>986.92999999999995</ele>
        <time>2014-06-15T12:46:25Z</time>
      </trkpt>
      <trkpt lat="46.479692487046123" lon="6.902366671711206">
        <ele>985.490000000000009</ele>
        <time>2014-06-15T12:46:29Z</time>
      </trkpt>
      <trkpt lat="46.479539265856147" lon="6.902424758300185">
        <ele>984.529999999999973</ele>
        <time>2014-06-15T12:46:38Z</time>
      </trkpt>
      <trkpt lat="46.479495512321591" lon="6.902485778555274">
        <ele>981.639999999999986</ele>
        <time>2014-06-15T12:46:49Z</time>
      </trkpt>
      <trkpt lat="46.47947539575398" lon="6.902517210692167">
        <ele>982.120000000000005</ele>
        <time>2014-06-15T12:46:59Z</time>
      </trkpt>
      <trkpt lat="46.479515880346298" lon="6.902590803802013">
        <ele>984.529999999999973</ele>
        <time>2014-06-15T12:47:13Z</time>
      </trkpt>
      <trkpt lat="46.479566926136613" lon="6.902673449367285">
        <ele>985.970000000000027</ele>
        <time>2014-06-15T12:47:25Z</time>
      </trkpt>
      <trkpt lat="46.479617804288864" lon="6.902788868173957">
        <ele>992.220000000000027</ele>
        <time>2014-06-15T12:47:43Z</time>
      </trkpt>
      <trkpt lat="46.479712100699544" lon="6.902877800166607">
        <ele>995.100000000000023</ele>
        <time>2014-06-15T12:47:57Z</time>
      </trkpt>
      <trkpt lat="46.479729115962982" lon="6.902892803773284">
        <ele>995.100000000000023</ele>
        <time>2014-06-15T12:47:59Z</time>
      </trkpt>
      <trkpt lat="46.479736156761646" lon="6.902906633913517">
        <ele>995.580000000000041</ele>
        <time>2014-06-15T12:48:00Z</time>
      </trkpt>
      <trkpt lat="46.479746550321579" lon="6.902917278930545">
        <ele>995.580000000000041</ele>
        <time>2014-06-15T12:48:01Z</time>
      </trkpt>
      <trkpt lat="46.479879068210721" lon="6.902975030243397">
        <ele>996.539999999999964</ele>
        <time>2014-06-15T12:48:12Z</time>
      </trkpt>
      <trkpt lat="46.479888120666146" lon="6.902966480702162">
        <ele>996.539999999999964</ele>
        <time>2014-06-15T12:48:13Z</time>
      </trkpt>
      <trkpt lat="46.47989759221673" lon="6.902957260608673">
        <ele>997.019999999999982</ele>
        <time>2014-06-15T12:48:14Z</time>
      </trkpt>
      <trkpt lat="46.479909243062139" lon="6.902949130162597">
        <ele>997.019999999999982</ele>
        <time>2014-06-15T12:48:15Z</time>
      </trkpt>
      <trkpt lat="46.479920726269484" lon="6.90293756313622">
        <ele>997.019999999999982</ele>
        <time>2014-06-15T12:48:16Z</time>
      </trkpt>
      <trkpt lat="46.479930114001036" lon="6.902925744652748">
        <ele>997.509999999999991</ele>
        <time>2014-06-15T12:48:17Z</time>
      </trkpt>
      <trkpt lat="46.47997185587883" lon="6.902874279767275">
        <ele>998.470000000000027</ele>
        <time>2014-06-15T12:48:21Z</time>
      </trkpt>
      <trkpt lat="46.479978309944272" lon="6.902855504304171">
        <ele>998.470000000000027</ele>
        <time>2014-06-15T12:48:22Z</time>
      </trkpt>
      <trkpt lat="46.479986356571317" lon="6.902838824316859">
        <ele>998.950000000000045</ele>
        <time>2014-06-15T12:48:23Z</time>
      </trkpt>
      <trkpt lat="46.480177296325564" lon="6.90264780074358">
        <ele>1001.830000000000041</ele>
        <time>2014-06-15T12:48:36Z</time>
      </trkpt>
      <trkpt lat="46.480457000434399" lon="6.902578482404351">
        <ele>1005.67999999999995</ele>
        <time>2014-06-15T12:48:53Z</time>
      </trkpt>
      <trkpt lat="46.480627907440066" lon="6.902530705556273">
        <ele>1009.039999999999964</ele>
        <time>2014-06-15T12:49:05Z</time>
      </trkpt>
      <trkpt lat="46.480641821399331" lon="6.902528358623385">
        <ele>1009.039999999999964</ele>
        <time>2014-06-15T12:49:06Z</time>
      </trkpt>
      <trkpt lat="46.480887494981289" lon="6.902484856545925">
        <ele>1015.769999999999982</ele>
        <time>2014-06-15T12:49:25Z</time>
      </trkpt>
      <trkpt lat="46.481043733656406" lon="6.902456190437078">
        <ele>1021.059999999999945</ele>
        <time>2014-06-15T12:49:37Z</time>
      </trkpt>
      <trkpt lat="46.481064604595304" lon="6.902444371953607">
        <ele>1021.539999999999964</ele>
        <time>2014-06-15T12:49:39Z</time>
      </trkpt>
      <trkpt lat="46.481076339259744" lon="6.902443952858448">
        <ele>1022.019999999999982</ele>
        <time>2014-06-15T12:49:40Z</time>
      </trkpt>
      <trkpt lat="46.481089079752564" lon="6.902444958686829">
        <ele>1022.019999999999982</ele>
        <time>2014-06-15T12:49:41Z</time>
      </trkpt>
      <trkpt lat="46.481102826073766" lon="6.902448311448097">
        <ele>1022.5</ele>
        <time>2014-06-15T12:49:42Z</time>
      </trkpt>
      <trkpt lat="46.481285467743874" lon="6.902429452165961">
        <ele>1025.380000000000109</ele>
        <time>2014-06-15T12:49:56Z</time>
      </trkpt>
      <trkpt lat="46.481510186567903" lon="6.902388716116548">
        <ele>1030.190000000000055</ele>
        <time>2014-06-15T12:50:13Z</time>
      </trkpt>
      <trkpt lat="46.481652008369565" lon="6.902380585670471">
        <ele>1032.589999999999918</ele>
        <time>2014-06-15T12:50:24Z</time>
      </trkpt>
      <trkpt lat="46.481665000319481" lon="6.902384106069803">
        <ele>1032.1099999999999</ele>
        <time>2014-06-15T12:50:25Z</time>
      </trkpt>
      <trkpt lat="46.481884103268385" lon="6.902417382225394">
        <ele>1034.519999999999982</ele>
        <time>2014-06-15T12:50:42Z</time>
      </trkpt>
      <trkpt lat="46.481951745226979" lon="6.902416376397014">
        <ele>1035</ele>
        <time>2014-06-15T12:50:47Z</time>
      </trkpt>
      <trkpt lat="46.482038414105773" lon="6.902393493801355">
        <ele>1036.920000000000073</ele>
        <time>2014-06-15T12:50:54Z</time>
      </trkpt>
      <trkpt lat="46.482049310579896" lon="6.902384776622057">
        <ele>1037.400000000000091</ele>
        <time>2014-06-15T12:50:55Z</time>
      </trkpt>
      <trkpt lat="46.4820612128824" lon="6.902375472709537">
        <ele>1037.400000000000091</ele>
        <time>2014-06-15T12:50:56Z</time>
      </trkpt>
      <trkpt lat="46.482074288651347" lon="6.90236784517765">
        <ele>1037.880000000000109</ele>
        <time>2014-06-15T12:50:57Z</time>
      </trkpt>
      <trkpt lat="46.482086945325136" lon="6.902359379455447">
        <ele>1038.3599999999999</ele>
        <time>2014-06-15T12:50:58Z</time>
      </trkpt>
      <trkpt lat="46.48209985345602" lon="6.902351500466466">
        <ele>1038.839999999999918</ele>
        <time>2014-06-15T12:50:59Z</time>
      </trkpt>
      <trkpt lat="46.482112091034651" lon="6.902344459667802">
        <ele>1038.839999999999918</ele>
        <time>2014-06-15T12:51:00Z</time>
      </trkpt>
      <trkpt lat="46.482124077156186" lon="6.902336245402694">
        <ele>1038.839999999999918</ele>
        <time>2014-06-15T12:51:01Z</time>
      </trkpt>
      <trkpt lat="46.48213648237288" lon="6.902331886813045">
        <ele>1039.319999999999936</ele>
        <time>2014-06-15T12:51:02Z</time>
      </trkpt>
      <trkpt lat="46.482148384675384" lon="6.902329372242093">
        <ele>1039.799999999999955</ele>
        <time>2014-06-15T12:51:03Z</time>
      </trkpt>
      <trkpt lat="46.482310993596911" lon="6.902262317016721">
        <ele>1040.759999999999991</ele>
        <time>2014-06-15T12:51:16Z</time>
      </trkpt>
      <trkpt lat="46.482532946392894" lon="6.902174977585673">
        <ele>1038.839999999999918</ele>
        <time>2014-06-15T12:51:32Z</time>
      </trkpt>
      <trkpt lat="46.48274433799088" lon="6.90210540778935">
        <ele>1039.799999999999955</ele>
        <time>2014-06-15T12:51:48Z</time>
      </trkpt>
      <trkpt lat="46.482942989096045" lon="6.902055870741606">
        <ele>1044.130000000000109</ele>
        <time>2014-06-15T12:52:03Z</time>
      </trkpt>
      <trkpt lat="46.483106771484017" lon="6.902010692283511">
        <ele>1047.009999999999991</ele>
        <time>2014-06-15T12:52:15Z</time>
      </trkpt>
      <trkpt lat="46.48311959579587" lon="6.902003064751625">
        <ele>1047.009999999999991</ele>
        <time>2014-06-15T12:52:16Z</time>
      </trkpt>
      <trkpt lat="46.48313082754612" lon="6.901994096115232">
        <ele>1047.009999999999991</ele>
        <time>2014-06-15T12:52:17Z</time>
      </trkpt>
      <trkpt lat="46.483141807839274" lon="6.901983032003045">
        <ele>1047.490000000000009</ele>
        <time>2014-06-15T12:52:18Z</time>
      </trkpt>
      <trkpt lat="46.483153626322746" lon="6.901973644271493">
        <ele>1047.970000000000027</ele>
        <time>2014-06-15T12:52:19Z</time>
      </trkpt>
      <trkpt lat="46.483165780082345" lon="6.901967693120241">
        <ele>1048.450000000000045</ele>
        <time>2014-06-15T12:52:20Z</time>
      </trkpt>
      <trkpt lat="46.483178185299039" lon="6.901965346187353">
        <ele>1048.450000000000045</ele>
        <time>2014-06-15T12:52:21Z</time>
      </trkpt>
      <trkpt lat="46.483190841972828" lon="6.901961406692863">
        <ele>1048.940000000000055</ele>
        <time>2014-06-15T12:52:22Z</time>
      </trkpt>
      <trkpt lat="46.483207186684012" lon="6.901955623179674">
        <ele>1048.940000000000055</ele>
        <time>2014-06-15T12:52:23Z</time>
      </trkpt>
      <trkpt lat="46.483219927176833" lon="6.901954868808389">
        <ele>1048.940000000000055</ele>
        <time>2014-06-15T12:52:24Z</time>
      </trkpt>
      <trkpt lat="46.483234846964478" lon="6.901953695341945">
        <ele>1048.940000000000055</ele>
        <time>2014-06-15T12:52:25Z</time>
      </trkpt>
      <trkpt lat="46.48324909619987" lon="6.901953611522913">
        <ele>1049.420000000000073</ele>
        <time>2014-06-15T12:52:26Z</time>
      </trkpt>
      <trkpt lat="46.483261836692691" lon="6.901954784989357">
        <ele>1049.420000000000073</ele>
        <time>2014-06-15T12:52:27Z</time>
      </trkpt>
      <trkpt lat="46.483308440074325" lon="6.901965513825417">
        <ele>1050.380000000000109</ele>
        <time>2014-06-15T12:52:31Z</time>
      </trkpt>
      <trkpt lat="46.483321012929082" lon="6.9019681122154">
        <ele>1050.380000000000109</ele>
        <time>2014-06-15T12:52:32Z</time>
      </trkpt>
      <trkpt lat="46.483331993222237" lon="6.901972722262144">
        <ele>1050.8599999999999</ele>
        <time>2014-06-15T12:52:33Z</time>
      </trkpt>
      <trkpt lat="46.483349679037929" lon="6.902008429169655">
        <ele>1051.339999999999918</ele>
        <time>2014-06-15T12:52:36Z</time>
      </trkpt>
      <trkpt lat="46.483346577733755" lon="6.902026366442442">
        <ele>1051.339999999999918</ele>
        <time>2014-06-15T12:52:37Z</time>
      </trkpt>
      <trkpt lat="46.483342051506042" lon="6.902044555172324">
        <ele>1051.819999999999936</ele>
        <time>2014-06-15T12:52:38Z</time>
      </trkpt>
      <trkpt lat="46.483334926888347" lon="6.902063582092524">
        <ele>1051.339999999999918</ele>
        <time>2014-06-15T12:52:39Z</time>
      </trkpt>
      <trkpt lat="46.483328221365809" lon="6.902082106098533">
        <ele>1051.339999999999918</ele>
        <time>2014-06-15T12:52:40Z</time>
      </trkpt>
      <trkpt lat="46.483169300481677" lon="6.902299867942929">
        <ele>1047.970000000000027</ele>
        <time>2014-06-15T12:52:56Z</time>
      </trkpt>
      <trkpt lat="46.483007194474339" lon="6.90246507525444">
        <ele>1045.569999999999936</ele>
        <time>2014-06-15T12:53:12Z</time>
      </trkpt>
      <trkpt lat="46.482843915000558" lon="6.902680322527885">
        <ele>1047.970000000000027</ele>
        <time>2014-06-15T12:53:30Z</time>
      </trkpt>
      <trkpt lat="46.482715252786875" lon="6.902935551479459">
        <ele>1050.380000000000109</ele>
        <time>2014-06-15T12:53:46Z</time>
      </trkpt>
      <trkpt lat="46.482517272233963" lon="6.9031320232898">
        <ele>1051.339999999999918</ele>
        <time>2014-06-15T12:54:03Z</time>
      </trkpt>
      <trkpt lat="46.482493719086051" lon="6.903226152062416">
        <ele>1052.299999999999955</ele>
        <time>2014-06-15T12:54:08Z</time>
      </trkpt>
      <trkpt lat="46.482498329132795" lon="6.90324978902936">
        <ele>1052.299999999999955</ele>
        <time>2014-06-15T12:54:09Z</time>
      </trkpt>
      <trkpt lat="46.482517439872026" lon="6.903300415724516">
        <ele>1053.259999999999991</ele>
        <time>2014-06-15T12:54:12Z</time>
      </trkpt>
      <trkpt lat="46.482527079060674" lon="6.903305863961577">
        <ele>1053.740000000000009</ele>
        <time>2014-06-15T12:54:13Z</time>
      </trkpt>
      <trkpt lat="46.482538394629955" lon="6.903305863961577">
        <ele>1054.220000000000027</ele>
        <time>2014-06-15T12:54:14Z</time>
      </trkpt>
      <trkpt lat="46.482622046023607" lon="6.903298571705818">
        <ele>1056.150000000000091</ele>
        <time>2014-06-15T12:54:21Z</time>
      </trkpt>
      <trkpt lat="46.48263487033546" lon="6.903293626382947">
        <ele>1056.630000000000109</ele>
        <time>2014-06-15T12:54:22Z</time>
      </trkpt>
      <trkpt lat="46.48264761082828" lon="6.90328985452652">
        <ele>1056.630000000000109</ele>
        <time>2014-06-15T12:54:23Z</time>
      </trkpt>
      <trkpt lat="46.482883393764496" lon="6.903194049373269">
        <ele>1059.029999999999973</ele>
        <time>2014-06-15T12:54:42Z</time>
      </trkpt>
      <trkpt lat="46.483086235821247" lon="6.903059855103493">
        <ele>1062.3900000000001</ele>
        <time>2014-06-15T12:54:54Z</time>
      </trkpt>
      <trkpt lat="46.483272481709719" lon="6.902957512065768">
        <ele>1067.680000000000064</ele>
        <time>2014-06-15T12:55:06Z</time>
      </trkpt>
      <trkpt lat="46.483305338770151" lon="6.902958014979959">
        <ele>1069.119999999999891</ele>
        <time>2014-06-15T12:55:08Z</time>
      </trkpt>
      <trkpt lat="46.483317408710718" lon="6.902954410761595">
        <ele>1069.599999999999909</ele>
        <time>2014-06-15T12:55:09Z</time>
      </trkpt>
      <trkpt lat="46.483329143375158" lon="6.90295273438096">
        <ele>1070.079999999999927</ele>
        <time>2014-06-15T12:55:10Z</time>
      </trkpt>
      <trkpt lat="46.483414890244603" lon="6.902950219810009">
        <ele>1073.930000000000064</ele>
        <time>2014-06-15T12:55:17Z</time>
      </trkpt>
      <trkpt lat="46.483426624909043" lon="6.902950890362263">
        <ele>1074.410000000000082</ele>
        <time>2014-06-15T12:55:18Z</time>
      </trkpt>
      <trkpt lat="46.483467947691679" lon="6.902946028858423">
        <ele>1075.369999999999891</ele>
        <time>2014-06-15T12:55:21Z</time>
      </trkpt>
      <trkpt lat="46.4834806881845" lon="6.902949884533882">
        <ele>1075.849999999999909</ele>
        <time>2014-06-15T12:55:22Z</time>
      </trkpt>
      <trkpt lat="46.483692834153771" lon="6.902952315285802">
        <ele>1081.619999999999891</ele>
        <time>2014-06-15T12:55:38Z</time>
      </trkpt>
      <trkpt lat="46.483707502484322" lon="6.902950638905168">
        <ele>1082.099999999999909</ele>
        <time>2014-06-15T12:55:39Z</time>
      </trkpt>
      <trkpt lat="46.483718901872635" lon="6.902950471267104">
        <ele>1082.579999999999927</ele>
        <time>2014-06-15T12:55:40Z</time>
      </trkpt>
      <trkpt lat="46.483731726184487" lon="6.902947118505836">
        <ele>1083.059999999999945</ele>
        <time>2014-06-15T12:55:41Z</time>
      </trkpt>
      <trkpt lat="46.483743125572801" lon="6.902942340821028">
        <ele>1083.539999999999964</ele>
        <time>2014-06-15T12:55:42Z</time>
      </trkpt>
      <trkpt lat="46.483956361189485" lon="6.902904370799661">
        <ele>1084.5</ele>
        <time>2014-06-15T12:55:58Z</time>
      </trkpt>
      <trkpt lat="46.484127268195152" lon="6.902907220646739">
        <ele>1089.309999999999945</ele>
        <time>2014-06-15T12:56:11Z</time>
      </trkpt>
      <trkpt lat="46.484142020344734" lon="6.90291216596961">
        <ele>1089.309999999999945</ele>
        <time>2014-06-15T12:56:12Z</time>
      </trkpt>
      <trkpt lat="46.484157526865602" lon="6.902914261445403">
        <ele>1089.309999999999945</ele>
        <time>2014-06-15T12:56:13Z</time>
      </trkpt>
      <trkpt lat="46.48417261429131" lon="6.902917781844735">
        <ele>1089.309999999999945</ele>
        <time>2014-06-15T12:56:14Z</time>
      </trkpt>
      <trkpt lat="46.484185522422194" lon="6.902923565357924">
        <ele>1089.789999999999964</ele>
        <time>2014-06-15T12:56:15Z</time>
      </trkpt>
      <trkpt lat="46.484200106933713" lon="6.902930857613683">
        <ele>1089.789999999999964</ele>
        <time>2014-06-15T12:56:16Z</time>
      </trkpt>
      <trkpt lat="46.484216535463929" lon="6.902939407154918">
        <ele>1089.789999999999964</ele>
        <time>2014-06-15T12:56:17Z</time>
      </trkpt>
      <trkpt lat="46.484414013102651" lon="6.903020711615682">
        <ele>1090.75</ele>
        <time>2014-06-15T12:56:32Z</time>
      </trkpt>
      <trkpt lat="46.48457620292902" lon="6.903070248663425">
        <ele>1094.119999999999891</ele>
        <time>2014-06-15T12:56:45Z</time>
      </trkpt>
      <trkpt lat="46.484587183222175" lon="6.903079217299819">
        <ele>1094.119999999999891</ele>
        <time>2014-06-15T12:56:46Z</time>
      </trkpt>
      <trkpt lat="46.484699249267578" lon="6.903139147907495">
        <ele>1096.039999999999964</ele>
        <time>2014-06-15T12:56:55Z</time>
      </trkpt>
      <trkpt lat="46.484714923426509" lon="6.903147026896477">
        <ele>1096.519999999999982</ele>
        <time>2014-06-15T12:56:56Z</time>
      </trkpt>
      <trkpt lat="46.48472623899579" lon="6.903155911713839">
        <ele>1097</ele>
        <time>2014-06-15T12:56:57Z</time>
      </trkpt>
      <trkpt lat="46.484736297279596" lon="6.903164880350232">
        <ele>1097</ele>
        <time>2014-06-15T12:56:58Z</time>
      </trkpt>
      <trkpt lat="46.484747780486941" lon="6.903175106272101">
        <ele>1097</ele>
        <time>2014-06-15T12:56:59Z</time>
      </trkpt>
      <trkpt lat="46.484757922589779" lon="6.903184996917844">
        <ele>1097</ele>
        <time>2014-06-15T12:57:00Z</time>
      </trkpt>
      <trkpt lat="46.484768064692616" lon="6.903195977210999">
        <ele>1097</ele>
        <time>2014-06-15T12:57:01Z</time>
      </trkpt>
      <trkpt lat="46.484778374433517" lon="6.903205867856741">
        <ele>1097</ele>
        <time>2014-06-15T12:57:02Z</time>
      </trkpt>
      <trkpt lat="46.484787510707974" lon="6.903216931968927">
        <ele>1097</ele>
        <time>2014-06-15T12:57:03Z</time>
      </trkpt>
      <trkpt lat="46.484973421320319" lon="6.903385240584612">
        <ele>1097.960000000000036</ele>
        <time>2014-06-15T12:57:20Z</time>
      </trkpt>
      <trkpt lat="46.485176766291261" lon="6.903534606099129">
        <ele>1099.8900000000001</ele>
        <time>2014-06-15T12:57:36Z</time>
      </trkpt>
      <trkpt lat="46.485401652753353" lon="6.903680367395282">
        <ele>1103.25</ele>
        <time>2014-06-15T12:57:54Z</time>
      </trkpt>
      <trkpt lat="46.485639279708266" lon="6.903884131461382">
        <ele>1103.730000000000018</ele>
        <time>2014-06-15T12:58:13Z</time>
      </trkpt>
      <trkpt lat="46.485775904729962" lon="6.903942637145519">
        <ele>1107.579999999999927</ele>
        <time>2014-06-15T12:58:24Z</time>
      </trkpt>
      <trkpt lat="46.485981764271855" lon="6.903985049575567">
        <ele>1108.539999999999964</ele>
        <time>2014-06-15T12:58:39Z</time>
      </trkpt>
      <trkpt lat="46.486219726502895" lon="6.903991084545851">
        <ele>1110.940000000000055</ele>
        <time>2014-06-15T12:58:57Z</time>
      </trkpt>
      <trkpt lat="46.486488785594702" lon="6.904033496975899">
        <ele>1113.819999999999936</ele>
        <time>2014-06-15T12:59:15Z</time>
      </trkpt>
      <trkpt lat="46.486668325960636" lon="6.904149921610951">
        <ele>1114.309999999999945</ele>
        <time>2014-06-15T12:59:29Z</time>
      </trkpt>
      <trkpt lat="46.48686446249485" lon="6.904335161671042">
        <ele>1115.269999999999982</ele>
        <time>2014-06-15T12:59:46Z</time>
      </trkpt>
      <trkpt lat="46.487050037831068" lon="6.904601706191897">
        <ele>1117.670000000000073</ele>
        <time>2014-06-15T13:00:06Z</time>
      </trkpt>
      <trkpt lat="46.4872089587152" lon="6.904821060597897">
        <ele>1118.150000000000091</ele>
        <time>2014-06-15T13:00:21Z</time>
      </trkpt>
      <trkpt lat="46.487375004217029" lon="6.905007222667336">
        <ele>1119.1099999999999</ele>
        <time>2014-06-15T13:00:36Z</time>
      </trkpt>
      <trkpt lat="46.487505929544568" lon="6.905209394171834">
        <ele>1121.519999999999982</ele>
        <time>2014-06-15T13:00:50Z</time>
      </trkpt>
      <trkpt lat="46.487582540139556" lon="6.905514746904373">
        <ele>1122.480000000000018</ele>
        <time>2014-06-15T13:01:03Z</time>
      </trkpt>
      <trkpt lat="46.487576672807336" lon="6.905910288915038">
        <ele>1121.519999999999982</ele>
        <time>2014-06-15T13:01:14Z</time>
      </trkpt>
      <trkpt lat="46.4877391140908" lon="6.906235422939062">
        <ele>1120.549999999999955</ele>
        <time>2014-06-15T13:01:23Z</time>
      </trkpt>
      <trkpt lat="46.48807330057025" lon="6.906583355739713">
        <ele>1119.589999999999918</ele>
        <time>2014-06-15T13:01:33Z</time>
      </trkpt>
      <trkpt lat="46.488285195082426" lon="6.906705982983112">
        <ele>1122</ele>
        <time>2014-06-15T13:01:40Z</time>
      </trkpt>
      <trkpt lat="46.488313609734178" lon="6.906734397634864">
        <ele>1122</ele>
        <time>2014-06-15T13:01:41Z</time>
      </trkpt>
      <trkpt lat="46.488347304984927" lon="6.906754178926349">
        <ele>1122.480000000000018</ele>
        <time>2014-06-15T13:01:42Z</time>
      </trkpt>
      <trkpt lat="46.488386699929833" lon="6.906767841428518">
        <ele>1122.480000000000018</ele>
        <time>2014-06-15T13:01:43Z</time>
      </trkpt>
      <trkpt lat="46.488428777083755" lon="6.906782845035195">
        <ele>1122.480000000000018</ele>
        <time>2014-06-15T13:01:44Z</time>
      </trkpt>
      <trkpt lat="46.488472195342183" lon="6.906799105927348">
        <ele>1122.480000000000018</ele>
        <time>2014-06-15T13:01:45Z</time>
      </trkpt>
      <trkpt lat="46.488797832280397" lon="6.906912345439196">
        <ele>1122.960000000000036</ele>
        <time>2014-06-15T13:01:52Z</time>
      </trkpt>
      <trkpt lat="46.488843765109777" lon="6.90692231990397">
        <ele>1122.960000000000036</ele>
        <time>2014-06-15T13:01:53Z</time>
      </trkpt>
      <trkpt lat="46.488886680454016" lon="6.906932797282934">
        <ele>1122.960000000000036</ele>
        <time>2014-06-15T13:01:54Z</time>
      </trkpt>
      <trkpt lat="46.489241737872362" lon="6.906876554712653">
        <ele>1127.759999999999991</ele>
        <time>2014-06-15T13:02:07Z</time>
      </trkpt>
      <trkpt lat="46.489467797800899" lon="6.906877309083939">
        <ele>1132.089999999999918</ele>
        <time>2014-06-15T13:02:22Z</time>
      </trkpt>
      <trkpt lat="46.489481795579195" lon="6.906875632703304">
        <ele>1132.089999999999918</ele>
        <time>2014-06-15T13:02:23Z</time>
      </trkpt>
      <trkpt lat="46.489495541900396" lon="6.906874962151051">
        <ele>1132.089999999999918</ele>
        <time>2014-06-15T13:02:24Z</time>
      </trkpt>
      <trkpt lat="46.489508785307407" lon="6.906875548884273">
        <ele>1132.089999999999918</ele>
        <time>2014-06-15T13:02:25Z</time>
      </trkpt>
      <trkpt lat="46.489681955426931" lon="6.906850654631853">
        <ele>1137.8599999999999</ele>
        <time>2014-06-15T13:02:39Z</time>
      </trkpt>
      <trkpt lat="46.489926455542445" lon="6.906767506152391">
        <ele>1140.740000000000009</ele>
        <time>2014-06-15T13:02:56Z</time>
      </trkpt>
      <trkpt lat="46.490152599290013" lon="6.906704138964415">
        <ele>1141.220000000000027</ele>
        <time>2014-06-15T13:03:11Z</time>
      </trkpt>
      <trkpt lat="46.490405313670635" lon="6.906629288569093">
        <ele>1141.700000000000045</ele>
        <time>2014-06-15T13:03:26Z</time>
      </trkpt>
      <trkpt lat="46.490639084950089" lon="6.906625935807824">
        <ele>1143.630000000000109</ele>
        <time>2014-06-15T13:03:42Z</time>
      </trkpt>
      <trkpt lat="46.490893475711346" lon="6.906676813960075">
        <ele>1143.630000000000109</ele>
        <time>2014-06-15T13:03:59Z</time>
      </trkpt>
      <trkpt lat="46.491136215627193" lon="6.906771026551723">
        <ele>1145.549999999999955</ele>
        <time>2014-06-15T13:04:14Z</time>
      </trkpt>
      <trkpt lat="46.49131148122251" lon="6.906908405944705">
        <ele>1146.990000000000009</ele>
        <time>2014-06-15T13:04:26Z</time>
      </trkpt>
      <trkpt lat="46.491323718801141" lon="6.90692525357008">
        <ele>1146.990000000000009</ele>
        <time>2014-06-15T13:04:27Z</time>
      </trkpt>
      <trkpt lat="46.491489177569747" lon="6.907206298783422">
        <ele>1150.349999999999909</ele>
        <time>2014-06-15T13:04:44Z</time>
      </trkpt>
      <trkpt lat="46.491641895845532" lon="6.907493378967047">
        <ele>1152.759999999999991</ele>
        <time>2014-06-15T13:05:02Z</time>
      </trkpt>
      <trkpt lat="46.49177030660212" lon="6.907851789146662">
        <ele>1154.680000000000064</ele>
        <time>2014-06-15T13:05:22Z</time>
      </trkpt>
      <trkpt lat="46.491906261071563" lon="6.908139539882541">
        <ele>1158.049999999999955</ele>
        <time>2014-06-15T13:05:39Z</time>
      </trkpt>
      <trkpt lat="46.492094686254859" lon="6.908357469365001">
        <ele>1160.450000000000045</ele>
        <time>2014-06-15T13:05:56Z</time>
      </trkpt>
      <trkpt lat="46.492209434509277" lon="6.908471211791039">
        <ele>1161.410000000000082</ele>
        <time>2014-06-15T13:06:06Z</time>
      </trkpt>
      <trkpt lat="46.49244362488389" lon="6.908655697479844">
        <ele>1164.769999999999982</ele>
        <time>2014-06-15T13:06:25Z</time>
      </trkpt>
      <trkpt lat="46.492612604051828" lon="6.908828029409051">
        <ele>1167.180000000000064</ele>
        <time>2014-06-15T13:06:40Z</time>
      </trkpt>
      <trkpt lat="46.492774374783039" lon="6.909052915871143">
        <ele>1166.700000000000045</ele>
        <time>2014-06-15T13:06:57Z</time>
      </trkpt>
      <trkpt lat="46.492859618738294" lon="6.909128939732909">
        <ele>1167.180000000000064</ele>
        <time>2014-06-15T13:07:04Z</time>
      </trkpt>
      <trkpt lat="46.493054665625095" lon="6.909280233085155">
        <ele>1169.099999999999909</ele>
        <time>2014-06-15T13:07:21Z</time>
      </trkpt>
      <trkpt lat="46.493171090260148" lon="6.909377798438072">
        <ele>1168.619999999999891</ele>
        <time>2014-06-15T13:07:32Z</time>
      </trkpt>
      <trkpt lat="46.493182824924588" lon="6.909387856721878">
        <ele>1168.619999999999891</ele>
        <time>2014-06-15T13:07:33Z</time>
      </trkpt>
      <trkpt lat="46.493376279249787" lon="6.909579131752253">
        <ele>1168.1400000000001</ele>
        <time>2014-06-15T13:07:49Z</time>
      </trkpt>
      <trkpt lat="46.493637543171644" lon="6.909603187814355">
        <ele>1178.710000000000036</ele>
        <time>2014-06-15T13:08:03Z</time>
      </trkpt>
      <trkpt lat="46.493821693584323" lon="6.909734029322863">
        <ele>1183.039999999999964</ele>
        <time>2014-06-15T13:08:18Z</time>
      </trkpt>
      <trkpt lat="46.493856310844421" lon="6.909763617441058">
        <ele>1183.039999999999964</ele>
        <time>2014-06-15T13:08:21Z</time>
      </trkpt>
      <trkpt lat="46.493865866214037" lon="6.909780129790306">
        <ele>1183.519999999999982</ele>
        <time>2014-06-15T13:08:22Z</time>
      </trkpt>
      <trkpt lat="46.493874667212367" lon="6.909794798120856">
        <ele>1183.519999999999982</ele>
        <time>2014-06-15T13:08:23Z</time>
      </trkpt>
      <trkpt lat="46.493885144591331" lon="6.909806281328201">
        <ele>1183.519999999999982</ele>
        <time>2014-06-15T13:08:24Z</time>
      </trkpt>
      <trkpt lat="46.493896460160613" lon="6.909819524735212">
        <ele>1183.519999999999982</ele>
        <time>2014-06-15T13:08:25Z</time>
      </trkpt>
      <trkpt lat="46.493907691910863" lon="6.909832935780287">
        <ele>1184</ele>
        <time>2014-06-15T13:08:26Z</time>
      </trkpt>
      <trkpt lat="46.493918085470796" lon="6.90984726883471">
        <ele>1184</ele>
        <time>2014-06-15T13:08:27Z</time>
      </trkpt>
      <trkpt lat="46.493929233402014" lon="6.909859338775277">
        <ele>1184</ele>
        <time>2014-06-15T13:08:28Z</time>
      </trkpt>
      <trkpt lat="46.494116568937898" lon="6.910036029294133">
        <ele>1185.440000000000055</ele>
        <time>2014-06-15T13:08:44Z</time>
      </trkpt>
      <trkpt lat="46.494301054626703" lon="6.91026259213686">
        <ele>1184.480000000000018</ele>
        <time>2014-06-15T13:09:01Z</time>
      </trkpt>
      <trkpt lat="46.494400966912508" lon="6.910367198288441">
        <ele>1184</ele>
        <time>2014-06-15T13:09:10Z</time>
      </trkpt>
      <trkpt lat="46.494413372129202" lon="6.910374825820327">
        <ele>1184</ele>
        <time>2014-06-15T13:09:11Z</time>
      </trkpt>
      <trkpt lat="46.494427202269435" lon="6.910384800285101">
        <ele>1184.480000000000018</ele>
        <time>2014-06-15T13:09:12Z</time>
      </trkpt>
      <trkpt lat="46.494440110400319" lon="6.910394355654716">
        <ele>1184.480000000000018</ele>
        <time>2014-06-15T13:09:13Z</time>
      </trkpt>
      <trkpt lat="46.494452264159918" lon="6.910405838862062">
        <ele>1184.960000000000036</ele>
        <time>2014-06-15T13:09:14Z</time>
      </trkpt>
      <trkpt lat="46.494463076815009" lon="6.910419669002295">
        <ele>1184.960000000000036</ele>
        <time>2014-06-15T13:09:15Z</time>
      </trkpt>
      <trkpt lat="46.494473554193974" lon="6.910432409495115">
        <ele>1184.960000000000036</ele>
        <time>2014-06-15T13:09:16Z</time>
      </trkpt>
      <trkpt lat="46.494484450668097" lon="6.910442467778921">
        <ele>1185.440000000000055</ele>
        <time>2014-06-15T13:09:17Z</time>
      </trkpt>
      <trkpt lat="46.494494341313839" lon="6.910452609881759">
        <ele>1185.440000000000055</ele>
        <time>2014-06-15T13:09:18Z</time>
      </trkpt>
      <trkpt lat="46.494607497006655" lon="6.910571632906795">
        <ele>1186.400000000000091</ele>
        <time>2014-06-15T13:09:29Z</time>
      </trkpt>
      <trkpt lat="46.494618980214" lon="6.910579176619649">
        <ele>1186.400000000000091</ele>
        <time>2014-06-15T13:09:30Z</time>
      </trkpt>
      <trkpt lat="46.494630631059408" lon="6.910587390884757">
        <ele>1186.400000000000091</ele>
        <time>2014-06-15T13:09:31Z</time>
      </trkpt>
      <trkpt lat="46.494642700999975" lon="6.910596443340182">
        <ele>1186.400000000000091</ele>
        <time>2014-06-15T13:09:32Z</time>
      </trkpt>
      <trkpt lat="46.494654100388288" lon="6.910607255995274">
        <ele>1186.400000000000091</ele>
        <time>2014-06-15T13:09:33Z</time>
      </trkpt>
      <trkpt lat="46.494859708473086" lon="6.9107820186764">
        <ele>1187.369999999999891</ele>
        <time>2014-06-15T13:09:51Z</time>
      </trkpt>
      <trkpt lat="46.49486968293786" lon="6.910788724198937">
        <ele>1187.369999999999891</ele>
        <time>2014-06-15T13:09:52Z</time>
      </trkpt>
      <trkpt lat="46.494876639917493" lon="6.910798950120807">
        <ele>1187.849999999999909</ele>
        <time>2014-06-15T13:09:53Z</time>
      </trkpt>
      <trkpt lat="46.49488678202033" lon="6.910808086395264">
        <ele>1187.849999999999909</ele>
        <time>2014-06-15T13:09:54Z</time>
      </trkpt>
      <trkpt lat="46.494901785627007" lon="6.910815294831991">
        <ele>1188.329999999999927</ele>
        <time>2014-06-15T13:09:55Z</time>
      </trkpt>
      <trkpt lat="46.494916286319494" lon="6.910821916535497">
        <ele>1188.329999999999927</ele>
        <time>2014-06-15T13:09:56Z</time>
      </trkpt>
      <trkpt lat="46.494930535554886" lon="6.910830717533827">
        <ele>1188.809999999999945</ele>
        <time>2014-06-15T13:09:57Z</time>
      </trkpt>
      <trkpt lat="46.49494344368577" lon="6.910841278731823">
        <ele>1188.809999999999945</ele>
        <time>2014-06-15T13:09:58Z</time>
      </trkpt>
      <trkpt lat="46.494954256340861" lon="6.910854522138834">
        <ele>1189.289999999999964</ele>
        <time>2014-06-15T13:09:59Z</time>
      </trkpt>
      <trkpt lat="46.495102196931839" lon="6.91099064424634">
        <ele>1190.730000000000018</ele>
        <time>2014-06-15T13:10:13Z</time>
      </trkpt>
      <trkpt lat="46.495336471125484" lon="6.911133304238319">
        <ele>1197.460000000000036</ele>
        <time>2014-06-15T13:10:31Z</time>
      </trkpt>
      <trkpt lat="46.495348289608955" lon="6.911143530160189">
        <ele>1197.460000000000036</ele>
        <time>2014-06-15T13:10:32Z</time>
      </trkpt>
      <trkpt lat="46.495363460853696" lon="6.911144955083728">
        <ele>1198.420000000000073</ele>
        <time>2014-06-15T13:10:33Z</time>
      </trkpt>
      <trkpt lat="46.495377793908119" lon="6.911152498796582">
        <ele>1198.420000000000073</ele>
        <time>2014-06-15T13:10:34Z</time>
      </trkpt>
      <trkpt lat="46.495392210781574" lon="6.911157444119453">
        <ele>1199.380000000000109</ele>
        <time>2014-06-15T13:10:35Z</time>
      </trkpt>
      <trkpt lat="46.495405286550522" lon="6.91116264089942">
        <ele>1199.8599999999999</ele>
        <time>2014-06-15T13:10:36Z</time>
      </trkpt>
      <trkpt lat="46.495416685938835" lon="6.911169178783894">
        <ele>1200.819999999999936</ele>
        <time>2014-06-15T13:10:37Z</time>
      </trkpt>
      <trkpt lat="46.495428839698434" lon="6.911174543201923">
        <ele>1201.299999999999955</ele>
        <time>2014-06-15T13:10:38Z</time>
      </trkpt>
      <trkpt lat="46.495440993458033" lon="6.911183008924127">
        <ele>1201.789999999999964</ele>
        <time>2014-06-15T13:10:39Z</time>
      </trkpt>
      <trkpt lat="46.495651043951511" lon="6.911306222900748">
        <ele>1206.589999999999918</ele>
        <time>2014-06-15T13:10:55Z</time>
      </trkpt>
      <trkpt lat="46.495851539075375" lon="6.91147050820291">
        <ele>1209</ele>
        <time>2014-06-15T13:11:11Z</time>
      </trkpt>
      <trkpt lat="46.496067624539137" lon="6.911568576470017">
        <ele>1215.720000000000027</ele>
        <time>2014-06-15T13:11:26Z</time>
      </trkpt>
      <trkpt lat="46.496080113574862" lon="6.911576287820935">
        <ele>1216.210000000000036</ele>
        <time>2014-06-15T13:11:27Z</time>
      </trkpt>
      <trkpt lat="46.496091932058334" lon="6.911583999171853">
        <ele>1216.690000000000055</ele>
        <time>2014-06-15T13:11:28Z</time>
      </trkpt>
      <trkpt lat="46.496106013655663" lon="6.911589782685041">
        <ele>1216.690000000000055</ele>
        <time>2014-06-15T13:11:29Z</time>
      </trkpt>
      <trkpt lat="46.496122777462006" lon="6.911588693037629">
        <ele>1217.170000000000073</ele>
        <time>2014-06-15T13:11:30Z</time>
      </trkpt>
      <trkpt lat="46.496135769411922" lon="6.911594141274691">
        <ele>1217.650000000000091</ele>
        <time>2014-06-15T13:11:31Z</time>
      </trkpt>
      <trkpt lat="46.496148593723774" lon="6.911599840968847">
        <ele>1218.130000000000109</ele>
        <time>2014-06-15T13:11:32Z</time>
      </trkpt>
      <trkpt lat="46.49616208858788" lon="6.911604786291718">
        <ele>1218.6099999999999</ele>
        <time>2014-06-15T13:11:33Z</time>
      </trkpt>
      <trkpt lat="46.496176170185208" lon="6.911613335832953">
        <ele>1218.6099999999999</ele>
        <time>2014-06-15T13:11:34Z</time>
      </trkpt>
      <trkpt lat="46.496189497411251" lon="6.911622555926442">
        <ele>1219.089999999999918</ele>
        <time>2014-06-15T13:11:35Z</time>
      </trkpt>
      <trkpt lat="46.496206009760499" lon="6.911629848182201">
        <ele>1219.569999999999936</ele>
        <time>2014-06-15T13:11:36Z</time>
      </trkpt>
      <trkpt lat="46.496221348643303" lon="6.911637391895056">
        <ele>1219.569999999999936</ele>
        <time>2014-06-15T13:11:37Z</time>
      </trkpt>
      <trkpt lat="46.496233250945807" lon="6.911643091589212">
        <ele>1220.049999999999955</ele>
        <time>2014-06-15T13:11:38Z</time>
      </trkpt>
      <trkpt lat="46.496248254552484" lon="6.91164786927402">
        <ele>1220.529999999999973</ele>
        <time>2014-06-15T13:11:39Z</time>
      </trkpt>
      <trkpt lat="46.496263341978192" lon="6.91165273077786">
        <ele>1220.529999999999973</ele>
        <time>2014-06-15T13:11:40Z</time>
      </trkpt>
      <trkpt lat="46.496280021965504" lon="6.911660525947809">
        <ele>1221.009999999999991</ele>
        <time>2014-06-15T13:11:41Z</time>
      </trkpt>
      <trkpt lat="46.496294857934117" lon="6.911666980013251">
        <ele>1221.970000000000027</ele>
        <time>2014-06-15T13:11:42Z</time>
      </trkpt>
      <trkpt lat="46.49651437997818" lon="6.911841575056314">
        <ele>1223.900000000000091</ele>
        <time>2014-06-15T13:11:56Z</time>
      </trkpt>
      <trkpt lat="46.496776565909386" lon="6.912137120962143">
        <ele>1224.380000000000109</ele>
        <time>2014-06-15T13:12:09Z</time>
      </trkpt>
      <trkpt lat="46.496969014406204" lon="6.912525873631239">
        <ele>1225.819999999999936</ele>
        <time>2014-06-15T13:12:26Z</time>
      </trkpt>
      <trkpt lat="46.497211502864957" lon="6.912719579413533">
        <ele>1225.819999999999936</ele>
        <time>2014-06-15T13:12:40Z</time>
      </trkpt>
      <trkpt lat="46.497578211128712" lon="6.913036331534386">
        <ele>1225.819999999999936</ele>
        <time>2014-06-15T13:12:53Z</time>
      </trkpt>
      <trkpt lat="46.497843079268932" lon="6.913270270451903">
        <ele>1227.259999999999991</ele>
        <time>2014-06-15T13:13:06Z</time>
      </trkpt>
      <trkpt lat="46.498031001538038" lon="6.913438998162746">
        <ele>1230.1400000000001</ele>
        <time>2014-06-15T13:13:21Z</time>
      </trkpt>
      <trkpt lat="46.498043071478605" lon="6.913450146093965">
        <ele>1230.619999999999891</ele>
        <time>2014-06-15T13:13:22Z</time>
      </trkpt>
      <trkpt lat="46.498053465038538" lon="6.91346162930131">
        <ele>1230.619999999999891</ele>
        <time>2014-06-15T13:13:23Z</time>
      </trkpt>
      <trkpt lat="46.498063942417502" lon="6.913472441956401">
        <ele>1230.619999999999891</ele>
        <time>2014-06-15T13:13:24Z</time>
      </trkpt>
      <trkpt lat="46.498074335977435" lon="6.913487110286951">
        <ele>1231.1099999999999</ele>
        <time>2014-06-15T13:13:25Z</time>
      </trkpt>
      <trkpt lat="46.498082298785448" lon="6.913503287360072">
        <ele>1231.1099999999999</ele>
        <time>2014-06-15T13:13:26Z</time>
      </trkpt>
      <trkpt lat="46.498089507222176" lon="6.913519129157066">
        <ele>1231.1099999999999</ele>
        <time>2014-06-15T13:13:27Z</time>
      </trkpt>
      <trkpt lat="46.498097470030189" lon="6.91353396512568">
        <ele>1231.1099999999999</ele>
        <time>2014-06-15T13:13:28Z</time>
      </trkpt>
      <trkpt lat="46.498106438666582" lon="6.913546454161406">
        <ele>1231.1099999999999</ele>
        <time>2014-06-15T13:13:29Z</time>
      </trkpt>
      <trkpt lat="46.498114904388785" lon="6.913561625406146">
        <ele>1231.589999999999918</ele>
        <time>2014-06-15T13:13:30Z</time>
      </trkpt>
      <trkpt lat="46.498121945187449" lon="6.913577131927013">
        <ele>1231.589999999999918</ele>
        <time>2014-06-15T13:13:31Z</time>
      </trkpt>
      <trkpt lat="46.498129488900304" lon="6.913592554628849">
        <ele>1231.589999999999918</ele>
        <time>2014-06-15T13:13:32Z</time>
      </trkpt>
      <trkpt lat="46.498295366764069" lon="6.913723144680262">
        <ele>1232.069999999999936</ele>
        <time>2014-06-15T13:13:44Z</time>
      </trkpt>
      <trkpt lat="46.498339874669909" lon="6.913803024217486">
        <ele>1231.1099999999999</ele>
        <time>2014-06-15T13:13:46Z</time>
      </trkpt>
      <trkpt lat="46.498363008722663" lon="6.91386722959578">
        <ele>1230.619999999999891</ele>
        <time>2014-06-15T13:13:47Z</time>
      </trkpt>
      <trkpt lat="46.498675150796771" lon="6.91478194668889">
        <ele>1223.420000000000073</ele>
        <time>2014-06-15T13:13:55Z</time>
      </trkpt>
      <trkpt lat="46.499007157981396" lon="6.915702782571316">
        <ele>1221.009999999999991</ele>
        <time>2014-06-15T13:14:03Z</time>
      </trkpt>
      <trkpt lat="46.499081337824464" lon="6.915858518332243">
        <ele>1220.529999999999973</ele>
        <time>2014-06-15T13:14:05Z</time>
      </trkpt>
      <trkpt lat="46.499108243733644" lon="6.915933871641755">
        <ele>1220.049999999999955</ele>
        <time>2014-06-15T13:14:06Z</time>
      </trkpt>
      <trkpt lat="46.499130455777049" lon="6.916011655703187">
        <ele>1219.569999999999936</ele>
        <time>2014-06-15T13:14:07Z</time>
      </trkpt>
      <trkpt lat="46.499148393049836" lon="6.916093546897173">
        <ele>1219.089999999999918</ele>
        <time>2014-06-15T13:14:08Z</time>
      </trkpt>
      <trkpt lat="46.499164570122957" lon="6.916179796680808">
        <ele>1218.6099999999999</ele>
        <time>2014-06-15T13:14:09Z</time>
      </trkpt>
      <trkpt lat="46.499178735539317" lon="6.916269399225712">
        <ele>1218.130000000000109</ele>
        <time>2014-06-15T13:14:10Z</time>
      </trkpt>
      <trkpt lat="46.499289879575372" lon="6.916972137987614">
        <ele>1216.210000000000036</ele>
        <time>2014-06-15T13:14:17Z</time>
      </trkpt>
      <trkpt lat="46.49931812658906" lon="6.917062746360898">
        <ele>1216.210000000000036</ele>
        <time>2014-06-15T13:14:18Z</time>
      </trkpt>
      <trkpt lat="46.499351235106587" lon="6.917142709717155">
        <ele>1216.210000000000036</ele>
        <time>2014-06-15T13:14:19Z</time>
      </trkpt>
      <trkpt lat="46.499382751062512" lon="6.917216973379254">
        <ele>1215.720000000000027</ele>
        <time>2014-06-15T13:14:20Z</time>
      </trkpt>
      <trkpt lat="46.499408902600408" lon="6.917285285890102">
        <ele>1215.720000000000027</ele>
        <time>2014-06-15T13:14:21Z</time>
      </trkpt>
      <trkpt lat="46.4994300249964" lon="6.917350245639682">
        <ele>1215.720000000000027</ele>
        <time>2014-06-15T13:14:22Z</time>
      </trkpt>
      <trkpt lat="46.49946128949523" lon="6.917478824034333">
        <ele>1215.720000000000027</ele>
        <time>2014-06-15T13:14:24Z</time>
      </trkpt>
      <trkpt lat="46.499464474618435" lon="6.917544370517135">
        <ele>1215.720000000000027</ele>
        <time>2014-06-15T13:14:25Z</time>
      </trkpt>
      <trkpt lat="46.499459277838469" lon="6.917608575895429">
        <ele>1216.210000000000036</ele>
        <time>2014-06-15T13:14:26Z</time>
      </trkpt>
      <trkpt lat="46.499444944784045" lon="6.917669679969549">
        <ele>1215.720000000000027</ele>
        <time>2014-06-15T13:14:27Z</time>
      </trkpt>
      <trkpt lat="46.499423487111926" lon="6.917735058814287">
        <ele>1215.240000000000009</ele>
        <time>2014-06-15T13:14:28Z</time>
      </trkpt>
      <trkpt lat="46.499402448534966" lon="6.917811837047338">
        <ele>1214.759999999999991</ele>
        <time>2014-06-15T13:14:29Z</time>
      </trkpt>
      <trkpt lat="46.499383170157671" lon="6.917917281389236">
        <ele>1214.279999999999973</ele>
        <time>2014-06-15T13:14:30Z</time>
      </trkpt>
      <trkpt lat="46.499368082731962" lon="6.918051140382886">
        <ele>1213.319999999999936</ele>
        <time>2014-06-15T13:14:31Z</time>
      </trkpt>
      <trkpt lat="46.499279653653502" lon="6.919387131929398">
        <ele>1202.75</ele>
        <time>2014-06-15T13:14:40Z</time>
      </trkpt>
      <trkpt lat="46.499256184324622" lon="6.919531803578138">
        <ele>1201.789999999999964</ele>
        <time>2014-06-15T13:14:41Z</time>
      </trkpt>
      <trkpt lat="46.499092569574714" lon="6.920159356668591">
        <ele>1196.5</ele>
        <time>2014-06-15T13:14:46Z</time>
      </trkpt>
      <trkpt lat="46.499039512127638" lon="6.920417351648211">
        <ele>1194.089999999999918</ele>
        <time>2014-06-15T13:14:48Z</time>
      </trkpt>
      <trkpt lat="46.499006738886237" lon="6.920674592256546">
        <ele>1191.690000000000055</ele>
        <time>2014-06-15T13:14:50Z</time>
      </trkpt>
      <trkpt lat="46.498579010367393" lon="6.921363081783056">
        <ele>1184.960000000000036</ele>
        <time>2014-06-15T13:14:57Z</time>
      </trkpt>
      <trkpt lat="46.498426962643862" lon="6.921464838087559">
        <ele>1184</ele>
        <time>2014-06-15T13:14:59Z</time>
      </trkpt>
      <trkpt lat="46.498106187209487" lon="6.922058695927262">
        <ele>1180.6400000000001</ele>
        <time>2014-06-15T13:15:06Z</time>
      </trkpt>
      <trkpt lat="46.497886246070266" lon="6.922574350610375">
        <ele>1176.789999999999964</ele>
        <time>2014-06-15T13:15:10Z</time>
      </trkpt>
      <trkpt lat="46.497743837535381" lon="6.923263845965266">
        <ele>1173.910000000000082</ele>
        <time>2014-06-15T13:15:17Z</time>
      </trkpt>
      <trkpt lat="46.497702598571777" lon="6.923363087698817">
        <ele>1173.430000000000064</ele>
        <time>2014-06-15T13:15:19Z</time>
      </trkpt>
      <trkpt lat="46.497605703771114" lon="6.92353374324739">
        <ele>1171.019999999999982</ele>
        <time>2014-06-15T13:15:23Z</time>
      </trkpt>
      <trkpt lat="46.49742959998548" lon="6.92360314540565">
        <ele>1168.1400000000001</ele>
        <time>2014-06-15T13:15:27Z</time>
      </trkpt>
      <trkpt lat="46.497326921671629" lon="6.923641869798303">
        <ele>1166.220000000000027</ele>
        <time>2014-06-15T13:15:29Z</time>
      </trkpt>
      <trkpt lat="46.497284593060613" lon="6.923696100711823">
        <ele>1164.769999999999982</ele>
        <time>2014-06-15T13:15:30Z</time>
      </trkpt>
      <trkpt lat="46.497204210609198" lon="6.923813614994287">
        <ele>1162.849999999999909</ele>
        <time>2014-06-15T13:15:32Z</time>
      </trkpt>
      <trkpt lat="46.497146962210536" lon="6.923877820372581">
        <ele>1161.410000000000082</ele>
        <time>2014-06-15T13:15:33Z</time>
      </trkpt>
      <trkpt lat="46.497032968327403" lon="6.924006314948201">
        <ele>1159.490000000000009</ele>
        <time>2014-06-15T13:15:35Z</time>
      </trkpt>
      <trkpt lat="46.49699566885829" lon="6.924098348245025">
        <ele>1158.529999999999973</ele>
        <time>2014-06-15T13:15:36Z</time>
      </trkpt>
      <trkpt lat="46.496970942243934" lon="6.924223406240344">
        <ele>1158.049999999999955</ele>
        <time>2014-06-15T13:15:37Z</time>
      </trkpt>
      <trkpt lat="46.496957279741764" lon="6.924341758713126">
        <ele>1157.559999999999945</ele>
        <time>2014-06-15T13:15:38Z</time>
      </trkpt>
      <trkpt lat="46.49695803411305" lon="6.924436138942838">
        <ele>1157.079999999999927</ele>
        <time>2014-06-15T13:15:39Z</time>
      </trkpt>
      <trkpt lat="46.49696976877749" lon="6.924509732052684">
        <ele>1157.079999999999927</ele>
        <time>2014-06-15T13:15:40Z</time>
      </trkpt>
      <trkpt lat="46.496988041326404" lon="6.92456966266036">
        <ele>1156.599999999999909</ele>
        <time>2014-06-15T13:15:41Z</time>
      </trkpt>
      <trkpt lat="46.497038584202528" lon="6.924757668748498">
        <ele>1157.079999999999927</ele>
        <time>2014-06-15T13:15:44Z</time>
      </trkpt>
      <trkpt lat="46.4971246663481" lon="6.925072241574526">
        <ele>1156.599999999999909</ele>
        <time>2014-06-15T13:15:49Z</time>
      </trkpt>
      <trkpt lat="46.497153667733073" lon="6.925099063664675">
        <ele>1156.599999999999909</ele>
        <time>2014-06-15T13:15:50Z</time>
      </trkpt>
      <trkpt lat="46.497181411832571" lon="6.925113648176193">
        <ele>1156.599999999999909</ele>
        <time>2014-06-15T13:15:51Z</time>
      </trkpt>
      <trkpt lat="46.497208150103688" lon="6.925115156918764">
        <ele>1156.599999999999909</ele>
        <time>2014-06-15T13:15:52Z</time>
      </trkpt>
      <trkpt lat="46.497234553098679" lon="6.925115576013923">
        <ele>1156.599999999999909</ele>
        <time>2014-06-15T13:15:53Z</time>
      </trkpt>
      <trkpt lat="46.497259782627225" lon="6.92512177862227">
        <ele>1156.119999999999891</ele>
        <time>2014-06-15T13:15:54Z</time>
      </trkpt>
      <trkpt lat="46.497366484254599" lon="6.925147259607911">
        <ele>1155.160000000000082</ele>
        <time>2014-06-15T13:15:57Z</time>
      </trkpt>
      <trkpt lat="46.497411914169788" lon="6.925165532156825">
        <ele>1154.680000000000064</ele>
        <time>2014-06-15T13:15:58Z</time>
      </trkpt>
      <trkpt lat="46.497811311855912" lon="6.925357645377517">
        <ele>1148.910000000000082</ele>
        <time>2014-06-15T13:16:06Z</time>
      </trkpt>
      <trkpt lat="46.497871996834874" lon="6.925390334799886">
        <ele>1147.950000000000045</ele>
        <time>2014-06-15T13:16:07Z</time>
      </trkpt>
      <trkpt lat="46.497933184728026" lon="6.92542428150773">
        <ele>1146.990000000000009</ele>
        <time>2014-06-15T13:16:08Z</time>
      </trkpt>
      <trkpt lat="46.498653022572398" lon="6.925819823518395">
        <ele>1141.220000000000027</ele>
        <time>2014-06-15T13:16:20Z</time>
      </trkpt>
      <trkpt lat="46.498694680631161" lon="6.925850249826908">
        <ele>1140.740000000000009</ele>
        <time>2014-06-15T13:16:21Z</time>
      </trkpt>
      <trkpt lat="46.498729465529323" lon="6.925885202363133">
        <ele>1139.779999999999973</ele>
        <time>2014-06-15T13:16:22Z</time>
      </trkpt>
      <trkpt lat="46.498750085011125" lon="6.925932727754116">
        <ele>1139.299999999999955</ele>
        <time>2014-06-15T13:16:23Z</time>
      </trkpt>
      <trkpt lat="46.498759808018804" lon="6.92598327063024">
        <ele>1138.819999999999936</ele>
        <time>2014-06-15T13:16:24Z</time>
      </trkpt>
      <trkpt lat="46.498761400580406" lon="6.926035741344094">
        <ele>1138.819999999999936</ele>
        <time>2014-06-15T13:16:25Z</time>
      </trkpt>
      <trkpt lat="46.498759388923645" lon="6.926089720800519">
        <ele>1138.339999999999918</ele>
        <time>2014-06-15T13:16:26Z</time>
      </trkpt>
      <trkpt lat="46.498748492449522" lon="6.926258616149426">
        <ele>1137.380000000000109</ele>
        <time>2014-06-15T13:16:29Z</time>
      </trkpt>
      <trkpt lat="46.498738685622811" lon="6.926324581727386">
        <ele>1136.900000000000091</ele>
        <time>2014-06-15T13:16:30Z</time>
      </trkpt>
      <trkpt lat="46.498734578490257" lon="6.926398510113358">
        <ele>1136.420000000000073</ele>
        <time>2014-06-15T13:16:31Z</time>
      </trkpt>
      <trkpt lat="46.498733656480908" lon="6.926553156226873">
        <ele>1135.940000000000055</ele>
        <time>2014-06-15T13:16:33Z</time>
      </trkpt>
      <trkpt lat="46.498743630945683" lon="6.926626246422529">
        <ele>1135.450000000000045</ele>
        <time>2014-06-15T13:16:34Z</time>
      </trkpt>
      <trkpt lat="46.498764669522643" lon="6.926692547276616">
        <ele>1134.970000000000027</ele>
        <time>2014-06-15T13:16:35Z</time>
      </trkpt>
      <trkpt lat="46.498793670907617" lon="6.926751807332039">
        <ele>1134.490000000000009</ele>
        <time>2014-06-15T13:16:36Z</time>
      </trkpt>
      <trkpt lat="46.498827198520303" lon="6.926808217540383">
        <ele>1134.009999999999991</ele>
        <time>2014-06-15T13:16:37Z</time>
      </trkpt>
      <trkpt lat="46.498901043087244" lon="6.926925061270595">
        <ele>1133.529999999999973</ele>
        <time>2014-06-15T13:16:39Z</time>
      </trkpt>
      <trkpt lat="46.498934822157025" lon="6.926992954686284">
        <ele>1133.049999999999955</ele>
        <time>2014-06-15T13:16:40Z</time>
      </trkpt>
      <trkpt lat="46.498961308971047" lon="6.92706554196775">
        <ele>1133.049999999999955</ele>
        <time>2014-06-15T13:16:41Z</time>
      </trkpt>
      <trkpt lat="46.498978491872549" lon="6.927139637991786">
        <ele>1132.569999999999936</ele>
        <time>2014-06-15T13:16:42Z</time>
      </trkpt>
      <trkpt lat="46.498981844633818" lon="6.927217002958059">
        <ele>1132.569999999999936</ele>
        <time>2014-06-15T13:16:43Z</time>
      </trkpt>
      <trkpt lat="46.498975055292249" lon="6.927289590239525">
        <ele>1132.569999999999936</ele>
        <time>2014-06-15T13:16:44Z</time>
      </trkpt>
      <trkpt lat="46.498961895704269" lon="6.927358405664563">
        <ele>1132.569999999999936</ele>
        <time>2014-06-15T13:16:45Z</time>
      </trkpt>
      <trkpt lat="46.498945718631148" lon="6.927427724003792">
        <ele>1132.569999999999936</ele>
        <time>2014-06-15T13:16:46Z</time>
      </trkpt>
      <trkpt lat="46.498934989795089" lon="6.927497209981084">
        <ele>1132.569999999999936</ele>
        <time>2014-06-15T13:16:47Z</time>
      </trkpt>
      <trkpt lat="46.498934403061867" lon="6.927569629624486">
        <ele>1132.569999999999936</ele>
        <time>2014-06-15T13:16:48Z</time>
      </trkpt>
      <trkpt lat="46.498945550993085" lon="6.927638612687588">
        <ele>1132.569999999999936</ele>
        <time>2014-06-15T13:16:49Z</time>
      </trkpt>
      <trkpt lat="46.498966170474887" lon="6.927697956562042">
        <ele>1132.569999999999936</ele>
        <time>2014-06-15T13:16:50Z</time>
      </trkpt>
      <trkpt lat="46.498995926231146" lon="6.927750008180737">
        <ele>1132.569999999999936</ele>
        <time>2014-06-15T13:16:51Z</time>
      </trkpt>
      <trkpt lat="46.49903230369091" lon="6.927797282114625">
        <ele>1132.569999999999936</ele>
        <time>2014-06-15T13:16:52Z</time>
      </trkpt>
      <trkpt lat="46.499069184064865" lon="6.927843047305942">
        <ele>1132.569999999999936</ele>
        <time>2014-06-15T13:16:53Z</time>
      </trkpt>
      <trkpt lat="46.499473778530955" lon="6.928514102473855">
        <ele>1128.240000000000009</ele>
        <time>2014-06-15T13:17:04Z</time>
      </trkpt>
      <trkpt lat="46.499491631984711" lon="6.928566573187709">
        <ele>1127.759999999999991</ele>
        <time>2014-06-15T13:17:05Z</time>
      </trkpt>
      <trkpt lat="46.499506551772356" lon="6.928611667826772">
        <ele>1127.279999999999973</ele>
        <time>2014-06-15T13:17:06Z</time>
      </trkpt>
      <trkpt lat="46.499515939503908" lon="6.928658857941628">
        <ele>1126.799999999999955</ele>
        <time>2014-06-15T13:17:07Z</time>
      </trkpt>
      <trkpt lat="46.499521471560001" lon="6.928707472980022">
        <ele>1126.799999999999955</ele>
        <time>2014-06-15T13:17:08Z</time>
      </trkpt>
      <trkpt lat="46.499525494873524" lon="6.928753908723593">
        <ele>1126.799999999999955</ele>
        <time>2014-06-15T13:17:09Z</time>
      </trkpt>
      <trkpt lat="46.499533457681537" lon="6.928975190967321">
        <ele>1125.839999999999918</ele>
        <time>2014-06-15T13:17:13Z</time>
      </trkpt>
      <trkpt lat="46.499538738280535" lon="6.929039228707552">
        <ele>1125.839999999999918</ele>
        <time>2014-06-15T13:17:14Z</time>
      </trkpt>
      <trkpt lat="46.499537900090218" lon="6.929105864837766">
        <ele>1125.839999999999918</ele>
        <time>2014-06-15T13:17:15Z</time>
      </trkpt>
      <trkpt lat="46.499530021101236" lon="6.929168896749616">
        <ele>1125.839999999999918</ele>
        <time>2014-06-15T13:17:16Z</time>
      </trkpt>
      <trkpt lat="46.49951945990324" lon="6.929227067157626">
        <ele>1125.839999999999918</ele>
        <time>2014-06-15T13:17:17Z</time>
      </trkpt>
      <trkpt lat="46.499504540115595" lon="6.929279621690512">
        <ele>1125.839999999999918</ele>
        <time>2014-06-15T13:17:18Z</time>
      </trkpt>
      <trkpt lat="46.499484004452825" lon="6.929333433508873">
        <ele>1125.839999999999918</ele>
        <time>2014-06-15T13:17:19Z</time>
      </trkpt>
      <trkpt lat="46.499457601457834" lon="6.929388167336583">
        <ele>1125.839999999999918</ele>
        <time>2014-06-15T13:17:20Z</time>
      </trkpt>
      <trkpt lat="46.499391384422779" lon="6.929503669962287">
        <ele>1125.839999999999918</ele>
        <time>2014-06-15T13:17:22Z</time>
      </trkpt>
      <trkpt lat="46.499369004741311" lon="6.929579777643085">
        <ele>1125.839999999999918</ele>
        <time>2014-06-15T13:17:23Z</time>
      </trkpt>
      <trkpt lat="46.499356515705585" lon="6.929660746827722">
        <ele>1126.319999999999936</ele>
        <time>2014-06-15T13:17:24Z</time>
      </trkpt>
      <trkpt lat="46.499348636716604" lon="6.929745487868786">
        <ele>1125.839999999999918</ele>
        <time>2014-06-15T13:17:25Z</time>
      </trkpt>
      <trkpt lat="46.499346289783716" lon="6.929830396547914">
        <ele>1126.319999999999936</ele>
        <time>2014-06-15T13:17:26Z</time>
      </trkpt>
      <trkpt lat="46.49934352375567" lon="6.929991161450744">
        <ele>1126.319999999999936</ele>
        <time>2014-06-15T13:17:28Z</time>
      </trkpt>
      <trkpt lat="46.499319048598409" lon="6.930207833647728">
        <ele>1126.799999999999955</ele>
        <time>2014-06-15T13:17:31Z</time>
      </trkpt>
      <trkpt lat="46.49930203333497" lon="6.930283354595304">
        <ele>1126.799999999999955</ele>
        <time>2014-06-15T13:17:32Z</time>
      </trkpt>
      <trkpt lat="46.499259872362018" lon="6.930425679311156">
        <ele>1126.799999999999955</ele>
        <time>2014-06-15T13:17:34Z</time>
      </trkpt>
      <trkpt lat="46.499236738309264" lon="6.930482424795628">
        <ele>1126.799999999999955</ele>
        <time>2014-06-15T13:17:35Z</time>
      </trkpt>
      <trkpt lat="46.498981006443501" lon="6.931055746972561">
        <ele>1124.880000000000109</ele>
        <time>2014-06-15T13:17:47Z</time>
      </trkpt>
      <trkpt lat="46.498942533507943" lon="6.931091202422976">
        <ele>1124.400000000000091</ele>
        <time>2014-06-15T13:17:48Z</time>
      </trkpt>
      <trkpt lat="46.498897019773722" lon="6.931122886016965">
        <ele>1123.920000000000073</ele>
        <time>2014-06-15T13:17:49Z</time>
      </trkpt>
      <trkpt lat="46.498384298756719" lon="6.931385407224298">
        <ele>1120.069999999999936</ele>
        <time>2014-06-15T13:17:56Z</time>
      </trkpt>
      <trkpt lat="46.498315734788775" lon="6.931442655622959">
        <ele>1120.069999999999936</ele>
        <time>2014-06-15T13:17:57Z</time>
      </trkpt>
      <trkpt lat="46.498250104486942" lon="6.931498730555177">
        <ele>1119.589999999999918</ele>
        <time>2014-06-15T13:17:58Z</time>
      </trkpt>
      <trkpt lat="46.498187407851219" lon="6.93153946660459">
        <ele>1119.589999999999918</ele>
        <time>2014-06-15T13:17:59Z</time>
      </trkpt>
      <trkpt lat="46.498130578547716" lon="6.931562516838312">
        <ele>1119.589999999999918</ele>
        <time>2014-06-15T13:18:00Z</time>
      </trkpt>
      <trkpt lat="46.498079281300306" lon="6.931574670597911">
        <ele>1119.589999999999918</ele>
        <time>2014-06-15T13:18:01Z</time>
      </trkpt>
      <trkpt lat="46.498031420633197" lon="6.93157953210175">
        <ele>1119.589999999999918</ele>
        <time>2014-06-15T13:18:02Z</time>
      </trkpt>
      <trkpt lat="46.497984733432531" lon="6.931582549586892">
        <ele>1119.589999999999918</ele>
        <time>2014-06-15T13:18:03Z</time>
      </trkpt>
      <trkpt lat="46.497938800603151" lon="6.931587914004922">
        <ele>1119.589999999999918</ele>
        <time>2014-06-15T13:18:04Z</time>
      </trkpt>
      <trkpt lat="46.497553987428546" lon="6.931710205972195">
        <ele>1117.670000000000073</ele>
        <time>2014-06-15T13:18:13Z</time>
      </trkpt>
      <trkpt lat="46.49752439931035" lon="6.931755971163511">
        <ele>1117.670000000000073</ele>
        <time>2014-06-15T13:18:14Z</time>
      </trkpt>
      <trkpt lat="46.497503276914358" lon="6.931811962276697">
        <ele>1117.190000000000055</ele>
        <time>2014-06-15T13:18:15Z</time>
      </trkpt>
      <trkpt lat="46.497498834505677" lon="6.931872228160501">
        <ele>1116.710000000000036</ele>
        <time>2014-06-15T13:18:16Z</time>
      </trkpt>
      <trkpt lat="46.497510820627213" lon="6.931930147111416">
        <ele>1116.710000000000036</ele>
        <time>2014-06-15T13:18:17Z</time>
      </trkpt>
      <trkpt lat="46.497677620500326" lon="6.932095102965832">
        <ele>1120.069999999999936</ele>
        <time>2014-06-15T13:18:24Z</time>
      </trkpt>
      <trkpt lat="46.497728582471609" lon="6.932122679427266">
        <ele>1121.029999999999973</ele>
        <time>2014-06-15T13:18:26Z</time>
      </trkpt>
      <trkpt lat="46.498149018734694" lon="6.932345973327756">
        <ele>1127.279999999999973</ele>
        <time>2014-06-15T13:18:41Z</time>
      </trkpt>
      <trkpt lat="46.498466609045863" lon="6.932556945830584">
        <ele>1128.730000000000018</ele>
        <time>2014-06-15T13:18:54Z</time>
      </trkpt>
      <trkpt lat="46.498704487457871" lon="6.932716621086001">
        <ele>1130.650000000000091</ele>
        <time>2014-06-15T13:19:08Z</time>
      </trkpt>
      <trkpt lat="46.498818313702941" lon="6.932925162836909">
        <ele>1132.569999999999936</ele>
        <time>2014-06-15T13:19:17Z</time>
      </trkpt>
      <trkpt lat="46.498834993690252" lon="6.933072181418538">
        <ele>1134.490000000000009</ele>
        <time>2014-06-15T13:19:23Z</time>
      </trkpt>
      <trkpt lat="46.498730387538671" lon="6.933381725102663">
        <ele>1137.8599999999999</ele>
        <time>2014-06-15T13:19:38Z</time>
      </trkpt>
      <trkpt lat="46.498708678409457" lon="6.933501083403826">
        <ele>1139.779999999999973</ele>
        <time>2014-06-15T13:19:42Z</time>
      </trkpt>
      <trkpt lat="46.498659895732999" lon="6.934026796370745">
        <ele>1137.8599999999999</ele>
        <time>2014-06-15T13:20:00Z</time>
      </trkpt>
      <trkpt lat="46.498567275702953" lon="6.934400461614132">
        <ele>1137.8599999999999</ele>
        <time>2014-06-15T13:20:16Z</time>
      </trkpt>
      <trkpt lat="46.498472224920988" lon="6.934797093272209">
        <ele>1139.779999999999973</ele>
        <time>2014-06-15T13:20:33Z</time>
      </trkpt>
      <trkpt lat="46.498348256573081" lon="6.93528383038938">
        <ele>1139.299999999999955</ele>
        <time>2014-06-15T13:20:49Z</time>
      </trkpt>
      <trkpt lat="46.498318249359727" lon="6.935354741290212">
        <ele>1140.259999999999991</ele>
        <time>2014-06-15T13:20:52Z</time>
      </trkpt>
      <trkpt lat="46.498116245493293" lon="6.935784313827753">
        <ele>1142.660000000000082</ele>
        <time>2014-06-15T13:21:08Z</time>
      </trkpt>
      <trkpt lat="46.498121609911323" lon="6.9362498447299">
        <ele>1142.660000000000082</ele>
        <time>2014-06-15T13:21:17Z</time>
      </trkpt>
      <trkpt lat="46.498301401734352" lon="6.93686356768012">
        <ele>1143.630000000000109</ele>
        <time>2014-06-15T13:21:29Z</time>
      </trkpt>
      <trkpt lat="46.498376419767737" lon="6.937004132196307">
        <ele>1142.660000000000082</ele>
        <time>2014-06-15T13:21:31Z</time>
      </trkpt>
      <trkpt lat="46.498676910996437" lon="6.937406128272414">
        <ele>1137.8599999999999</ele>
        <time>2014-06-15T13:21:37Z</time>
      </trkpt>
      <trkpt lat="46.498839687556028" lon="6.937864869832993">
        <ele>1133.049999999999955</ele>
        <time>2014-06-15T13:21:42Z</time>
      </trkpt>
      <trkpt lat="46.498764753341675" lon="6.938420925289392">
        <ele>1130.170000000000073</ele>
        <time>2014-06-15T13:21:49Z</time>
      </trkpt>
      <trkpt lat="46.498329229652882" lon="6.938626952469349">
        <ele>1125.839999999999918</ele>
        <time>2014-06-15T13:21:57Z</time>
      </trkpt>
      <trkpt lat="46.498279441148043" lon="6.938618905842304">
        <ele>1125.3599999999999</ele>
        <time>2014-06-15T13:21:58Z</time>
      </trkpt>
      <trkpt lat="46.497818268835545" lon="6.93841396830976">
        <ele>1128.730000000000018</ele>
        <time>2014-06-15T13:22:11Z</time>
      </trkpt>
      <trkpt lat="46.497269673272967" lon="6.938293185085058">
        <ele>1129.690000000000055</ele>
        <time>2014-06-15T13:22:24Z</time>
      </trkpt>
      <trkpt lat="46.496806237846613" lon="6.938149016350508">
        <ele>1128.730000000000018</ele>
        <time>2014-06-15T13:22:36Z</time>
      </trkpt>
      <trkpt lat="46.496541537344456" lon="6.937963776290417">
        <ele>1131.6099999999999</ele>
        <time>2014-06-15T13:22:47Z</time>
      </trkpt>
      <trkpt lat="46.496267952024937" lon="6.93780854344368">
        <ele>1136.420000000000073</ele>
        <time>2014-06-15T13:23:03Z</time>
      </trkpt>
      <trkpt lat="46.49615085683763" lon="6.937749283388257">
        <ele>1139.779999999999973</ele>
        <time>2014-06-15T13:23:12Z</time>
      </trkpt>
      <trkpt lat="46.496102660894394" lon="6.937714330852032">
        <ele>1141.700000000000045</ele>
        <time>2014-06-15T13:23:16Z</time>
      </trkpt>
      <trkpt lat="46.495977099984884" lon="6.937642078846693">
        <ele>1145.069999999999936</ele>
        <time>2014-06-15T13:23:26Z</time>
      </trkpt>
      <trkpt lat="46.495689684525132" lon="6.937687676399946">
        <ele>1142.660000000000082</ele>
        <time>2014-06-15T13:23:40Z</time>
      </trkpt>
      <trkpt lat="46.49536999873817" lon="6.937718270346522">
        <ele>1141.700000000000045</ele>
        <time>2014-06-15T13:23:57Z</time>
      </trkpt>
      <trkpt lat="46.495139496400952" lon="6.937654819339514">
        <ele>1140.740000000000009</ele>
        <time>2014-06-15T13:24:08Z</time>
      </trkpt>
      <trkpt lat="46.495009660720825" lon="6.937631433829665">
        <ele>1141.220000000000027</ele>
        <time>2014-06-15T13:24:18Z</time>
      </trkpt>
      <trkpt lat="46.49500303901732" lon="6.937644509598613">
        <ele>1141.220000000000027</ele>
        <time>2014-06-15T13:24:19Z</time>
      </trkpt>
      <trkpt lat="46.494991136714816" lon="6.93766194395721">
        <ele>1141.220000000000027</ele>
        <time>2014-06-15T13:24:20Z</time>
      </trkpt>
      <trkpt lat="46.494975043460727" lon="6.937678121030331">
        <ele>1141.700000000000045</ele>
        <time>2014-06-15T13:24:21Z</time>
      </trkpt>
      <trkpt lat="46.494954088702798" lon="6.937696896493435">
        <ele>1141.700000000000045</ele>
        <time>2014-06-15T13:24:22Z</time>
      </trkpt>
      <trkpt lat="46.494923327118158" lon="6.937715839594603">
        <ele>1141.700000000000045</ele>
        <time>2014-06-15T13:24:23Z</time>
      </trkpt>
      <trkpt lat="46.494886195287108" lon="6.937733022496104">
        <ele>1142.180000000000064</ele>
        <time>2014-06-15T13:24:24Z</time>
      </trkpt>
      <trkpt lat="46.494692908599973" lon="6.937919352203608">
        <ele>1144.1099999999999</ele>
        <time>2014-06-15T13:24:35Z</time>
      </trkpt>
      <trkpt lat="46.494682431221008" lon="6.937952125445008">
        <ele>1144.1099999999999</ele>
        <time>2014-06-15T13:24:36Z</time>
      </trkpt>
      <trkpt lat="46.494672959670424" lon="6.93799277767539">
        <ele>1143.630000000000109</ele>
        <time>2014-06-15T13:24:37Z</time>
      </trkpt>
      <trkpt lat="46.494665164500475" lon="6.938041811808944">
        <ele>1144.1099999999999</ele>
        <time>2014-06-15T13:24:38Z</time>
      </trkpt>
      <trkpt lat="46.494658710435033" lon="6.938092857599258">
        <ele>1144.1099999999999</ele>
        <time>2014-06-15T13:24:39Z</time>
      </trkpt>
      <trkpt lat="46.494654351845384" lon="6.938146082684398">
        <ele>1144.1099999999999</ele>
        <time>2014-06-15T13:24:40Z</time>
      </trkpt>
      <trkpt lat="46.494652591645718" lon="6.938196290284395">
        <ele>1144.1099999999999</ele>
        <time>2014-06-15T13:24:41Z</time>
      </trkpt>
      <trkpt lat="46.49475728161633" lon="6.938659474253654">
        <ele>1148.430000000000064</ele>
        <time>2014-06-15T13:24:52Z</time>
      </trkpt>
      <trkpt lat="46.494821989908814" lon="6.939072953537107">
        <ele>1146.990000000000009</ele>
        <time>2014-06-15T13:25:03Z</time>
      </trkpt>
      <trkpt lat="46.494933553040028" lon="6.939948946237564">
        <ele>1144.1099999999999</ele>
        <time>2014-06-15T13:25:22Z</time>
      </trkpt>
      <trkpt lat="46.495099430903792" lon="6.940275505185127">
        <ele>1143.630000000000109</ele>
        <time>2014-06-15T13:25:30Z</time>
      </trkpt>
      <trkpt lat="46.495142849162221" lon="6.940396036952734">
        <ele>1142.660000000000082</ele>
        <time>2014-06-15T13:25:32Z</time>
      </trkpt>
      <trkpt lat="46.495159026235342" lon="6.940461751073599">
        <ele>1142.660000000000082</ele>
        <time>2014-06-15T13:25:33Z</time>
      </trkpt>
      <trkpt lat="46.495251310989261" lon="6.940816640853882">
        <ele>1141.220000000000027</ele>
        <time>2014-06-15T13:25:38Z</time>
      </trkpt>
      <trkpt lat="46.495286095887423" lon="6.94088495336473">
        <ele>1140.740000000000009</ele>
        <time>2014-06-15T13:25:39Z</time>
      </trkpt>
      <trkpt lat="46.495325658470392" lon="6.94094555452466">
        <ele>1140.259999999999991</ele>
        <time>2014-06-15T13:25:40Z</time>
      </trkpt>
      <trkpt lat="46.495926473289728" lon="6.941839568316936">
        <ele>1135.450000000000045</ele>
        <time>2014-06-15T13:25:52Z</time>
      </trkpt>
      <trkpt lat="46.496143816038966" lon="6.942203007638454">
        <ele>1135.940000000000055</ele>
        <time>2014-06-15T13:26:01Z</time>
      </trkpt>
      <trkpt lat="46.496146833524108" lon="6.942220190539956">
        <ele>1135.450000000000045</ele>
        <time>2014-06-15T13:26:14Z</time>
      </trkpt>
      <trkpt lat="46.496140882372856" lon="6.942197224125266">
        <ele>1135.450000000000045</ele>
        <time>2014-06-15T13:26:46Z</time>
      </trkpt>
      <trkpt lat="46.496144235134125" lon="6.942191105335951">
        <ele>1135.940000000000055</ele>
        <time>2014-06-15T13:27:22Z</time>
      </trkpt>
      <trkpt lat="46.496131410822272" lon="6.942221196368337">
        <ele>1134.490000000000009</ele>
        <time>2014-06-15T13:28:07Z</time>
      </trkpt>
      <trkpt lat="46.496138703078032" lon="6.942207282409072">
        <ele>1134.970000000000027</ele>
        <time>2014-06-15T13:28:44Z</time>
      </trkpt>
      <trkpt lat="46.496149096637964" lon="6.942216334864497">
        <ele>1135.940000000000055</ele>
        <time>2014-06-15T13:29:26Z</time>
      </trkpt>
      <trkpt lat="46.496146665886045" lon="6.942200157791376">
        <ele>1137.8599999999999</ele>
        <time>2014-06-15T13:29:59Z</time>
      </trkpt>
      <trkpt lat="46.496149431914091" lon="6.942214826121926">
        <ele>1137.380000000000109</ele>
        <time>2014-06-15T13:30:29Z</time>
      </trkpt>
      <trkpt lat="46.496142474934459" lon="6.942218514159322">
        <ele>1136.900000000000091</ele>
        <time>2014-06-15T13:30:56Z</time>
      </trkpt>
      <trkpt lat="46.496137613430619" lon="6.94224433042109">
        <ele>1137.380000000000109</ele>
        <time>2014-06-15T13:31:05Z</time>
      </trkpt>
      <trkpt lat="46.49614691734314" lon="6.942291017621756">
        <ele>1137.8599999999999</ele>
        <time>2014-06-15T13:31:08Z</time>
      </trkpt>
      <trkpt lat="46.496154712513089" lon="6.942308703437448">
        <ele>1137.8599999999999</ele>
        <time>2014-06-15T13:31:09Z</time>
      </trkpt>
      <trkpt lat="46.496164351701736" lon="6.942326975986362">
        <ele>1137.8599999999999</ele>
        <time>2014-06-15T13:31:10Z</time>
      </trkpt>
      <trkpt lat="46.496179103851318" lon="6.942347595468163">
        <ele>1137.380000000000109</ele>
        <time>2014-06-15T13:31:11Z</time>
      </trkpt>
      <trkpt lat="46.496197963133454" lon="6.942366538569331">
        <ele>1137.380000000000109</ele>
        <time>2014-06-15T13:31:12Z</time>
      </trkpt>
      <trkpt lat="46.496444642543793" lon="6.942792171612382">
        <ele>1138.819999999999936</ele>
        <time>2014-06-15T13:31:26Z</time>
      </trkpt>
      <trkpt lat="46.496665589511395" lon="6.943278238177299">
        <ele>1141.220000000000027</ele>
        <time>2014-06-15T13:31:42Z</time>
      </trkpt>
      <trkpt lat="46.496803555637598" lon="6.943751396611333">
        <ele>1144.1099999999999</ele>
        <time>2014-06-15T13:32:03Z</time>
      </trkpt>
      <trkpt lat="46.496827779337764" lon="6.944118188694119">
        <ele>1147.950000000000045</ele>
        <time>2014-06-15T13:32:22Z</time>
      </trkpt>
      <trkpt lat="46.496852338314056" lon="6.944470563903451">
        <ele>1150.839999999999918</ele>
        <time>2014-06-15T13:32:41Z</time>
      </trkpt>
      <trkpt lat="46.496992902830243" lon="6.944789076223969">
        <ele>1154.200000000000045</ele>
        <time>2014-06-15T13:33:01Z</time>
      </trkpt>
      <trkpt lat="46.497128019109368" lon="6.945055034011602">
        <ele>1157.079999999999927</ele>
        <time>2014-06-15T13:33:19Z</time>
      </trkpt>
      <trkpt lat="46.497135227546096" lon="6.945066852495074">
        <ele>1157.559999999999945</ele>
        <time>2014-06-15T13:33:20Z</time>
      </trkpt>
      <trkpt lat="46.497286017984152" lon="6.945372791960835">
        <ele>1162.849999999999909</ele>
        <time>2014-06-15T13:33:41Z</time>
      </trkpt>
      <trkpt lat="46.497365729883313" lon="6.945659788325429">
        <ele>1164.769999999999982</ele>
        <time>2014-06-15T13:33:58Z</time>
      </trkpt>
      <trkpt lat="46.497409231960773" lon="6.945993388071656">
        <ele>1167.180000000000064</ele>
        <time>2014-06-15T13:34:16Z</time>
      </trkpt>
      <trkpt lat="46.497399592772126" lon="6.946294466033578">
        <ele>1169.579999999999927</ele>
        <time>2014-06-15T13:34:34Z</time>
      </trkpt>
      <trkpt lat="46.497386433184147" lon="6.946434527635574">
        <ele>1171.980000000000018</ele>
        <time>2014-06-15T13:34:43Z</time>
      </trkpt>
      <trkpt lat="46.49739976041019" lon="6.946795620024204">
        <ele>1177.269999999999982</ele>
        <time>2014-06-15T13:35:03Z</time>
      </trkpt>
      <trkpt lat="46.497394144535065" lon="6.946869632229209">
        <ele>1177.75</ele>
        <time>2014-06-15T13:35:07Z</time>
      </trkpt>
      <trkpt lat="46.49738852865994" lon="6.946964347735047">
        <ele>1178.230000000000018</ele>
        <time>2014-06-15T13:35:12Z</time>
      </trkpt>
      <trkpt lat="46.49738609790802" lon="6.947113629430532">
        <ele>1180.160000000000082</ele>
        <time>2014-06-15T13:35:20Z</time>
      </trkpt>
      <trkpt lat="46.497368747368455" lon="6.947333738207817">
        <ele>1184.480000000000018</ele>
        <time>2014-06-15T13:35:33Z</time>
      </trkpt>
      <trkpt lat="46.497298339381814" lon="6.947587039321661">
        <ele>1189.769999999999982</ele>
        <time>2014-06-15T13:35:49Z</time>
      </trkpt>
      <trkpt lat="46.497289789840579" lon="6.94759332574904">
        <ele>1189.769999999999982</ele>
        <time>2014-06-15T13:35:50Z</time>
      </trkpt>
      <trkpt lat="46.497246706858277" lon="6.947466675192118">
        <ele>1190.730000000000018</ele>
        <time>2014-06-15T13:35:57Z</time>
      </trkpt>
      <trkpt lat="46.497245617210865" lon="6.947432057932019">
        <ele>1190.730000000000018</ele>
        <time>2014-06-15T13:35:58Z</time>
      </trkpt>
      <trkpt lat="46.497244946658611" lon="6.947407582774758">
        <ele>1190.730000000000018</ele>
        <time>2014-06-15T13:35:59Z</time>
      </trkpt>
      <trkpt lat="46.49724192917347" lon="6.94693123921752">
        <ele>1189.769999999999982</ele>
        <time>2014-06-15T13:36:11Z</time>
      </trkpt>
      <trkpt lat="46.497104885056615" lon="6.946292538195848">
        <ele>1188.329999999999927</ele>
        <time>2014-06-15T13:36:25Z</time>
      </trkpt>
      <trkpt lat="46.497082840651274" lon="6.946243587881327">
        <ele>1187.849999999999909</ele>
        <time>2014-06-15T13:36:26Z</time>
      </trkpt>
      <trkpt lat="46.49687840603292" lon="6.945885010063648">
        <ele>1187.369999999999891</ele>
        <time>2014-06-15T13:36:36Z</time>
      </trkpt>
      <trkpt lat="46.496527874842286" lon="6.945459628477693">
        <ele>1190.25</ele>
        <time>2014-06-15T13:36:48Z</time>
      </trkpt>
      <trkpt lat="46.496028816327453" lon="6.945175062865019">
        <ele>1190.730000000000018</ele>
        <time>2014-06-15T13:37:02Z</time>
      </trkpt>
      <trkpt lat="46.495701670646667" lon="6.945000970736146">
        <ele>1191.210000000000036</ele>
        <time>2014-06-15T13:37:10Z</time>
      </trkpt>
      <trkpt lat="46.495055509731174" lon="6.94484137929976">
        <ele>1190.730000000000018</ele>
        <time>2014-06-15T13:37:25Z</time>
      </trkpt>
      <trkpt lat="46.494870437309146" lon="6.944847498089075">
        <ele>1190.730000000000018</ele>
        <time>2014-06-15T13:37:29Z</time>
      </trkpt>
      <trkpt lat="46.494777984917164" lon="6.944860741496086">
        <ele>1190.730000000000018</ele>
        <time>2014-06-15T13:37:31Z</time>
      </trkpt>
      <trkpt lat="46.494255289435387" lon="6.944891922175884">
        <ele>1191.210000000000036</ele>
        <time>2014-06-15T13:37:42Z</time>
      </trkpt>
      <trkpt lat="46.494203740730882" lon="6.944872140884399">
        <ele>1191.210000000000036</ele>
        <time>2014-06-15T13:37:43Z</time>
      </trkpt>
      <trkpt lat="46.494148755446076" lon="6.944843055680394">
        <ele>1191.210000000000036</ele>
        <time>2014-06-15T13:37:44Z</time>
      </trkpt>
      <trkpt lat="46.494096200913191" lon="6.944798547774553">
        <ele>1191.210000000000036</ele>
        <time>2014-06-15T13:37:45Z</time>
      </trkpt>
      <trkpt lat="46.494066109880805" lon="6.944758230820298">
        <ele>1191.210000000000036</ele>
        <time>2014-06-15T13:37:46Z</time>
      </trkpt>
      <trkpt lat="46.494032498449087" lon="6.944694025442004">
        <ele>1191.210000000000036</ele>
        <time>2014-06-15T13:37:47Z</time>
      </trkpt>
      <trkpt lat="46.494007101282477" lon="6.944624036550522">
        <ele>1191.210000000000036</ele>
        <time>2014-06-15T13:37:48Z</time>
      </trkpt>
      <trkpt lat="46.493988828733563" lon="6.944551868364215">
        <ele>1190.730000000000018</ele>
        <time>2014-06-15T13:37:49Z</time>
      </trkpt>
      <trkpt lat="46.493977010250092" lon="6.94447978399694">
        <ele>1190.730000000000018</ele>
        <time>2014-06-15T13:37:50Z</time>
      </trkpt>
      <trkpt lat="46.493969885632396" lon="6.94440845400095">
        <ele>1190.730000000000018</ele>
        <time>2014-06-15T13:37:51Z</time>
      </trkpt>
      <trkpt lat="46.493894616141915" lon="6.943700267001987">
        <ele>1189.289999999999964</ele>
        <time>2014-06-15T13:38:01Z</time>
      </trkpt>
      <trkpt lat="46.49377366527915" lon="6.943313106894493">
        <ele>1189.289999999999964</ele>
        <time>2014-06-15T13:38:07Z</time>
      </trkpt>
      <trkpt lat="46.493752375245094" lon="6.943259295076132">
        <ele>1189.769999999999982</ele>
        <time>2014-06-15T13:38:08Z</time>
      </trkpt>
      <trkpt lat="46.493732174858451" lon="6.943206405267119">
        <ele>1189.769999999999982</ele>
        <time>2014-06-15T13:38:09Z</time>
      </trkpt>
      <trkpt lat="46.493387511000037" lon="6.942583546042442">
        <ele>1188.809999999999945</ele>
        <time>2014-06-15T13:38:22Z</time>
      </trkpt>
      <trkpt lat="46.493286928161979" lon="6.942412387579679">
        <ele>1187.849999999999909</ele>
        <time>2014-06-15T13:38:25Z</time>
      </trkpt>
      <trkpt lat="46.49292005226016" lon="6.94140337407589">
        <ele>1188.329999999999927</ele>
        <time>2014-06-15T13:38:40Z</time>
      </trkpt>
      <trkpt lat="46.492805723100901" lon="6.941092489287257">
        <ele>1188.809999999999945</ele>
        <time>2014-06-15T13:38:46Z</time>
      </trkpt>
      <trkpt lat="46.492670858278871" lon="6.940783699974418">
        <ele>1191.690000000000055</ele>
        <time>2014-06-15T13:38:52Z</time>
      </trkpt>
      <trkpt lat="46.492616375908256" lon="6.940686218440533">
        <ele>1192.650000000000091</ele>
        <time>2014-06-15T13:38:54Z</time>
      </trkpt>
      <trkpt lat="46.492583602666855" lon="6.940642548725009">
        <ele>1193.130000000000109</ele>
        <time>2014-06-15T13:38:55Z</time>
      </trkpt>
      <trkpt lat="46.492548063397408" lon="6.940605500712991">
        <ele>1193.6099999999999</ele>
        <time>2014-06-15T13:38:56Z</time>
      </trkpt>
      <trkpt lat="46.492511769756675" lon="6.940569458529353">
        <ele>1194.089999999999918</ele>
        <time>2014-06-15T13:38:57Z</time>
      </trkpt>
      <trkpt lat="46.492474302649498" lon="6.940531488507986">
        <ele>1194.089999999999918</ele>
        <time>2014-06-15T13:38:58Z</time>
      </trkpt>
      <trkpt lat="46.492433231323957" lon="6.940487315878272">
        <ele>1194.579999999999927</ele>
        <time>2014-06-15T13:38:59Z</time>
      </trkpt>
      <trkpt lat="46.492389477789402" lon="6.940444065257907">
        <ele>1194.579999999999927</ele>
        <time>2014-06-15T13:39:00Z</time>
      </trkpt>
      <trkpt lat="46.492341700941324" lon="6.940397964790463">
        <ele>1194.579999999999927</ele>
        <time>2014-06-15T13:39:01Z</time>
      </trkpt>
      <trkpt lat="46.492297360673547" lon="6.940338034182787">
        <ele>1194.089999999999918</ele>
        <time>2014-06-15T13:39:02Z</time>
      </trkpt>
      <trkpt lat="46.492262408137321" lon="6.940265195444226">
        <ele>1194.089999999999918</ele>
        <time>2014-06-15T13:39:03Z</time>
      </trkpt>
      <trkpt lat="46.492236591875553" lon="6.940188836306334">
        <ele>1193.6099999999999</ele>
        <time>2014-06-15T13:39:04Z</time>
      </trkpt>
      <trkpt lat="46.49221739731729" lon="6.940110214054585">
        <ele>1193.6099999999999</ele>
        <time>2014-06-15T13:39:05Z</time>
      </trkpt>
      <trkpt lat="46.492200884968042" lon="6.940028825774789">
        <ele>1193.130000000000109</ele>
        <time>2014-06-15T13:39:06Z</time>
      </trkpt>
      <trkpt lat="46.492190742865205" lon="6.939946012571454">
        <ele>1192.650000000000091</ele>
        <time>2014-06-15T13:39:07Z</time>
      </trkpt>
      <trkpt lat="46.492110528051853" lon="6.93913321942091">
        <ele>1192.650000000000091</ele>
        <time>2014-06-15T13:39:17Z</time>
      </trkpt>
      <trkpt lat="46.492108684033155" lon="6.939050070941448">
        <ele>1192.650000000000091</ele>
        <time>2014-06-15T13:39:18Z</time>
      </trkpt>
      <trkpt lat="46.492109689861536" lon="6.938878241926432">
        <ele>1192.650000000000091</ele>
        <time>2014-06-15T13:39:20Z</time>
      </trkpt>
      <trkpt lat="46.492118407040834" lon="6.938796937465668">
        <ele>1192.170000000000073</ele>
        <time>2014-06-15T13:39:21Z</time>
      </trkpt>
      <trkpt lat="46.492154449224472" lon="6.938593927770853">
        <ele>1191.690000000000055</ele>
        <time>2014-06-15T13:39:24Z</time>
      </trkpt>
      <trkpt lat="46.492172889411449" lon="6.938538020476699">
        <ele>1191.690000000000055</ele>
        <time>2014-06-15T13:39:25Z</time>
      </trkpt>
      <trkpt lat="46.49231806397438" lon="6.938022701069713">
        <ele>1196.5</ele>
        <time>2014-06-15T13:39:37Z</time>
      </trkpt>
      <trkpt lat="46.492349496111274" lon="6.937880963087082">
        <ele>1199.380000000000109</ele>
        <time>2014-06-15T13:39:41Z</time>
      </trkpt>
      <trkpt lat="46.492345724254847" lon="6.93784324452281">
        <ele>1199.8599999999999</ele>
        <time>2014-06-15T13:39:42Z</time>
      </trkpt>
      <trkpt lat="46.492341700941324" lon="6.937807453796268">
        <ele>1200.339999999999918</ele>
        <time>2014-06-15T13:39:43Z</time>
      </trkpt>
      <trkpt lat="46.492334995418787" lon="6.937771830707788">
        <ele>1200.339999999999918</ele>
        <time>2014-06-15T13:39:44Z</time>
      </trkpt>
      <trkpt lat="46.49232879281044" lon="6.937734950333834">
        <ele>1200.819999999999936</ele>
        <time>2014-06-15T13:39:45Z</time>
      </trkpt>
      <trkpt lat="46.492213541641831" lon="6.937187947332859">
        <ele>1202.75</ele>
        <time>2014-06-15T13:40:00Z</time>
      </trkpt>
      <trkpt lat="46.492044311016798" lon="6.936750495806336">
        <ele>1203.230000000000018</ele>
        <time>2014-06-15T13:40:14Z</time>
      </trkpt>
      <trkpt lat="46.491829231381416" lon="6.936294017359614">
        <ele>1204.670000000000073</ele>
        <time>2014-06-15T13:40:29Z</time>
      </trkpt>
      <trkpt lat="46.491507953032851" lon="6.935629835352302">
        <ele>1203.710000000000036</ele>
        <time>2014-06-15T13:40:43Z</time>
      </trkpt>
      <trkpt lat="46.491200085729361" lon="6.934965904802084">
        <ele>1203.230000000000018</ele>
        <time>2014-06-15T13:40:52Z</time>
      </trkpt>
      <trkpt lat="46.491168234497309" lon="6.934891054406762">
        <ele>1203.230000000000018</ele>
        <time>2014-06-15T13:40:53Z</time>
      </trkpt>
      <trkpt lat="46.490938737988472" lon="6.934186387807131">
        <ele>1205.150000000000091</ele>
        <time>2014-06-15T13:41:06Z</time>
      </trkpt>
      <trkpt lat="46.490926668047905" lon="6.933650868013501">
        <ele>1206.589999999999918</ele>
        <time>2014-06-15T13:41:19Z</time>
      </trkpt>
      <trkpt lat="46.490919543430209" lon="6.933619938790798">
        <ele>1206.589999999999918</ele>
        <time>2014-06-15T13:41:20Z</time>
      </trkpt>
      <trkpt lat="46.490903114899993" lon="6.933605689555407">
        <ele>1206.589999999999918</ele>
        <time>2014-06-15T13:41:21Z</time>
      </trkpt>
      <trkpt lat="46.49088735692203" lon="6.933620274066925">
        <ele>1206.589999999999918</ele>
        <time>2014-06-15T13:41:22Z</time>
      </trkpt>
      <trkpt lat="46.490879561752081" lon="6.933647682890296">
        <ele>1206.1099999999999</ele>
        <time>2014-06-15T13:41:23Z</time>
      </trkpt>
      <trkpt lat="46.490871766582131" lon="6.933682635426521">
        <ele>1206.1099999999999</ele>
        <time>2014-06-15T13:41:24Z</time>
      </trkpt>
      <trkpt lat="46.490863468497992" lon="6.933707529678941">
        <ele>1206.1099999999999</ele>
        <time>2014-06-15T13:41:25Z</time>
      </trkpt>
      <trkpt lat="46.490851314738393" lon="6.933740302920341">
        <ele>1206.1099999999999</ele>
        <time>2014-06-15T13:41:26Z</time>
      </trkpt>
      <trkpt lat="46.490792641416192" lon="6.934117656201124">
        <ele>1206.589999999999918</ele>
        <time>2014-06-15T13:41:37Z</time>
      </trkpt>
      <trkpt lat="46.490780403837562" lon="6.934431893751025">
        <ele>1207.549999999999955</ele>
        <time>2014-06-15T13:41:47Z</time>
      </trkpt>
      <trkpt lat="46.490781242027879" lon="6.93446047604084">
        <ele>1207.549999999999955</ele>
        <time>2014-06-15T13:41:48Z</time>
      </trkpt>
      <trkpt lat="46.490762215107679" lon="6.934794662520289">
        <ele>1208.029999999999973</ele>
        <time>2014-06-15T13:42:02Z</time>
      </trkpt>
      <trkpt lat="46.490805046632886" lon="6.935137817636132">
        <ele>1212.839999999999918</ele>
        <time>2014-06-15T13:42:16Z</time>
      </trkpt>
      <trkpt lat="46.490776045247912" lon="6.935329679399729">
        <ele>1215.240000000000009</ele>
        <time>2014-06-15T13:42:25Z</time>
      </trkpt>
      <trkpt lat="46.490769758820534" lon="6.935348035767674">
        <ele>1215.240000000000009</ele>
        <time>2014-06-15T13:42:26Z</time>
      </trkpt>
      <trkpt lat="46.490671103820205" lon="6.935413498431444">
        <ele>1218.6099999999999</ele>
        <time>2014-06-15T13:42:35Z</time>
      </trkpt>
      <trkpt lat="46.490584770217538" lon="6.93514309823513">
        <ele>1221.970000000000027</ele>
        <time>2014-06-15T13:42:50Z</time>
      </trkpt>
      <trkpt lat="46.490545962005854" lon="6.934851491823792">
        <ele>1224.380000000000109</ele>
        <time>2014-06-15T13:43:05Z</time>
      </trkpt>
      <trkpt lat="46.490393159911036" lon="6.934595759958029">
        <ele>1226.779999999999973</ele>
        <time>2014-06-15T13:43:22Z</time>
      </trkpt>
      <trkpt lat="46.490265922620893" lon="6.93441697396338">
        <ele>1229.660000000000082</ele>
        <time>2014-06-15T13:43:36Z</time>
      </trkpt>
      <trkpt lat="46.490199537947774" lon="6.934326197952032">
        <ele>1231.1099999999999</ele>
        <time>2014-06-15T13:43:42Z</time>
      </trkpt>
      <trkpt lat="46.49018470197916" lon="6.934314798563719">
        <ele>1231.1099999999999</ele>
        <time>2014-06-15T13:43:43Z</time>
      </trkpt>
      <trkpt lat="46.49017246440053" lon="6.934300465509295">
        <ele>1231.1099999999999</ele>
        <time>2014-06-15T13:43:44Z</time>
      </trkpt>
      <trkpt lat="46.49016173556447" lon="6.934283282607794">
        <ele>1231.1099999999999</ele>
        <time>2014-06-15T13:43:45Z</time>
      </trkpt>
      <trkpt lat="46.490149330347776" lon="6.934268111363053">
        <ele>1231.1099999999999</ele>
        <time>2014-06-15T13:43:46Z</time>
      </trkpt>
      <trkpt lat="46.489915559068322" lon="6.934055294841528">
        <ele>1232.069999999999936</ele>
        <time>2014-06-15T13:44:03Z</time>
      </trkpt>
      <trkpt lat="46.489707268774509" lon="6.933856476098299">
        <ele>1235.910000000000082</ele>
        <time>2014-06-15T13:44:21Z</time>
      </trkpt>
      <trkpt lat="46.489526806399226" lon="6.933751618489623">
        <ele>1237.829999999999927</ele>
        <time>2014-06-15T13:44:35Z</time>
      </trkpt>
      <trkpt lat="46.489513562992215" lon="6.933740554377437">
        <ele>1238.319999999999936</ele>
        <time>2014-06-15T13:44:36Z</time>
      </trkpt>
      <trkpt lat="46.489496966823936" lon="6.933733765035868">
        <ele>1238.319999999999936</ele>
        <time>2014-06-15T13:44:37Z</time>
      </trkpt>
      <trkpt lat="46.489476514980197" lon="6.933729071170092">
        <ele>1238.799999999999955</ele>
        <time>2014-06-15T13:44:38Z</time>
      </trkpt>
      <trkpt lat="46.489457404240966" lon="6.933723706752062">
        <ele>1238.799999999999955</ele>
        <time>2014-06-15T13:44:39Z</time>
      </trkpt>
      <trkpt lat="46.489440472796559" lon="6.933715995401144">
        <ele>1238.799999999999955</ele>
        <time>2014-06-15T13:44:40Z</time>
      </trkpt>
      <trkpt lat="46.489425385370851" lon="6.933708367869258">
        <ele>1238.799999999999955</ele>
        <time>2014-06-15T13:44:41Z</time>
      </trkpt>
      <trkpt lat="46.489188428968191" lon="6.933581801131368">
        <ele>1240.720000000000027</ele>
        <time>2014-06-15T13:44:57Z</time>
      </trkpt>
      <trkpt lat="46.489035207778215" lon="6.933431513607502">
        <ele>1244.079999999999927</ele>
        <time>2014-06-15T13:45:10Z</time>
      </trkpt>
      <trkpt lat="46.488862540572882" lon="6.933280220255256">
        <ele>1246.490000000000009</ele>
        <time>2014-06-15T13:45:25Z</time>
      </trkpt>
      <trkpt lat="46.488620638847351" lon="6.933161867782474">
        <ele>1249.369999999999891</ele>
        <time>2014-06-15T13:45:43Z</time>
      </trkpt>
      <trkpt lat="46.4883953332901" lon="6.933137895539403">
        <ele>1251.769999999999982</ele>
        <time>2014-06-15T13:45:59Z</time>
      </trkpt>
      <trkpt lat="46.488366248086095" lon="6.933136219158769">
        <ele>1251.769999999999982</ele>
        <time>2014-06-15T13:46:01Z</time>
      </trkpt>
      <trkpt lat="46.488353172317147" lon="6.933131525292993">
        <ele>1252.25</ele>
        <time>2014-06-15T13:46:02Z</time>
      </trkpt>
      <trkpt lat="46.488143876194954" lon="6.933073354884982">
        <ele>1254.180000000000064</ele>
        <time>2014-06-15T13:46:16Z</time>
      </trkpt>
      <trkpt lat="46.487988894805312" lon="6.932998420670629">
        <ele>1256.099999999999909</ele>
        <time>2014-06-15T13:46:26Z</time>
      </trkpt>
      <trkpt lat="46.487975064665079" lon="6.93299557082355">
        <ele>1256.579999999999927</ele>
        <time>2014-06-15T13:46:27Z</time>
      </trkpt>
      <trkpt lat="46.487961821258068" lon="6.93299163132906">
        <ele>1256.579999999999927</ele>
        <time>2014-06-15T13:46:28Z</time>
      </trkpt>
      <trkpt lat="46.487950421869755" lon="6.93298676982522">
        <ele>1257.059999999999945</ele>
        <time>2014-06-15T13:46:29Z</time>
      </trkpt>
      <trkpt lat="46.487939190119505" lon="6.932981824502349">
        <ele>1257.539999999999964</ele>
        <time>2014-06-15T13:46:30Z</time>
      </trkpt>
      <trkpt lat="46.487782616168261" lon="6.932870764285326">
        <ele>1262.349999999999909</ele>
        <time>2014-06-15T13:46:43Z</time>
      </trkpt>
      <trkpt lat="46.487495033070445" lon="6.932847797870636">
        <ele>1262.349999999999909</ele>
        <time>2014-06-15T13:46:58Z</time>
      </trkpt>
      <trkpt lat="46.487257741391659" lon="6.932878643274307">
        <ele>1265.710000000000036</ele>
        <time>2014-06-15T13:47:15Z</time>
      </trkpt>
      <trkpt lat="46.487042075023055" lon="6.932918122038245">
        <ele>1266.190000000000055</ele>
        <time>2014-06-15T13:47:30Z</time>
      </trkpt>
      <trkpt lat="46.487024640664458" lon="6.932919379323721">
        <ele>1266.670000000000073</ele>
        <time>2014-06-15T13:47:31Z</time>
      </trkpt>
      <trkpt lat="46.48700712248683" lon="6.932921223342419">
        <ele>1267.160000000000082</ele>
        <time>2014-06-15T13:47:32Z</time>
      </trkpt>
      <trkpt lat="46.486951215192676" lon="6.932928683236241">
        <ele>1268.599999999999909</ele>
        <time>2014-06-15T13:47:36Z</time>
      </trkpt>
      <trkpt lat="46.486935038119555" lon="6.932932119816542">
        <ele>1268.599999999999909</ele>
        <time>2014-06-15T13:47:37Z</time>
      </trkpt>
      <trkpt lat="46.486919783055782" lon="6.932931784540415">
        <ele>1269.079999999999927</ele>
        <time>2014-06-15T13:47:38Z</time>
      </trkpt>
      <trkpt lat="46.4869050309062" lon="6.932931700721383">
        <ele>1269.079999999999927</ele>
        <time>2014-06-15T13:47:39Z</time>
      </trkpt>
      <trkpt lat="46.486743930727243" lon="6.932877469807863">
        <ele>1271.960000000000036</ele>
        <time>2014-06-15T13:47:53Z</time>
      </trkpt>
      <trkpt lat="46.486627170816064" lon="6.932826256379485">
        <ele>1276.769999999999982</ele>
        <time>2014-06-15T13:48:03Z</time>
      </trkpt>
      <trkpt lat="46.486612167209387" lon="6.932821813970804">
        <ele>1277.25</ele>
        <time>2014-06-15T13:48:04Z</time>
      </trkpt>
      <trkpt lat="46.486392896622419" lon="6.932800021022558">
        <ele>1279.650000000000091</ele>
        <time>2014-06-15T13:48:18Z</time>
      </trkpt>
      <trkpt lat="46.486192485317588" lon="6.932808989658952">
        <ele>1283.5</ele>
        <time>2014-06-15T13:48:30Z</time>
      </trkpt>
      <trkpt lat="46.486170189455152" lon="6.932807648554444">
        <ele>1284.460000000000036</ele>
        <time>2014-06-15T13:48:31Z</time>
      </trkpt>
      <trkpt lat="46.486150911077857" lon="6.932809157297015">
        <ele>1284.460000000000036</ele>
        <time>2014-06-15T13:48:32Z</time>
      </trkpt>
      <trkpt lat="46.485922504216433" lon="6.932751825079322">
        <ele>1288.779999999999973</ele>
        <time>2014-06-15T13:48:45Z</time>
      </trkpt>
      <trkpt lat="46.485892245545983" lon="6.932728104293346">
        <ele>1289.269999999999982</ele>
        <time>2014-06-15T13:48:46Z</time>
      </trkpt>
      <trkpt lat="46.485810941085219" lon="6.932599525898695">
        <ele>1291.190000000000055</ele>
        <time>2014-06-15T13:48:53Z</time>
      </trkpt>
      <trkpt lat="46.485805073752999" lon="6.932580750435591">
        <ele>1291.670000000000073</ele>
        <time>2014-06-15T13:48:54Z</time>
      </trkpt>
      <trkpt lat="46.485797949135303" lon="6.932560047134757">
        <ele>1291.670000000000073</ele>
        <time>2014-06-15T13:48:55Z</time>
      </trkpt>
      <trkpt lat="46.485677165910602" lon="6.932240026071668">
        <ele>1294.069999999999936</ele>
        <time>2014-06-15T13:49:11Z</time>
      </trkpt>
      <trkpt lat="46.485515311360359" lon="6.932106334716082">
        <ele>1295.509999999999991</ele>
        <time>2014-06-15T13:49:26Z</time>
      </trkpt>
      <trkpt lat="46.485434761270881" lon="6.93210138939321">
        <ele>1295.990000000000009</ele>
        <time>2014-06-15T13:49:32Z</time>
      </trkpt>
      <trkpt lat="46.485417243093252" lon="6.932099796831608">
        <ele>1295.990000000000009</ele>
        <time>2014-06-15T13:49:33Z</time>
      </trkpt>
      <trkpt lat="46.485401149839163" lon="6.932100551202893">
        <ele>1295.990000000000009</ele>
        <time>2014-06-15T13:49:34Z</time>
      </trkpt>
      <trkpt lat="46.485374746844172" lon="6.932101221755147">
        <ele>1295.990000000000009</ele>
        <time>2014-06-15T13:49:36Z</time>
      </trkpt>
      <trkpt lat="46.485360581427813" lon="6.932104239240289">
        <ele>1295.509999999999991</ele>
        <time>2014-06-15T13:49:37Z</time>
      </trkpt>
      <trkpt lat="46.485345158725977" lon="6.932106167078018">
        <ele>1295.509999999999991</ele>
        <time>2014-06-15T13:49:38Z</time>
      </trkpt>
      <trkpt lat="46.485132174566388" lon="6.932310853153467">
        <ele>1294.069999999999936</ele>
        <time>2014-06-15T13:49:55Z</time>
      </trkpt>
      <trkpt lat="46.485059084370732" lon="6.932620061561465">
        <ele>1293.589999999999918</ele>
        <time>2014-06-15T13:50:11Z</time>
      </trkpt>
      <trkpt lat="46.485051289200783" lon="6.93267940543592">
        <ele>1293.589999999999918</ele>
        <time>2014-06-15T13:50:14Z</time>
      </trkpt>
      <trkpt lat="46.485053971409798" lon="6.932699186727405">
        <ele>1293.589999999999918</ele>
        <time>2014-06-15T13:50:15Z</time>
      </trkpt>
      <trkpt lat="46.485056737437844" lon="6.932717962190509">
        <ele>1293.589999999999918</ele>
        <time>2014-06-15T13:50:16Z</time>
      </trkpt>
      <trkpt lat="46.485056988894939" lon="6.932737492024899">
        <ele>1294.069999999999936</ele>
        <time>2014-06-15T13:50:17Z</time>
      </trkpt>
      <trkpt lat="46.485055983066559" lon="6.932757189497352">
        <ele>1294.069999999999936</ele>
        <time>2014-06-15T13:50:18Z</time>
      </trkpt>
      <trkpt lat="46.485052462667227" lon="6.932779736816883">
        <ele>1294.069999999999936</ele>
        <time>2014-06-15T13:50:19Z</time>
      </trkpt>
      <trkpt lat="46.485048271715641" lon="6.932802451774478">
        <ele>1294.549999999999955</ele>
        <time>2014-06-15T13:50:20Z</time>
      </trkpt>
      <trkpt lat="46.48504726588726" lon="6.932823238894343">
        <ele>1294.549999999999955</ele>
        <time>2014-06-15T13:50:21Z</time>
      </trkpt>
      <trkpt lat="46.485047936439514" lon="6.932842265814543">
        <ele>1295.029999999999973</ele>
        <time>2014-06-15T13:50:22Z</time>
      </trkpt>
      <trkpt lat="46.485050283372402" lon="6.93286070600152">
        <ele>1295.029999999999973</ele>
        <time>2014-06-15T13:50:23Z</time>
      </trkpt>
      <trkpt lat="46.485156649723649" lon="6.933218697085977">
        <ele>1297.920000000000073</ele>
        <time>2014-06-15T13:50:36Z</time>
      </trkpt>
      <trkpt lat="46.485254969447851" lon="6.933596050366759">
        <ele>1299.839999999999918</ele>
        <time>2014-06-15T13:50:50Z</time>
      </trkpt>
      <trkpt lat="46.485132593661547" lon="6.933938702568412">
        <ele>1298.880000000000109</ele>
        <time>2014-06-15T13:51:06Z</time>
      </trkpt>
      <trkpt lat="46.485045673325658" lon="6.93426501005888">
        <ele>1296.960000000000036</ele>
        <time>2014-06-15T13:51:21Z</time>
      </trkpt>
      <trkpt lat="46.485040225088596" lon="6.934286970645189">
        <ele>1296.960000000000036</ele>
        <time>2014-06-15T13:51:22Z</time>
      </trkpt>
      <trkpt lat="46.484926147386432" lon="6.934616211801767">
        <ele>1290.710000000000036</ele>
        <time>2014-06-15T13:51:37Z</time>
      </trkpt>
      <trkpt lat="46.484785582870245" lon="6.934888707473874">
        <ele>1282.059999999999945</ele>
        <time>2014-06-15T13:51:50Z</time>
      </trkpt>
      <trkpt lat="46.484744260087609" lon="6.935298833996058">
        <ele>1291.670000000000073</ele>
        <time>2014-06-15T13:52:06Z</time>
      </trkpt>
      <trkpt lat="46.484658429399133" lon="6.935574850067496">
        <ele>1295.509999999999991</ele>
        <time>2014-06-15T13:52:19Z</time>
      </trkpt>
      <trkpt lat="46.484663793817163" lon="6.935895206406713">
        <ele>1297.440000000000055</ele>
        <time>2014-06-15T13:52:32Z</time>
      </trkpt>
      <trkpt lat="46.484982306137681" lon="6.93604314699769">
        <ele>1309.450000000000045</ele>
        <time>2014-06-15T13:52:46Z</time>
      </trkpt>
      <trkpt lat="46.485313978046179" lon="6.936044739559293">
        <ele>1315.700000000000045</ele>
        <time>2014-06-15T13:53:02Z</time>
      </trkpt>
      <trkpt lat="46.485678507015109" lon="6.935998974367976">
        <ele>1315.700000000000045</ele>
        <time>2014-06-15T13:53:18Z</time>
      </trkpt>
      <trkpt lat="46.485976818948984" lon="6.935919849202037">
        <ele>1315.700000000000045</ele>
        <time>2014-06-15T13:53:33Z</time>
      </trkpt>
      <trkpt lat="46.48629080504179" lon="6.935953460633755">
        <ele>1317.619999999999891</ele>
        <time>2014-06-15T13:53:47Z</time>
      </trkpt>
      <trkpt lat="46.486473614349961" lon="6.93636174313724">
        <ele>1319.069999999999936</ele>
        <time>2014-06-15T13:54:02Z</time>
      </trkpt>
      <trkpt lat="46.486523570492864" lon="6.936874212697148">
        <ele>1320.990000000000009</ele>
        <time>2014-06-15T13:54:17Z</time>
      </trkpt>
      <trkpt lat="46.486781733110547" lon="6.937134973704815">
        <ele>1323.3900000000001</ele>
        <time>2014-06-15T13:54:33Z</time>
      </trkpt>
      <trkpt lat="46.48698415607214" lon="6.937286602333188">
        <ele>1325.309999999999945</ele>
        <time>2014-06-15T13:54:47Z</time>
      </trkpt>
      <trkpt lat="46.487207030877471" lon="6.937385424971581">
        <ele>1329.160000000000082</ele>
        <time>2014-06-15T13:55:02Z</time>
      </trkpt>
      <trkpt lat="46.487513724714518" lon="6.937433453276753">
        <ele>1333.490000000000009</ele>
        <time>2014-06-15T13:55:18Z</time>
      </trkpt>
      <trkpt lat="46.48777867667377" lon="6.937444936484098">
        <ele>1334.930000000000064</ele>
        <time>2014-06-15T13:55:31Z</time>
      </trkpt>
      <trkpt lat="46.488072965294123" lon="6.937451222911477">
        <ele>1337.809999999999945</ele>
        <time>2014-06-15T13:55:44Z</time>
      </trkpt>
      <trkpt lat="46.488152174279094" lon="6.937508638948202">
        <ele>1338.769999999999982</ele>
        <time>2014-06-15T13:55:48Z</time>
      </trkpt>
      <trkpt lat="46.488170949742198" lon="6.937530934810638">
        <ele>1339.25</ele>
        <time>2014-06-15T13:55:49Z</time>
      </trkpt>
      <trkpt lat="46.488189892843366" lon="6.937550967559218">
        <ele>1339.25</ele>
        <time>2014-06-15T13:55:50Z</time>
      </trkpt>
      <trkpt lat="46.488276142627001" lon="6.937897140160203">
        <ele>1340.700000000000045</ele>
        <time>2014-06-15T13:56:03Z</time>
      </trkpt>
      <trkpt lat="46.488317716866732" lon="6.938244821503758">
        <ele>1339.730000000000018</ele>
        <time>2014-06-15T13:56:16Z</time>
      </trkpt>
      <trkpt lat="46.488449983298779" lon="6.938642458990216">
        <ele>1343.579999999999927</ele>
        <time>2014-06-15T13:56:31Z</time>
      </trkpt>
      <trkpt lat="46.488467585295439" lon="6.939069181680679">
        <ele>1342.619999999999891</ele>
        <time>2014-06-15T13:56:42Z</time>
      </trkpt>
      <trkpt lat="46.488187713548541" lon="6.93942348472774">
        <ele>1340.220000000000027</ele>
        <time>2014-06-15T13:56:54Z</time>
      </trkpt>
      <trkpt lat="46.487901220098138" lon="6.939426669850945">
        <ele>1343.579999999999927</ele>
        <time>2014-06-15T13:57:05Z</time>
      </trkpt>
      <trkpt lat="46.487574577331543" lon="6.939381994307041">
        <ele>1350.309999999999945</ele>
        <time>2014-06-15T13:57:17Z</time>
      </trkpt>
      <trkpt lat="46.487218430265784" lon="6.939576286822557">
        <ele>1354.630000000000109</ele>
        <time>2014-06-15T13:57:28Z</time>
      </trkpt>
      <trkpt lat="46.486980551853776" lon="6.940015079453588">
        <ele>1356.559999999999945</ele>
        <time>2014-06-15T13:57:39Z</time>
      </trkpt>
      <trkpt lat="46.486806878820062" lon="6.940543977543712">
        <ele>1351.75</ele>
        <time>2014-06-15T13:57:51Z</time>
      </trkpt>
      <trkpt lat="46.486582914367318" lon="6.941189216449857">
        <ele>1345.980000000000018</ele>
        <time>2014-06-15T13:58:05Z</time>
      </trkpt>
      <trkpt lat="46.486364398151636" lon="6.941994298249483">
        <ele>1342.619999999999891</ele>
        <time>2014-06-15T13:58:20Z</time>
      </trkpt>
      <trkpt lat="46.486292565241456" lon="6.942315995693207">
        <ele>1342.1400000000001</ele>
        <time>2014-06-15T13:58:26Z</time>
      </trkpt>
      <trkpt lat="46.486300863325596" lon="6.942369304597378">
        <ele>1342.1400000000001</ele>
        <time>2014-06-15T13:58:27Z</time>
      </trkpt>
      <trkpt lat="46.486317291855812" lon="6.942420434206724">
        <ele>1342.1400000000001</ele>
        <time>2014-06-15T13:58:28Z</time>
      </trkpt>
      <trkpt lat="46.486343275755644" lon="6.94246469065547">
        <ele>1342.619999999999891</ele>
        <time>2014-06-15T13:58:29Z</time>
      </trkpt>
      <trkpt lat="46.486377390101552" lon="6.942506600171328">
        <ele>1343.099999999999909</ele>
        <time>2014-06-15T13:58:30Z</time>
      </trkpt>
      <trkpt lat="46.486422820016742" lon="6.942544905468822">
        <ele>1344.059999999999945</ele>
        <time>2014-06-15T13:58:31Z</time>
      </trkpt>
      <trkpt lat="46.486471937969327" lon="6.942573403939605">
        <ele>1344.539999999999964</ele>
        <time>2014-06-15T13:58:32Z</time>
      </trkpt>
      <trkpt lat="46.486518457531929" lon="6.942588910460472">
        <ele>1345.5</ele>
        <time>2014-06-15T13:58:33Z</time>
      </trkpt>
      <trkpt lat="46.486563216894865" lon="6.94259318523109">
        <ele>1346.460000000000036</ele>
        <time>2014-06-15T13:58:34Z</time>
      </trkpt>
      <trkpt lat="46.486608227714896" lon="6.942589161917567">
        <ele>1347.430000000000064</ele>
        <time>2014-06-15T13:58:35Z</time>
      </trkpt>
      <trkpt lat="46.486650388687849" lon="6.942572314292192">
        <ele>1348.3900000000001</ele>
        <time>2014-06-15T13:58:36Z</time>
      </trkpt>
      <trkpt lat="46.486686179414392" lon="6.942543396726251">
        <ele>1348.869999999999891</ele>
        <time>2014-06-15T13:58:37Z</time>
      </trkpt>
      <trkpt lat="46.486720461398363" lon="6.942507354542613">
        <ele>1349.349999999999909</ele>
        <time>2014-06-15T13:58:38Z</time>
      </trkpt>
      <trkpt lat="46.487099742516875" lon="6.942387577146292">
        <ele>1353.190000000000055</ele>
        <time>2014-06-15T13:58:48Z</time>
      </trkpt>
      <trkpt lat="46.487128408625722" lon="6.942413058131933">
        <ele>1353.670000000000073</ele>
        <time>2014-06-15T13:58:49Z</time>
      </trkpt>
      <trkpt lat="46.487152464687824" lon="6.942432001233101">
        <ele>1353.670000000000073</ele>
        <time>2014-06-15T13:58:50Z</time>
      </trkpt>
      <trkpt lat="46.487172832712531" lon="6.942445831373334">
        <ele>1354.150000000000091</ele>
        <time>2014-06-15T13:58:51Z</time>
      </trkpt>
      <trkpt lat="46.487185237929225" lon="6.942464523017406">
        <ele>1354.150000000000091</ele>
        <time>2014-06-15T13:58:52Z</time>
      </trkpt>
      <trkpt lat="46.487188590690494" lon="6.94248572923243">
        <ele>1354.630000000000109</ele>
        <time>2014-06-15T13:58:53Z</time>
      </trkpt>
      <trkpt lat="46.487183896824718" lon="6.942502241581678">
        <ele>1355.119999999999891</ele>
        <time>2014-06-15T13:58:54Z</time>
      </trkpt>
      <trkpt lat="46.487140227109194" lon="6.942535769194365">
        <ele>1356.079999999999927</ele>
        <time>2014-06-15T13:59:04Z</time>
      </trkpt>
      <trkpt lat="46.487130923196673" lon="6.942528476938605">
        <ele>1356.559999999999945</ele>
        <time>2014-06-15T13:59:11Z</time>
      </trkpt>
      <trkpt lat="46.487119942903519" lon="6.942522441968322">
        <ele>1357.039999999999964</ele>
        <time>2014-06-15T13:59:12Z</time>
      </trkpt>
      <trkpt lat="46.487107118591666" lon="6.942522106692195">
        <ele>1357.039999999999964</ele>
        <time>2014-06-15T13:59:13Z</time>
      </trkpt>
      <trkpt lat="46.487093707546592" lon="6.942529315128922">
        <ele>1357.039999999999964</ele>
        <time>2014-06-15T13:59:14Z</time>
      </trkpt>
      <trkpt lat="46.487083900719881" lon="6.942537277936935">
        <ele>1357.519999999999982</ele>
        <time>2014-06-15T13:59:15Z</time>
      </trkpt>
      <trkpt lat="46.487073339521885" lon="6.942548090592027">
        <ele>1357.519999999999982</ele>
        <time>2014-06-15T13:59:16Z</time>
      </trkpt>
      <trkpt lat="46.487059677019715" lon="6.942556221038103">
        <ele>1357.519999999999982</ele>
        <time>2014-06-15T13:59:17Z</time>
      </trkpt>
      <trkpt lat="46.486991699784994" lon="6.942800637334585">
        <ele>1360.880000000000109</ele>
        <time>2014-06-15T13:59:31Z</time>
      </trkpt>
      <trkpt lat="46.486897487193346" lon="6.943116970360279">
        <ele>1365.210000000000036</ele>
        <time>2014-06-15T13:59:50Z</time>
      </trkpt>
      <trkpt lat="46.486793719232082" lon="6.943340599536896">
        <ele>1369.049999999999955</ele>
        <time>2014-06-15T14:00:06Z</time>
      </trkpt>
      <trkpt lat="46.486837053671479" lon="6.943558780476451">
        <ele>1371.460000000000036</ele>
        <time>2014-06-15T14:00:19Z</time>
      </trkpt>
      <trkpt lat="46.486848788335919" lon="6.943568587303162">
        <ele>1371.940000000000055</ele>
        <time>2014-06-15T14:00:20Z</time>
      </trkpt>
      <trkpt lat="46.486872090026736" lon="6.943590296432376">
        <ele>1372.420000000000073</ele>
        <time>2014-06-15T14:00:22Z</time>
      </trkpt>
      <trkpt lat="46.486886842176318" lon="6.943594487383962">
        <ele>1372.420000000000073</ele>
        <time>2014-06-15T14:00:23Z</time>
      </trkpt>
      <trkpt lat="46.4869015943259" lon="6.943596079945564">
        <ele>1372.900000000000091</ele>
        <time>2014-06-15T14:00:24Z</time>
      </trkpt>
      <trkpt lat="46.48691575974226" lon="6.943599851801991">
        <ele>1372.900000000000091</ele>
        <time>2014-06-15T14:00:25Z</time>
      </trkpt>
      <trkpt lat="46.48692992515862" lon="6.943604545667768">
        <ele>1372.900000000000091</ele>
        <time>2014-06-15T14:00:26Z</time>
      </trkpt>
      <trkpt lat="46.486944677308202" lon="6.943607311695814">
        <ele>1373.380000000000109</ele>
        <time>2014-06-15T14:00:27Z</time>
      </trkpt>
      <trkpt lat="46.486959680914879" lon="6.943606976419687">
        <ele>1373.380000000000109</ele>
        <time>2014-06-15T14:00:28Z</time>
      </trkpt>
      <trkpt lat="46.486975857988" lon="6.943605383858085">
        <ele>1373.8599999999999</ele>
        <time>2014-06-15T14:00:29Z</time>
      </trkpt>
      <trkpt lat="46.486990274861455" lon="6.943603875115514">
        <ele>1374.339999999999918</ele>
        <time>2014-06-15T14:00:30Z</time>
      </trkpt>
      <trkpt lat="46.487001422792673" lon="6.943601863458753">
        <ele>1374.339999999999918</ele>
        <time>2014-06-15T14:00:31Z</time>
      </trkpt>
      <trkpt lat="46.487013157457113" lon="6.943602031096816">
        <ele>1374.339999999999918</ele>
        <time>2014-06-15T14:00:32Z</time>
      </trkpt>
      <trkpt lat="46.487082140520215" lon="6.943616028875113">
        <ele>1375.779999999999973</ele>
        <time>2014-06-15T14:00:37Z</time>
      </trkpt>
      <trkpt lat="46.487095216289163" lon="6.943615945056081">
        <ele>1376.259999999999991</ele>
        <time>2014-06-15T14:00:38Z</time>
      </trkpt>
      <trkpt lat="46.487108627334237" lon="6.943618543446064">
        <ele>1376.75</ele>
        <time>2014-06-15T14:00:39Z</time>
      </trkpt>
      <trkpt lat="46.487121284008026" lon="6.94362323731184">
        <ele>1376.75</ele>
        <time>2014-06-15T14:00:40Z</time>
      </trkpt>
      <trkpt lat="46.487132515758276" lon="6.943632205948234">
        <ele>1377.230000000000018</ele>
        <time>2014-06-15T14:00:41Z</time>
      </trkpt>
      <trkpt lat="46.487143244594336" lon="6.943639246746898">
        <ele>1377.710000000000036</ele>
        <time>2014-06-15T14:00:42Z</time>
      </trkpt>
      <trkpt lat="46.487154476344585" lon="6.943644024431705">
        <ele>1377.710000000000036</ele>
        <time>2014-06-15T14:00:43Z</time>
      </trkpt>
      <trkpt lat="46.487165372818708" lon="6.94364813156426">
        <ele>1378.190000000000055</ele>
        <time>2014-06-15T14:00:44Z</time>
      </trkpt>
      <trkpt lat="46.487176101654768" lon="6.943652406334877">
        <ele>1378.190000000000055</ele>
        <time>2014-06-15T14:00:45Z</time>
      </trkpt>
      <trkpt lat="46.487185154110193" lon="6.943659530952573">
        <ele>1378.670000000000073</ele>
        <time>2014-06-15T14:00:46Z</time>
      </trkpt>
      <trkpt lat="46.487191608175635" lon="6.943672690540552">
        <ele>1378.670000000000073</ele>
        <time>2014-06-15T14:00:47Z</time>
      </trkpt>
      <trkpt lat="46.487195212393999" lon="6.943690963089466">
        <ele>1378.670000000000073</ele>
        <time>2014-06-15T14:00:48Z</time>
      </trkpt>
      <trkpt lat="46.487194206565619" lon="6.943710157647729">
        <ele>1379.150000000000091</ele>
        <time>2014-06-15T14:00:49Z</time>
      </trkpt>
      <trkpt lat="46.487189847975969" lon="6.943728597834706">
        <ele>1379.150000000000091</ele>
        <time>2014-06-15T14:00:50Z</time>
      </trkpt>
      <trkpt lat="46.487181298434734" lon="6.943743349984288">
        <ele>1378.670000000000073</ele>
        <time>2014-06-15T14:00:51Z</time>
      </trkpt>
      <trkpt lat="46.487174006178975" lon="6.943758269771934">
        <ele>1378.670000000000073</ele>
        <time>2014-06-15T14:00:52Z</time>
      </trkpt>
      <trkpt lat="46.487166881561279" lon="6.943773021921515">
        <ele>1378.670000000000073</ele>
        <time>2014-06-15T14:00:53Z</time>
      </trkpt>
      <trkpt lat="46.487156990915537" lon="6.943783331662416">
        <ele>1378.670000000000073</ele>
        <time>2014-06-15T14:00:54Z</time>
      </trkpt>
      <trkpt lat="46.487146764993668" lon="6.943792048841715">
        <ele>1378.670000000000073</ele>
        <time>2014-06-15T14:00:55Z</time>
      </trkpt>
      <trkpt lat="46.48713662289083" lon="6.943801268935204">
        <ele>1379.150000000000091</ele>
        <time>2014-06-15T14:00:56Z</time>
      </trkpt>
      <trkpt lat="46.487125810235739" lon="6.943808980286121">
        <ele>1379.150000000000091</ele>
        <time>2014-06-15T14:00:57Z</time>
      </trkpt>
      <trkpt lat="46.487113991752267" lon="6.943814679980278">
        <ele>1379.630000000000109</ele>
        <time>2014-06-15T14:00:58Z</time>
      </trkpt>
      <trkpt lat="46.487101754173636" lon="6.943819792941213">
        <ele>1379.630000000000109</ele>
        <time>2014-06-15T14:00:59Z</time>
      </trkpt>
      <trkpt lat="46.48692648857832" lon="6.94392766803503">
        <ele>1384.440000000000055</ele>
        <time>2014-06-15T14:01:16Z</time>
      </trkpt>
      <trkpt lat="46.486868150532246" lon="6.943969242274761">
        <ele>1385.880000000000109</ele>
        <time>2014-06-15T14:01:22Z</time>
      </trkpt>
      <trkpt lat="46.486855912953615" lon="6.943971086293459">
        <ele>1386.3599999999999</ele>
        <time>2014-06-15T14:01:23Z</time>
      </trkpt>
      <trkpt lat="46.486844765022397" lon="6.943977037444711">
        <ele>1386.3599999999999</ele>
        <time>2014-06-15T14:01:24Z</time>
      </trkpt>
      <trkpt lat="46.486834120005369" lon="6.943984078243375">
        <ele>1386.839999999999918</ele>
        <time>2014-06-15T14:01:25Z</time>
      </trkpt>
      <trkpt lat="46.486663715913892" lon="6.944081811234355">
        <ele>1391.170000000000073</ele>
        <time>2014-06-15T14:01:40Z</time>
      </trkpt>
      <trkpt lat="46.486503034830093" lon="6.944173676893115">
        <ele>1395.490000000000009</ele>
        <time>2014-06-15T14:01:55Z</time>
      </trkpt>
      <trkpt lat="46.4863421022892" lon="6.944294376298785">
        <ele>1397.8900000000001</ele>
        <time>2014-06-15T14:02:12Z</time>
      </trkpt>
      <trkpt lat="46.486213523894548" lon="6.94446268491447">
        <ele>1400.299999999999955</ele>
        <time>2014-06-15T14:02:26Z</time>
      </trkpt>
      <trkpt lat="46.486201537773013" lon="6.944473832845688">
        <ele>1400.779999999999973</ele>
        <time>2014-06-15T14:02:27Z</time>
      </trkpt>
      <trkpt lat="46.486192150041461" lon="6.944486238062382">
        <ele>1400.779999999999973</ele>
        <time>2014-06-15T14:02:28Z</time>
      </trkpt>
      <trkpt lat="46.486183181405067" lon="6.944498559460044">
        <ele>1400.779999999999973</ele>
        <time>2014-06-15T14:02:29Z</time>
      </trkpt>
      <trkpt lat="46.48617253638804" lon="6.944509707391262">
        <ele>1400.779999999999973</ele>
        <time>2014-06-15T14:02:30Z</time>
      </trkpt>
      <trkpt lat="46.48616130463779" lon="6.944518340751529">
        <ele>1401.259999999999991</ele>
        <time>2014-06-15T14:02:31Z</time>
      </trkpt>
      <trkpt lat="46.486151497811079" lon="6.944527225568891">
        <ele>1401.259999999999991</ele>
        <time>2014-06-15T14:02:32Z</time>
      </trkpt>
      <trkpt lat="46.48613934405148" lon="6.944535607472062">
        <ele>1401.259999999999991</ele>
        <time>2014-06-15T14:02:33Z</time>
      </trkpt>
      <trkpt lat="46.486128615215421" lon="6.944545917212963">
        <ele>1401.740000000000009</ele>
        <time>2014-06-15T14:02:34Z</time>
      </trkpt>
      <trkpt lat="46.486119227483869" lon="6.944554131478071">
        <ele>1401.740000000000009</ele>
        <time>2014-06-15T14:02:35Z</time>
      </trkpt>
      <trkpt lat="46.48610950447619" lon="6.94456385448575">
        <ele>1402.220000000000027</ele>
        <time>2014-06-15T14:02:36Z</time>
      </trkpt>
      <trkpt lat="46.486099530011415" lon="6.944572487846017">
        <ele>1402.220000000000027</ele>
        <time>2014-06-15T14:02:37Z</time>
      </trkpt>
      <trkpt lat="46.48587548173964" lon="6.944611128419638">
        <ele>1405.579999999999927</ele>
        <time>2014-06-15T14:02:55Z</time>
      </trkpt>
      <trkpt lat="46.485623437911272" lon="6.944588078185916">
        <ele>1408.470000000000027</ele>
        <time>2014-06-15T14:03:14Z</time>
      </trkpt>
      <trkpt lat="46.485564848408103" lon="6.944622695446014">
        <ele>1409.430000000000064</ele>
        <time>2014-06-15T14:03:19Z</time>
      </trkpt>
      <trkpt lat="46.485555293038487" lon="6.944635352119803">
        <ele>1409.430000000000064</ele>
        <time>2014-06-15T14:03:20Z</time>
      </trkpt>
      <trkpt lat="46.485398970544338" lon="6.944872979074717">
        <ele>1413.279999999999973</ele>
        <time>2014-06-15T14:03:38Z</time>
      </trkpt>
      <trkpt lat="46.485202834010124" lon="6.94497280754149">
        <ele>1417.119999999999891</ele>
        <time>2014-06-15T14:03:54Z</time>
      </trkpt>
      <trkpt lat="46.485035698860884" lon="6.945130890235305">
        <ele>1419.519999999999982</ele>
        <time>2014-06-15T14:04:10Z</time>
      </trkpt>
      <trkpt lat="46.484947940334678" lon="6.945368517190218">
        <ele>1422.410000000000082</ele>
        <time>2014-06-15T14:04:24Z</time>
      </trkpt>
      <trkpt lat="46.484796646982431" lon="6.945638498291373">
        <ele>1422.8900000000001</ele>
        <time>2014-06-15T14:04:40Z</time>
      </trkpt>
      <trkpt lat="46.484635546803474" lon="6.94597352296114">
        <ele>1424.329999999999927</ele>
        <time>2014-06-15T14:04:55Z</time>
      </trkpt>
      <trkpt lat="46.484408983960748" lon="6.946275439113379">
        <ele>1424.329999999999927</ele>
        <time>2014-06-15T14:05:12Z</time>
      </trkpt>
      <trkpt lat="46.484269257634878" lon="6.946507534012198">
        <ele>1422.8900000000001</ele>
        <time>2014-06-15T14:05:20Z</time>
      </trkpt>
      <trkpt lat="46.484240256249905" lon="6.946542905643582">
        <ele>1422.8900000000001</ele>
        <time>2014-06-15T14:05:21Z</time>
      </trkpt>
      <trkpt lat="46.484190803021193" lon="6.946600321680307">
        <ele>1423.369999999999891</ele>
        <time>2014-06-15T14:05:25Z</time>
      </trkpt>
      <trkpt lat="46.484179235994816" lon="6.946609122678638">
        <ele>1423.369999999999891</ele>
        <time>2014-06-15T14:05:26Z</time>
      </trkpt>
      <trkpt lat="46.484168004244566" lon="6.946618175134063">
        <ele>1423.369999999999891</ele>
        <time>2014-06-15T14:05:27Z</time>
      </trkpt>
      <trkpt lat="46.484154844656587" lon="6.946626557037234">
        <ele>1423.849999999999909</ele>
        <time>2014-06-15T14:05:28Z</time>
      </trkpt>
      <trkpt lat="46.484140427783132" lon="6.946633849292994">
        <ele>1423.849999999999909</ele>
        <time>2014-06-15T14:05:29Z</time>
      </trkpt>
      <trkpt lat="46.484127687290311" lon="6.946641812101007">
        <ele>1423.849999999999909</ele>
        <time>2014-06-15T14:05:30Z</time>
      </trkpt>
      <trkpt lat="46.484086280688643" lon="6.946670142933726">
        <ele>1425.289999999999964</ele>
        <time>2014-06-15T14:05:43Z</time>
      </trkpt>
      <trkpt lat="46.484090304002166" lon="6.946665784344077">
        <ele>1426.25</ele>
        <time>2014-06-15T14:06:08Z</time>
      </trkpt>
      <trkpt lat="46.484046299010515" lon="6.946680201217532">
        <ele>1426.25</ele>
        <time>2014-06-15T14:06:41Z</time>
      </trkpt>
      <trkpt lat="46.483972454443574" lon="6.946693863719702">
        <ele>1427.210000000000036</ele>
        <time>2014-06-15T14:06:46Z</time>
      </trkpt>
      <trkpt lat="46.483957283198833" lon="6.946687828749418">
        <ele>1427.210000000000036</ele>
        <time>2014-06-15T14:06:47Z</time>
      </trkpt>
      <trkpt lat="46.483941106125712" lon="6.946685397997499">
        <ele>1427.700000000000045</ele>
        <time>2014-06-15T14:06:48Z</time>
      </trkpt>
      <trkpt lat="46.483925096690655" lon="6.946686320006847">
        <ele>1427.700000000000045</ele>
        <time>2014-06-15T14:06:49Z</time>
      </trkpt>
      <trkpt lat="46.483909673988819" lon="6.946688834577799">
        <ele>1427.700000000000045</ele>
        <time>2014-06-15T14:06:50Z</time>
      </trkpt>
      <trkpt lat="46.48389358073473" lon="6.946690175682306">
        <ele>1428.180000000000064</ele>
        <time>2014-06-15T14:06:51Z</time>
      </trkpt>
      <trkpt lat="46.48387891240418" lon="6.94669377990067">
        <ele>1428.180000000000064</ele>
        <time>2014-06-15T14:06:52Z</time>
      </trkpt>
      <trkpt lat="46.483863908797503" lon="6.946697803214192">
        <ele>1428.180000000000064</ele>
        <time>2014-06-15T14:06:53Z</time>
      </trkpt>
      <trkpt lat="46.48384764790535" lon="6.94669864140451">
        <ele>1428.180000000000064</ele>
        <time>2014-06-15T14:06:54Z</time>
      </trkpt>
      <trkpt lat="46.483831973746419" lon="6.946699311956763">
        <ele>1428.660000000000082</ele>
        <time>2014-06-15T14:06:55Z</time>
      </trkpt>
      <trkpt lat="46.483718147501349" lon="6.946665281429887">
        <ele>1429.619999999999891</ele>
        <time>2014-06-15T14:07:03Z</time>
      </trkpt>
      <trkpt lat="46.483709346503019" lon="6.946651954203844">
        <ele>1429.619999999999891</ele>
        <time>2014-06-15T14:07:04Z</time>
      </trkpt>
      <trkpt lat="46.483698701485991" lon="6.946637537330389">
        <ele>1430.099999999999909</ele>
        <time>2014-06-15T14:07:05Z</time>
      </trkpt>
      <trkpt lat="46.483689649030566" lon="6.946616331115365">
        <ele>1430.099999999999909</ele>
        <time>2014-06-15T14:07:06Z</time>
      </trkpt>
      <trkpt lat="46.483680009841919" lon="6.9465955439955">
        <ele>1430.099999999999909</ele>
        <time>2014-06-15T14:07:07Z</time>
      </trkpt>
      <trkpt lat="46.483670622110367" lon="6.946580875664949">
        <ele>1430.579999999999927</ele>
        <time>2014-06-15T14:07:08Z</time>
      </trkpt>
      <trkpt lat="46.483498206362128" lon="6.946310894563794">
        <ele>1432.980000000000018</ele>
        <time>2014-06-15T14:07:25Z</time>
      </trkpt>
      <trkpt lat="46.483382284641266" lon="6.946010235697031">
        <ele>1435.869999999999891</ele>
        <time>2014-06-15T14:07:42Z</time>
      </trkpt>
      <trkpt lat="46.483284635469317" lon="6.945758191868663">
        <ele>1438.269999999999982</ele>
        <time>2014-06-15T14:07:56Z</time>
      </trkpt>
      <trkpt lat="46.483129402622581" lon="6.945524169132113">
        <ele>1440.670000000000073</ele>
        <time>2014-06-15T14:08:12Z</time>
      </trkpt>
      <trkpt lat="46.482925554737449" lon="6.945364661514759">
        <ele>1444.039999999999964</ele>
        <time>2014-06-15T14:08:27Z</time>
      </trkpt>
      <trkpt lat="46.482904683798552" lon="6.945323254913092">
        <ele>1444.519999999999982</ele>
        <time>2014-06-15T14:08:30Z</time>
      </trkpt>
      <trkpt lat="46.482901750132442" lon="6.945304144173861">
        <ele>1444.519999999999982</ele>
        <time>2014-06-15T14:08:31Z</time>
      </trkpt>
      <trkpt lat="46.482851542532444" lon="6.945181768387556">
        <ele>1445.480000000000018</ele>
        <time>2014-06-15T14:08:38Z</time>
      </trkpt>
      <trkpt lat="46.48284500464797" lon="6.945162490010262">
        <ele>1445.480000000000018</ele>
        <time>2014-06-15T14:08:39Z</time>
      </trkpt>
      <trkpt lat="46.482837209478021" lon="6.945143043994904">
        <ele>1445.480000000000018</ele>
        <time>2014-06-15T14:08:40Z</time>
      </trkpt>
      <trkpt lat="46.482829414308071" lon="6.945125944912434">
        <ele>1445.960000000000036</ele>
        <time>2014-06-15T14:08:41Z</time>
      </trkpt>
      <trkpt lat="46.482821786776185" lon="6.945109684020281">
        <ele>1445.960000000000036</ele>
        <time>2014-06-15T14:08:42Z</time>
      </trkpt>
      <trkpt lat="46.482816506177187" lon="6.945091160014272">
        <ele>1445.960000000000036</ele>
        <time>2014-06-15T14:08:43Z</time>
      </trkpt>
      <trkpt lat="46.482810974121094" lon="6.945070959627628">
        <ele>1445.960000000000036</ele>
        <time>2014-06-15T14:08:44Z</time>
      </trkpt>
      <trkpt lat="46.482804687693715" lon="6.945052100345492">
        <ele>1445.960000000000036</ele>
        <time>2014-06-15T14:08:45Z</time>
      </trkpt>
      <trkpt lat="46.482796389609575" lon="6.945037012919784">
        <ele>1446.440000000000055</ele>
        <time>2014-06-15T14:08:46Z</time>
      </trkpt>
      <trkpt lat="46.482602432370186" lon="6.944849593564868">
        <ele>1448.3599999999999</ele>
        <time>2014-06-15T14:09:02Z</time>
      </trkpt>
      <trkpt lat="46.482389783486724" lon="6.944744316861033">
        <ele>1451.25</ele>
        <time>2014-06-15T14:09:18Z</time>
      </trkpt>
      <trkpt lat="46.482220804318786" lon="6.944500990211964">
        <ele>1454.130000000000109</ele>
        <time>2014-06-15T14:09:35Z</time>
      </trkpt>
      <trkpt lat="46.482148971408606" lon="6.944329664111137">
        <ele>1455.089999999999918</ele>
        <time>2014-06-15T14:09:45Z</time>
      </trkpt>
      <trkpt lat="46.482154503464699" lon="6.944309463724494">
        <ele>1455.089999999999918</ele>
        <time>2014-06-15T14:09:46Z</time>
      </trkpt>
      <trkpt lat="46.482162466272712" lon="6.944296220317483">
        <ele>1455.089999999999918</ele>
        <time>2014-06-15T14:09:47Z</time>
      </trkpt>
      <trkpt lat="46.48217462003231" lon="6.944289011880755">
        <ele>1455.089999999999918</ele>
        <time>2014-06-15T14:09:48Z</time>
      </trkpt>
      <trkpt lat="46.482187025249004" lon="6.944288592785597">
        <ele>1455.569999999999936</ele>
        <time>2014-06-15T14:09:49Z</time>
      </trkpt>
      <trkpt lat="46.48220001719892" lon="6.944291274994612">
        <ele>1455.569999999999936</ele>
        <time>2014-06-15T14:09:50Z</time>
      </trkpt>
      <trkpt lat="46.482253996655345" lon="6.944291861727834">
        <ele>1456.529999999999973</ele>
        <time>2014-06-15T14:09:54Z</time>
      </trkpt>
      <trkpt lat="46.482276124879718" lon="6.944265374913812">
        <ele>1456.529999999999973</ele>
        <time>2014-06-15T14:09:56Z</time>
      </trkpt>
      <trkpt lat="46.482281070202589" lon="6.944245509803295">
        <ele>1456.529999999999973</ele>
        <time>2014-06-15T14:09:57Z</time>
      </trkpt>
      <trkpt lat="46.482286686077714" lon="6.943961447104812">
        <ele>1457.5</ele>
        <time>2014-06-15T14:10:11Z</time>
      </trkpt>
      <trkpt lat="46.482280232012272" lon="6.943944431841373">
        <ele>1457.980000000000018</ele>
        <time>2014-06-15T14:10:12Z</time>
      </trkpt>
      <trkpt lat="46.482260031625628" lon="6.943918950855732">
        <ele>1457.980000000000018</ele>
        <time>2014-06-15T14:10:14Z</time>
      </trkpt>
      <trkpt lat="46.482246452942491" lon="6.943909898400307">
        <ele>1458.460000000000036</ele>
        <time>2014-06-15T14:10:15Z</time>
      </trkpt>
      <trkpt lat="46.482232790440321" lon="6.943904533982277">
        <ele>1458.940000000000055</ele>
        <time>2014-06-15T14:10:16Z</time>
      </trkpt>
      <trkpt lat="46.482205465435982" lon="6.943901935592294">
        <ele>1458.940000000000055</ele>
        <time>2014-06-15T14:10:18Z</time>
      </trkpt>
      <trkpt lat="46.482193395495415" lon="6.94390763528645">
        <ele>1458.940000000000055</ele>
        <time>2014-06-15T14:10:19Z</time>
      </trkpt>
      <trkpt lat="46.482180822640657" lon="6.943915095180273">
        <ele>1458.940000000000055</ele>
        <time>2014-06-15T14:10:20Z</time>
      </trkpt>
      <trkpt lat="46.482167076319456" lon="6.943922387436032">
        <ele>1459.420000000000073</ele>
        <time>2014-06-15T14:10:21Z</time>
      </trkpt>
      <trkpt lat="46.482154168188572" lon="6.943930014967918">
        <ele>1459.420000000000073</ele>
        <time>2014-06-15T14:10:22Z</time>
      </trkpt>
      <trkpt lat="46.482139332219958" lon="6.943938313052058">
        <ele>1459.420000000000073</ele>
        <time>2014-06-15T14:10:23Z</time>
      </trkpt>
      <trkpt lat="46.482123825699091" lon="6.943944431841373">
        <ele>1459.420000000000073</ele>
        <time>2014-06-15T14:10:24Z</time>
      </trkpt>
      <trkpt lat="46.482109660282731" lon="6.943949712440372">
        <ele>1459.900000000000091</ele>
        <time>2014-06-15T14:10:25Z</time>
      </trkpt>
      <trkpt lat="46.48209641687572" lon="6.943957172334194">
        <ele>1459.900000000000091</ele>
        <time>2014-06-15T14:10:26Z</time>
      </trkpt>
      <trkpt lat="46.481883097440004" lon="6.943891458213329">
        <ele>1463.259999999999991</ele>
        <time>2014-06-15T14:10:42Z</time>
      </trkpt>
      <trkpt lat="46.481659971177578" lon="6.943861367180943">
        <ele>1464.710000000000036</ele>
        <time>2014-06-15T14:10:58Z</time>
      </trkpt>
      <trkpt lat="46.481452770531178" lon="6.943781320005655">
        <ele>1467.589999999999918</ele>
        <time>2014-06-15T14:11:14Z</time>
      </trkpt>
      <trkpt lat="46.481199553236365" lon="6.943750809878111">
        <ele>1470.470000000000027</ele>
        <time>2014-06-15T14:11:32Z</time>
      </trkpt>
      <trkpt lat="46.480967039242387" lon="6.943681323900819">
        <ele>1473.839999999999918</ele>
        <time>2014-06-15T14:11:49Z</time>
      </trkpt>
      <trkpt lat="46.480839718133211" lon="6.94359146989882">
        <ele>1475.759999999999991</ele>
        <time>2014-06-15T14:11:59Z</time>
      </trkpt>
      <trkpt lat="46.480637043714523" lon="6.94358074106276">
        <ele>1478.650000000000091</ele>
        <time>2014-06-15T14:12:15Z</time>
      </trkpt>
      <trkpt lat="46.480464460328221" lon="6.943594990298152">
        <ele>1481.049999999999955</ele>
        <time>2014-06-15T14:12:27Z</time>
      </trkpt>
      <trkpt lat="46.480453731492162" lon="6.943616196513176">
        <ele>1481.049999999999955</ele>
        <time>2014-06-15T14:12:28Z</time>
      </trkpt>
      <trkpt lat="46.480448786169291" lon="6.943638911470771">
        <ele>1481.049999999999955</ele>
        <time>2014-06-15T14:12:29Z</time>
      </trkpt>
      <trkpt lat="46.480450965464115" lon="6.943657603114843">
        <ele>1481.049999999999955</ele>
        <time>2014-06-15T14:12:30Z</time>
      </trkpt>
      <trkpt lat="46.480456665158272" lon="6.943675205111504">
        <ele>1481.529999999999973</ele>
        <time>2014-06-15T14:12:31Z</time>
      </trkpt>
      <trkpt lat="46.48046244867146" lon="6.9436892028898">
        <ele>1481.529999999999973</ele>
        <time>2014-06-15T14:12:32Z</time>
      </trkpt>
      <trkpt lat="46.480473931878805" lon="6.943793222308159">
        <ele>1484.410000000000082</ele>
        <time>2014-06-15T14:12:43Z</time>
      </trkpt>
      <trkpt lat="46.48047124966979" lon="6.943928254768252">
        <ele>1488.259999999999991</ele>
        <time>2014-06-15T14:12:57Z</time>
      </trkpt>
      <trkpt lat="46.480488935485482" lon="6.944085918366909">
        <ele>1490.660000000000082</ele>
        <time>2014-06-15T14:13:09Z</time>
      </trkpt>
      <trkpt lat="46.480487929657102" lon="6.944103101268411">
        <ele>1490.660000000000082</ele>
        <time>2014-06-15T14:13:10Z</time>
      </trkpt>
      <trkpt lat="46.480500167235732" lon="6.944291777908802">
        <ele>1492.099999999999909</ele>
        <time>2014-06-15T14:13:25Z</time>
      </trkpt>
      <trkpt lat="46.480467058718204" lon="6.94425942376256">
        <ele>1491.1400000000001</ele>
        <time>2014-06-15T14:13:37Z</time>
      </trkpt>
      <trkpt lat="46.480455072596669" lon="6.944232350215316">
        <ele>1492.099999999999909</ele>
        <time>2014-06-15T14:13:43Z</time>
      </trkpt>
      <trkpt lat="46.480446942150593" lon="6.944217933341861">
        <ele>1492.099999999999909</ele>
        <time>2014-06-15T14:13:44Z</time>
      </trkpt>
      <trkpt lat="46.48030704818666" lon="6.944043003022671">
        <ele>1493.549999999999955</ele>
        <time>2014-06-15T14:13:58Z</time>
      </trkpt>
      <trkpt lat="46.480118623003364" lon="6.943856589496136">
        <ele>1496.430000000000064</ele>
        <time>2014-06-15T14:14:15Z</time>
      </trkpt>
      <trkpt lat="46.480071097612381" lon="6.943817865103483">
        <ele>1497.3900000000001</ele>
        <time>2014-06-15T14:14:19Z</time>
      </trkpt>
      <trkpt lat="46.480061039328575" lon="6.943806298077106">
        <ele>1497.869999999999891</ele>
        <time>2014-06-15T14:14:20Z</time>
      </trkpt>
      <trkpt lat="46.480051400139928" lon="6.943795066326857">
        <ele>1497.869999999999891</ele>
        <time>2014-06-15T14:14:21Z</time>
      </trkpt>
      <trkpt lat="46.479966323822737" lon="6.943670595064759">
        <ele>1498.349999999999909</ele>
        <time>2014-06-15T14:14:30Z</time>
      </trkpt>
      <trkpt lat="46.47982332855463" lon="6.943516116589308">
        <ele>1499.309999999999945</ele>
        <time>2014-06-15T14:14:42Z</time>
      </trkpt>
      <trkpt lat="46.479759039357305" lon="6.94345073774457">
        <ele>1501.240000000000009</ele>
        <time>2014-06-15T14:14:47Z</time>
      </trkpt>
      <trkpt lat="46.479747137054801" lon="6.943437410518527">
        <ele>1501.240000000000009</ele>
        <time>2014-06-15T14:14:48Z</time>
      </trkpt>
      <trkpt lat="46.47973439656198" lon="6.943423496559262">
        <ele>1501.720000000000027</ele>
        <time>2014-06-15T14:14:49Z</time>
      </trkpt>
      <trkpt lat="46.479723919183016" lon="6.943407068029046">
        <ele>1501.720000000000027</ele>
        <time>2014-06-15T14:14:50Z</time>
      </trkpt>
      <trkpt lat="46.47971386089921" lon="6.94339013658464">
        <ele>1501.720000000000027</ele>
        <time>2014-06-15T14:14:51Z</time>
      </trkpt>
      <trkpt lat="46.479702210053802" lon="6.943375803530216">
        <ele>1502.200000000000045</ele>
        <time>2014-06-15T14:14:52Z</time>
      </trkpt>
      <trkpt lat="46.479532392695546" lon="6.943099200725555">
        <ele>1505.079999999999927</ele>
        <time>2014-06-15T14:15:10Z</time>
      </trkpt>
      <trkpt lat="46.479507917538285" lon="6.94307304918766">
        <ele>1505.079999999999927</ele>
        <time>2014-06-15T14:15:12Z</time>
      </trkpt>
      <trkpt lat="46.479497859254479" lon="6.943058213219047">
        <ele>1505.559999999999945</ele>
        <time>2014-06-15T14:15:13Z</time>
      </trkpt>
      <trkpt lat="46.479485789313912" lon="6.943044466897845">
        <ele>1505.559999999999945</ele>
        <time>2014-06-15T14:15:14Z</time>
      </trkpt>
      <trkpt lat="46.479386379942298" lon="6.942824022844434">
        <ele>1505.079999999999927</ele>
        <time>2014-06-15T14:15:27Z</time>
      </trkpt>
      <trkpt lat="46.479388643056154" lon="6.942789489403367">
        <ele>1505.079999999999927</ele>
        <time>2014-06-15T14:15:30Z</time>
      </trkpt>
      <trkpt lat="46.479388391599059" lon="6.942767025902867">
        <ele>1505.559999999999945</ele>
        <time>2014-06-15T14:15:32Z</time>
      </trkpt>
      <trkpt lat="46.479375148192048" lon="6.942767696455121">
        <ele>1505.559999999999945</ele>
        <time>2014-06-15T14:15:33Z</time>
      </trkpt>
      <trkpt lat="46.479292251169682" lon="6.942848665639758">
        <ele>1506.039999999999964</ele>
        <time>2014-06-15T14:15:45Z</time>
      </trkpt>
      <trkpt lat="46.47931463085115" lon="6.942839194089174">
        <ele>1505.079999999999927</ele>
        <time>2014-06-15T14:16:10Z</time>
      </trkpt>
      <trkpt lat="46.479325024411082" lon="6.942832320928574">
        <ele>1505.079999999999927</ele>
        <time>2014-06-15T14:16:11Z</time>
      </trkpt>
      <trkpt lat="46.479339189827442" lon="6.942831231281161">
        <ele>1505.079999999999927</ele>
        <time>2014-06-15T14:16:12Z</time>
      </trkpt>
      <trkpt lat="46.479351259768009" lon="6.942844223231077">
        <ele>1505.079999999999927</ele>
        <time>2014-06-15T14:16:13Z</time>
      </trkpt>
      <trkpt lat="46.479360312223434" lon="6.942854532971978">
        <ele>1505.079999999999927</ele>
        <time>2014-06-15T14:16:14Z</time>
      </trkpt>
      <trkpt lat="46.479366263374686" lon="6.9428741466254">
        <ele>1505.079999999999927</ele>
        <time>2014-06-15T14:16:15Z</time>
      </trkpt>
      <trkpt lat="46.479364084079862" lon="6.942892670631409">
        <ele>1505.079999999999927</ele>
        <time>2014-06-15T14:16:16Z</time>
      </trkpt>
      <trkpt lat="46.479355953633785" lon="6.942907087504864">
        <ele>1505.559999999999945</ele>
        <time>2014-06-15T14:16:17Z</time>
      </trkpt>
      <trkpt lat="46.479347236454487" lon="6.94292644970119">
        <ele>1506.039999999999964</ele>
        <time>2014-06-15T14:16:18Z</time>
      </trkpt>
      <trkpt lat="46.479340950027108" lon="6.942941704764962">
        <ele>1506.039999999999964</ele>
        <time>2014-06-15T14:16:19Z</time>
      </trkpt>
      <trkpt lat="46.479335082694888" lon="6.942953439429402">
        <ele>1506.039999999999964</ele>
        <time>2014-06-15T14:16:20Z</time>
      </trkpt>
      <trkpt lat="46.47932737134397" lon="6.942967940121889">
        <ele>1506.039999999999964</ele>
        <time>2014-06-15T14:16:21Z</time>
      </trkpt>
      <trkpt lat="46.479316307231784" lon="6.942982859909534">
        <ele>1506.519999999999982</ele>
        <time>2014-06-15T14:16:22Z</time>
      </trkpt>
      <trkpt lat="46.479302141815424" lon="6.942997444421053">
        <ele>1506.519999999999982</ele>
        <time>2014-06-15T14:16:23Z</time>
      </trkpt>
      <trkpt lat="46.479196110740304" lon="6.943346550688148">
        <ele>1508.930000000000064</ele>
        <time>2014-06-15T14:16:40Z</time>
      </trkpt>
      <trkpt lat="46.479136850684881" lon="6.943641258403659">
        <ele>1510.849999999999909</ele>
        <time>2014-06-15T14:16:55Z</time>
      </trkpt>
      <trkpt lat="46.479085804894567" lon="6.943856757134199">
        <ele>1513.25</ele>
        <time>2014-06-15T14:17:09Z</time>
      </trkpt>
      <trkpt lat="46.479060491546988" lon="6.943991873413324">
        <ele>1515.660000000000082</ele>
        <time>2014-06-15T14:17:23Z</time>
      </trkpt>
      <trkpt lat="46.479032998904586" lon="6.944075273349881">
        <ele>1519.019999999999982</ele>
        <time>2014-06-15T14:17:37Z</time>
      </trkpt>
      <trkpt lat="46.479000980034471" lon="6.944141071289778">
        <ele>1521.420000000000073</ele>
        <time>2014-06-15T14:17:52Z</time>
      </trkpt>
      <trkpt lat="46.478961920365691" lon="6.944170659407973">
        <ele>1522.869999999999891</ele>
        <time>2014-06-15T14:17:57Z</time>
      </trkpt>
      <trkpt lat="46.478835018351674" lon="6.944221369922161">
        <ele>1525.269999999999982</ele>
        <time>2014-06-15T14:18:11Z</time>
      </trkpt>
      <trkpt lat="46.478721778839827" lon="6.944252802059054">
        <ele>1528.150000000000091</ele>
        <time>2014-06-15T14:18:25Z</time>
      </trkpt>
      <trkpt lat="46.478711133822799" lon="6.944253975525498">
        <ele>1528.150000000000091</ele>
        <time>2014-06-15T14:18:26Z</time>
      </trkpt>
      <trkpt lat="46.478701075538993" lon="6.944253388792276">
        <ele>1528.150000000000091</ele>
        <time>2014-06-15T14:18:27Z</time>
      </trkpt>
      <trkpt lat="46.478674756363034" lon="6.944238385185599">
        <ele>1529.1099999999999</ele>
        <time>2014-06-15T14:18:41Z</time>
      </trkpt>
      <trkpt lat="46.478632763028145" lon="6.944237211719155">
        <ele>1529.1099999999999</ele>
        <time>2014-06-15T14:18:51Z</time>
      </trkpt>
      <trkpt lat="46.478525307029486" lon="6.944192284718156">
        <ele>1528.630000000000109</ele>
        <time>2014-06-15T14:19:01Z</time>
      </trkpt>
      <trkpt lat="46.478333948180079" lon="6.944149453192949">
        <ele>1528.150000000000091</ele>
        <time>2014-06-15T14:19:15Z</time>
      </trkpt>
      <trkpt lat="46.478207129985094" lon="6.944178035482764">
        <ele>1531.039999999999964</ele>
        <time>2014-06-15T14:19:29Z</time>
      </trkpt>
      <trkpt lat="46.478085676208138" lon="6.944264536723495">
        <ele>1533.440000000000055</ele>
        <time>2014-06-15T14:19:45Z</time>
      </trkpt>
      <trkpt lat="46.47803739644587" lon="6.944305021315813">
        <ele>1534.400000000000091</ele>
        <time>2014-06-15T14:20:00Z</time>
      </trkpt>
      <trkpt lat="46.477975202724338" lon="6.944357743486762">
        <ele>1536.319999999999936</ele>
        <time>2014-06-15T14:20:24Z</time>
      </trkpt>
      <trkpt lat="46.47787956520915" lon="6.944488668814301">
        <ele>1540.170000000000073</ele>
        <time>2014-06-15T14:20:37Z</time>
      </trkpt>
      <trkpt lat="46.477777808904648" lon="6.9445975497365">
        <ele>1543.529999999999973</ele>
        <time>2014-06-15T14:20:51Z</time>
      </trkpt>
      <trkpt lat="46.477689631283283" lon="6.944694025442004">
        <ele>1545.460000000000036</ele>
        <time>2014-06-15T14:21:07Z</time>
      </trkpt>
      <trkpt lat="46.477625258266926" lon="6.94482235237956">
        <ele>1547.8599999999999</ele>
        <time>2014-06-15T14:21:26Z</time>
      </trkpt>
      <trkpt lat="46.477601286023855" lon="6.944856131449342">
        <ele>1548.339999999999918</ele>
        <time>2014-06-15T14:21:45Z</time>
      </trkpt>
      <trkpt lat="46.477455692365766" lon="6.945073138922453">
        <ele>1550.259999999999991</ele>
        <time>2014-06-15T14:22:01Z</time>
      </trkpt>
      <trkpt lat="46.477394420653582" lon="6.945101218298078">
        <ele>1552.670000000000073</ele>
        <time>2014-06-15T14:22:13Z</time>
      </trkpt>
      <trkpt lat="46.477321749553084" lon="6.945188976824284">
        <ele>1556.029999999999973</ele>
        <time>2014-06-15T14:22:29Z</time>
      </trkpt>
      <trkpt lat="46.477297944948077" lon="6.945262737572193">
        <ele>1558.430000000000064</ele>
        <time>2014-06-15T14:22:45Z</time>
      </trkpt>
      <trkpt lat="46.477273050695658" lon="6.945334486663342">
        <ele>1561.319999999999936</ele>
        <time>2014-06-15T14:23:01Z</time>
      </trkpt>
      <trkpt lat="46.477220160886645" lon="6.94540724158287">
        <ele>1561.799999999999955</ele>
        <time>2014-06-15T14:23:15Z</time>
      </trkpt>
      <trkpt lat="46.477214796468616" lon="6.945502208545804">
        <ele>1562.279999999999973</ele>
        <time>2014-06-15T14:23:56Z</time>
      </trkpt>
      <trkpt lat="46.477239858359098" lon="6.945477649569511">
        <ele>1562.279999999999973</ele>
        <time>2014-06-15T14:24:36Z</time>
      </trkpt>
      <trkpt lat="46.477269195020199" lon="6.945403218269348">
        <ele>1566.6099999999999</ele>
        <time>2014-06-15T14:25:24Z</time>
      </trkpt>
      <trkpt lat="46.477232063189149" lon="6.945407912135124">
        <ele>1569.490000000000009</ele>
        <time>2014-06-15T14:25:57Z</time>
      </trkpt>
      <trkpt lat="46.477159392088652" lon="6.945397602394223">
        <ele>1575.740000000000009</ele>
        <time>2014-06-15T14:26:41Z</time>
      </trkpt>
      <trkpt lat="46.477157799527049" lon="6.945387125015259">
        <ele>1572.849999999999909</ele>
        <time>2014-06-15T14:27:28Z</time>
      </trkpt>
      <trkpt lat="46.477229883894324" lon="6.945471614599228">
        <ele>1572.369999999999891</ele>
        <time>2014-06-15T14:28:10Z</time>
      </trkpt>
      <trkpt lat="46.477209599688649" lon="6.945449905470014">
        <ele>1575.259999999999991</ele>
        <time>2014-06-15T14:28:43Z</time>
      </trkpt>
      <trkpt lat="46.477121422067285" lon="6.945511596277356">
        <ele>1576.700000000000045</ele>
        <time>2014-06-15T14:28:58Z</time>
      </trkpt>
      <trkpt lat="46.477031819522381" lon="6.945601366460323">
        <ele>1579.579999999999927</ele>
        <time>2014-06-15T14:29:12Z</time>
      </trkpt>
      <trkpt lat="46.476948251947761" lon="6.945677222684026">
        <ele>1585.349999999999909</ele>
        <time>2014-06-15T14:29:27Z</time>
      </trkpt>
      <trkpt lat="46.476845573633909" lon="6.94574972614646">
        <ele>1591.119999999999891</ele>
        <time>2014-06-15T14:29:42Z</time>
      </trkpt>
      <trkpt lat="46.476754294708371" lon="6.945838993415236">
        <ele>1594</ele>
        <time>2014-06-15T14:29:53Z</time>
      </trkpt>
      <trkpt lat="46.476659579202533" lon="6.945988358929753">
        <ele>1592.079999999999927</ele>
        <time>2014-06-15T14:30:07Z</time>
      </trkpt>
      <trkpt lat="46.47664088755846" lon="6.945996070280671">
        <ele>1591.119999999999891</ele>
        <time>2014-06-15T14:30:24Z</time>
      </trkpt>
      <trkpt lat="46.476623201742768" lon="6.945976791903377">
        <ele>1588.720000000000027</ele>
        <time>2014-06-15T14:30:50Z</time>
      </trkpt>
      <trkpt lat="46.476568887010217" lon="6.946095898747444">
        <ele>1589.680000000000064</ele>
        <time>2014-06-15T14:31:06Z</time>
      </trkpt>
      <trkpt lat="46.476496048271656" lon="6.94620125927031">
        <ele>1589.200000000000045</ele>
        <time>2014-06-15T14:31:21Z</time>
      </trkpt>
      <trkpt lat="46.476438548415899" lon="6.946265213191509">
        <ele>1589.200000000000045</ele>
        <time>2014-06-15T14:31:33Z</time>
      </trkpt>
      <trkpt lat="46.47636579349637" lon="6.946369148790836">
        <ele>1587.75</ele>
        <time>2014-06-15T14:31:47Z</time>
      </trkpt>
      <trkpt lat="46.476295636966825" lon="6.946447435766459">
        <ele>1588.240000000000009</ele>
        <time>2014-06-15T14:31:59Z</time>
      </trkpt>
      <trkpt lat="46.476171752437949" lon="6.946555394679308">
        <ele>1589.680000000000064</ele>
        <time>2014-06-15T14:32:15Z</time>
      </trkpt>
      <trkpt lat="46.476096902042627" lon="6.946624545380473">
        <ele>1590.160000000000082</ele>
        <time>2014-06-15T14:32:30Z</time>
      </trkpt>
      <trkpt lat="46.476038983091712" lon="6.946730660274625">
        <ele>1589.200000000000045</ele>
        <time>2014-06-15T14:32:52Z</time>
      </trkpt>
      <trkpt lat="46.475934293121099" lon="6.946840630844235">
        <ele>1591.119999999999891</ele>
        <time>2014-06-15T14:33:08Z</time>
      </trkpt>
      <trkpt lat="46.475841924548149" lon="6.94691807962954">
        <ele>1593.039999999999964</ele>
        <time>2014-06-15T14:33:23Z</time>
      </trkpt>
      <trkpt lat="46.475744359195232" lon="6.947020841762424">
        <ele>1594.480000000000018</ele>
        <time>2014-06-15T14:33:40Z</time>
      </trkpt>
      <trkpt lat="46.475692307576537" lon="6.947062583640218">
        <ele>1596.410000000000082</ele>
        <time>2014-06-15T14:33:56Z</time>
      </trkpt>
      <trkpt lat="46.47559080272913" lon="6.947145732119679">
        <ele>1598.329999999999927</ele>
        <time>2014-06-15T14:34:12Z</time>
      </trkpt>
      <trkpt lat="46.475510252639651" lon="6.94722100161016">
        <ele>1599.769999999999982</ele>
        <time>2014-06-15T14:34:26Z</time>
      </trkpt>
      <trkpt lat="46.475463733077049" lon="6.947251763194799">
        <ele>1600.730000000000018</ele>
        <time>2014-06-15T14:34:41Z</time>
      </trkpt>
      <trkpt lat="46.475346302613616" lon="6.947322087362409">
        <ele>1604.099999999999909</ele>
        <time>2014-06-15T14:34:58Z</time>
      </trkpt>
      <trkpt lat="46.475239433348179" lon="6.947394087910652">
        <ele>1605.539999999999964</ele>
        <time>2014-06-15T14:35:13Z</time>
      </trkpt>
      <trkpt lat="46.475139437243342" lon="6.947465585544705">
        <ele>1607.460000000000036</ele>
        <time>2014-06-15T14:35:27Z</time>
      </trkpt>
      <trkpt lat="46.475108172744513" lon="6.947471452876925">
        <ele>1606.5</ele>
        <time>2014-06-15T14:35:31Z</time>
      </trkpt>
      <trkpt lat="46.475061653181911" lon="6.947541609406471">
        <ele>1609.8599999999999</ele>
        <time>2014-06-15T14:35:44Z</time>
      </trkpt>
      <trkpt lat="46.475076405331492" lon="6.947598941624165">
        <ele>1611.789999999999964</ele>
        <time>2014-06-15T14:35:55Z</time>
      </trkpt>
      <trkpt lat="46.475083194673061" lon="6.947611765936017">
        <ele>1612.75</ele>
        <time>2014-06-15T14:36:01Z</time>
      </trkpt>
      <trkpt lat="46.475235912948847" lon="6.947743026539683">
        <ele>1617.559999999999945</ele>
        <time>2014-06-15T14:36:16Z</time>
      </trkpt>
      <trkpt lat="46.475349236279726" lon="6.94802038371563">
        <ele>1619.960000000000036</ele>
        <time>2014-06-15T14:36:28Z</time>
      </trkpt>
      <trkpt lat="46.47537287324667" lon="6.948160361498594">
        <ele>1621.400000000000091</ele>
        <time>2014-06-15T14:36:39Z</time>
      </trkpt>
      <trkpt lat="46.475397432222962" lon="6.948210736736655">
        <ele>1621.400000000000091</ele>
        <time>2014-06-15T14:36:53Z</time>
      </trkpt>
      <trkpt lat="46.475430456921458" lon="6.948348032310605">
        <ele>1622.3599999999999</ele>
        <time>2014-06-15T14:37:02Z</time>
      </trkpt>
      <trkpt lat="46.475429954007268" lon="6.948369238525629">
        <ele>1622.839999999999918</ele>
        <time>2014-06-15T14:37:03Z</time>
      </trkpt>
      <trkpt lat="46.47543104365468" lon="6.948394300416112">
        <ele>1622.839999999999918</ele>
        <time>2014-06-15T14:37:04Z</time>
      </trkpt>
      <trkpt lat="46.475433222949505" lon="6.948420451954007">
        <ele>1622.839999999999918</ele>
        <time>2014-06-15T14:37:05Z</time>
      </trkpt>
      <trkpt lat="46.475434480234981" lon="6.948444508016109">
        <ele>1622.839999999999918</ele>
        <time>2014-06-15T14:37:06Z</time>
      </trkpt>
      <trkpt lat="46.475433222949505" lon="6.948464540764689">
        <ele>1622.839999999999918</ele>
        <time>2014-06-15T14:37:07Z</time>
      </trkpt>
      <trkpt lat="46.475435569882393" lon="6.948485663160682">
        <ele>1622.839999999999918</ele>
        <time>2014-06-15T14:37:08Z</time>
      </trkpt>
      <trkpt lat="46.475442526862025" lon="6.948504941537976">
        <ele>1623.319999999999936</ele>
        <time>2014-06-15T14:37:09Z</time>
      </trkpt>
      <trkpt lat="46.475450322031975" lon="6.948519861325622">
        <ele>1623.319999999999936</ele>
        <time>2014-06-15T14:37:10Z</time>
      </trkpt>
      <trkpt lat="46.475455183535814" lon="6.948537798598409">
        <ele>1623.319999999999936</ele>
        <time>2014-06-15T14:37:11Z</time>
      </trkpt>
      <trkpt lat="46.475457530468702" lon="6.948558837175369">
        <ele>1623.319999999999936</ele>
        <time>2014-06-15T14:37:12Z</time>
      </trkpt>
      <trkpt lat="46.475457865744829" lon="6.948576271533966">
        <ele>1623.799999999999955</ele>
        <time>2014-06-15T14:37:13Z</time>
      </trkpt>
      <trkpt lat="46.475472282618284" lon="6.948769809678197">
        <ele>1625.25</ele>
        <time>2014-06-15T14:37:21Z</time>
      </trkpt>
      <trkpt lat="46.475483095273376" lon="6.948855724185705">
        <ele>1626.210000000000036</ele>
        <time>2014-06-15T14:37:24Z</time>
      </trkpt>
      <trkpt lat="46.475482676178217" lon="6.948884557932615">
        <ele>1626.210000000000036</ele>
        <time>2014-06-15T14:37:25Z</time>
      </trkpt>
      <trkpt lat="46.47548770532012" lon="6.949060745537281">
        <ele>1628.6099999999999</ele>
        <time>2014-06-15T14:37:35Z</time>
      </trkpt>
      <trkpt lat="46.475520813837647" lon="6.949262833222747">
        <ele>1628.130000000000109</ele>
        <time>2014-06-15T14:37:49Z</time>
      </trkpt>
      <trkpt lat="46.475554928183556" lon="6.949361488223076">
        <ele>1625.730000000000018</ele>
        <time>2014-06-15T14:37:53Z</time>
      </trkpt>
      <trkpt lat="46.475562388077378" lon="6.949382862076163">
        <ele>1625.25</ele>
        <time>2014-06-15T14:37:54Z</time>
      </trkpt>
      <trkpt lat="46.475572613999248" lon="6.949401553720236">
        <ele>1624.769999999999982</ele>
        <time>2014-06-15T14:37:55Z</time>
      </trkpt>
      <trkpt lat="46.475582756102085" lon="6.949423011392355">
        <ele>1624.769999999999982</ele>
        <time>2014-06-15T14:37:56Z</time>
      </trkpt>
      <trkpt lat="46.475594826042652" lon="6.949443463236094">
        <ele>1623.799999999999955</ele>
        <time>2014-06-15T14:37:57Z</time>
      </trkpt>
      <trkpt lat="46.475606979802251" lon="6.949465340003371">
        <ele>1623.319999999999936</ele>
        <time>2014-06-15T14:37:58Z</time>
      </trkpt>
      <trkpt lat="46.475618546828628" lon="6.949481600895524">
        <ele>1622.839999999999918</ele>
        <time>2014-06-15T14:37:59Z</time>
      </trkpt>
      <trkpt lat="46.475629443302751" lon="6.949497358873487">
        <ele>1622.3599999999999</ele>
        <time>2014-06-15T14:38:00Z</time>
      </trkpt>
      <trkpt lat="46.475643021985888" lon="6.949516385793686">
        <ele>1621.880000000000109</ele>
        <time>2014-06-15T14:38:01Z</time>
      </trkpt>
      <trkpt lat="46.475734133273363" lon="6.949610346928239">
        <ele>1620.920000000000073</ele>
        <time>2014-06-15T14:38:11Z</time>
      </trkpt>
      <trkpt lat="46.475764559581876" lon="6.949677653610706">
        <ele>1622.839999999999918</ele>
        <time>2014-06-15T14:38:19Z</time>
      </trkpt>
      <trkpt lat="46.475781742483377" lon="6.949705397710204">
        <ele>1622.839999999999918</ele>
        <time>2014-06-15T14:38:21Z</time>
      </trkpt>
      <trkpt lat="46.47583563812077" lon="6.949784019961953">
        <ele>1623.319999999999936</ele>
        <time>2014-06-15T14:38:28Z</time>
      </trkpt>
      <trkpt lat="46.475848965346813" lon="6.949817882850766">
        <ele>1624.279999999999973</ele>
        <time>2014-06-15T14:38:29Z</time>
      </trkpt>
      <trkpt lat="46.475859023630619" lon="6.949855517596006">
        <ele>1624.279999999999973</ele>
        <time>2014-06-15T14:38:30Z</time>
      </trkpt>
      <trkpt lat="46.475861957296729" lon="6.949885776266456">
        <ele>1624.769999999999982</ele>
        <time>2014-06-15T14:38:31Z</time>
      </trkpt>
      <trkpt lat="46.475867908447981" lon="6.949945036321878">
        <ele>1625.730000000000018</ele>
        <time>2014-06-15T14:38:34Z</time>
      </trkpt>
      <trkpt lat="46.475873943418264" lon="6.949971104040742">
        <ele>1625.730000000000018</ele>
        <time>2014-06-15T14:38:35Z</time>
      </trkpt>
      <trkpt lat="46.475884420797229" lon="6.950002033263445">
        <ele>1626.210000000000036</ele>
        <time>2014-06-15T14:38:36Z</time>
      </trkpt>
      <trkpt lat="46.475991709157825" lon="6.950277965515852">
        <ele>1631.009999999999991</ele>
        <time>2014-06-15T14:38:45Z</time>
      </trkpt>
      <trkpt lat="46.475999169051647" lon="6.950309062376618">
        <ele>1631.490000000000009</ele>
        <time>2014-06-15T14:38:46Z</time>
      </trkpt>
      <trkpt lat="46.476010736078024" lon="6.950352564454079">
        <ele>1631.490000000000009</ele>
        <time>2014-06-15T14:38:47Z</time>
      </trkpt>
      <trkpt lat="46.476017693057656" lon="6.950381565839052">
        <ele>1631.490000000000009</ele>
        <time>2014-06-15T14:38:48Z</time>
      </trkpt>
      <trkpt lat="46.476025236770511" lon="6.950416937470436">
        <ele>1631.490000000000009</ele>
        <time>2014-06-15T14:38:49Z</time>
      </trkpt>
      <trkpt lat="46.476036384701729" lon="6.950452979654074">
        <ele>1631.980000000000018</ele>
        <time>2014-06-15T14:38:50Z</time>
      </trkpt>
      <trkpt lat="46.47604962810874" lon="6.950492542237043">
        <ele>1631.490000000000009</ele>
        <time>2014-06-15T14:38:51Z</time>
      </trkpt>
      <trkpt lat="46.476060356944799" lon="6.950530596077442">
        <ele>1631.490000000000009</ele>
        <time>2014-06-15T14:38:52Z</time>
      </trkpt>
      <trkpt lat="46.476132776588202" lon="6.950781801715493">
        <ele>1631.009999999999991</ele>
        <time>2014-06-15T14:39:05Z</time>
      </trkpt>
      <trkpt lat="46.476183738559484" lon="6.950993863865733">
        <ele>1629.089999999999918</ele>
        <time>2014-06-15T14:39:17Z</time>
      </trkpt>
      <trkpt lat="46.47621676325798" lon="6.951125124469399">
        <ele>1628.130000000000109</ele>
        <time>2014-06-15T14:39:25Z</time>
      </trkpt>
      <trkpt lat="46.476218942552805" lon="6.951144235208631">
        <ele>1628.130000000000109</ele>
        <time>2014-06-15T14:39:26Z</time>
      </trkpt>
      <trkpt lat="46.476224726065993" lon="6.951166950166225">
        <ele>1627.650000000000091</ele>
        <time>2014-06-15T14:39:27Z</time>
      </trkpt>
      <trkpt lat="46.476231515407562" lon="6.951193269342184">
        <ele>1627.170000000000073</ele>
        <time>2014-06-15T14:39:28Z</time>
      </trkpt>
      <trkpt lat="46.476237382739782" lon="6.951217157766223">
        <ele>1626.690000000000055</ele>
        <time>2014-06-15T14:39:29Z</time>
      </trkpt>
      <trkpt lat="46.47624559700489" lon="6.951240375638008">
        <ele>1626.690000000000055</ele>
        <time>2014-06-15T14:39:30Z</time>
      </trkpt>
      <trkpt lat="46.476257750764489" lon="6.951261833310127">
        <ele>1626.210000000000036</ele>
        <time>2014-06-15T14:39:31Z</time>
      </trkpt>
      <trkpt lat="46.476266467943788" lon="6.951282201334834">
        <ele>1626.210000000000036</ele>
        <time>2014-06-15T14:39:32Z</time>
      </trkpt>
      <trkpt lat="46.476280046626925" lon="6.951298546046019">
        <ele>1626.210000000000036</ele>
        <time>2014-06-15T14:39:33Z</time>
      </trkpt>
      <trkpt lat="46.476353304460645" lon="6.951348753646016">
        <ele>1625.25</ele>
        <time>2014-06-15T14:39:39Z</time>
      </trkpt>
      <trkpt lat="46.476367050781846" lon="6.951363002881408">
        <ele>1625.730000000000018</ele>
        <time>2014-06-15T14:39:40Z</time>
      </trkpt>
      <trkpt lat="46.476382641121745" lon="6.951374569907784">
        <ele>1625.730000000000018</ele>
        <time>2014-06-15T14:39:41Z</time>
      </trkpt>
      <trkpt lat="46.476399404928088" lon="6.951383873820305">
        <ele>1625.25</ele>
        <time>2014-06-15T14:39:42Z</time>
      </trkpt>
      <trkpt lat="46.476411810144782" lon="6.951398206874728">
        <ele>1625.25</ele>
        <time>2014-06-15T14:39:43Z</time>
      </trkpt>
      <trkpt lat="46.47656905464828" lon="6.951605575159192">
        <ele>1622.3599999999999</ele>
        <time>2014-06-15T14:39:57Z</time>
      </trkpt>
      <trkpt lat="46.476594200357795" lon="6.951645640656352">
        <ele>1621.880000000000109</ele>
        <time>2014-06-15T14:39:59Z</time>
      </trkpt>
      <trkpt lat="46.476628985255957" lon="6.951677072793245">
        <ele>1620.440000000000055</ele>
        <time>2014-06-15T14:40:02Z</time>
      </trkpt>
      <trkpt lat="46.476673409342766" lon="6.951703056693077">
        <ele>1620.440000000000055</ele>
        <time>2014-06-15T14:40:06Z</time>
      </trkpt>
      <trkpt lat="46.476686736568809" lon="6.95170858874917">
        <ele>1620.440000000000055</ele>
        <time>2014-06-15T14:40:07Z</time>
      </trkpt>
      <trkpt lat="46.476785223931074" lon="6.951756868511438">
        <ele>1621.880000000000109</ele>
        <time>2014-06-15T14:40:13Z</time>
      </trkpt>
      <trkpt lat="46.476879268884659" lon="6.951752007007599">
        <ele>1622.3599999999999</ele>
        <time>2014-06-15T14:40:22Z</time>
      </trkpt>
      <trkpt lat="46.476920759305358" lon="6.951843788847327">
        <ele>1623.799999999999955</ele>
        <time>2014-06-15T14:40:35Z</time>
      </trkpt>
      <trkpt lat="46.476934589445591" lon="6.951894918456674">
        <ele>1624.769999999999982</ele>
        <time>2014-06-15T14:40:38Z</time>
      </trkpt>
      <trkpt lat="46.476935762912035" lon="6.951915454119444">
        <ele>1625.25</ele>
        <time>2014-06-15T14:40:39Z</time>
      </trkpt>
      <trkpt lat="46.476937104016542" lon="6.951939426362514">
        <ele>1625.25</ele>
        <time>2014-06-15T14:40:40Z</time>
      </trkpt>
      <trkpt lat="46.476979935541749" lon="6.952249556779861">
        <ele>1629.569999999999936</ele>
        <time>2014-06-15T14:40:51Z</time>
      </trkpt>
      <trkpt lat="46.476980019360781" lon="6.952272020280361">
        <ele>1630.049999999999955</ele>
        <time>2014-06-15T14:40:52Z</time>
      </trkpt>
      <trkpt lat="46.47698094137013" lon="6.952305631712079">
        <ele>1630.529999999999973</ele>
        <time>2014-06-15T14:40:53Z</time>
      </trkpt>
      <trkpt lat="46.476983455941081" lon="6.952340081334114">
        <ele>1631.009999999999991</ele>
        <time>2014-06-15T14:40:54Z</time>
      </trkpt>
      <trkpt lat="46.477006589993834" lon="6.952620036900043">
        <ele>1635.339999999999918</ele>
        <time>2014-06-15T14:41:05Z</time>
      </trkpt>
      <trkpt lat="46.476995358243585" lon="6.9528778642416">
        <ele>1635.819999999999936</ele>
        <time>2014-06-15T14:41:16Z</time>
      </trkpt>
      <trkpt lat="46.477003991603851" lon="6.952991774305701">
        <ele>1635.819999999999936</ele>
        <time>2014-06-15T14:41:30Z</time>
      </trkpt>
      <trkpt lat="46.477012122049928" lon="6.953246081247926">
        <ele>1631.980000000000018</ele>
        <time>2014-06-15T14:41:43Z</time>
      </trkpt>
      <trkpt lat="46.477008685469627" lon="6.953568365424871">
        <ele>1625.25</ele>
        <time>2014-06-15T14:41:57Z</time>
      </trkpt>
      <trkpt lat="46.476997872814536" lon="6.953626284375787">
        <ele>1625.25</ele>
        <time>2014-06-15T14:42:00Z</time>
      </trkpt>
      <trkpt lat="46.477052187547088" lon="6.953813368454576">
        <ele>1630.529999999999973</ele>
        <time>2014-06-15T14:42:12Z</time>
      </trkpt>
      <trkpt lat="46.477096946910024" lon="6.953926356509328">
        <ele>1633.420000000000073</ele>
        <time>2014-06-15T14:42:18Z</time>
      </trkpt>
      <trkpt lat="46.477118320763111" lon="6.953964745625854">
        <ele>1634.380000000000109</ele>
        <time>2014-06-15T14:42:20Z</time>
      </trkpt>
      <trkpt lat="46.47715981118381" lon="6.954071950167418">
        <ele>1636.779999999999973</ele>
        <time>2014-06-15T14:42:24Z</time>
      </trkpt>
      <trkpt lat="46.477174311876297" lon="6.95409256964922">
        <ele>1637.259999999999991</ele>
        <time>2014-06-15T14:42:25Z</time>
      </trkpt>
      <trkpt lat="46.477286629378796" lon="6.954257525503635">
        <ele>1644.470000000000027</ele>
        <time>2014-06-15T14:42:36Z</time>
      </trkpt>
      <trkpt lat="46.47744026966393" lon="6.954481154680252">
        <ele>1647.3599999999999</ele>
        <time>2014-06-15T14:42:47Z</time>
      </trkpt>
      <trkpt lat="46.477509085088968" lon="6.954608140513301">
        <ele>1647.3599999999999</ele>
        <time>2014-06-15T14:42:54Z</time>
      </trkpt>
      <trkpt lat="46.477522077038884" lon="6.954631609842181">
        <ele>1646.880000000000109</ele>
        <time>2014-06-15T14:42:55Z</time>
      </trkpt>
      <trkpt lat="46.477677980437875" lon="6.954748788848519">
        <ele>1641.589999999999918</ele>
        <time>2014-06-15T14:43:05Z</time>
      </trkpt>
      <trkpt lat="46.47782675921917" lon="6.954809725284576">
        <ele>1641.1099999999999</ele>
        <time>2014-06-15T14:43:14Z</time>
      </trkpt>
      <trkpt lat="46.477904208004475" lon="6.954797236248851">
        <ele>1639.190000000000055</ele>
        <time>2014-06-15T14:43:29Z</time>
      </trkpt>
      <trkpt lat="46.477943267673254" lon="6.954769073054194">
        <ele>1639.190000000000055</ele>
        <time>2014-06-15T14:43:32Z</time>
      </trkpt>
      <trkpt lat="46.477989619597793" lon="6.954781897366047">
        <ele>1638.700000000000045</ele>
        <time>2014-06-15T14:43:36Z</time>
      </trkpt>
      <trkpt lat="46.478092046454549" lon="6.954882480204105">
        <ele>1641.1099999999999</ele>
        <time>2014-06-15T14:43:49Z</time>
      </trkpt>
      <trkpt lat="46.478132614865899" lon="6.954920198768377">
        <ele>1641.589999999999918</ele>
        <time>2014-06-15T14:43:53Z</time>
      </trkpt>
      <trkpt lat="46.478160861879587" lon="6.954947356134653">
        <ele>1641.589999999999918</ele>
        <time>2014-06-15T14:43:56Z</time>
      </trkpt>
      <trkpt lat="46.478267898783088" lon="6.955060176551342">
        <ele>1645.430000000000064</ele>
        <time>2014-06-15T14:44:08Z</time>
      </trkpt>
      <trkpt lat="46.478331182152033" lon="6.955139888450503">
        <ele>1648.799999999999955</ele>
        <time>2014-06-15T14:44:21Z</time>
      </trkpt>
      <trkpt lat="46.478346101939678" lon="6.955161262303591">
        <ele>1649.279999999999973</ele>
        <time>2014-06-15T14:44:24Z</time>
      </trkpt>
      <trkpt lat="46.47835842333734" lon="6.955172410234809">
        <ele>1649.279999999999973</ele>
        <time>2014-06-15T14:44:25Z</time>
      </trkpt>
      <trkpt lat="46.478425310924649" lon="6.955293528735638">
        <ele>1651.680000000000064</ele>
        <time>2014-06-15T14:44:37Z</time>
      </trkpt>
      <trkpt lat="46.478480631485581" lon="6.955372150987387">
        <ele>1650.720000000000027</ele>
        <time>2014-06-15T14:44:43Z</time>
      </trkpt>
      <trkpt lat="46.478640977293253" lon="6.955635007470846">
        <ele>1652.160000000000082</ele>
        <time>2014-06-15T14:44:54Z</time>
      </trkpt>
      <trkpt lat="46.478778272867203" lon="6.955780098214746">
        <ele>1656.490000000000009</ele>
        <time>2014-06-15T14:45:04Z</time>
      </trkpt>
      <trkpt lat="46.478788247331977" lon="6.955795688554645">
        <ele>1656.970000000000027</ele>
        <time>2014-06-15T14:45:05Z</time>
      </trkpt>
      <trkpt lat="46.478799479082227" lon="6.955812871456146">
        <ele>1657.450000000000045</ele>
        <time>2014-06-15T14:45:06Z</time>
      </trkpt>
      <trkpt lat="46.478904755786061" lon="6.955891326069832">
        <ele>1654.089999999999918</ele>
        <time>2014-06-15T14:45:16Z</time>
      </trkpt>
      <trkpt lat="46.479000141844153" lon="6.95595184341073">
        <ele>1650.720000000000027</ele>
        <time>2014-06-15T14:45:32Z</time>
      </trkpt>
      <trkpt lat="46.479244222864509" lon="6.956131970509887">
        <ele>1640.630000000000109</ele>
        <time>2014-06-15T14:45:45Z</time>
      </trkpt>
      <trkpt lat="46.479509258642793" lon="6.956371022388339">
        <ele>1633.420000000000073</ele>
        <time>2014-06-15T14:45:56Z</time>
      </trkpt>
      <trkpt lat="46.479540271684527" lon="6.956423660740256">
        <ele>1632.940000000000055</ele>
        <time>2014-06-15T14:45:57Z</time>
      </trkpt>
      <trkpt lat="46.479569189250469" lon="6.956489123404026">
        <ele>1631.980000000000018</ele>
        <time>2014-06-15T14:45:58Z</time>
      </trkpt>
      <trkpt lat="46.479619313031435" lon="6.956636644899845">
        <ele>1630.529999999999973</ele>
        <time>2014-06-15T14:46:00Z</time>
      </trkpt>
      <trkpt lat="46.479635154828429" lon="6.956709148362279">
        <ele>1629.569999999999936</ele>
        <time>2014-06-15T14:46:01Z</time>
      </trkpt>
      <trkpt lat="46.479666167870164" lon="6.9568807259202">
        <ele>1628.6099999999999</ele>
        <time>2014-06-15T14:46:04Z</time>
      </trkpt>
      <trkpt lat="46.479656277224422" lon="6.956906709820032">
        <ele>1628.6099999999999</ele>
        <time>2014-06-15T14:46:05Z</time>
      </trkpt>
      <trkpt lat="46.479616547003388" lon="6.956923389807343">
        <ele>1628.130000000000109</ele>
        <time>2014-06-15T14:46:08Z</time>
      </trkpt>
      <trkpt lat="46.479587126523256" lon="6.956891203299165">
        <ele>1626.690000000000055</ele>
        <time>2014-06-15T14:46:13Z</time>
      </trkpt>
      <trkpt lat="46.479686368256807" lon="6.95692079141736">
        <ele>1625.25</ele>
        <time>2014-06-15T14:46:23Z</time>
      </trkpt>
      <trkpt lat="46.47962006740272" lon="6.95721642114222">
        <ele>1627.650000000000091</ele>
        <time>2014-06-15T14:46:38Z</time>
      </trkpt>
      <trkpt lat="46.479532141238451" lon="6.957493862137198">
        <ele>1631.490000000000009</ele>
        <time>2014-06-15T14:46:54Z</time>
      </trkpt>
      <trkpt lat="46.479372717440128" lon="6.957673821598291">
        <ele>1632.460000000000036</ele>
        <time>2014-06-15T14:47:09Z</time>
      </trkpt>
      <trkpt lat="46.479212120175362" lon="6.957841459661722">
        <ele>1631.980000000000018</ele>
        <time>2014-06-15T14:47:22Z</time>
      </trkpt>
      <trkpt lat="46.479167528450489" lon="6.957901977002621">
        <ele>1631.980000000000018</ele>
        <time>2014-06-15T14:47:26Z</time>
      </trkpt>
      <trkpt lat="46.479018330574036" lon="6.958168270066381">
        <ele>1631.490000000000009</ele>
        <time>2014-06-15T14:47:41Z</time>
      </trkpt>
      <trkpt lat="46.478817919269204" lon="6.958396341651678">
        <ele>1632.460000000000036</ele>
        <time>2014-06-15T14:47:58Z</time>
      </trkpt>
      <trkpt lat="46.478766789659858" lon="6.958447806537151">
        <ele>1632.940000000000055</ele>
        <time>2014-06-15T14:48:02Z</time>
      </trkpt>
      <trkpt lat="46.478747595101595" lon="6.958477981388569">
        <ele>1632.940000000000055</ele>
        <time>2014-06-15T14:48:04Z</time>
      </trkpt>
      <trkpt lat="46.4786765165627" lon="6.95854595862329">
        <ele>1632.940000000000055</ele>
        <time>2014-06-15T14:48:10Z</time>
      </trkpt>
      <trkpt lat="46.478495048359036" lon="6.95871158502996">
        <ele>1633.420000000000073</ele>
        <time>2014-06-15T14:48:26Z</time>
      </trkpt>
      <trkpt lat="46.478290781378746" lon="6.958866901695728">
        <ele>1635.339999999999918</ele>
        <time>2014-06-15T14:48:42Z</time>
      </trkpt>
      <trkpt lat="46.478132698684931" lon="6.958972681313753">
        <ele>1636.299999999999955</ele>
        <time>2014-06-15T14:48:55Z</time>
      </trkpt>
      <trkpt lat="46.477968581020832" lon="6.959116598591208">
        <ele>1633.900000000000091</ele>
        <time>2014-06-15T14:49:11Z</time>
      </trkpt>
      <trkpt lat="46.477796332910657" lon="6.959275100380182">
        <ele>1633.900000000000091</ele>
        <time>2014-06-15T14:49:27Z</time>
      </trkpt>
      <trkpt lat="46.477619810029864" lon="6.959417592734098">
        <ele>1641.1099999999999</ele>
        <time>2014-06-15T14:49:42Z</time>
      </trkpt>
      <trkpt lat="46.477608410641551" lon="6.959427483379841">
        <ele>1641.589999999999918</ele>
        <time>2014-06-15T14:49:43Z</time>
      </trkpt>
      <trkpt lat="46.477572619915009" lon="6.959453048184514">
        <ele>1643.029999999999973</ele>
        <time>2014-06-15T14:49:46Z</time>
      </trkpt>
      <trkpt lat="46.477534901350737" lon="6.959542315453291">
        <ele>1645.430000000000064</ele>
        <time>2014-06-15T14:49:51Z</time>
      </trkpt>
      <trkpt lat="46.47758049890399" lon="6.959698470309377">
        <ele>1646.880000000000109</ele>
        <time>2014-06-15T14:49:58Z</time>
      </trkpt>
      <trkpt lat="46.477780491113663" lon="6.959990579634905">
        <ele>1648.799999999999955</ele>
        <time>2014-06-15T14:50:07Z</time>
      </trkpt>
      <trkpt lat="46.47780186496675" lon="6.960040787234902">
        <ele>1648.799999999999955</ele>
        <time>2014-06-15T14:50:08Z</time>
      </trkpt>
      <trkpt lat="46.477825250476599" lon="6.960093844681978">
        <ele>1649.279999999999973</ele>
        <time>2014-06-15T14:50:09Z</time>
      </trkpt>
      <trkpt lat="46.478017782792449" lon="6.960425600409508">
        <ele>1649.759999999999991</ele>
        <time>2014-06-15T14:50:15Z</time>
      </trkpt>
      <trkpt lat="46.478060530498624" lon="6.960476310923696">
        <ele>1649.759999999999991</ele>
        <time>2014-06-15T14:50:16Z</time>
      </trkpt>
      <trkpt lat="46.478107301518321" lon="6.96052148938179">
        <ele>1649.759999999999991</ele>
        <time>2014-06-15T14:50:17Z</time>
      </trkpt>
      <trkpt lat="46.478206207975745" lon="6.960599692538381">
        <ele>1649.279999999999973</ele>
        <time>2014-06-15T14:50:19Z</time>
      </trkpt>
      <trkpt lat="46.478369822725654" lon="6.960712010040879">
        <ele>1648.799999999999955</ele>
        <time>2014-06-15T14:50:22Z</time>
      </trkpt>
      <trkpt lat="46.478422880172729" lon="6.960759870707989">
        <ele>1648.799999999999955</ele>
        <time>2014-06-15T14:50:23Z</time>
      </trkpt>
      <trkpt lat="46.478628320619464" lon="6.96095491759479">
        <ele>1647.839999999999918</ele>
        <time>2014-06-15T14:50:27Z</time>
      </trkpt>
      <trkpt lat="46.478685149922967" lon="6.961010573431849">
        <ele>1646.880000000000109</ele>
        <time>2014-06-15T14:50:28Z</time>
      </trkpt>
      <trkpt lat="46.478809285908937" lon="6.961159016937017">
        <ele>1645.430000000000064</ele>
        <time>2014-06-15T14:50:31Z</time>
      </trkpt>
      <trkpt lat="46.479131486266851" lon="6.961543997749686">
        <ele>1642.549999999999955</ele>
        <time>2014-06-15T14:50:42Z</time>
      </trkpt>
      <trkpt lat="46.479512862861156" lon="6.961881704628468">
        <ele>1640.630000000000109</ele>
        <time>2014-06-15T14:50:51Z</time>
      </trkpt>
      <trkpt lat="46.479596849530935" lon="6.962010283023119">
        <ele>1640.630000000000109</ele>
        <time>2014-06-15T14:50:53Z</time>
      </trkpt>
      <trkpt lat="46.479635909199715" lon="6.962077673524618">
        <ele>1640.150000000000091</ele>
        <time>2014-06-15T14:50:54Z</time>
      </trkpt>
      <trkpt lat="46.47968796081841" lon="6.962149254977703">
        <ele>1640.150000000000091</ele>
        <time>2014-06-15T14:50:55Z</time>
      </trkpt>
      <trkpt lat="46.479873368516564" lon="6.962379422038794">
        <ele>1639.190000000000055</ele>
        <time>2014-06-15T14:50:58Z</time>
      </trkpt>
      <trkpt lat="46.480200011283159" lon="6.962873786687851">
        <ele>1633.900000000000091</ele>
        <time>2014-06-15T14:51:04Z</time>
      </trkpt>
      <trkpt lat="46.480227755382657" lon="6.962938075885177">
        <ele>1632.940000000000055</ele>
        <time>2014-06-15T14:51:05Z</time>
      </trkpt>
      <trkpt lat="46.48029045201838" lon="6.963094985112548">
        <ele>1629.089999999999918</ele>
        <time>2014-06-15T14:51:08Z</time>
      </trkpt>
      <trkpt lat="46.480317609384656" lon="6.963140750303864">
        <ele>1628.130000000000109</ele>
        <time>2014-06-15T14:51:09Z</time>
      </trkpt>
      <trkpt lat="46.480431519448757" lon="6.963310735300183">
        <ele>1625.25</ele>
        <time>2014-06-15T14:51:14Z</time>
      </trkpt>
      <trkpt lat="46.480439063161612" lon="6.963342921808362">
        <ele>1624.769999999999982</ele>
        <time>2014-06-15T14:51:15Z</time>
      </trkpt>
      <trkpt lat="46.480442499741912" lon="6.963378125801682">
        <ele>1623.799999999999955</ele>
        <time>2014-06-15T14:51:16Z</time>
      </trkpt>
      <trkpt lat="46.480442667379975" lon="6.963429171591997">
        <ele>1623.319999999999936</ele>
        <time>2014-06-15T14:51:17Z</time>
      </trkpt>
      <trkpt lat="46.480437554419041" lon="6.963488766923547">
        <ele>1622.839999999999918</ele>
        <time>2014-06-15T14:51:18Z</time>
      </trkpt>
      <trkpt lat="46.480432273820043" lon="6.96355783380568">
        <ele>1622.3599999999999</ele>
        <time>2014-06-15T14:51:19Z</time>
      </trkpt>
      <trkpt lat="46.48043017834425" lon="6.963722035288811">
        <ele>1620.920000000000073</ele>
        <time>2014-06-15T14:51:21Z</time>
      </trkpt>
      <trkpt lat="46.480439817532897" lon="6.963885482400656">
        <ele>1619.480000000000018</ele>
        <time>2014-06-15T14:51:23Z</time>
      </trkpt>
      <trkpt lat="46.480430262163281" lon="6.963951364159584">
        <ele>1619</ele>
        <time>2014-06-15T14:51:24Z</time>
      </trkpt>
      <trkpt lat="46.480404026806355" lon="6.964000063017011">
        <ele>1618.519999999999982</ele>
        <time>2014-06-15T14:51:25Z</time>
      </trkpt>
      <trkpt lat="46.480370834469795" lon="6.964019509032369">
        <ele>1618.519999999999982</ele>
        <time>2014-06-15T14:51:26Z</time>
      </trkpt>
      <trkpt lat="46.480342503637075" lon="6.964027220383286">
        <ele>1618.519999999999982</ele>
        <time>2014-06-15T14:51:27Z</time>
      </trkpt>
      <trkpt lat="46.48031928576529" lon="6.964030070230365">
        <ele>1618.519999999999982</ele>
        <time>2014-06-15T14:51:28Z</time>
      </trkpt>
      <trkpt lat="46.480303108692169" lon="6.964029232040048">
        <ele>1618.519999999999982</ele>
        <time>2014-06-15T14:51:29Z</time>
      </trkpt>
      <trkpt lat="46.480288272723556" lon="6.964028645306826">
        <ele>1618.519999999999982</ele>
        <time>2014-06-15T14:51:30Z</time>
      </trkpt>
      <trkpt lat="46.480271592736244" lon="6.964025376364589">
        <ele>1618.519999999999982</ele>
        <time>2014-06-15T14:51:31Z</time>
      </trkpt>
      <trkpt lat="46.480251727625728" lon="6.96402839384973">
        <ele>1618.039999999999964</ele>
        <time>2014-06-15T14:51:32Z</time>
      </trkpt>
      <trkpt lat="46.480233790352941" lon="6.964036608114839">
        <ele>1618.039999999999964</ele>
        <time>2014-06-15T14:51:33Z</time>
      </trkpt>
      <trkpt lat="46.480216691270471" lon="6.964043900370598">
        <ele>1618.519999999999982</ele>
        <time>2014-06-15T14:51:34Z</time>
      </trkpt>
      <trkpt lat="46.480198334902525" lon="6.964049097150564">
        <ele>1618.519999999999982</ele>
        <time>2014-06-15T14:51:35Z</time>
      </trkpt>
      <trkpt lat="46.479926090687513" lon="6.964081032201648">
        <ele>1619.480000000000018</ele>
        <time>2014-06-15T14:51:49Z</time>
      </trkpt>
      <trkpt lat="46.479577319696546" lon="6.96408748626709">
        <ele>1619.480000000000018</ele>
        <time>2014-06-15T14:52:07Z</time>
      </trkpt>
      <trkpt lat="46.479286886751652" lon="6.964140292257071">
        <ele>1620.440000000000055</ele>
        <time>2014-06-15T14:52:24Z</time>
      </trkpt>
      <trkpt lat="46.479099551215768" lon="6.964217908680439">
        <ele>1623.319999999999936</ele>
        <time>2014-06-15T14:52:39Z</time>
      </trkpt>
      <trkpt lat="46.47904640994966" lon="6.964228888973594">
        <ele>1624.769999999999982</ele>
        <time>2014-06-15T14:52:43Z</time>
      </trkpt>
      <trkpt lat="46.47902243770659" lon="6.964234923943877">
        <ele>1624.769999999999982</ele>
        <time>2014-06-15T14:52:45Z</time>
      </trkpt>
      <trkpt lat="46.479009529575706" lon="6.964232660830021">
        <ele>1624.769999999999982</ele>
        <time>2014-06-15T14:52:46Z</time>
      </trkpt>
      <trkpt lat="46.478855554014444" lon="6.964209359139204">
        <ele>1626.690000000000055</ele>
        <time>2014-06-15T14:52:58Z</time>
      </trkpt>
      <trkpt lat="46.478682467713952" lon="6.964246993884444">
        <ele>1631.009999999999991</ele>
        <time>2014-06-15T14:53:12Z</time>
      </trkpt>
      <trkpt lat="46.478449450805783" lon="6.964318910613656">
        <ele>1633.900000000000091</ele>
        <time>2014-06-15T14:53:28Z</time>
      </trkpt>
      <trkpt lat="46.478264462202787" lon="6.964362328872085">
        <ele>1635.819999999999936</ele>
        <time>2014-06-15T14:53:40Z</time>
      </trkpt>
      <trkpt lat="46.47808332927525" lon="6.964531727135181">
        <ele>1640.150000000000091</ele>
        <time>2014-06-15T14:53:54Z</time>
      </trkpt>
      <trkpt lat="46.478070672601461" lon="6.964543713256717">
        <ele>1640.150000000000091</ele>
        <time>2014-06-15T14:53:55Z</time>
      </trkpt>
      <trkpt lat="46.478060530498624" lon="6.964558213949203">
        <ele>1640.630000000000109</ele>
        <time>2014-06-15T14:53:56Z</time>
      </trkpt>
      <trkpt lat="46.47796799428761" lon="6.964677153155208">
        <ele>1642.549999999999955</ele>
        <time>2014-06-15T14:54:10Z</time>
      </trkpt>
      <trkpt lat="46.477957349270582" lon="6.9647017121315">
        <ele>1640.630000000000109</ele>
        <time>2014-06-15T14:54:25Z</time>
      </trkpt>
      <trkpt lat="46.477836901322007" lon="6.964797182008624">
        <ele>1638.220000000000027</ele>
        <time>2014-06-15T14:54:36Z</time>
      </trkpt>
      <trkpt lat="46.477489890530705" lon="6.964790057390928">
        <ele>1629.089999999999918</ele>
        <time>2014-06-15T14:54:49Z</time>
      </trkpt>
      <trkpt lat="46.47722183726728" lon="6.964740855619311">
        <ele>1623.319999999999936</ele>
        <time>2014-06-15T14:55:01Z</time>
      </trkpt>
      <trkpt lat="46.47705084644258" lon="6.964766755700111">
        <ele>1619</ele>
        <time>2014-06-15T14:55:08Z</time>
      </trkpt>
      <trkpt lat="46.477042464539409" lon="6.964801540598273">
        <ele>1618.519999999999982</ele>
        <time>2014-06-15T14:55:09Z</time>
      </trkpt>
      <trkpt lat="46.477045230567455" lon="6.96483263745904">
        <ele>1618.039999999999964</ele>
        <time>2014-06-15T14:55:10Z</time>
      </trkpt>
      <trkpt lat="46.477055456489325" lon="6.964876810088754">
        <ele>1616.589999999999918</ele>
        <time>2014-06-15T14:55:11Z</time>
      </trkpt>
      <trkpt lat="46.477066688239574" lon="6.964922491461039">
        <ele>1615.630000000000109</ele>
        <time>2014-06-15T14:55:12Z</time>
      </trkpt>
      <trkpt lat="46.477076075971127" lon="6.96497144177556">
        <ele>1614.670000000000073</ele>
        <time>2014-06-15T14:55:13Z</time>
      </trkpt>
      <trkpt lat="46.477146400138736" lon="6.965515008196235">
        <ele>1603.619999999999891</ele>
        <time>2014-06-15T14:55:25Z</time>
      </trkpt>
      <trkpt lat="46.477140365168452" lon="6.965555660426617">
        <ele>1603.1400000000001</ele>
        <time>2014-06-15T14:55:26Z</time>
      </trkpt>
      <trkpt lat="46.477002399042249" lon="6.966009959578514">
        <ele>1596.410000000000082</ele>
        <time>2014-06-15T14:55:37Z</time>
      </trkpt>
      <trkpt lat="46.476843478158116" lon="6.966550424695015">
        <ele>1591.119999999999891</ele>
        <time>2014-06-15T14:55:49Z</time>
      </trkpt>
      <trkpt lat="46.476680701598525" lon="6.966976560652256">
        <ele>1582.470000000000027</ele>
        <time>2014-06-15T14:55:59Z</time>
      </trkpt>
      <trkpt lat="46.47647182457149" lon="6.967228772118688">
        <ele>1578.619999999999891</ele>
        <time>2014-06-15T14:56:09Z</time>
      </trkpt>
      <trkpt lat="46.476230174303055" lon="6.967278476804495">
        <ele>1578.1400000000001</ele>
        <time>2014-06-15T14:56:20Z</time>
      </trkpt>
      <trkpt lat="46.475657355040312" lon="6.96738132275641">
        <ele>1575.259999999999991</ele>
        <time>2014-06-15T14:56:33Z</time>
      </trkpt>
      <trkpt lat="46.475173383951187" lon="6.967505123466253">
        <ele>1571.8900000000001</ele>
        <time>2014-06-15T14:56:41Z</time>
      </trkpt>
      <trkpt lat="46.474388418719172" lon="6.967885829508305">
        <ele>1565.6400000000001</ele>
        <time>2014-06-15T14:56:53Z</time>
      </trkpt>
      <trkpt lat="46.473521562293172" lon="6.96821984834969">
        <ele>1559.880000000000109</ele>
        <time>2014-06-15T14:57:05Z</time>
      </trkpt>
      <trkpt lat="46.473321570083499" lon="6.968235271051526">
        <ele>1558.920000000000073</ele>
        <time>2014-06-15T14:57:08Z</time>
      </trkpt>
      <trkpt lat="46.473256694152951" lon="6.968218171969056">
        <ele>1558.920000000000073</ele>
        <time>2014-06-15T14:57:09Z</time>
      </trkpt>
      <trkpt lat="46.473195170983672" lon="6.96818757802248">
        <ele>1558.920000000000073</ele>
        <time>2014-06-15T14:57:10Z</time>
      </trkpt>
      <trkpt lat="46.473139263689518" lon="6.968144411221147">
        <ele>1558.920000000000073</ele>
        <time>2014-06-15T14:57:11Z</time>
      </trkpt>
      <trkpt lat="46.473088217899203" lon="6.968088336288929">
        <ele>1558.430000000000064</ele>
        <time>2014-06-15T14:57:12Z</time>
      </trkpt>
      <trkpt lat="46.473039435222745" lon="6.968024633824825">
        <ele>1558.430000000000064</ele>
        <time>2014-06-15T14:57:13Z</time>
      </trkpt>
      <trkpt lat="46.472940696403384" lon="6.967881806194782">
        <ele>1557.950000000000045</ele>
        <time>2014-06-15T14:57:15Z</time>
      </trkpt>
      <trkpt lat="46.472638193517923" lon="6.96743899025023">
        <ele>1554.589999999999918</ele>
        <time>2014-06-15T14:57:22Z</time>
      </trkpt>
      <trkpt lat="46.472594942897558" lon="6.967408144846559">
        <ele>1554.1099999999999</ele>
        <time>2014-06-15T14:57:23Z</time>
      </trkpt>
      <trkpt lat="46.47255152463913" lon="6.967387106269598">
        <ele>1554.1099999999999</ele>
        <time>2014-06-15T14:57:24Z</time>
      </trkpt>
      <trkpt lat="46.472459156066179" lon="6.967355506494641">
        <ele>1553.150000000000091</ele>
        <time>2014-06-15T14:57:26Z</time>
      </trkpt>
      <trkpt lat="46.472414983436465" lon="6.967352824285626">
        <ele>1553.150000000000091</ele>
        <time>2014-06-15T14:57:27Z</time>
      </trkpt>
      <trkpt lat="46.472372403368354" lon="6.967360284179449">
        <ele>1552.670000000000073</ele>
        <time>2014-06-15T14:57:28Z</time>
      </trkpt>
      <trkpt lat="46.472331918776035" lon="6.967372857034206">
        <ele>1552.670000000000073</ele>
        <time>2014-06-15T14:57:29Z</time>
      </trkpt>
      <trkpt lat="46.472293781116605" lon="6.967388279736042">
        <ele>1552.190000000000055</ele>
        <time>2014-06-15T14:57:30Z</time>
      </trkpt>
      <trkpt lat="46.47225933149457" lon="6.967412419617176">
        <ele>1551.710000000000036</ele>
        <time>2014-06-15T14:57:31Z</time>
      </trkpt>
      <trkpt lat="46.472227228805423" lon="6.967448126524687">
        <ele>1551.220000000000027</ele>
        <time>2014-06-15T14:57:32Z</time>
      </trkpt>
      <trkpt lat="46.472195461392403" lon="6.967497915029526">
        <ele>1550.740000000000009</ele>
        <time>2014-06-15T14:57:33Z</time>
      </trkpt>
      <trkpt lat="46.472162939608097" lon="6.967554828152061">
        <ele>1550.259999999999991</ele>
        <time>2014-06-15T14:57:34Z</time>
      </trkpt>
      <trkpt lat="46.472007036209106" lon="6.967835957184434">
        <ele>1549.299999999999955</ele>
        <time>2014-06-15T14:57:39Z</time>
      </trkpt>
      <trkpt lat="46.471986919641495" lon="6.967884739860892">
        <ele>1549.299999999999955</ele>
        <time>2014-06-15T14:57:40Z</time>
      </trkpt>
      <trkpt lat="46.471974011510611" lon="6.96794031187892">
        <ele>1549.299999999999955</ele>
        <time>2014-06-15T14:57:41Z</time>
      </trkpt>
      <trkpt lat="46.471973257139325" lon="6.96799554862082">
        <ele>1549.299999999999955</ele>
        <time>2014-06-15T14:57:42Z</time>
      </trkpt>
      <trkpt lat="46.471984321251512" lon="6.968045588582754">
        <ele>1549.779999999999973</ele>
        <time>2014-06-15T14:57:43Z</time>
      </trkpt>
      <trkpt lat="46.472005108371377" lon="6.968088252469897">
        <ele>1549.779999999999973</ele>
        <time>2014-06-15T14:57:44Z</time>
      </trkpt>
      <trkpt lat="46.472034109756351" lon="6.968120941892266">
        <ele>1549.779999999999973</ele>
        <time>2014-06-15T14:57:45Z</time>
      </trkpt>
      <trkpt lat="46.472067553550005" lon="6.968148518353701">
        <ele>1550.259999999999991</ele>
        <time>2014-06-15T14:57:46Z</time>
      </trkpt>
      <trkpt lat="46.472581950947642" lon="6.968482956290245">
        <ele>1550.740000000000009</ele>
        <time>2014-06-15T14:57:59Z</time>
      </trkpt>
      <trkpt lat="46.472798204049468" lon="6.968705914914608">
        <ele>1551.710000000000036</ele>
        <time>2014-06-15T14:58:05Z</time>
      </trkpt>
      <trkpt lat="46.472820751368999" lon="6.9687529373914">
        <ele>1551.710000000000036</ele>
        <time>2014-06-15T14:58:06Z</time>
      </trkpt>
      <trkpt lat="46.472839526832104" lon="6.968804486095905">
        <ele>1551.710000000000036</ele>
        <time>2014-06-15T14:58:07Z</time>
      </trkpt>
      <trkpt lat="46.472855117172003" lon="6.968859471380711">
        <ele>1552.190000000000055</ele>
        <time>2014-06-15T14:58:08Z</time>
      </trkpt>
      <trkpt lat="46.472868947312236" lon="6.968915965408087">
        <ele>1552.190000000000055</ele>
        <time>2014-06-15T14:58:09Z</time>
      </trkpt>
      <trkpt lat="46.472864421084523" lon="6.969473361968994">
        <ele>1555.549999999999955</ele>
        <time>2014-06-15T14:58:21Z</time>
      </trkpt>
      <trkpt lat="46.472663842141628" lon="6.969889523461461">
        <ele>1557.470000000000027</ele>
        <time>2014-06-15T14:58:36Z</time>
      </trkpt>
      <trkpt lat="46.4724494330585" lon="6.970322364941239">
        <ele>1559.400000000000091</ele>
        <time>2014-06-15T14:58:53Z</time>
      </trkpt>
      <trkpt lat="46.472488157451153" lon="6.970687564462423">
        <ele>1559.400000000000091</ele>
        <time>2014-06-15T14:59:05Z</time>
      </trkpt>
      <trkpt lat="46.472533419728279" lon="6.971077993512154">
        <ele>1557.950000000000045</ele>
        <time>2014-06-15T14:59:16Z</time>
      </trkpt>
      <trkpt lat="46.472278861328959" lon="6.971535226330161">
        <ele>1555.549999999999955</ele>
        <time>2014-06-15T14:59:31Z</time>
      </trkpt>
      <trkpt lat="46.471999073401093" lon="6.971775367856026">
        <ele>1555.549999999999955</ele>
        <time>2014-06-15T14:59:42Z</time>
      </trkpt>
      <trkpt lat="46.471729259938002" lon="6.971973935142159">
        <ele>1559.400000000000091</ele>
        <time>2014-06-15T14:59:53Z</time>
      </trkpt>
      <trkpt lat="46.471457937732339" lon="6.972013581544161">
        <ele>1563.720000000000027</ele>
        <time>2014-06-15T15:00:04Z</time>
      </trkpt>
      <trkpt lat="46.471240427345037" lon="6.971879471093416">
        <ele>1565.160000000000082</ele>
        <time>2014-06-15T15:00:18Z</time>
      </trkpt>
      <trkpt lat="46.471041273325682" lon="6.972056245431304">
        <ele>1566.6099999999999</ele>
        <time>2014-06-15T15:00:31Z</time>
      </trkpt>
      <trkpt lat="46.470807166770101" lon="6.97235556319356">
        <ele>1569.970000000000027</ele>
        <time>2014-06-15T15:00:46Z</time>
      </trkpt>
      <trkpt lat="46.47067179903388" lon="6.972679859027267">
        <ele>1572.369999999999891</ele>
        <time>2014-06-15T15:01:02Z</time>
      </trkpt>
      <trkpt lat="46.470503993332386" lon="6.972850598394871">
        <ele>1574.299999999999955</ele>
        <time>2014-06-15T15:01:15Z</time>
      </trkpt>
      <trkpt lat="46.470487732440233" lon="6.972846575081348">
        <ele>1574.779999999999973</ele>
        <time>2014-06-15T15:01:16Z</time>
      </trkpt>
      <trkpt lat="46.470471303910017" lon="6.972846072167158">
        <ele>1574.779999999999973</ele>
        <time>2014-06-15T15:01:17Z</time>
      </trkpt>
      <trkpt lat="46.470455210655928" lon="6.972847413271666">
        <ele>1575.259999999999991</ele>
        <time>2014-06-15T15:01:18Z</time>
      </trkpt>
      <trkpt lat="46.470440626144409" lon="6.972848502919078">
        <ele>1575.740000000000009</ele>
        <time>2014-06-15T15:01:19Z</time>
      </trkpt>
      <trkpt lat="46.470426125451922" lon="6.972842970862985">
        <ele>1575.740000000000009</ele>
        <time>2014-06-15T15:01:20Z</time>
      </trkpt>
      <trkpt lat="46.470411960035563" lon="6.972841462120414">
        <ele>1575.740000000000009</ele>
        <time>2014-06-15T15:01:21Z</time>
      </trkpt>
      <trkpt lat="46.470397459343076" lon="6.972842467948794">
        <ele>1575.740000000000009</ele>
        <time>2014-06-15T15:01:22Z</time>
      </trkpt>
      <trkpt lat="46.470383713021874" lon="6.972838444635272">
        <ele>1576.220000000000027</ele>
        <time>2014-06-15T15:01:23Z</time>
      </trkpt>
      <trkpt lat="46.470370637252927" lon="6.972832158207893">
        <ele>1576.220000000000027</ele>
        <time>2014-06-15T15:01:24Z</time>
      </trkpt>
      <trkpt lat="46.470356890931726" lon="6.972830817103386">
        <ele>1576.700000000000045</ele>
        <time>2014-06-15T15:01:25Z</time>
      </trkpt>
      <trkpt lat="46.470342390239239" lon="6.972828721627593">
        <ele>1576.700000000000045</ele>
        <time>2014-06-15T15:01:26Z</time>
      </trkpt>
      <trkpt lat="46.470328308641911" lon="6.972827799618244">
        <ele>1576.700000000000045</ele>
        <time>2014-06-15T15:01:27Z</time>
      </trkpt>
      <trkpt lat="46.470313975587487" lon="6.972826877608895">
        <ele>1577.180000000000064</ele>
        <time>2014-06-15T15:01:28Z</time>
      </trkpt>
      <trkpt lat="46.470299055799842" lon="6.972825117409229">
        <ele>1577.180000000000064</ele>
        <time>2014-06-15T15:01:29Z</time>
      </trkpt>
      <trkpt lat="46.470131585374475" lon="6.97281732223928">
        <ele>1579.579999999999927</ele>
        <time>2014-06-15T15:01:41Z</time>
      </trkpt>
      <trkpt lat="46.470120353624225" lon="6.972810029983521">
        <ele>1580.059999999999945</ele>
        <time>2014-06-15T15:01:42Z</time>
      </trkpt>
      <trkpt lat="46.470108535140753" lon="6.972803073003888">
        <ele>1580.059999999999945</ele>
        <time>2014-06-15T15:01:43Z</time>
      </trkpt>
      <trkpt lat="46.47009814158082" lon="6.972797373309731">
        <ele>1580.059999999999945</ele>
        <time>2014-06-15T15:01:44Z</time>
      </trkpt>
      <trkpt lat="46.470085233449936" lon="6.972791003063321">
        <ele>1580.059999999999945</ele>
        <time>2014-06-15T15:01:45Z</time>
      </trkpt>
      <trkpt lat="46.470030080527067" lon="6.972774658352137">
        <ele>1580.059999999999945</ele>
        <time>2014-06-15T15:01:49Z</time>
      </trkpt>
      <trkpt lat="46.469786753877997" lon="6.972726881504059">
        <ele>1583.910000000000082</ele>
        <time>2014-06-15T15:02:05Z</time>
      </trkpt>
      <trkpt lat="46.46954451687634" lon="6.972640044987202">
        <ele>1583.910000000000082</ele>
        <time>2014-06-15T15:02:20Z</time>
      </trkpt>
      <trkpt lat="46.469529345631599" lon="6.972627304494381">
        <ele>1583.910000000000082</ele>
        <time>2014-06-15T15:02:21Z</time>
      </trkpt>
      <trkpt lat="46.469188369810581" lon="6.972524961456656">
        <ele>1583.430000000000064</ele>
        <time>2014-06-15T15:02:34Z</time>
      </trkpt>
      <trkpt lat="46.468799784779549" lon="6.97250266559422">
        <ele>1583.430000000000064</ele>
        <time>2014-06-15T15:02:44Z</time>
      </trkpt>
      <trkpt lat="46.468758629634976" lon="6.972506353631616">
        <ele>1583.430000000000064</ele>
        <time>2014-06-15T15:02:45Z</time>
      </trkpt>
      <trkpt lat="46.468717977404594" lon="6.972516914829612">
        <ele>1583.430000000000064</ele>
        <time>2014-06-15T15:02:46Z</time>
      </trkpt>
      <trkpt lat="46.468375157564878" lon="6.972739873453975">
        <ele>1580.059999999999945</ele>
        <time>2014-06-15T15:02:56Z</time>
      </trkpt>
      <trkpt lat="46.468349592760205" lon="6.972787482663989">
        <ele>1579.579999999999927</ele>
        <time>2014-06-15T15:02:57Z</time>
      </trkpt>
      <trkpt lat="46.468315813690424" lon="6.9728300627321">
        <ele>1579.099999999999909</ele>
        <time>2014-06-15T15:02:58Z</time>
      </trkpt>
      <trkpt lat="46.468276670202613" lon="6.972859567031264">
        <ele>1578.619999999999891</ele>
        <time>2014-06-15T15:02:59Z</time>
      </trkpt>
      <trkpt lat="46.468232916668057" lon="6.97287255898118">
        <ele>1578.619999999999891</ele>
        <time>2014-06-15T15:03:00Z</time>
      </trkpt>
      <trkpt lat="46.468186648562551" lon="6.97286912240088">
        <ele>1578.1400000000001</ele>
        <time>2014-06-15T15:03:01Z</time>
      </trkpt>
      <trkpt lat="46.468141051009297" lon="6.972861662507057">
        <ele>1578.1400000000001</ele>
        <time>2014-06-15T15:03:02Z</time>
      </trkpt>
      <trkpt lat="46.46804885007441" lon="6.972850849851966">
        <ele>1577.660000000000082</ele>
        <time>2014-06-15T15:03:04Z</time>
      </trkpt>
      <trkpt lat="46.468003755435348" lon="6.97285839356482">
        <ele>1577.660000000000082</ele>
        <time>2014-06-15T15:03:05Z</time>
      </trkpt>
      <trkpt lat="46.467961007729173" lon="6.972878929227591">
        <ele>1577.180000000000064</ele>
        <time>2014-06-15T15:03:06Z</time>
      </trkpt>
      <trkpt lat="46.46792178042233" lon="6.972913295030594">
        <ele>1577.180000000000064</ele>
        <time>2014-06-15T15:03:07Z</time>
      </trkpt>
      <trkpt lat="46.467889761552215" lon="6.972961742430925">
        <ele>1577.180000000000064</ele>
        <time>2014-06-15T15:03:08Z</time>
      </trkpt>
      <trkpt lat="46.467869142070413" lon="6.973017398267984">
        <ele>1576.700000000000045</ele>
        <time>2014-06-15T15:03:09Z</time>
      </trkpt>
      <trkpt lat="46.467855479568243" lon="6.973079005256295">
        <ele>1576.700000000000045</ele>
        <time>2014-06-15T15:03:10Z</time>
      </trkpt>
      <trkpt lat="46.46785045042634" lon="6.97313935495913">
        <ele>1576.700000000000045</ele>
        <time>2014-06-15T15:03:11Z</time>
      </trkpt>
      <trkpt lat="46.467851204797626" lon="6.973196687176824">
        <ele>1576.700000000000045</ele>
        <time>2014-06-15T15:03:12Z</time>
      </trkpt>
      <trkpt lat="46.467684740200639" lon="6.973472451791167">
        <ele>1577.180000000000064</ele>
        <time>2014-06-15T15:03:21Z</time>
      </trkpt>
      <trkpt lat="46.467584408819675" lon="6.973438924178481">
        <ele>1577.180000000000064</ele>
        <time>2014-06-15T15:03:24Z</time>
      </trkpt>
      <trkpt lat="46.467543002218008" lon="6.973424591124058">
        <ele>1577.180000000000064</ele>
        <time>2014-06-15T15:03:25Z</time>
      </trkpt>
      <trkpt lat="46.467459350824356" lon="6.973403636366129">
        <ele>1577.180000000000064</ele>
        <time>2014-06-15T15:03:27Z</time>
      </trkpt>
      <trkpt lat="46.467416016384959" lon="6.973392320796847">
        <ele>1576.700000000000045</ele>
        <time>2014-06-15T15:03:28Z</time>
      </trkpt>
      <trkpt lat="46.467373184859753" lon="6.973378323018551">
        <ele>1576.700000000000045</ele>
        <time>2014-06-15T15:03:29Z</time>
      </trkpt>
      <trkpt lat="46.467089289799333" lon="6.973340939730406">
        <ele>1576.220000000000027</ele>
        <time>2014-06-15T15:03:36Z</time>
      </trkpt>
      <trkpt lat="46.467048218473792" lon="6.973330127075315">
        <ele>1576.220000000000027</ele>
        <time>2014-06-15T15:03:37Z</time>
      </trkpt>
      <trkpt lat="46.467009242624044" lon="6.973313530907035">
        <ele>1576.220000000000027</ele>
        <time>2014-06-15T15:03:38Z</time>
      </trkpt>
      <trkpt lat="46.466660555452108" lon="6.973226862028241">
        <ele>1574.299999999999955</ele>
        <time>2014-06-15T15:03:47Z</time>
      </trkpt>
      <trkpt lat="46.466619987040758" lon="6.97324002161622">
        <ele>1573.819999999999936</ele>
        <time>2014-06-15T15:03:48Z</time>
      </trkpt>
      <trkpt lat="46.46658344194293" lon="6.973269945010543">
        <ele>1573.819999999999936</ele>
        <time>2014-06-15T15:03:49Z</time>
      </trkpt>
      <trkpt lat="46.466553183272481" lon="6.973310681059957">
        <ele>1573.819999999999936</ele>
        <time>2014-06-15T15:03:50Z</time>
      </trkpt>
      <trkpt lat="46.466529713943601" lon="6.973358877003193">
        <ele>1573.329999999999927</ele>
        <time>2014-06-15T15:03:51Z</time>
      </trkpt>
      <trkpt lat="46.466503394767642" lon="6.973407492041588">
        <ele>1572.849999999999909</ele>
        <time>2014-06-15T15:03:52Z</time>
      </trkpt>
      <trkpt lat="46.466473052278161" lon="6.973450323566794">
        <ele>1572.849999999999909</ele>
        <time>2014-06-15T15:03:53Z</time>
      </trkpt>
      <trkpt lat="46.466435668990016" lon="6.973488377407193">
        <ele>1572.369999999999891</ele>
        <time>2014-06-15T15:03:54Z</time>
      </trkpt>
      <trkpt lat="46.466392502188683" lon="6.973515534773469">
        <ele>1572.369999999999891</ele>
        <time>2014-06-15T15:03:55Z</time>
      </trkpt>
      <trkpt lat="46.466341959312558" lon="6.973524922505021">
        <ele>1571.8900000000001</ele>
        <time>2014-06-15T15:03:56Z</time>
      </trkpt>
      <trkpt lat="46.466290829703212" lon="6.973522240296006">
        <ele>1571.8900000000001</ele>
        <time>2014-06-15T15:03:57Z</time>
      </trkpt>
      <trkpt lat="46.466237604618073" lon="6.973514780402184">
        <ele>1571.410000000000082</ele>
        <time>2014-06-15T15:03:58Z</time>
      </trkpt>
      <trkpt lat="46.466182367876172" lon="6.973510589450598">
        <ele>1571.410000000000082</ele>
        <time>2014-06-15T15:03:59Z</time>
      </trkpt>
      <trkpt lat="46.466124532744288" lon="6.973516624420881">
        <ele>1571.410000000000082</ele>
        <time>2014-06-15T15:04:00Z</time>
      </trkpt>
      <trkpt lat="46.466069128364325" lon="6.973535483703017">
        <ele>1570.930000000000064</ele>
        <time>2014-06-15T15:04:01Z</time>
      </trkpt>
      <trkpt lat="46.46601464599371" lon="6.973563143983483">
        <ele>1570.450000000000045</ele>
        <time>2014-06-15T15:04:02Z</time>
      </trkpt>
      <trkpt lat="46.465959576889873" lon="6.97359524667263">
        <ele>1570.450000000000045</ele>
        <time>2014-06-15T15:04:03Z</time>
      </trkpt>
      <trkpt lat="46.465841811150312" lon="6.973659368231893">
        <ele>1569.490000000000009</ele>
        <time>2014-06-15T15:04:05Z</time>
      </trkpt>
      <trkpt lat="46.464994484558702" lon="6.97395826689899">
        <ele>1564.680000000000064</ele>
        <time>2014-06-15T15:04:18Z</time>
      </trkpt>
      <trkpt lat="46.464941427111626" lon="6.973993554711342">
        <ele>1564.680000000000064</ele>
        <time>2014-06-15T15:04:19Z</time>
      </trkpt>
      <trkpt lat="46.464893901720643" lon="6.974036721512675">
        <ele>1564.680000000000064</ele>
        <time>2014-06-15T15:04:20Z</time>
      </trkpt>
      <trkpt lat="46.46480044350028" lon="6.974119199439883">
        <ele>1563.720000000000027</ele>
        <time>2014-06-15T15:04:22Z</time>
      </trkpt>
      <trkpt lat="46.464745877310634" lon="6.97414199821651">
        <ele>1563.720000000000027</ele>
        <time>2014-06-15T15:04:23Z</time>
      </trkpt>
      <trkpt lat="46.464689467102289" lon="6.97415130212903">
        <ele>1563.240000000000009</ele>
        <time>2014-06-15T15:04:24Z</time>
      </trkpt>
      <trkpt lat="46.464629201218486" lon="6.974148703739047">
        <ele>1562.759999999999991</ele>
        <time>2014-06-15T15:04:25Z</time>
      </trkpt>
      <trkpt lat="46.464565582573414" lon="6.974140908569098">
        <ele>1562.279999999999973</ele>
        <time>2014-06-15T15:04:26Z</time>
      </trkpt>
      <trkpt lat="46.464222595095634" lon="6.974153984338045">
        <ele>1560.3599999999999</ele>
        <time>2014-06-15T15:04:31Z</time>
      </trkpt>
      <trkpt lat="46.464159060269594" lon="6.974177621304989">
        <ele>1559.880000000000109</ele>
        <time>2014-06-15T15:04:32Z</time>
      </trkpt>
      <trkpt lat="46.46409535780549" lon="6.97419379837811">
        <ele>1559.400000000000091</ele>
        <time>2014-06-15T15:04:33Z</time>
      </trkpt>
      <trkpt lat="46.464032074436545" lon="6.974195726215839">
        <ele>1558.920000000000073</ele>
        <time>2014-06-15T15:04:34Z</time>
      </trkpt>
      <trkpt lat="46.463965689763427" lon="6.974184243008494">
        <ele>1558.430000000000064</ele>
        <time>2014-06-15T15:04:35Z</time>
      </trkpt>
      <trkpt lat="46.463897544890642" lon="6.974168485030532">
        <ele>1557.950000000000045</ele>
        <time>2014-06-15T15:04:36Z</time>
      </trkpt>
      <trkpt lat="46.463825711980462" lon="6.974160438403487">
        <ele>1557.470000000000027</ele>
        <time>2014-06-15T15:04:37Z</time>
      </trkpt>
      <trkpt lat="46.463752286508679" lon="6.974162701517344">
        <ele>1556.990000000000009</ele>
        <time>2014-06-15T15:04:38Z</time>
      </trkpt>
      <trkpt lat="46.463678441941738" lon="6.974178962409496">
        <ele>1556.509999999999991</ele>
        <time>2014-06-15T15:04:39Z</time>
      </trkpt>
      <trkpt lat="46.463147448375821" lon="6.974377948790789">
        <ele>1553.150000000000091</ele>
        <time>2014-06-15T15:04:46Z</time>
      </trkpt>
      <trkpt lat="46.463072262704372" lon="6.974389348179102">
        <ele>1552.670000000000073</ele>
        <time>2014-06-15T15:04:47Z</time>
      </trkpt>
      <trkpt lat="46.4630017708987" lon="6.974399825558066">
        <ele>1552.190000000000055</ele>
        <time>2014-06-15T15:04:48Z</time>
      </trkpt>
      <trkpt lat="46.462934212759137" lon="6.974420864135027">
        <ele>1551.710000000000036</ele>
        <time>2014-06-15T15:04:49Z</time>
      </trkpt>
      <trkpt lat="46.462868833914399" lon="6.974451122805476">
        <ele>1551.220000000000027</ele>
        <time>2014-06-15T15:04:50Z</time>
      </trkpt>
      <trkpt lat="46.462804544717073" lon="6.974485656246543">
        <ele>1550.740000000000009</ele>
        <time>2014-06-15T15:04:51Z</time>
      </trkpt>
      <trkpt lat="46.462675295770168" lon="6.974536953493953">
        <ele>1549.299999999999955</ele>
        <time>2014-06-15T15:04:53Z</time>
      </trkpt>
      <trkpt lat="46.46260597743094" lon="6.974551370367408">
        <ele>1549.299999999999955</ele>
        <time>2014-06-15T15:04:54Z</time>
      </trkpt>
      <trkpt lat="46.462284196168184" lon="6.974623203277588">
        <ele>1546.420000000000073</ele>
        <time>2014-06-15T15:04:59Z</time>
      </trkpt>
      <trkpt lat="46.462057717144489" lon="6.974671315401793">
        <ele>1544.5</ele>
        <time>2014-06-15T15:05:03Z</time>
      </trkpt>
      <trkpt lat="46.462008012458682" lon="6.974700568243861">
        <ele>1544.009999999999991</ele>
        <time>2014-06-15T15:05:04Z</time>
      </trkpt>
      <trkpt lat="46.461956882849336" lon="6.97474105283618">
        <ele>1543.049999999999955</ele>
        <time>2014-06-15T15:05:05Z</time>
      </trkpt>
      <trkpt lat="46.461911536753178" lon="6.974791595712304">
        <ele>1542.569999999999936</ele>
        <time>2014-06-15T15:05:06Z</time>
      </trkpt>
      <trkpt lat="46.461865771561861" lon="6.974851693958044">
        <ele>1542.089999999999918</ele>
        <time>2014-06-15T15:05:07Z</time>
      </trkpt>
      <trkpt lat="46.461769379675388" lon="6.974969543516636">
        <ele>1541.6099999999999</ele>
        <time>2014-06-15T15:05:09Z</time>
      </trkpt>
      <trkpt lat="46.461715819314122" lon="6.975013297051191">
        <ele>1541.130000000000109</ele>
        <time>2014-06-15T15:05:10Z</time>
      </trkpt>
      <trkpt lat="46.461659576743841" lon="6.975041963160038">
        <ele>1540.650000000000091</ele>
        <time>2014-06-15T15:05:11Z</time>
      </trkpt>
      <trkpt lat="46.46160383708775" lon="6.975056128576398">
        <ele>1540.170000000000073</ele>
        <time>2014-06-15T15:05:12Z</time>
      </trkpt>
      <trkpt lat="46.461548432707787" lon="6.975070629268885">
        <ele>1540.170000000000073</ele>
        <time>2014-06-15T15:05:13Z</time>
      </trkpt>
      <trkpt lat="46.461501074954867" lon="6.975096864625812">
        <ele>1539.690000000000055</ele>
        <time>2014-06-15T15:05:14Z</time>
      </trkpt>
      <trkpt lat="46.461460841819644" lon="6.975139612331986">
        <ele>1539.210000000000036</ele>
        <time>2014-06-15T15:05:15Z</time>
      </trkpt>
      <trkpt lat="46.46142203360796" lon="6.975186802446842">
        <ele>1538.730000000000018</ele>
        <time>2014-06-15T15:05:16Z</time>
      </trkpt>
      <trkpt lat="46.46137903444469" lon="6.975222006440163">
        <ele>1538.730000000000018</ele>
        <time>2014-06-15T15:05:17Z</time>
      </trkpt>
      <trkpt lat="46.461327988654375" lon="6.975237093865871">
        <ele>1538.25</ele>
        <time>2014-06-15T15:05:18Z</time>
      </trkpt>
      <trkpt lat="46.461278619244695" lon="6.975246649235487">
        <ele>1537.769999999999982</ele>
        <time>2014-06-15T15:05:19Z</time>
      </trkpt>
      <trkpt lat="46.461238637566566" lon="6.975271794945002">
        <ele>1537.289999999999964</ele>
        <time>2014-06-15T15:05:20Z</time>
      </trkpt>
      <trkpt lat="46.46120804361999" lon="6.975312028080225">
        <ele>1536.799999999999955</ele>
        <time>2014-06-15T15:05:21Z</time>
      </trkpt>
      <trkpt lat="46.461185244843364" lon="6.97536701336503">
        <ele>1536.319999999999936</ele>
        <time>2014-06-15T15:05:22Z</time>
      </trkpt>
      <trkpt lat="46.461163284257054" lon="6.975426692515612">
        <ele>1536.319999999999936</ele>
        <time>2014-06-15T15:05:23Z</time>
      </trkpt>
      <trkpt lat="46.461134869605303" lon="6.975482683628798">
        <ele>1535.839999999999918</ele>
        <time>2014-06-15T15:05:24Z</time>
      </trkpt>
      <trkpt lat="46.461102096363902" lon="6.975531047210097">
        <ele>1535.3599999999999</ele>
        <time>2014-06-15T15:05:25Z</time>
      </trkpt>
      <trkpt lat="46.461060605943203" lon="6.975565915927291">
        <ele>1534.880000000000109</ele>
        <time>2014-06-15T15:05:26Z</time>
      </trkpt>
      <trkpt lat="46.461009811609983" lon="6.975585613399744">
        <ele>1534.400000000000091</ele>
        <time>2014-06-15T15:05:27Z</time>
      </trkpt>
      <trkpt lat="46.460954993963242" lon="6.975599359720945">
        <ele>1534.400000000000091</ele>
        <time>2014-06-15T15:05:28Z</time>
      </trkpt>
      <trkpt lat="46.460836892947555" lon="6.975630288943648">
        <ele>1533.440000000000055</ele>
        <time>2014-06-15T15:05:30Z</time>
      </trkpt>
      <trkpt lat="46.460676966235042" lon="6.975681921467185">
        <ele>1532</ele>
        <time>2014-06-15T15:05:33Z</time>
      </trkpt>
      <trkpt lat="46.460633128881454" lon="6.975670102983713">
        <ele>1531.519999999999982</ele>
        <time>2014-06-15T15:05:34Z</time>
      </trkpt>
      <trkpt lat="46.460589794442058" lon="6.975644621998072">
        <ele>1531.039999999999964</ele>
        <time>2014-06-15T15:05:35Z</time>
      </trkpt>
      <trkpt lat="46.460545035079122" lon="6.975621236488223">
        <ele>1530.559999999999945</ele>
        <time>2014-06-15T15:05:36Z</time>
      </trkpt>
      <trkpt lat="46.460498180240393" lon="6.975613525137305">
        <ele>1529.589999999999918</ele>
        <time>2014-06-15T15:05:37Z</time>
      </trkpt>
      <trkpt lat="46.460449984297156" lon="6.975620146840811">
        <ele>1529.1099999999999</ele>
        <time>2014-06-15T15:05:38Z</time>
      </trkpt>
      <trkpt lat="46.460348730906844" lon="6.975626349449158">
        <ele>1528.630000000000109</ele>
        <time>2014-06-15T15:05:40Z</time>
      </trkpt>
      <trkpt lat="46.460297936573625" lon="6.975615955889225">
        <ele>1528.150000000000091</ele>
        <time>2014-06-15T15:05:41Z</time>
      </trkpt>
      <trkpt lat="46.460244879126549" lon="6.975613357499242">
        <ele>1528.150000000000091</ele>
        <time>2014-06-15T15:05:42Z</time>
      </trkpt>
      <trkpt lat="46.460188049823046" lon="6.975621236488223">
        <ele>1527.190000000000055</ele>
        <time>2014-06-15T15:05:43Z</time>
      </trkpt>
      <trkpt lat="46.460130633786321" lon="6.9756362400949">
        <ele>1526.710000000000036</ele>
        <time>2014-06-15T15:05:44Z</time>
      </trkpt>
      <trkpt lat="46.460075899958611" lon="6.975641688331962">
        <ele>1526.230000000000018</ele>
        <time>2014-06-15T15:05:45Z</time>
      </trkpt>
      <trkpt lat="46.460024937987328" lon="6.975642358884215">
        <ele>1525.75</ele>
        <time>2014-06-15T15:05:46Z</time>
      </trkpt>
      <trkpt lat="46.459980010986328" lon="6.975658619776368">
        <ele>1525.269999999999982</ele>
        <time>2014-06-15T15:05:47Z</time>
      </trkpt>
      <trkpt lat="46.459935838356614" lon="6.975691057741642">
        <ele>1524.789999999999964</ele>
        <time>2014-06-15T15:05:48Z</time>
      </trkpt>
      <trkpt lat="46.459896611049771" lon="6.975728943943977">
        <ele>1524.309999999999945</ele>
        <time>2014-06-15T15:05:49Z</time>
      </trkpt>
      <trkpt lat="46.459859814494848" lon="6.975760878995061">
        <ele>1523.829999999999927</ele>
        <time>2014-06-15T15:05:50Z</time>
      </trkpt>
      <trkpt lat="46.459819413721561" lon="6.975776720792055">
        <ele>1523.349999999999909</ele>
        <time>2014-06-15T15:05:51Z</time>
      </trkpt>
      <trkpt lat="46.45977633073926" lon="6.975770685821772">
        <ele>1522.869999999999891</ele>
        <time>2014-06-15T15:05:52Z</time>
      </trkpt>
      <trkpt lat="46.459735594689846" lon="6.975743696093559">
        <ele>1522.869999999999891</ele>
        <time>2014-06-15T15:05:53Z</time>
      </trkpt>
      <trkpt lat="46.459701983258128" lon="6.975702540948987">
        <ele>1522.3900000000001</ele>
        <time>2014-06-15T15:05:54Z</time>
      </trkpt>
      <trkpt lat="46.45967130549252" lon="6.975652752444148">
        <ele>1522.3900000000001</ele>
        <time>2014-06-15T15:05:55Z</time>
      </trkpt>
      <trkpt lat="46.459608441218734" lon="6.975590391084552">
        <ele>1521.420000000000073</ele>
        <time>2014-06-15T15:05:57Z</time>
      </trkpt>
      <trkpt lat="46.459577931091189" lon="6.975593827664852">
        <ele>1521.420000000000073</ele>
        <time>2014-06-15T15:05:58Z</time>
      </trkpt>
      <trkpt lat="46.459550773724914" lon="6.97561277076602">
        <ele>1520.940000000000055</ele>
        <time>2014-06-15T15:05:59Z</time>
      </trkpt>
      <trkpt lat="46.459526214748621" lon="6.975637832656503">
        <ele>1520.460000000000036</ele>
        <time>2014-06-15T15:06:00Z</time>
      </trkpt>
      <trkpt lat="46.45950173959136" lon="6.975661888718605">
        <ele>1520.460000000000036</ele>
        <time>2014-06-15T15:06:01Z</time>
      </trkpt>
      <trkpt lat="46.459474582225084" lon="6.975677562877536">
        <ele>1519.980000000000018</ele>
        <time>2014-06-15T15:06:02Z</time>
      </trkpt>
      <trkpt lat="46.459440300241113" lon="6.975687788799405">
        <ele>1519.5</ele>
        <time>2014-06-15T15:06:03Z</time>
      </trkpt>
      <trkpt lat="46.459291437640786" lon="6.975750233978033">
        <ele>1518.539999999999964</ele>
        <time>2014-06-15T15:06:07Z</time>
      </trkpt>
      <trkpt lat="46.459251455962658" lon="6.975736068561673">
        <ele>1518.539999999999964</ele>
        <time>2014-06-15T15:06:08Z</time>
      </trkpt>
      <trkpt lat="46.459213402122259" lon="6.975710503757">
        <ele>1518.539999999999964</ele>
        <time>2014-06-15T15:06:09Z</time>
      </trkpt>
      <trkpt lat="46.45913427695632" lon="6.975648393854499">
        <ele>1518.059999999999945</ele>
        <time>2014-06-15T15:06:11Z</time>
      </trkpt>
      <trkpt lat="46.459093373268843" lon="6.975630708038807">
        <ele>1517.579999999999927</ele>
        <time>2014-06-15T15:06:12Z</time>
      </trkpt>
      <trkpt lat="46.459051799029112" lon="6.975634731352329">
        <ele>1517.579999999999927</ele>
        <time>2014-06-15T15:06:13Z</time>
      </trkpt>
      <trkpt lat="46.459009721875191" lon="6.975654345005751">
        <ele>1517.099999999999909</ele>
        <time>2014-06-15T15:06:14Z</time>
      </trkpt>
      <trkpt lat="46.458963872864842" lon="6.975669264793396">
        <ele>1516.619999999999891</ele>
        <time>2014-06-15T15:06:15Z</time>
      </trkpt>
      <trkpt lat="46.458913246169686" lon="6.975673623383045">
        <ele>1516.1400000000001</ele>
        <time>2014-06-15T15:06:16Z</time>
      </trkpt>
      <trkpt lat="46.458859769627452" lon="6.97568217292428">
        <ele>1516.1400000000001</ele>
        <time>2014-06-15T15:06:17Z</time>
      </trkpt>
      <trkpt lat="46.458803359419107" lon="6.975703714415431">
        <ele>1515.660000000000082</ele>
        <time>2014-06-15T15:06:18Z</time>
      </trkpt>
      <trkpt lat="46.458746362477541" lon="6.975731709972024">
        <ele>1515.180000000000064</ele>
        <time>2014-06-15T15:06:19Z</time>
      </trkpt>
      <trkpt lat="46.45868718624115" lon="6.975759118795395">
        <ele>1514.210000000000036</ele>
        <time>2014-06-15T15:06:20Z</time>
      </trkpt>
      <trkpt lat="46.458625746890903" lon="6.975776050239801">
        <ele>1513.730000000000018</ele>
        <time>2014-06-15T15:06:21Z</time>
      </trkpt>
      <trkpt lat="46.458562798798084" lon="6.975782252848148">
        <ele>1513.25</ele>
        <time>2014-06-15T15:06:22Z</time>
      </trkpt>
      <trkpt lat="46.458500940352678" lon="6.975771943107247">
        <ele>1512.769999999999982</ele>
        <time>2014-06-15T15:06:23Z</time>
      </trkpt>
      <trkpt lat="46.458441009745002" lon="6.975748473778367">
        <ele>1512.289999999999964</ele>
        <time>2014-06-15T15:06:24Z</time>
      </trkpt>
      <trkpt lat="46.458389041945338" lon="6.97571586817503">
        <ele>1511.809999999999945</ele>
        <time>2014-06-15T15:06:25Z</time>
      </trkpt>
      <trkpt lat="46.45834369584918" lon="6.97567387484014">
        <ele>1511.329999999999927</ele>
        <time>2014-06-15T15:06:26Z</time>
      </trkpt>
      <trkpt lat="46.458300445228815" lon="6.975628780201077">
        <ele>1511.329999999999927</ele>
        <time>2014-06-15T15:06:27Z</time>
      </trkpt>
      <trkpt lat="46.458257110789418" lon="6.975596845149994">
        <ele>1510.849999999999909</ele>
        <time>2014-06-15T15:06:28Z</time>
      </trkpt>
      <trkpt lat="46.458212770521641" lon="6.975582679733634">
        <ele>1510.369999999999891</ele>
        <time>2014-06-15T15:06:29Z</time>
      </trkpt>
      <trkpt lat="46.458165664225817" lon="6.9755844399333">
        <ele>1509.8900000000001</ele>
        <time>2014-06-15T15:06:30Z</time>
      </trkpt>
      <trkpt lat="46.458117384463549" lon="6.975602544844151">
        <ele>1509.410000000000082</ele>
        <time>2014-06-15T15:06:31Z</time>
      </trkpt>
      <trkpt lat="46.4580680988729" lon="6.975629786029458">
        <ele>1508.930000000000064</ele>
        <time>2014-06-15T15:06:32Z</time>
      </trkpt>
      <trkpt lat="46.458019064739347" lon="6.975655434653163">
        <ele>1507.970000000000027</ele>
        <time>2014-06-15T15:06:33Z</time>
      </trkpt>
      <trkpt lat="46.457969192415476" lon="6.975672533735633">
        <ele>1507.480000000000018</ele>
        <time>2014-06-15T15:06:34Z</time>
      </trkpt>
      <trkpt lat="46.457861065864563" lon="6.975691057741642">
        <ele>1506.519999999999982</ele>
        <time>2014-06-15T15:06:36Z</time>
      </trkpt>
      <trkpt lat="46.457751849666238" lon="6.975721903145313">
        <ele>1505.559999999999945</ele>
        <time>2014-06-15T15:06:39Z</time>
      </trkpt>
      <trkpt lat="46.45773240365088" lon="6.975757358595729">
        <ele>1505.559999999999945</ele>
        <time>2014-06-15T15:06:40Z</time>
      </trkpt>
      <trkpt lat="46.457711448892951" lon="6.97579993866384">
        <ele>1505.559999999999945</ele>
        <time>2014-06-15T15:06:41Z</time>
      </trkpt>
      <trkpt lat="46.457652943208814" lon="6.975895408540964">
        <ele>1505.079999999999927</ele>
        <time>2014-06-15T15:06:43Z</time>
      </trkpt>
      <trkpt lat="46.457615224644542" lon="6.975930109620094">
        <ele>1505.079999999999927</ele>
        <time>2014-06-15T15:06:44Z</time>
      </trkpt>
      <trkpt lat="46.457576919347048" lon="6.975950477644801">
        <ele>1504.599999999999909</ele>
        <time>2014-06-15T15:06:45Z</time>
      </trkpt>
      <trkpt lat="46.457536015659571" lon="6.975954920053482">
        <ele>1504.119999999999891</ele>
        <time>2014-06-15T15:06:46Z</time>
      </trkpt>
      <trkpt lat="46.45749150775373" lon="6.975940503180027">
        <ele>1504.119999999999891</ele>
        <time>2014-06-15T15:06:47Z</time>
      </trkpt>
      <trkpt lat="46.457446748390794" lon="6.975911669433117">
        <ele>1503.6400000000001</ele>
        <time>2014-06-15T15:06:48Z</time>
      </trkpt>
      <trkpt lat="46.457399390637875" lon="6.975873950868845">
        <ele>1503.6400000000001</ele>
        <time>2014-06-15T15:06:49Z</time>
      </trkpt>
      <trkpt lat="46.457346333190799" lon="6.975836232304573">
        <ele>1503.160000000000082</ele>
        <time>2014-06-15T15:06:50Z</time>
      </trkpt>
      <trkpt lat="46.457285899668932" lon="6.975816786289215">
        <ele>1502.680000000000064</ele>
        <time>2014-06-15T15:06:51Z</time>
      </trkpt>
      <trkpt lat="46.457222616299987" lon="6.975806644186378">
        <ele>1501.720000000000027</ele>
        <time>2014-06-15T15:06:52Z</time>
      </trkpt>
      <trkpt lat="46.457165954634547" lon="6.975796753540635">
        <ele>1501.240000000000009</ele>
        <time>2014-06-15T15:06:53Z</time>
      </trkpt>
      <trkpt lat="46.457118261605501" lon="6.975787952542305">
        <ele>1500.759999999999991</ele>
        <time>2014-06-15T15:06:54Z</time>
      </trkpt>
      <trkpt lat="46.457077022641897" lon="6.975759202614427">
        <ele>1500.269999999999982</ele>
        <time>2014-06-15T15:06:55Z</time>
      </trkpt>
      <trkpt lat="46.457045339047909" lon="6.975709917023778">
        <ele>1500.269999999999982</ele>
        <time>2014-06-15T15:06:56Z</time>
      </trkpt>
      <trkpt lat="46.45701952278614" lon="6.975650154054165">
        <ele>1499.789999999999964</ele>
        <time>2014-06-15T15:06:57Z</time>
      </trkpt>
      <trkpt lat="46.456960681825876" lon="6.975523671135306">
        <ele>1498.829999999999927</ele>
        <time>2014-06-15T15:06:59Z</time>
      </trkpt>
      <trkpt lat="46.456922711804509" lon="6.975476983934641">
        <ele>1498.349999999999909</ele>
        <time>2014-06-15T15:07:00Z</time>
      </trkpt>
      <trkpt lat="46.456877533346415" lon="6.975434487685561">
        <ele>1497.869999999999891</ele>
        <time>2014-06-15T15:07:01Z</time>
      </trkpt>
      <trkpt lat="46.456826655194163" lon="6.975399032235146">
        <ele>1497.3900000000001</ele>
        <time>2014-06-15T15:07:02Z</time>
      </trkpt>
      <trkpt lat="46.456769909709692" lon="6.975369527935982">
        <ele>1496.910000000000082</ele>
        <time>2014-06-15T15:07:03Z</time>
      </trkpt>
      <trkpt lat="46.456710146740079" lon="6.975346729159355">
        <ele>1496.430000000000064</ele>
        <time>2014-06-15T15:07:04Z</time>
      </trkpt>
      <trkpt lat="46.456529181450605" lon="6.975273555144668">
        <ele>1494.990000000000009</ele>
        <time>2014-06-15T15:07:07Z</time>
      </trkpt>
      <trkpt lat="46.45647662691772" lon="6.975246900692582">
        <ele>1494.509999999999991</ele>
        <time>2014-06-15T15:07:08Z</time>
      </trkpt>
      <trkpt lat="46.456423569470644" lon="6.975240865722299">
        <ele>1494.029999999999973</ele>
        <time>2014-06-15T15:07:09Z</time>
      </trkpt>
      <trkpt lat="46.456369338557124" lon="6.975253857672215">
        <ele>1493.549999999999955</ele>
        <time>2014-06-15T15:07:10Z</time>
      </trkpt>
      <trkpt lat="46.456313766539097" lon="6.975272968411446">
        <ele>1493.059999999999945</ele>
        <time>2014-06-15T15:07:11Z</time>
      </trkpt>
      <trkpt lat="46.456195833161473" lon="6.975309178233147">
        <ele>1492.099999999999909</ele>
        <time>2014-06-15T15:07:13Z</time>
      </trkpt>
      <trkpt lat="46.456071697175503" lon="6.975329294800758">
        <ele>1491.619999999999891</ele>
        <time>2014-06-15T15:07:15Z</time>
      </trkpt>
      <trkpt lat="46.456009671092033" lon="6.97534354403615">
        <ele>1491.1400000000001</ele>
        <time>2014-06-15T15:07:16Z</time>
      </trkpt>
      <trkpt lat="46.455894419923425" lon="6.975358631461859">
        <ele>1490.180000000000064</ele>
        <time>2014-06-15T15:07:18Z</time>
      </trkpt>
      <trkpt lat="46.455838596448302" lon="6.975341700017452">
        <ele>1489.700000000000045</ele>
        <time>2014-06-15T15:07:19Z</time>
      </trkpt>
      <trkpt lat="46.455783359706402" lon="6.975309010595083">
        <ele>1489.220000000000027</ele>
        <time>2014-06-15T15:07:20Z</time>
      </trkpt>
      <trkpt lat="46.45573197863996" lon="6.975278668105602">
        <ele>1488.740000000000009</ele>
        <time>2014-06-15T15:07:21Z</time>
      </trkpt>
      <trkpt lat="46.45568210631609" lon="6.975271878764033">
        <ele>1488.259999999999991</ele>
        <time>2014-06-15T15:07:22Z</time>
      </trkpt>
      <trkpt lat="46.455629719421268" lon="6.975285960361362">
        <ele>1487.779999999999973</ele>
        <time>2014-06-15T15:07:23Z</time>
      </trkpt>
      <trkpt lat="46.455572219565511" lon="6.975311357527971">
        <ele>1487.299999999999955</ele>
        <time>2014-06-15T15:07:24Z</time>
      </trkpt>
      <trkpt lat="46.455419920384884" lon="6.975361732766032">
        <ele>1485.369999999999891</ele>
        <time>2014-06-15T15:07:27Z</time>
      </trkpt>
      <trkpt lat="46.455378932878375" lon="6.97534941136837">
        <ele>1484.8900000000001</ele>
        <time>2014-06-15T15:07:28Z</time>
      </trkpt>
      <trkpt lat="46.455339370295405" lon="6.975318565964699">
        <ele>1484.410000000000082</ele>
        <time>2014-06-15T15:07:29Z</time>
      </trkpt>
      <trkpt lat="46.455206433311105" lon="6.975187221542001">
        <ele>1483.450000000000045</ele>
        <time>2014-06-15T15:07:32Z</time>
      </trkpt>
      <trkpt lat="46.455094367265701" lon="6.975099295377731">
        <ele>1482.009999999999991</ele>
        <time>2014-06-15T15:07:34Z</time>
      </trkpt>
      <trkpt lat="46.455043572932482" lon="6.975041711702943">
        <ele>1482.009999999999991</ele>
        <time>2014-06-15T15:07:35Z</time>
      </trkpt>
      <trkpt lat="46.454999484121799" lon="6.974973566830158">
        <ele>1481.529999999999973</ele>
        <time>2014-06-15T15:07:36Z</time>
      </trkpt>
      <trkpt lat="46.454953467473388" lon="6.97489938698709">
        <ele>1481.049999999999955</ele>
        <time>2014-06-15T15:07:37Z</time>
      </trkpt>
      <trkpt lat="46.454900577664375" lon="6.974833002313972">
        <ele>1480.569999999999936</ele>
        <time>2014-06-15T15:07:38Z</time>
      </trkpt>
      <trkpt lat="46.454846179112792" lon="6.974774077534676">
        <ele>1480.089999999999918</ele>
        <time>2014-06-15T15:07:39Z</time>
      </trkpt>
      <trkpt lat="46.454798402264714" lon="6.974710039794445">
        <ele>1479.6099999999999</ele>
        <time>2014-06-15T15:07:40Z</time>
      </trkpt>
      <trkpt lat="46.454720702022314" lon="6.974567715078592">
        <ele>1479.130000000000109</ele>
        <time>2014-06-15T15:07:42Z</time>
      </trkpt>
      <trkpt lat="46.454694466665387" lon="6.974496133625507">
        <ele>1478.650000000000091</ele>
        <time>2014-06-15T15:07:43Z</time>
      </trkpt>
      <trkpt lat="46.454655071720481" lon="6.974355820566416">
        <ele>1477.680000000000064</ele>
        <time>2014-06-15T15:07:45Z</time>
      </trkpt>
      <trkpt lat="46.454626405611634" lon="6.974292621016502">
        <ele>1477.200000000000045</ele>
        <time>2014-06-15T15:07:46Z</time>
      </trkpt>
      <trkpt lat="46.454581897705793" lon="6.97423679754138">
        <ele>1476.720000000000027</ele>
        <time>2014-06-15T15:07:47Z</time>
      </trkpt>
      <trkpt lat="46.454527750611305" lon="6.974194971844554">
        <ele>1476.240000000000009</ele>
        <time>2014-06-15T15:07:48Z</time>
      </trkpt>
      <trkpt lat="46.454471340402961" lon="6.974157840013504">
        <ele>1475.759999999999991</ele>
        <time>2014-06-15T15:07:49Z</time>
      </trkpt>
      <trkpt lat="46.454417193308473" lon="6.97411073371768">
        <ele>1475.279999999999973</ele>
        <time>2014-06-15T15:07:50Z</time>
      </trkpt>
      <trkpt lat="46.45437017083168" lon="6.974051641300321">
        <ele>1475.279999999999973</ele>
        <time>2014-06-15T15:07:51Z</time>
      </trkpt>
      <trkpt lat="46.454333793371916" lon="6.973985424265265">
        <ele>1474.799999999999955</ele>
        <time>2014-06-15T15:07:52Z</time>
      </trkpt>
      <trkpt lat="46.454301103949547" lon="6.973910238593817">
        <ele>1474.319999999999936</ele>
        <time>2014-06-15T15:07:53Z</time>
      </trkpt>
      <trkpt lat="46.454273862764239" lon="6.973827425390482">
        <ele>1473.839999999999918</ele>
        <time>2014-06-15T15:07:54Z</time>
      </trkpt>
      <trkpt lat="46.4542465377599" lon="6.973745450377464">
        <ele>1473.839999999999918</ele>
        <time>2014-06-15T15:07:55Z</time>
      </trkpt>
      <trkpt lat="46.454211669042706" lon="6.973654674366117">
        <ele>1472.880000000000109</ele>
        <time>2014-06-15T15:07:56Z</time>
      </trkpt>
      <trkpt lat="46.454173866659403" lon="6.973566580563784">
        <ele>1472.400000000000091</ele>
        <time>2014-06-15T15:07:57Z</time>
      </trkpt>
      <trkpt lat="46.453905813395977" lon="6.973067605867982">
        <ele>1469.990000000000009</ele>
        <time>2014-06-15T15:08:06Z</time>
      </trkpt>
      <trkpt lat="46.453725853934884" lon="6.972856381908059">
        <ele>1469.990000000000009</ele>
        <time>2014-06-15T15:08:15Z</time>
      </trkpt>
      <trkpt lat="46.453709760680795" lon="6.972838612273335">
        <ele>1469.990000000000009</ele>
        <time>2014-06-15T15:08:17Z</time>
      </trkpt>
      <trkpt lat="46.453701965510845" lon="6.972822099924088">
        <ele>1469.990000000000009</ele>
        <time>2014-06-15T15:08:18Z</time>
      </trkpt>
      <trkpt lat="46.453690230846405" lon="6.972809275612235">
        <ele>1469.990000000000009</ele>
        <time>2014-06-15T15:08:19Z</time>
      </trkpt>
      <trkpt lat="46.45367531105876" lon="6.972808102145791">
        <ele>1469.509999999999991</ele>
        <time>2014-06-15T15:08:20Z</time>
      </trkpt>
      <trkpt lat="46.453667683526874" lon="6.972819585353136">
        <ele>1469.509999999999991</ele>
        <time>2014-06-15T15:08:21Z</time>
      </trkpt>
      <trkpt lat="46.453658044338226" lon="6.972824027761817">
        <ele>1469.509999999999991</ele>
        <time>2014-06-15T15:08:22Z</time>
      </trkpt>
      <trkpt lat="46.453644717112184" lon="6.972823524847627">
        <ele>1469.509999999999991</ele>
        <time>2014-06-15T15:08:23Z</time>
      </trkpt>
      <trkpt lat="46.453627031296492" lon="6.97282268665731">
        <ele>1469.509999999999991</ele>
        <time>2014-06-15T15:08:24Z</time>
      </trkpt>
      <trkpt lat="46.453607669100165" lon="6.972818663343787">
        <ele>1469.509999999999991</ele>
        <time>2014-06-15T15:08:25Z</time>
      </trkpt>
      <trkpt lat="46.453589564189315" lon="6.972816484048963">
        <ele>1469.990000000000009</ele>
        <time>2014-06-15T15:08:26Z</time>
      </trkpt>
      <trkpt lat="46.45357271656394" lon="6.97281832806766">
        <ele>1469.990000000000009</ele>
        <time>2014-06-15T15:08:27Z</time>
      </trkpt>
      <trkpt lat="46.453555785119534" lon="6.972820004448295">
        <ele>1469.990000000000009</ele>
        <time>2014-06-15T15:08:28Z</time>
      </trkpt>
      <trkpt lat="46.45353558473289" lon="6.972817070782185">
        <ele>1469.990000000000009</ele>
        <time>2014-06-15T15:08:29Z</time>
      </trkpt>
      <trkpt lat="46.453524185344577" lon="6.972814556211233">
        <ele>1469.990000000000009</ele>
        <time>2014-06-15T15:08:30Z</time>
      </trkpt>
      <trkpt lat="46.453510522842407" lon="6.972812796011567">
        <ele>1469.990000000000009</ele>
        <time>2014-06-15T15:08:31Z</time>
      </trkpt>
      <trkpt lat="46.453361660242081" lon="6.972933998331428">
        <ele>1469.509999999999991</ele>
        <time>2014-06-15T15:08:45Z</time>
      </trkpt>
      <trkpt lat="46.453189495950937" lon="6.973091997206211">
        <ele>1472.880000000000109</ele>
        <time>2014-06-15T15:08:59Z</time>
      </trkpt>
      <trkpt lat="46.453106263652444" lon="6.973137678578496">
        <ele>1474.319999999999936</ele>
        <time>2014-06-15T15:09:05Z</time>
      </trkpt>
      <trkpt lat="46.453006099909544" lon="6.973164081573486">
        <ele>1477.200000000000045</ele>
        <time>2014-06-15T15:09:11Z</time>
      </trkpt>
      <trkpt lat="46.45292672328651" lon="6.973224682733417">
        <ele>1479.6099999999999</ele>
        <time>2014-06-15T15:09:17Z</time>
      </trkpt>
      <trkpt lat="46.452915742993355" lon="6.973233399912715">
        <ele>1479.6099999999999</ele>
        <time>2014-06-15T15:09:18Z</time>
      </trkpt>
      <trkpt lat="46.452904595062137" lon="6.973244966939092">
        <ele>1480.089999999999918</ele>
        <time>2014-06-15T15:09:19Z</time>
      </trkpt>
      <trkpt lat="46.452893195673823" lon="6.973258797079325">
        <ele>1480.569999999999936</ele>
        <time>2014-06-15T15:09:20Z</time>
      </trkpt>
      <trkpt lat="46.452884394675493" lon="6.973275896161795">
        <ele>1480.569999999999936</ele>
        <time>2014-06-15T15:09:21Z</time>
      </trkpt>
      <trkpt lat="46.452875090762973" lon="6.973291737958789">
        <ele>1481.049999999999955</ele>
        <time>2014-06-15T15:09:22Z</time>
      </trkpt>
      <trkpt lat="46.452863942831755" lon="6.973303724080324">
        <ele>1481.049999999999955</ele>
        <time>2014-06-15T15:09:23Z</time>
      </trkpt>
      <trkpt lat="46.452631177380681" lon="6.973529029637575">
        <ele>1487.779999999999973</ele>
        <time>2014-06-15T15:09:41Z</time>
      </trkpt>
      <trkpt lat="46.452489523217082" lon="6.97370714507997">
        <ele>1490.180000000000064</ele>
        <time>2014-06-15T15:09:54Z</time>
      </trkpt>
      <trkpt lat="46.452441075816751" lon="6.973774116486311">
        <ele>1491.1400000000001</ele>
        <time>2014-06-15T15:09:59Z</time>
      </trkpt>
      <trkpt lat="46.452434035018086" lon="6.973792053759098">
        <ele>1491.1400000000001</ele>
        <time>2014-06-15T15:10:00Z</time>
      </trkpt>
      <trkpt lat="46.452424479648471" lon="6.973809655755758">
        <ele>1491.1400000000001</ele>
        <time>2014-06-15T15:10:01Z</time>
      </trkpt>
      <trkpt lat="46.452314257621765" lon="6.974166641011834">
        <ele>1492.579999999999927</ele>
        <time>2014-06-15T15:10:21Z</time>
      </trkpt>
      <trkpt lat="46.4522934705019" lon="6.97450895793736">
        <ele>1494.990000000000009</ele>
        <time>2014-06-15T15:10:39Z</time>
      </trkpt>
      <trkpt lat="46.452286848798394" lon="6.974683133885264">
        <ele>1496.910000000000082</ele>
        <time>2014-06-15T15:10:48Z</time>
      </trkpt>
      <trkpt lat="46.452278383076191" lon="6.974700400605798">
        <ele>1496.910000000000082</ele>
        <time>2014-06-15T15:10:49Z</time>
      </trkpt>
      <trkpt lat="46.452272096648812" lon="6.974718840792775">
        <ele>1496.910000000000082</ele>
        <time>2014-06-15T15:10:50Z</time>
      </trkpt>
      <trkpt lat="46.452266983687878" lon="6.974737448617816">
        <ele>1496.910000000000082</ele>
        <time>2014-06-15T15:10:51Z</time>
      </trkpt>
      <trkpt lat="46.45226220600307" lon="6.974756559357047">
        <ele>1497.3900000000001</ele>
        <time>2014-06-15T15:10:52Z</time>
      </trkpt>
      <trkpt lat="46.452257595956326" lon="6.974775586277246">
        <ele>1497.3900000000001</ele>
        <time>2014-06-15T15:10:53Z</time>
      </trkpt>
      <trkpt lat="46.452191211283207" lon="6.975053865462542">
        <ele>1500.269999999999982</ele>
        <time>2014-06-15T15:11:08Z</time>
      </trkpt>
      <trkpt lat="46.452136812731624" lon="6.975308256223798">
        <ele>1502.200000000000045</ele>
        <time>2014-06-15T15:11:22Z</time>
      </trkpt>
      <trkpt lat="46.45213320851326" lon="6.975323678925633">
        <ele>1502.200000000000045</ele>
        <time>2014-06-15T15:11:23Z</time>
      </trkpt>
      <trkpt lat="46.452121809124947" lon="6.975330300629139">
        <ele>1502.680000000000064</ele>
        <time>2014-06-15T15:11:33Z</time>
      </trkpt>
      <trkpt lat="46.452141590416431" lon="6.975309010595083">
        <ele>1501.720000000000027</ele>
        <time>2014-06-15T15:11:57Z</time>
      </trkpt>
      <trkpt lat="46.452131615951657" lon="6.975313620641828">
        <ele>1502.200000000000045</ele>
        <time>2014-06-15T15:12:23Z</time>
      </trkpt>
      <trkpt lat="46.452120468020439" lon="6.975317979231477">
        <ele>1504.119999999999891</ele>
        <time>2014-06-15T15:12:47Z</time>
      </trkpt>
      <trkpt lat="46.452116025611758" lon="6.975320912897587">
        <ele>1504.119999999999891</ele>
        <time>2014-06-15T15:13:21Z</time>
      </trkpt>
      <trkpt lat="46.452095741406083" lon="6.975314375013113">
        <ele>1506.519999999999982</ele>
        <time>2014-06-15T15:13:53Z</time>
      </trkpt>
      <trkpt lat="46.452115941792727" lon="6.975307920947671">
        <ele>1503.6400000000001</ele>
        <time>2014-06-15T15:14:15Z</time>
      </trkpt>
      <trkpt lat="46.452127173542976" lon="6.975323259830475">
        <ele>1502.680000000000064</ele>
        <time>2014-06-15T15:14:41Z</time>
      </trkpt>
      <trkpt lat="46.452129939571023" lon="6.975360810756683">
        <ele>1502.680000000000064</ele>
        <time>2014-06-15T15:14:49Z</time>
      </trkpt>
      <trkpt lat="46.452137483283877" lon="6.975378412753344">
        <ele>1503.160000000000082</ele>
        <time>2014-06-15T15:14:50Z</time>
      </trkpt>
      <trkpt lat="46.452143434435129" lon="6.97539584711194">
        <ele>1503.6400000000001</ele>
        <time>2014-06-15T15:14:51Z</time>
      </trkpt>
      <trkpt lat="46.452141003683209" lon="6.975414622575045">
        <ele>1503.160000000000082</ele>
        <time>2014-06-15T15:14:52Z</time>
      </trkpt>
      <trkpt lat="46.452131615951657" lon="6.975430715829134">
        <ele>1503.6400000000001</ele>
        <time>2014-06-15T15:14:53Z</time>
      </trkpt>
      <trkpt lat="46.452120803296566" lon="6.975447814911604">
        <ele>1503.6400000000001</ele>
        <time>2014-06-15T15:14:54Z</time>
      </trkpt>
      <trkpt lat="46.452112002298236" lon="6.975468266755342">
        <ele>1503.6400000000001</ele>
        <time>2014-06-15T15:14:55Z</time>
      </trkpt>
      <trkpt lat="46.45210680551827" lon="6.975490730255842">
        <ele>1504.119999999999891</ele>
        <time>2014-06-15T15:14:56Z</time>
      </trkpt>
      <trkpt lat="46.452103201299906" lon="6.975511768832803">
        <ele>1504.119999999999891</ele>
        <time>2014-06-15T15:14:57Z</time>
      </trkpt>
      <trkpt lat="46.452099597081542" lon="6.975532472133636">
        <ele>1504.119999999999891</ele>
        <time>2014-06-15T15:14:58Z</time>
      </trkpt>
      <trkpt lat="46.452094903215766" lon="6.975553594529629">
        <ele>1504.599999999999909</ele>
        <time>2014-06-15T15:14:59Z</time>
      </trkpt>
      <trkpt lat="46.452088616788387" lon="6.975574884563684">
        <ele>1504.599999999999909</ele>
        <time>2014-06-15T15:15:00Z</time>
      </trkpt>
      <trkpt lat="46.452084006741643" lon="6.975597934797406">
        <ele>1504.599999999999909</ele>
        <time>2014-06-15T15:15:01Z</time>
      </trkpt>
      <trkpt lat="46.452079396694899" lon="6.975620565935969">
        <ele>1504.599999999999909</ele>
        <time>2014-06-15T15:15:02Z</time>
      </trkpt>
      <trkpt lat="46.452077720314264" lon="6.975643364712596">
        <ele>1505.079999999999927</ele>
        <time>2014-06-15T15:15:03Z</time>
      </trkpt>
      <trkpt lat="46.452075373381376" lon="6.975664990022779">
        <ele>1505.079999999999927</ele>
        <time>2014-06-15T15:15:04Z</time>
      </trkpt>
      <trkpt lat="46.452069841325283" lon="6.975685944780707">
        <ele>1505.559999999999945</ele>
        <time>2014-06-15T15:15:05Z</time>
      </trkpt>
      <trkpt lat="46.451982837170362" lon="6.976004960015416">
        <ele>1507.480000000000018</ele>
        <time>2014-06-15T15:15:20Z</time>
      </trkpt>
      <trkpt lat="46.45194947719574" lon="6.976112332195044">
        <ele>1507.970000000000027</ele>
        <time>2014-06-15T15:15:25Z</time>
      </trkpt>
      <trkpt lat="46.451847553253174" lon="6.976445429027081">
        <ele>1509.8900000000001</ele>
        <time>2014-06-15T15:15:39Z</time>
      </trkpt>
      <trkpt lat="46.451754597947001" lon="6.97682018391788">
        <ele>1511.809999999999945</ele>
        <time>2014-06-15T15:15:55Z</time>
      </trkpt>
      <trkpt lat="46.451745294034481" lon="6.976855052635074">
        <ele>1511.809999999999945</ele>
        <time>2014-06-15T15:15:57Z</time>
      </trkpt>
      <trkpt lat="46.451730877161026" lon="6.976863099262118">
        <ele>1511.809999999999945</ele>
        <time>2014-06-15T15:15:58Z</time>
      </trkpt>
      <trkpt lat="46.45170271396637" lon="6.976806605234742">
        <ele>1511.329999999999927</ele>
        <time>2014-06-15T15:16:05Z</time>
      </trkpt>
      <trkpt lat="46.451679999008775" lon="6.976588172838092">
        <ele>1510.369999999999891</ele>
        <time>2014-06-15T15:16:19Z</time>
      </trkpt>
      <trkpt lat="46.451590396463871" lon="6.976223727688193">
        <ele>1508.930000000000064</ele>
        <time>2014-06-15T15:16:30Z</time>
      </trkpt>
      <trkpt lat="46.451591486111283" lon="6.976213501766324">
        <ele>1509.410000000000082</ele>
        <time>2014-06-15T15:16:49Z</time>
      </trkpt>
      <trkpt lat="46.451593581587076" lon="6.976211993023753">
        <ele>1509.410000000000082</ele>
        <time>2014-06-15T15:17:18Z</time>
      </trkpt>
      <trkpt lat="46.451519737020135" lon="6.975968834012747">
        <ele>1509.8900000000001</ele>
        <time>2014-06-15T15:17:36Z</time>
      </trkpt>
      <trkpt lat="46.451341705396771" lon="6.975215384736657">
        <ele>1510.369999999999891</ele>
        <time>2014-06-15T15:17:51Z</time>
      </trkpt>
      <trkpt lat="46.451253527775407" lon="6.974862590432167">
        <ele>1510.849999999999909</ele>
        <time>2014-06-15T15:17:58Z</time>
      </trkpt>
      <trkpt lat="46.451222850009799" lon="6.974681373685598">
        <ele>1510.369999999999891</ele>
        <time>2014-06-15T15:18:01Z</time>
      </trkpt>
      <trkpt lat="46.45122092217207" lon="6.974613899365067">
        <ele>1510.369999999999891</ele>
        <time>2014-06-15T15:18:02Z</time>
      </trkpt>
      <trkpt lat="46.451216982677579" lon="6.974337799474597">
        <ele>1509.410000000000082</ele>
        <time>2014-06-15T15:18:06Z</time>
      </trkpt>
      <trkpt lat="46.451160488650203" lon="6.974027836695313">
        <ele>1508.930000000000064</ele>
        <time>2014-06-15T15:18:11Z</time>
      </trkpt>
      <trkpt lat="46.45113886334002" lon="6.973977126181126">
        <ele>1508.450000000000045</ele>
        <time>2014-06-15T15:18:12Z</time>
      </trkpt>
      <trkpt lat="46.451111035421491" lon="6.973928594961762">
        <ele>1508.450000000000045</ele>
        <time>2014-06-15T15:18:13Z</time>
      </trkpt>
      <trkpt lat="46.451082117855549" lon="6.973889200016856">
        <ele>1508.450000000000045</ele>
        <time>2014-06-15T15:18:14Z</time>
      </trkpt>
      <trkpt lat="46.451046327129006" lon="6.973849888890982">
        <ele>1508.450000000000045</ele>
        <time>2014-06-15T15:18:15Z</time>
      </trkpt>
      <trkpt lat="46.451007854193449" lon="6.973813679069281">
        <ele>1508.450000000000045</ele>
        <time>2014-06-15T15:18:16Z</time>
      </trkpt>
      <trkpt lat="46.450969213619828" lon="6.973782414570451">
        <ele>1508.450000000000045</ele>
        <time>2014-06-15T15:18:17Z</time>
      </trkpt>
      <trkpt lat="46.450930656865239" lon="6.973757017403841">
        <ele>1507.970000000000027</ele>
        <time>2014-06-15T15:18:18Z</time>
      </trkpt>
      <trkpt lat="46.450894363224506" lon="6.973735643550754">
        <ele>1508.450000000000045</ele>
        <time>2014-06-15T15:18:19Z</time>
      </trkpt>
      <trkpt lat="46.450743237510324" lon="6.973677054047585">
        <ele>1507.970000000000027</ele>
        <time>2014-06-15T15:18:28Z</time>
      </trkpt>
      <trkpt lat="46.450680373236537" lon="6.973647717386484">
        <ele>1507</ele>
        <time>2014-06-15T15:18:42Z</time>
      </trkpt>
      <trkpt lat="46.450402764603496" lon="6.973371282219887">
        <ele>1505.559999999999945</ele>
        <time>2014-06-15T15:18:52Z</time>
      </trkpt>
      <trkpt lat="46.450373763218522" lon="6.973327863961458">
        <ele>1505.079999999999927</ele>
        <time>2014-06-15T15:18:53Z</time>
      </trkpt>
      <trkpt lat="46.450343336910009" lon="6.9732825178653">
        <ele>1505.079999999999927</ele>
        <time>2014-06-15T15:18:54Z</time>
      </trkpt>
      <trkpt lat="46.45031064748764" lon="6.973239351063967">
        <ele>1504.599999999999909</ele>
        <time>2014-06-15T15:18:55Z</time>
      </trkpt>
      <trkpt lat="46.449964474886656" lon="6.97301329113543">
        <ele>1503.160000000000082</ele>
        <time>2014-06-15T15:19:05Z</time>
      </trkpt>
      <trkpt lat="46.44963288679719" lon="6.972893765196204">
        <ele>1500.759999999999991</ele>
        <time>2014-06-15T15:19:14Z</time>
      </trkpt>
      <trkpt lat="46.449591815471649" lon="6.972883623093367">
        <ele>1500.269999999999982</ele>
        <time>2014-06-15T15:19:15Z</time>
      </trkpt>
      <trkpt lat="46.449502883478999" lon="6.972864847630262">
        <ele>1500.269999999999982</ele>
        <time>2014-06-15T15:19:17Z</time>
      </trkpt>
      <trkpt lat="46.449163919314742" lon="6.972747333347797">
        <ele>1501.720000000000027</ele>
        <time>2014-06-15T15:19:29Z</time>
      </trkpt>
      <trkpt lat="46.449140952900052" lon="6.972739119082689">
        <ele>1502.200000000000045</ele>
        <time>2014-06-15T15:19:31Z</time>
      </trkpt>
      <trkpt lat="46.449128212407231" lon="6.972735766321421">
        <ele>1502.200000000000045</ele>
        <time>2014-06-15T15:19:32Z</time>
      </trkpt>
      <trkpt lat="46.449153525754809" lon="6.972728641703725">
        <ele>1503.6400000000001</ele>
        <time>2014-06-15T15:19:42Z</time>
      </trkpt>
      <trkpt lat="46.449177749454975" lon="6.97273232974112">
        <ele>1503.6400000000001</ele>
        <time>2014-06-15T15:19:43Z</time>
      </trkpt>
      <trkpt lat="46.449201805517077" lon="6.972733084112406">
        <ele>1503.6400000000001</ele>
        <time>2014-06-15T15:19:44Z</time>
      </trkpt>
      <trkpt lat="46.449237260967493" lon="6.972736353054643">
        <ele>1503.6400000000001</ele>
        <time>2014-06-15T15:19:45Z</time>
      </trkpt>
      <trkpt lat="46.44927715882659" lon="6.972750267013907">
        <ele>1503.6400000000001</ele>
        <time>2014-06-15T15:19:46Z</time>
      </trkpt>
      <trkpt lat="46.449320325627923" lon="6.972766192629933">
        <ele>1503.6400000000001</ele>
        <time>2014-06-15T15:19:47Z</time>
      </trkpt>
      <trkpt lat="46.449366342276335" lon="6.972783543169498">
        <ele>1503.6400000000001</ele>
        <time>2014-06-15T15:19:48Z</time>
      </trkpt>
      <trkpt lat="46.449410934001207" lon="6.972805000841618">
        <ele>1503.6400000000001</ele>
        <time>2014-06-15T15:19:49Z</time>
      </trkpt>
      <trkpt lat="46.449871100485325" lon="6.972965430468321">
        <ele>1505.079999999999927</ele>
        <time>2014-06-15T15:20:01Z</time>
      </trkpt>
      <trkpt lat="46.450188439339399" lon="6.973164835944772">
        <ele>1506.039999999999964</ele>
        <time>2014-06-15T15:20:11Z</time>
      </trkpt>
      <trkpt lat="46.450280053541064" lon="6.9732756447047">
        <ele>1506.519999999999982</ele>
        <time>2014-06-15T15:20:14Z</time>
      </trkpt>
      <trkpt lat="46.450307462364435" lon="6.973322164267302">
        <ele>1507</ele>
        <time>2014-06-15T15:20:15Z</time>
      </trkpt>
      <trkpt lat="46.450569899752736" lon="6.973608573898673">
        <ele>1507</ele>
        <time>2014-06-15T15:20:25Z</time>
      </trkpt>
      <trkpt lat="46.450898889452219" lon="6.973782917484641">
        <ele>1507.970000000000027</ele>
        <time>2014-06-15T15:20:36Z</time>
      </trkpt>
      <trkpt lat="46.451165182515979" lon="6.974107380956411">
        <ele>1509.8900000000001</ele>
        <time>2014-06-15T15:20:48Z</time>
      </trkpt>
      <trkpt lat="46.451193345710635" lon="6.97416890412569">
        <ele>1509.8900000000001</ele>
        <time>2014-06-15T15:20:53Z</time>
      </trkpt>
      <trkpt lat="46.451203739270568" lon="6.97413076646626">
        <ele>1508.930000000000064</ele>
        <time>2014-06-15T15:21:04Z</time>
      </trkpt>
      <trkpt lat="46.45120675675571" lon="6.974104531109333">
        <ele>1508.930000000000064</ele>
        <time>2014-06-15T15:21:05Z</time>
      </trkpt>
      <trkpt lat="46.451206337660551" lon="6.974071674048901">
        <ele>1508.450000000000045</ele>
        <time>2014-06-15T15:21:06Z</time>
      </trkpt>
      <trkpt lat="46.451137103140354" lon="6.973793730139732">
        <ele>1504.599999999999909</ele>
        <time>2014-06-15T15:21:17Z</time>
      </trkpt>
      <trkpt lat="46.451070131734014" lon="6.973708486184478">
        <ele>1502.680000000000064</ele>
        <time>2014-06-15T15:21:26Z</time>
      </trkpt>
      <trkpt lat="46.451053535565734" lon="6.973690800368786">
        <ele>1502.680000000000064</ele>
        <time>2014-06-15T15:21:27Z</time>
      </trkpt>
      <trkpt lat="46.451042722910643" lon="6.973669845610857">
        <ele>1502.200000000000045</ele>
        <time>2014-06-15T15:21:28Z</time>
      </trkpt>
      <trkpt lat="46.451030066236854" lon="6.973647214472294">
        <ele>1501.720000000000027</ele>
        <time>2014-06-15T15:21:29Z</time>
      </trkpt>
      <trkpt lat="46.451013553887606" lon="6.973628355190158">
        <ele>1501.240000000000009</ele>
        <time>2014-06-15T15:21:30Z</time>
      </trkpt>
      <trkpt lat="46.450996119529009" lon="6.973611256107688">
        <ele>1500.759999999999991</ele>
        <time>2014-06-15T15:21:31Z</time>
      </trkpt>
      <trkpt lat="46.450892267748713" lon="6.97351947426796">
        <ele>1498.349999999999909</ele>
        <time>2014-06-15T15:21:40Z</time>
      </trkpt>
      <trkpt lat="46.450882377102971" lon="6.97351117618382">
        <ele>1497.869999999999891</ele>
        <time>2014-06-15T15:21:41Z</time>
      </trkpt>
      <trkpt lat="46.450867289677262" lon="6.973500531166792">
        <ele>1497.3900000000001</ele>
        <time>2014-06-15T15:21:53Z</time>
      </trkpt>
      <trkpt lat="46.450856141746044" lon="6.973492903634906">
        <ele>1497.3900000000001</ele>
        <time>2014-06-15T15:22:06Z</time>
      </trkpt>
      <trkpt lat="46.450840467587113" lon="6.973499190062284">
        <ele>1497.869999999999891</ele>
        <time>2014-06-15T15:22:27Z</time>
      </trkpt>
      <trkpt lat="46.450759917497635" lon="6.973449233919382">
        <ele>1495.470000000000027</ele>
        <time>2014-06-15T15:22:36Z</time>
      </trkpt>
      <trkpt lat="46.450749523937702" lon="6.973430039361119">
        <ele>1494.509999999999991</ele>
        <time>2014-06-15T15:22:37Z</time>
      </trkpt>
      <trkpt lat="46.450736615806818" lon="6.973410593345761">
        <ele>1494.029999999999973</ele>
        <time>2014-06-15T15:22:38Z</time>
      </trkpt>
      <trkpt lat="46.450717756524682" lon="6.973394835367799">
        <ele>1494.029999999999973</ele>
        <time>2014-06-15T15:22:39Z</time>
      </trkpt>
      <trkpt lat="46.450696969404817" lon="6.973382346332073">
        <ele>1493.549999999999955</ele>
        <time>2014-06-15T15:22:40Z</time>
      </trkpt>
      <trkpt lat="46.450681798160076" lon="6.973373629152775">
        <ele>1493.059999999999945</ele>
        <time>2014-06-15T15:22:41Z</time>
      </trkpt>
      <trkpt lat="46.450671991333365" lon="6.973358877003193">
        <ele>1493.059999999999945</ele>
        <time>2014-06-15T15:22:42Z</time>
      </trkpt>
      <trkpt lat="46.450660591945052" lon="6.973344041034579">
        <ele>1492.579999999999927</ele>
        <time>2014-06-15T15:22:43Z</time>
      </trkpt>
      <trkpt lat="46.450647516176105" lon="6.973337419331074">
        <ele>1492.579999999999927</ele>
        <time>2014-06-15T15:22:44Z</time>
      </trkpt>
      <trkpt lat="46.450617928057909" lon="6.973299784585834">
        <ele>1492.579999999999927</ele>
        <time>2014-06-15T15:22:48Z</time>
      </trkpt>
      <trkpt lat="46.450611473992467" lon="6.973280925303698">
        <ele>1493.059999999999945</ele>
        <time>2014-06-15T15:22:49Z</time>
      </trkpt>
      <trkpt lat="46.450602170079947" lon="6.973261563107371">
        <ele>1493.059999999999945</ele>
        <time>2014-06-15T15:22:50Z</time>
      </trkpt>
      <trkpt lat="46.45059060305357" lon="6.973242955282331">
        <ele>1493.059999999999945</ele>
        <time>2014-06-15T15:22:51Z</time>
      </trkpt>
      <trkpt lat="46.450578533113003" lon="6.973228035494685">
        <ele>1493.059999999999945</ele>
        <time>2014-06-15T15:22:52Z</time>
      </trkpt>
      <trkpt lat="46.450562691316009" lon="6.973214289173484">
        <ele>1493.059999999999945</ele>
        <time>2014-06-15T15:22:53Z</time>
      </trkpt>
      <trkpt lat="46.450396478176117" lon="6.973062660545111">
        <ele>1490.180000000000064</ele>
        <time>2014-06-15T15:23:03Z</time>
      </trkpt>
      <trkpt lat="46.450378708541393" lon="6.973037766292691">
        <ele>1489.700000000000045</ele>
        <time>2014-06-15T15:23:04Z</time>
      </trkpt>
      <trkpt lat="46.450360687449574" lon="6.973011698573828">
        <ele>1489.220000000000027</ele>
        <time>2014-06-15T15:23:05Z</time>
      </trkpt>
      <trkpt lat="46.450345180928707" lon="6.972987810149789">
        <ele>1488.740000000000009</ele>
        <time>2014-06-15T15:23:06Z</time>
      </trkpt>
      <trkpt lat="46.450332943350077" lon="6.97296635247767">
        <ele>1488.259999999999991</ele>
        <time>2014-06-15T15:23:07Z</time>
      </trkpt>
      <trkpt lat="46.450321543961763" lon="6.972947996109724">
        <ele>1487.779999999999973</ele>
        <time>2014-06-15T15:23:08Z</time>
      </trkpt>
      <trkpt lat="46.450171256437898" lon="6.972814304754138">
        <ele>1482.009999999999991</ele>
        <time>2014-06-15T15:23:20Z</time>
      </trkpt>
      <trkpt lat="46.449991380795836" lon="6.972680948674679">
        <ele>1476.720000000000027</ele>
        <time>2014-06-15T15:23:29Z</time>
      </trkpt>
      <trkpt lat="46.449764063581824" lon="6.972518591210246">
        <ele>1471.440000000000055</ele>
        <time>2014-06-15T15:23:40Z</time>
      </trkpt>
      <trkpt lat="46.44956692121923" lon="6.972414152696729">
        <ele>1466.630000000000109</ele>
        <time>2014-06-15T15:23:50Z</time>
      </trkpt>
      <trkpt lat="46.449383860453963" lon="6.972265709191561">
        <ele>1461.339999999999918</ele>
        <time>2014-06-15T15:24:01Z</time>
      </trkpt>
      <trkpt lat="46.449339771643281" lon="6.972208460792899">
        <ele>1459.420000000000073</ele>
        <time>2014-06-15T15:24:05Z</time>
      </trkpt>
      <trkpt lat="46.449328120797873" lon="6.972188595682383">
        <ele>1458.940000000000055</ele>
        <time>2014-06-15T15:24:06Z</time>
      </trkpt>
      <trkpt lat="46.449317978695035" lon="6.972174681723118">
        <ele>1458.460000000000036</ele>
        <time>2014-06-15T15:24:07Z</time>
      </trkpt>
      <trkpt lat="46.449305070564151" lon="6.97216110303998">
        <ele>1457.980000000000018</ele>
        <time>2014-06-15T15:24:08Z</time>
      </trkpt>
      <trkpt lat="46.449283109977841" lon="6.97214400395751">
        <ele>1457.5</ele>
        <time>2014-06-15T15:24:09Z</time>
      </trkpt>
      <trkpt lat="46.449262825772166" lon="6.972124977037311">
        <ele>1457.5</ele>
        <time>2014-06-15T15:24:10Z</time>
      </trkpt>
      <trkpt lat="46.449097534641623" lon="6.9719666428864">
        <ele>1454.6099999999999</ele>
        <time>2014-06-15T15:24:20Z</time>
      </trkpt>
      <trkpt lat="46.449078172445297" lon="6.971953148022294">
        <ele>1454.130000000000109</ele>
        <time>2014-06-15T15:24:21Z</time>
      </trkpt>
      <trkpt lat="46.449058055877686" lon="6.971942838281393">
        <ele>1453.650000000000091</ele>
        <time>2014-06-15T15:24:22Z</time>
      </trkpt>
      <trkpt lat="46.449041794985533" lon="6.971937222406268">
        <ele>1453.650000000000091</ele>
        <time>2014-06-15T15:24:23Z</time>
      </trkpt>
      <trkpt lat="46.449029222130775" lon="6.971934121102095">
        <ele>1453.170000000000073</ele>
        <time>2014-06-15T15:24:24Z</time>
      </trkpt>
      <trkpt lat="46.449014721438289" lon="6.971928337588906">
        <ele>1452.690000000000055</ele>
        <time>2014-06-15T15:24:25Z</time>
      </trkpt>
      <trkpt lat="46.448762426152825" lon="6.971827503293753">
        <ele>1447.880000000000109</ele>
        <time>2014-06-15T15:24:36Z</time>
      </trkpt>
      <trkpt lat="46.448548268526793" lon="6.971656680107117">
        <ele>1444.039999999999964</ele>
        <time>2014-06-15T15:24:47Z</time>
      </trkpt>
      <trkpt lat="46.44854181446135" lon="6.971634468063712">
        <ele>1443.559999999999945</ele>
        <time>2014-06-15T15:25:03Z</time>
      </trkpt>
      <trkpt lat="46.448512729257345" lon="6.971614519134164">
        <ele>1443.559999999999945</ele>
        <time>2014-06-15T15:25:08Z</time>
      </trkpt>
      <trkpt lat="46.448491355404258" lon="6.971602533012629">
        <ele>1443.559999999999945</ele>
        <time>2014-06-15T15:25:09Z</time>
      </trkpt>
      <trkpt lat="46.44846654497087" lon="6.971577554941177">
        <ele>1443.559999999999945</ele>
        <time>2014-06-15T15:25:10Z</time>
      </trkpt>
      <trkpt lat="46.448442153632641" lon="6.971539752557874">
        <ele>1443.559999999999945</ele>
        <time>2014-06-15T15:25:11Z</time>
      </trkpt>
      <trkpt lat="46.448421450331807" lon="6.971497172489762">
        <ele>1443.079999999999927</ele>
        <time>2014-06-15T15:25:12Z</time>
      </trkpt>
      <trkpt lat="46.448407787829638" lon="6.971459705382586">
        <ele>1442.599999999999909</ele>
        <time>2014-06-15T15:25:13Z</time>
      </trkpt>
      <trkpt lat="46.448397226631641" lon="6.971429865807295">
        <ele>1442.599999999999909</ele>
        <time>2014-06-15T15:25:14Z</time>
      </trkpt>
      <trkpt lat="46.448388928547502" lon="6.971404049545527">
        <ele>1442.1099999999999</ele>
        <time>2014-06-15T15:25:15Z</time>
      </trkpt>
      <trkpt lat="46.44837761297822" lon="6.971392063423991">
        <ele>1442.1099999999999</ele>
        <time>2014-06-15T15:25:16Z</time>
      </trkpt>
      <trkpt lat="46.448353137820959" lon="6.971390889957547">
        <ele>1442.1099999999999</ele>
        <time>2014-06-15T15:25:18Z</time>
      </trkpt>
      <trkpt lat="46.448335703462362" lon="6.971381502225995">
        <ele>1442.1099999999999</ele>
        <time>2014-06-15T15:25:19Z</time>
      </trkpt>
      <trkpt lat="46.448312904685736" lon="6.97136121802032">
        <ele>1441.630000000000109</ele>
        <time>2014-06-15T15:25:20Z</time>
      </trkpt>
      <trkpt lat="46.448290608823299" lon="6.971336826682091">
        <ele>1441.630000000000109</ele>
        <time>2014-06-15T15:25:21Z</time>
      </trkpt>
      <trkpt lat="46.448271749541163" lon="6.971314027905464">
        <ele>1442.1099999999999</ele>
        <time>2014-06-15T15:25:22Z</time>
      </trkpt>
      <trkpt lat="46.448258254677057" lon="6.971302041783929">
        <ele>1442.599999999999909</ele>
        <time>2014-06-15T15:25:23Z</time>
      </trkpt>
      <trkpt lat="46.448235791176558" lon="6.971293743699789">
        <ele>1443.079999999999927</ele>
        <time>2014-06-15T15:25:25Z</time>
      </trkpt>
      <trkpt lat="46.448222296312451" lon="6.971296174451709">
        <ele>1443.559999999999945</ele>
        <time>2014-06-15T15:25:26Z</time>
      </trkpt>
      <trkpt lat="46.448208382353187" lon="6.97129768319428">
        <ele>1443.559999999999945</ele>
        <time>2014-06-15T15:25:27Z</time>
      </trkpt>
      <trkpt lat="46.448195055127144" lon="6.971300952136517">
        <ele>1444.039999999999964</ele>
        <time>2014-06-15T15:25:28Z</time>
      </trkpt>
      <trkpt lat="46.448181644082069" lon="6.971303718164563">
        <ele>1444.519999999999982</ele>
        <time>2014-06-15T15:25:29Z</time>
      </trkpt>
      <trkpt lat="46.448114924132824" lon="6.971294246613979">
        <ele>1446.920000000000073</ele>
        <time>2014-06-15T15:25:34Z</time>
      </trkpt>
      <trkpt lat="46.448100507259369" lon="6.971296258270741">
        <ele>1446.920000000000073</ele>
        <time>2014-06-15T15:25:35Z</time>
      </trkpt>
      <trkpt lat="46.448017945513129" lon="6.971311429515481">
        <ele>1447.880000000000109</ele>
        <time>2014-06-15T15:25:40Z</time>
      </trkpt>
      <trkpt lat="46.447805631905794" lon="6.971184862777591">
        <ele>1450.289999999999964</ele>
        <time>2014-06-15T15:25:55Z</time>
      </trkpt>
      <trkpt lat="46.447644280269742" lon="6.971183270215988">
        <ele>1451.25</ele>
        <time>2014-06-15T15:26:05Z</time>
      </trkpt>
      <trkpt lat="46.447595581412315" lon="6.971154268831015">
        <ele>1452.690000000000055</ele>
        <time>2014-06-15T15:26:15Z</time>
      </trkpt>
      <trkpt lat="46.447589714080095" lon="6.971142115071416">
        <ele>1452.690000000000055</ele>
        <time>2014-06-15T15:26:16Z</time>
      </trkpt>
      <trkpt lat="46.447527939453721" lon="6.97102066129446">
        <ele>1453.650000000000091</ele>
        <time>2014-06-15T15:26:26Z</time>
      </trkpt>
      <trkpt lat="46.447473289445043" lon="6.97098252363503">
        <ele>1454.130000000000109</ele>
        <time>2014-06-15T15:26:36Z</time>
      </trkpt>
      <trkpt lat="46.447364408522844" lon="6.970892166718841">
        <ele>1454.130000000000109</ele>
        <time>2014-06-15T15:26:49Z</time>
      </trkpt>
      <trkpt lat="46.447329875081778" lon="6.970801558345556">
        <ele>1454.6099999999999</ele>
        <time>2014-06-15T15:26:54Z</time>
      </trkpt>
      <trkpt lat="46.44729970023036" lon="6.970803402364254">
        <ele>1454.6099999999999</ele>
        <time>2014-06-15T15:26:58Z</time>
      </trkpt>
      <trkpt lat="46.44728796556592" lon="6.970810275524855">
        <ele>1454.6099999999999</ele>
        <time>2014-06-15T15:26:59Z</time>
      </trkpt>
      <trkpt lat="46.447182605043054" lon="6.970860231667757">
        <ele>1454.6099999999999</ele>
        <time>2014-06-15T15:27:06Z</time>
      </trkpt>
      <trkpt lat="46.447166008874774" lon="6.970860566943884">
        <ele>1454.6099999999999</ele>
        <time>2014-06-15T15:27:07Z</time>
      </trkpt>
      <trkpt lat="46.447151759639382" lon="6.97085889056325">
        <ele>1454.6099999999999</ele>
        <time>2014-06-15T15:27:08Z</time>
      </trkpt>
      <trkpt lat="46.447077579796314" lon="6.970818908885121">
        <ele>1454.6099999999999</ele>
        <time>2014-06-15T15:27:18Z</time>
      </trkpt>
      <trkpt lat="46.447063749656081" lon="6.970802899450064">
        <ele>1454.6099999999999</ele>
        <time>2014-06-15T15:27:23Z</time>
      </trkpt>
      <trkpt lat="46.44705293700099" lon="6.970778927206993">
        <ele>1454.6099999999999</ele>
        <time>2014-06-15T15:27:24Z</time>
      </trkpt>
      <trkpt lat="46.447042543441057" lon="6.97074992582202">
        <ele>1454.6099999999999</ele>
        <time>2014-06-15T15:27:25Z</time>
      </trkpt>
      <trkpt lat="46.447037262842059" lon="6.970721008256078">
        <ele>1455.089999999999918</ele>
        <time>2014-06-15T15:27:26Z</time>
      </trkpt>
      <trkpt lat="46.447033490985632" lon="6.970696616917849">
        <ele>1455.089999999999918</ele>
        <time>2014-06-15T15:27:27Z</time>
      </trkpt>
      <trkpt lat="46.447015050798655" lon="6.97063609957695">
        <ele>1456.049999999999955</ele>
        <time>2014-06-15T15:27:30Z</time>
      </trkpt>
      <trkpt lat="46.44700214266777" lon="6.970628807321191">
        <ele>1456.049999999999955</ele>
        <time>2014-06-15T15:27:31Z</time>
      </trkpt>
      <trkpt lat="46.446988396346569" lon="6.970630064606667">
        <ele>1456.529999999999973</ele>
        <time>2014-06-15T15:27:32Z</time>
      </trkpt>
      <trkpt lat="46.446973560377955" lon="6.970632998272777">
        <ele>1456.529999999999973</ele>
        <time>2014-06-15T15:27:33Z</time>
      </trkpt>
      <trkpt lat="46.446956628933549" lon="6.970638278871775">
        <ele>1457.019999999999982</ele>
        <time>2014-06-15T15:27:34Z</time>
      </trkpt>
      <trkpt lat="46.446936847642064" lon="6.970642805099487">
        <ele>1457.019999999999982</ele>
        <time>2014-06-15T15:27:35Z</time>
      </trkpt>
      <trkpt lat="46.446916814893484" lon="6.970646744593978">
        <ele>1457.019999999999982</ele>
        <time>2014-06-15T15:27:36Z</time>
      </trkpt>
      <trkpt lat="46.44681304693222" lon="6.970649259164929">
        <ele>1457.019999999999982</ele>
        <time>2014-06-15T15:27:42Z</time>
      </trkpt>
      <trkpt lat="46.446791756898165" lon="6.97064490057528">
        <ele>1457.019999999999982</ele>
        <time>2014-06-15T15:27:43Z</time>
      </trkpt>
      <trkpt lat="46.446769377216697" lon="6.970644481480122">
        <ele>1456.529999999999973</ele>
        <time>2014-06-15T15:27:44Z</time>
      </trkpt>
      <trkpt lat="46.446748673915863" lon="6.970646912232041">
        <ele>1456.049999999999955</ele>
        <time>2014-06-15T15:27:45Z</time>
      </trkpt>
      <trkpt lat="46.44672897644341" lon="6.970653953030705">
        <ele>1456.049999999999955</ele>
        <time>2014-06-15T15:27:46Z</time>
      </trkpt>
      <trkpt lat="46.446647169068456" lon="6.970686474815011">
        <ele>1456.049999999999955</ele>
        <time>2014-06-15T15:27:55Z</time>
      </trkpt>
      <trkpt lat="46.446630824357271" lon="6.970687145367265">
        <ele>1456.049999999999955</ele>
        <time>2014-06-15T15:27:56Z</time>
      </trkpt>
      <trkpt lat="46.446614395827055" lon="6.970686642453074">
        <ele>1456.049999999999955</ele>
        <time>2014-06-15T15:27:57Z</time>
      </trkpt>
      <trkpt lat="46.446595788002014" lon="6.970686055719852">
        <ele>1456.049999999999955</ele>
        <time>2014-06-15T15:27:58Z</time>
      </trkpt>
      <trkpt lat="46.446578605100513" lon="6.970682786777616">
        <ele>1456.049999999999955</ele>
        <time>2014-06-15T15:27:59Z</time>
      </trkpt>
      <trkpt lat="46.44656234420836" lon="6.970678763464093">
        <ele>1456.049999999999955</ele>
        <time>2014-06-15T15:28:00Z</time>
      </trkpt>
      <trkpt lat="46.446547843515873" lon="6.970675997436047">
        <ele>1456.529999999999973</ele>
        <time>2014-06-15T15:28:01Z</time>
      </trkpt>
      <trkpt lat="46.446442985907197" lon="6.970625035464764">
        <ele>1455.569999999999936</ele>
        <time>2014-06-15T15:28:09Z</time>
      </trkpt>
      <trkpt lat="46.446428569033742" lon="6.9706248678267">
        <ele>1455.569999999999936</ele>
        <time>2014-06-15T15:28:10Z</time>
      </trkpt>
      <trkpt lat="46.446412894874811" lon="6.970623526722193">
        <ele>1455.089999999999918</ele>
        <time>2014-06-15T15:28:11Z</time>
      </trkpt>
      <trkpt lat="46.446398980915546" lon="6.9706248678267">
        <ele>1455.089999999999918</ele>
        <time>2014-06-15T15:28:12Z</time>
      </trkpt>
      <trkpt lat="46.446382636204362" lon="6.970625538378954">
        <ele>1455.089999999999918</ele>
        <time>2014-06-15T15:28:13Z</time>
      </trkpt>
      <trkpt lat="46.446363944560289" lon="6.97062386199832">
        <ele>1455.089999999999918</ele>
        <time>2014-06-15T15:28:14Z</time>
      </trkpt>
      <trkpt lat="46.446189433336258" lon="6.970500312745571">
        <ele>1457.5</ele>
        <time>2014-06-15T15:28:29Z</time>
      </trkpt>
      <trkpt lat="46.446123803034425" lon="6.97042160667479">
        <ele>1457.5</ele>
        <time>2014-06-15T15:28:35Z</time>
      </trkpt>
      <trkpt lat="46.446109553799033" lon="6.970424707978964">
        <ele>1457.5</ele>
        <time>2014-06-15T15:28:36Z</time>
      </trkpt>
      <trkpt lat="46.446090862154961" lon="6.97043183259666">
        <ele>1457.019999999999982</ele>
        <time>2014-06-15T15:28:37Z</time>
      </trkpt>
      <trkpt lat="46.446070913225412" lon="6.970439208671451">
        <ele>1457.019999999999982</ele>
        <time>2014-06-15T15:28:38Z</time>
      </trkpt>
      <trkpt lat="46.446050796657801" lon="6.970445327460766">
        <ele>1456.529999999999973</ele>
        <time>2014-06-15T15:28:39Z</time>
      </trkpt>
      <trkpt lat="46.446033529937267" lon="6.970452284440398">
        <ele>1456.529999999999973</ele>
        <time>2014-06-15T15:28:40Z</time>
      </trkpt>
      <trkpt lat="46.445795902982354" lon="6.970558566972613">
        <ele>1456.049999999999955</ele>
        <time>2014-06-15T15:28:50Z</time>
      </trkpt>
      <trkpt lat="46.44578299485147" lon="6.970568122342229">
        <ele>1456.049999999999955</ele>
        <time>2014-06-15T15:28:51Z</time>
      </trkpt>
      <trkpt lat="46.445767488330603" lon="6.970580779016018">
        <ele>1456.529999999999973</ele>
        <time>2014-06-15T15:28:52Z</time>
      </trkpt>
      <trkpt lat="46.445745946839452" lon="6.970593016594648">
        <ele>1456.529999999999973</ele>
        <time>2014-06-15T15:28:53Z</time>
      </trkpt>
      <trkpt lat="46.445720298215747" lon="6.970598883926868">
        <ele>1456.049999999999955</ele>
        <time>2014-06-15T15:28:54Z</time>
      </trkpt>
      <trkpt lat="46.445694230496883" lon="6.970598381012678">
        <ele>1456.049999999999955</ele>
        <time>2014-06-15T15:28:55Z</time>
      </trkpt>
      <trkpt lat="46.445669587701559" lon="6.970593351870775">
        <ele>1456.049999999999955</ele>
        <time>2014-06-15T15:28:56Z</time>
      </trkpt>
      <trkpt lat="46.445647040382028" lon="6.970587065443397">
        <ele>1456.049999999999955</ele>
        <time>2014-06-15T15:28:57Z</time>
      </trkpt>
      <trkpt lat="46.445628767833114" lon="6.970583042129874">
        <ele>1456.529999999999973</ele>
        <time>2014-06-15T15:28:58Z</time>
      </trkpt>
      <trkpt lat="46.445442941039801" lon="6.970382463186979">
        <ele>1457.980000000000018</ele>
        <time>2014-06-15T15:29:09Z</time>
      </trkpt>
      <trkpt lat="46.445406982675195" lon="6.970277270302176">
        <ele>1457.5</ele>
        <time>2014-06-15T15:29:12Z</time>
      </trkpt>
      <trkpt lat="46.445386027917266" lon="6.970268301665783">
        <ele>1457.5</ele>
        <time>2014-06-15T15:29:13Z</time>
      </trkpt>
      <trkpt lat="46.445258287712932" lon="6.970307528972626">
        <ele>1457.019999999999982</ele>
        <time>2014-06-15T15:29:20Z</time>
      </trkpt>
      <trkpt lat="46.445241859182715" lon="6.970293363556266">
        <ele>1457.019999999999982</ele>
        <time>2014-06-15T15:29:21Z</time>
      </trkpt>
      <trkpt lat="46.445224760100245" lon="6.9702657032758">
        <ele>1457.019999999999982</ele>
        <time>2014-06-15T15:29:22Z</time>
      </trkpt>
      <trkpt lat="46.445011273026466" lon="6.970128994435072">
        <ele>1455.089999999999918</ele>
        <time>2014-06-15T15:29:31Z</time>
      </trkpt>
      <trkpt lat="46.444979086518288" lon="6.970107955858111">
        <ele>1454.6099999999999</ele>
        <time>2014-06-15T15:29:32Z</time>
      </trkpt>
      <trkpt lat="46.444939775392413" lon="6.97008197195828">
        <ele>1454.6099999999999</ele>
        <time>2014-06-15T15:29:33Z</time>
      </trkpt>
      <trkpt lat="46.444902727380395" lon="6.970064369961619">
        <ele>1454.6099999999999</ele>
        <time>2014-06-15T15:29:34Z</time>
      </trkpt>
      <trkpt lat="46.444870205596089" lon="6.970054395496845">
        <ele>1454.6099999999999</ele>
        <time>2014-06-15T15:29:35Z</time>
      </trkpt>
      <trkpt lat="46.444800049066544" lon="6.970031345263124">
        <ele>1456.049999999999955</ele>
        <time>2014-06-15T15:29:43Z</time>
      </trkpt>
      <trkpt lat="46.444677924737334" lon="6.970002930611372">
        <ele>1457.5</ele>
        <time>2014-06-15T15:29:57Z</time>
      </trkpt>
      <trkpt lat="46.444485979154706" lon="6.970059424638748">
        <ele>1457.019999999999982</ele>
        <time>2014-06-15T15:30:08Z</time>
      </trkpt>
      <trkpt lat="46.444445243105292" lon="6.970039894804358">
        <ele>1457.019999999999982</ele>
        <time>2014-06-15T15:30:10Z</time>
      </trkpt>
      <trkpt lat="46.444421522319317" lon="6.970044672489166">
        <ele>1457.5</ele>
        <time>2014-06-15T15:30:11Z</time>
      </trkpt>
      <trkpt lat="46.444400483742356" lon="6.970059173181653">
        <ele>1457.5</ele>
        <time>2014-06-15T15:30:12Z</time>
      </trkpt>
      <trkpt lat="46.444326220080256" lon="6.970096724107862">
        <ele>1457.019999999999982</ele>
        <time>2014-06-15T15:30:15Z</time>
      </trkpt>
      <trkpt lat="46.444293027743697" lon="6.970092197880149">
        <ele>1457.019999999999982</ele>
        <time>2014-06-15T15:30:16Z</time>
      </trkpt>
      <trkpt lat="46.444268049672246" lon="6.970093119889498">
        <ele>1457.019999999999982</ele>
        <time>2014-06-15T15:30:17Z</time>
      </trkpt>
      <trkpt lat="46.444250196218491" lon="6.970091108232737">
        <ele>1457.019999999999982</ele>
        <time>2014-06-15T15:30:18Z</time>
      </trkpt>
      <trkpt lat="46.444237539544702" lon="6.970075601711869">
        <ele>1457.019999999999982</ele>
        <time>2014-06-15T15:30:19Z</time>
      </trkpt>
      <trkpt lat="46.444227732717991" lon="6.970049701631069">
        <ele>1457.019999999999982</ele>
        <time>2014-06-15T15:30:20Z</time>
      </trkpt>
      <trkpt lat="46.444187164306641" lon="6.969992285594344">
        <ele>1459.420000000000073</ele>
        <time>2014-06-15T15:30:28Z</time>
      </trkpt>
      <trkpt lat="46.444135615602136" lon="6.970001589506865">
        <ele>1460.8599999999999</ele>
        <time>2014-06-15T15:30:36Z</time>
      </trkpt>
      <trkpt lat="46.444093622267246" lon="6.970018101856112">
        <ele>1460.8599999999999</ele>
        <time>2014-06-15T15:30:39Z</time>
      </trkpt>
      <trkpt lat="46.444079121574759" lon="6.970029836520553">
        <ele>1460.380000000000109</ele>
        <time>2014-06-15T15:30:40Z</time>
      </trkpt>
      <trkpt lat="46.444065123796463" lon="6.970046432688832">
        <ele>1460.380000000000109</ele>
        <time>2014-06-15T15:30:41Z</time>
      </trkpt>
      <trkpt lat="46.444011647254229" lon="6.970094796270132">
        <ele>1459.900000000000091</ele>
        <time>2014-06-15T15:30:44Z</time>
      </trkpt>
      <trkpt lat="46.443981220945716" lon="6.97009370662272">
        <ele>1459.900000000000091</ele>
        <time>2014-06-15T15:30:45Z</time>
      </trkpt>
      <trkpt lat="46.443965965881944" lon="6.970082726329565">
        <ele>1459.900000000000091</ele>
        <time>2014-06-15T15:30:46Z</time>
      </trkpt>
      <trkpt lat="46.443949956446886" lon="6.970066213980317">
        <ele>1460.380000000000109</ele>
        <time>2014-06-15T15:30:47Z</time>
      </trkpt>
      <trkpt lat="46.443936629220843" lon="6.97005464695394">
        <ele>1460.380000000000109</ele>
        <time>2014-06-15T15:30:48Z</time>
      </trkpt>
      <trkpt lat="46.443924391642213" lon="6.97004484012723">
        <ele>1460.8599999999999</ele>
        <time>2014-06-15T15:30:49Z</time>
      </trkpt>
      <trkpt lat="46.443911315873265" lon="6.970032183453441">
        <ele>1460.8599999999999</ele>
        <time>2014-06-15T15:30:50Z</time>
      </trkpt>
      <trkpt lat="46.443897653371096" lon="6.970017347484827">
        <ele>1460.8599999999999</ele>
        <time>2014-06-15T15:30:51Z</time>
      </trkpt>
      <trkpt lat="46.443883739411831" lon="6.969997985288501">
        <ele>1460.8599999999999</ele>
        <time>2014-06-15T15:30:52Z</time>
      </trkpt>
      <trkpt lat="46.443856665864587" lon="6.969964206218719">
        <ele>1460.8599999999999</ele>
        <time>2014-06-15T15:30:54Z</time>
      </trkpt>
      <trkpt lat="46.443835124373436" lon="6.969962026923895">
        <ele>1460.8599999999999</ele>
        <time>2014-06-15T15:30:55Z</time>
      </trkpt>
      <trkpt lat="46.443818612024188" lon="6.969963451847434">
        <ele>1460.380000000000109</ele>
        <time>2014-06-15T15:30:56Z</time>
      </trkpt>
      <trkpt lat="46.443802686408162" lon="6.969966469332576">
        <ele>1460.380000000000109</ele>
        <time>2014-06-15T15:30:57Z</time>
      </trkpt>
      <trkpt lat="46.443784832954407" lon="6.96996764279902">
        <ele>1460.380000000000109</ele>
        <time>2014-06-15T15:30:58Z</time>
      </trkpt>
      <trkpt lat="46.443461626768112" lon="6.969943586736917">
        <ele>1458.940000000000055</ele>
        <time>2014-06-15T15:31:10Z</time>
      </trkpt>
      <trkpt lat="46.44344000145793" lon="6.969942077994347">
        <ele>1458.940000000000055</ele>
        <time>2014-06-15T15:31:11Z</time>
      </trkpt>
      <trkpt lat="46.443420806899667" lon="6.969943083822727">
        <ele>1458.940000000000055</ele>
        <time>2014-06-15T15:31:12Z</time>
      </trkpt>
      <trkpt lat="46.443402199074626" lon="6.969945263117552">
        <ele>1458.940000000000055</ele>
        <time>2014-06-15T15:31:13Z</time>
      </trkpt>
      <trkpt lat="46.443385938182473" lon="6.969943754374981">
        <ele>1458.940000000000055</ele>
        <time>2014-06-15T15:31:14Z</time>
      </trkpt>
      <trkpt lat="46.443368922919035" lon="6.969938054680824">
        <ele>1458.460000000000036</ele>
        <time>2014-06-15T15:31:15Z</time>
      </trkpt>
      <trkpt lat="46.443352326750755" lon="6.969934701919556">
        <ele>1458.460000000000036</ele>
        <time>2014-06-15T15:31:16Z</time>
      </trkpt>
      <trkpt lat="46.443308489397168" lon="6.969931600615382">
        <ele>1457.980000000000018</ele>
        <time>2014-06-15T15:31:19Z</time>
      </trkpt>
      <trkpt lat="46.443295413628221" lon="6.969935707747936">
        <ele>1457.980000000000018</ele>
        <time>2014-06-15T15:31:20Z</time>
      </trkpt>
      <trkpt lat="46.443187454715371" lon="6.969995051622391">
        <ele>1456.529999999999973</ele>
        <time>2014-06-15T15:31:27Z</time>
      </trkpt>
      <trkpt lat="46.443170104175806" lon="6.970002008602023">
        <ele>1456.049999999999955</ele>
        <time>2014-06-15T15:31:28Z</time>
      </trkpt>
      <trkpt lat="46.443035742267966" lon="6.970005109906197">
        <ele>1455.089999999999918</ele>
        <time>2014-06-15T15:31:38Z</time>
      </trkpt>
      <trkpt lat="46.442928118631244" lon="6.970071410760283">
        <ele>1456.529999999999973</ele>
        <time>2014-06-15T15:31:44Z</time>
      </trkpt>
      <trkpt lat="46.442910935729742" lon="6.970087671652436">
        <ele>1456.529999999999973</ele>
        <time>2014-06-15T15:31:45Z</time>
      </trkpt>
      <trkpt lat="46.442656293511391" lon="6.970370477065444">
        <ele>1455.089999999999918</ele>
        <time>2014-06-15T15:31:58Z</time>
      </trkpt>
      <trkpt lat="46.442640451714396" lon="6.970382379367948">
        <ele>1454.6099999999999</ele>
        <time>2014-06-15T15:31:59Z</time>
      </trkpt>
      <trkpt lat="46.442622262984514" lon="6.970400484278798">
        <ele>1454.6099999999999</ele>
        <time>2014-06-15T15:32:00Z</time>
      </trkpt>
      <trkpt lat="46.442604241892695" lon="6.970423450693488">
        <ele>1454.130000000000109</ele>
        <time>2014-06-15T15:32:01Z</time>
      </trkpt>
      <trkpt lat="46.442589238286018" lon="6.970450105145574">
        <ele>1454.130000000000109</ele>
        <time>2014-06-15T15:32:02Z</time>
      </trkpt>
      <trkpt lat="46.442546909675002" lon="6.970545323565602">
        <ele>1454.130000000000109</ele>
        <time>2014-06-15T15:32:05Z</time>
      </trkpt>
      <trkpt lat="46.442524697631598" lon="6.97055839933455">
        <ele>1454.130000000000109</ele>
        <time>2014-06-15T15:32:07Z</time>
      </trkpt>
      <trkpt lat="46.442511957138777" lon="6.970559908077121">
        <ele>1454.6099999999999</ele>
        <time>2014-06-15T15:32:08Z</time>
      </trkpt>
      <trkpt lat="46.442499719560146" lon="6.970554208382964">
        <ele>1454.6099999999999</ele>
        <time>2014-06-15T15:32:09Z</time>
      </trkpt>
      <trkpt lat="46.442487733438611" lon="6.970539540052414">
        <ele>1454.6099999999999</ele>
        <time>2014-06-15T15:32:10Z</time>
      </trkpt>
      <trkpt lat="46.442477339878678" lon="6.9705212675035">
        <ele>1455.089999999999918</ele>
        <time>2014-06-15T15:32:11Z</time>
      </trkpt>
      <trkpt lat="46.442243149504066" lon="6.970475418493152">
        <ele>1457.980000000000018</ele>
        <time>2014-06-15T15:32:22Z</time>
      </trkpt>
      <trkpt lat="46.442207358777523" lon="6.970506934449077">
        <ele>1458.460000000000036</ele>
        <time>2014-06-15T15:32:24Z</time>
      </trkpt>
      <trkpt lat="46.442168969660997" lon="6.970567451789975">
        <ele>1458.940000000000055</ele>
        <time>2014-06-15T15:32:27Z</time>
      </trkpt>
      <trkpt lat="46.442156564444304" lon="6.97057549841702">
        <ele>1458.940000000000055</ele>
        <time>2014-06-15T15:32:28Z</time>
      </trkpt>
      <trkpt lat="46.44214415922761" lon="6.970581952482462">
        <ele>1458.460000000000036</ele>
        <time>2014-06-15T15:32:29Z</time>
      </trkpt>
      <trkpt lat="46.442102333530784" lon="6.97057013399899">
        <ele>1459.420000000000073</ele>
        <time>2014-06-15T15:32:36Z</time>
      </trkpt>
      <trkpt lat="46.442089425399899" lon="6.970557644963264">
        <ele>1459.420000000000073</ele>
        <time>2014-06-15T15:32:37Z</time>
      </trkpt>
      <trkpt lat="46.442074002698064" lon="6.9705471675843">
        <ele>1459.420000000000073</ele>
        <time>2014-06-15T15:32:38Z</time>
      </trkpt>
      <trkpt lat="46.442057238891721" lon="6.970537193119526">
        <ele>1459.900000000000091</ele>
        <time>2014-06-15T15:32:39Z</time>
      </trkpt>
      <trkpt lat="46.442043408751488" lon="6.970528308302164">
        <ele>1459.900000000000091</ele>
        <time>2014-06-15T15:32:40Z</time>
      </trkpt>
      <trkpt lat="46.44202932715416" lon="6.970515232533216">
        <ele>1459.900000000000091</ele>
        <time>2014-06-15T15:32:41Z</time>
      </trkpt>
      <trkpt lat="46.442013904452324" lon="6.970503497868776">
        <ele>1460.380000000000109</ele>
        <time>2014-06-15T15:32:42Z</time>
      </trkpt>
      <trkpt lat="46.441748784855008" lon="6.970488326624036">
        <ele>1461.819999999999936</ele>
        <time>2014-06-15T15:32:56Z</time>
      </trkpt>
      <trkpt lat="46.441640155389905" lon="6.970458906143904">
        <ele>1461.819999999999936</ele>
        <time>2014-06-15T15:33:03Z</time>
      </trkpt>
      <trkpt lat="46.441629594191909" lon="6.970432084053755">
        <ele>1462.299999999999955</ele>
        <time>2014-06-15T15:33:04Z</time>
      </trkpt>
      <trkpt lat="46.44162330776453" lon="6.970408447086811">
        <ele>1462.779999999999973</ele>
        <time>2014-06-15T15:33:05Z</time>
      </trkpt>
      <trkpt lat="46.441629258915782" lon="6.970350863412023">
        <ele>1463.740000000000009</ele>
        <time>2014-06-15T15:33:12Z</time>
      </trkpt>
      <trkpt lat="46.441638814285398" lon="6.97033510543406">
        <ele>1463.740000000000009</ele>
        <time>2014-06-15T15:33:13Z</time>
      </trkpt>
      <trkpt lat="46.441646944731474" lon="6.970320604741573">
        <ele>1464.230000000000018</ele>
        <time>2014-06-15T15:33:14Z</time>
      </trkpt>
      <trkpt lat="46.441676616668701" lon="6.970201246440411">
        <ele>1465.670000000000073</ele>
        <time>2014-06-15T15:33:21Z</time>
      </trkpt>
      <trkpt lat="46.441673766821623" lon="6.970180878415704">
        <ele>1466.150000000000091</ele>
        <time>2014-06-15T15:33:22Z</time>
      </trkpt>
      <trkpt lat="46.441667145118117" lon="6.97016067802906">
        <ele>1466.630000000000109</ele>
        <time>2014-06-15T15:33:23Z</time>
      </trkpt>
      <trkpt lat="46.44166043959558" lon="6.970143411308527">
        <ele>1467.1099999999999</ele>
        <time>2014-06-15T15:33:24Z</time>
      </trkpt>
      <trkpt lat="46.441653650254011" lon="6.970125138759613">
        <ele>1467.589999999999918</ele>
        <time>2014-06-15T15:33:25Z</time>
      </trkpt>
      <trkpt lat="46.44164334051311" lon="6.97010493837297">
        <ele>1467.589999999999918</ele>
        <time>2014-06-15T15:33:26Z</time>
      </trkpt>
      <trkpt lat="46.441627917811275" lon="6.970088258385658">
        <ele>1468.069999999999936</ele>
        <time>2014-06-15T15:33:27Z</time>
      </trkpt>
      <trkpt lat="46.441611908376217" lon="6.970075685530901">
        <ele>1467.589999999999918</ele>
        <time>2014-06-15T15:33:28Z</time>
      </trkpt>
      <trkpt lat="46.441597994416952" lon="6.970064453780651">
        <ele>1467.589999999999918</ele>
        <time>2014-06-15T15:33:29Z</time>
      </trkpt>
      <trkpt lat="46.441581984981894" lon="6.970051545649767">
        <ele>1467.589999999999918</ele>
        <time>2014-06-15T15:33:30Z</time>
      </trkpt>
      <trkpt lat="46.441534543409944" lon="6.970001338049769">
        <ele>1467.1099999999999</ele>
        <time>2014-06-15T15:33:34Z</time>
      </trkpt>
      <trkpt lat="46.441528843715787" lon="6.969986334443092">
        <ele>1467.589999999999918</ele>
        <time>2014-06-15T15:33:35Z</time>
      </trkpt>
      <trkpt lat="46.441518869251013" lon="6.969976108521223">
        <ele>1467.589999999999918</ele>
        <time>2014-06-15T15:33:36Z</time>
      </trkpt>
      <trkpt lat="46.441443599760532" lon="6.969916597008705">
        <ele>1468.069999999999936</ele>
        <time>2014-06-15T15:33:41Z</time>
      </trkpt>
      <trkpt lat="46.441409653052688" lon="6.969910142943263">
        <ele>1468.069999999999936</ele>
        <time>2014-06-15T15:33:42Z</time>
      </trkpt>
      <trkpt lat="46.441287780180573" lon="6.969883823767304">
        <ele>1467.1099999999999</ele>
        <time>2014-06-15T15:33:47Z</time>
      </trkpt>
      <trkpt lat="46.441271938383579" lon="6.969876196235418">
        <ele>1467.1099999999999</ele>
        <time>2014-06-15T15:33:48Z</time>
      </trkpt>
      <trkpt lat="46.441249726340175" lon="6.969847613945603">
        <ele>1468.069999999999936</ele>
        <time>2014-06-15T15:33:53Z</time>
      </trkpt>
      <trkpt lat="46.441249893978238" lon="6.969830431044102">
        <ele>1468.069999999999936</ele>
        <time>2014-06-15T15:33:54Z</time>
      </trkpt>
      <trkpt lat="46.441250229254365" lon="6.969815343618393">
        <ele>1468.549999999999955</ele>
        <time>2014-06-15T15:33:55Z</time>
      </trkpt>
      <trkpt lat="46.441248720511794" lon="6.969791036099195">
        <ele>1469.029999999999973</ele>
        <time>2014-06-15T15:33:56Z</time>
      </trkpt>
      <trkpt lat="46.441244278103113" lon="6.969766477122903">
        <ele>1469.029999999999973</ele>
        <time>2014-06-15T15:33:57Z</time>
      </trkpt>
      <trkpt lat="46.441208403557539" lon="6.969643933698535">
        <ele>1469.509999999999991</ele>
        <time>2014-06-15T15:34:02Z</time>
      </trkpt>
      <trkpt lat="46.441191220656037" lon="6.969629349187016">
        <ele>1469.029999999999973</ele>
        <time>2014-06-15T15:34:03Z</time>
      </trkpt>
      <trkpt lat="46.441170768812299" lon="6.969615686684847">
        <ele>1469.029999999999973</ele>
        <time>2014-06-15T15:34:04Z</time>
      </trkpt>
      <trkpt lat="46.44115031696856" lon="6.969605796039104">
        <ele>1468.549999999999955</ele>
        <time>2014-06-15T15:34:05Z</time>
      </trkpt>
      <trkpt lat="46.441136905923486" lon="6.969599844887853">
        <ele>1468.549999999999955</ele>
        <time>2014-06-15T15:34:06Z</time>
      </trkpt>
      <trkpt lat="46.441126596182585" lon="6.969594312831759">
        <ele>1468.069999999999936</ele>
        <time>2014-06-15T15:34:07Z</time>
      </trkpt>
      <trkpt lat="46.441115280613303" lon="6.969586350023746">
        <ele>1468.069999999999936</ele>
        <time>2014-06-15T15:34:08Z</time>
      </trkpt>
      <trkpt lat="46.441105306148529" lon="6.969573860988021">
        <ele>1468.069999999999936</ele>
        <time>2014-06-15T15:34:09Z</time>
      </trkpt>
      <trkpt lat="46.441098432987928" lon="6.9695386569947">
        <ele>1468.069999999999936</ele>
        <time>2014-06-15T15:34:11Z</time>
      </trkpt>
      <trkpt lat="46.441096756607294" lon="6.969517953693867">
        <ele>1468.549999999999955</ele>
        <time>2014-06-15T15:34:12Z</time>
      </trkpt>
      <trkpt lat="46.441097091883421" lon="6.969493729993701">
        <ele>1469.029999999999973</ele>
        <time>2014-06-15T15:34:13Z</time>
      </trkpt>
      <trkpt lat="46.441101534292102" lon="6.96946925483644">
        <ele>1469.029999999999973</ele>
        <time>2014-06-15T15:34:14Z</time>
      </trkpt>
      <trkpt lat="46.441105809062719" lon="6.969440756365657">
        <ele>1469.509999999999991</ele>
        <time>2014-06-15T15:34:15Z</time>
      </trkpt>
      <trkpt lat="46.441108407452703" lon="6.969414856284857">
        <ele>1469.990000000000009</ele>
        <time>2014-06-15T15:34:16Z</time>
      </trkpt>
      <trkpt lat="46.441109078004956" lon="6.969394823536277">
        <ele>1470.470000000000027</ele>
        <time>2014-06-15T15:34:17Z</time>
      </trkpt>
      <trkpt lat="46.441100360825658" lon="6.969370180740952">
        <ele>1470.950000000000045</ele>
        <time>2014-06-15T15:34:18Z</time>
      </trkpt>
      <trkpt lat="46.440986031666398" lon="6.96901042945683">
        <ele>1470.470000000000027</ele>
        <time>2014-06-15T15:34:31Z</time>
      </trkpt>
      <trkpt lat="46.440949905663729" lon="6.968865254893899">
        <ele>1471.920000000000073</ele>
        <time>2014-06-15T15:34:38Z</time>
      </trkpt>
      <trkpt lat="46.440946804359555" lon="6.968833571299911">
        <ele>1472.400000000000091</ele>
        <time>2014-06-15T15:34:39Z</time>
      </trkpt>
      <trkpt lat="46.440895842388272" lon="6.96850810199976">
        <ele>1475.759999999999991</ele>
        <time>2014-06-15T15:34:51Z</time>
      </trkpt>
      <trkpt lat="46.440889472141862" lon="6.968383295461535">
        <ele>1476.720000000000027</ele>
        <time>2014-06-15T15:34:56Z</time>
      </trkpt>
      <trkpt lat="46.4408771507442" lon="6.968360748142004">
        <ele>1476.720000000000027</ele>
        <time>2014-06-15T15:34:57Z</time>
      </trkpt>
      <trkpt lat="46.440862817689776" lon="6.968344319611788">
        <ele>1476.240000000000009</ele>
        <time>2014-06-15T15:34:58Z</time>
      </trkpt>
      <trkpt lat="46.440802970901132" lon="6.968206269666553">
        <ele>1473.839999999999918</ele>
        <time>2014-06-15T15:35:05Z</time>
      </trkpt>
      <trkpt lat="46.440799534320831" lon="6.968190344050527">
        <ele>1473.839999999999918</ele>
        <time>2014-06-15T15:35:06Z</time>
      </trkpt>
      <trkpt lat="46.440747482702136" lon="6.967968894168735">
        <ele>1471.440000000000055</ele>
        <time>2014-06-15T15:35:17Z</time>
      </trkpt>
      <trkpt lat="46.440700041130185" lon="6.96776052005589">
        <ele>1474.799999999999955</ele>
        <time>2014-06-15T15:35:25Z</time>
      </trkpt>
      <trkpt lat="46.440696772187948" lon="6.967674940824509">
        <ele>1476.240000000000009</ele>
        <time>2014-06-15T15:35:29Z</time>
      </trkpt>
      <trkpt lat="46.440692665055394" lon="6.967651806771755">
        <ele>1476.240000000000009</ele>
        <time>2014-06-15T15:35:30Z</time>
      </trkpt>
      <trkpt lat="46.440689144656062" lon="6.967630349099636">
        <ele>1476.720000000000027</ele>
        <time>2014-06-15T15:35:31Z</time>
      </trkpt>
      <trkpt lat="46.440682774409652" lon="6.967604868113995">
        <ele>1477.200000000000045</ele>
        <time>2014-06-15T15:35:32Z</time>
      </trkpt>
      <trkpt lat="46.440677409991622" lon="6.967585170641541">
        <ele>1477.200000000000045</ele>
        <time>2014-06-15T15:35:33Z</time>
      </trkpt>
      <trkpt lat="46.440661735832691" lon="6.967446366325021">
        <ele>1479.130000000000109</ele>
        <time>2014-06-15T15:35:43Z</time>
      </trkpt>
      <trkpt lat="46.440605409443378" lon="6.967171523720026">
        <ele>1480.569999999999936</ele>
        <time>2014-06-15T15:35:55Z</time>
      </trkpt>
      <trkpt lat="46.440561907365918" lon="6.967072198167443">
        <ele>1481.049999999999955</ele>
        <time>2014-06-15T15:36:00Z</time>
      </trkpt>
      <trkpt lat="46.440554112195969" lon="6.967043364420533">
        <ele>1481.049999999999955</ele>
        <time>2014-06-15T15:36:01Z</time>
      </trkpt>
      <trkpt lat="46.440543299540877" lon="6.967016374692321">
        <ele>1481.049999999999955</ele>
        <time>2014-06-15T15:36:02Z</time>
      </trkpt>
      <trkpt lat="46.440477082505822" lon="6.966744968667626">
        <ele>1482.970000000000027</ele>
        <time>2014-06-15T15:36:15Z</time>
      </trkpt>
      <trkpt lat="46.440274491906166" lon="6.966386055573821">
        <ele>1481.529999999999973</ele>
        <time>2014-06-15T15:36:27Z</time>
      </trkpt>
      <trkpt lat="46.440246915444732" lon="6.966247586533427">
        <ele>1481.529999999999973</ele>
        <time>2014-06-15T15:36:32Z</time>
      </trkpt>
      <trkpt lat="46.440244819968939" lon="6.966214897111058">
        <ele>1481.529999999999973</ele>
        <time>2014-06-15T15:36:33Z</time>
      </trkpt>
      <trkpt lat="46.440225373953581" lon="6.966086570173502">
        <ele>1481.049999999999955</ele>
        <time>2014-06-15T15:36:38Z</time>
      </trkpt>
      <trkpt lat="46.440216153860092" lon="6.966061843559146">
        <ele>1481.049999999999955</ele>
        <time>2014-06-15T15:36:39Z</time>
      </trkpt>
      <trkpt lat="46.440209029242396" lon="6.966033931821585">
        <ele>1481.049999999999955</ele>
        <time>2014-06-15T15:36:40Z</time>
      </trkpt>
      <trkpt lat="46.440201904624701" lon="6.966003002598882">
        <ele>1480.569999999999936</ele>
        <time>2014-06-15T15:36:41Z</time>
      </trkpt>
      <trkpt lat="46.440202742815018" lon="6.965978527441621">
        <ele>1480.569999999999936</ele>
        <time>2014-06-15T15:36:42Z</time>
      </trkpt>
      <trkpt lat="46.440205927938223" lon="6.965957824140787">
        <ele>1481.049999999999955</ele>
        <time>2014-06-15T15:36:43Z</time>
      </trkpt>
      <trkpt lat="46.440207855775952" lon="6.965936115011573">
        <ele>1481.049999999999955</ele>
        <time>2014-06-15T15:36:44Z</time>
      </trkpt>
      <trkpt lat="46.440214393660426" lon="6.965904096141458">
        <ele>1481.529999999999973</ele>
        <time>2014-06-15T15:36:45Z</time>
      </trkpt>
      <trkpt lat="46.440217662602663" lon="6.965868221595883">
        <ele>1481.529999999999973</ele>
        <time>2014-06-15T15:36:46Z</time>
      </trkpt>
      <trkpt lat="46.440218836069107" lon="6.965836202725768">
        <ele>1482.009999999999991</ele>
        <time>2014-06-15T15:36:47Z</time>
      </trkpt>
      <trkpt lat="46.44020919688046" lon="6.965475361794233">
        <ele>1485.849999999999909</ele>
        <time>2014-06-15T15:36:58Z</time>
      </trkpt>
      <trkpt lat="46.440277257934213" lon="6.965099098160863">
        <ele>1489.220000000000027</ele>
        <time>2014-06-15T15:37:10Z</time>
      </trkpt>
      <trkpt lat="46.440391838550568" lon="6.964688887819648">
        <ele>1483.450000000000045</ele>
        <time>2014-06-15T15:37:22Z</time>
      </trkpt>
      <trkpt lat="46.44044422544539" lon="6.964372806251049">
        <ele>1473.839999999999918</ele>
        <time>2014-06-15T15:37:34Z</time>
      </trkpt>
      <trkpt lat="46.440446069464087" lon="6.964338440448046">
        <ele>1473.3599999999999</ele>
        <time>2014-06-15T15:37:36Z</time>
      </trkpt>
      <trkpt lat="46.440443387255073" lon="6.964263925328851">
        <ele>1472.880000000000109</ele>
        <time>2014-06-15T15:37:40Z</time>
      </trkpt>
      <trkpt lat="46.4404212590307" lon="6.964212963357568">
        <ele>1472.400000000000091</ele>
        <time>2014-06-15T15:37:43Z</time>
      </trkpt>
      <trkpt lat="46.440406255424023" lon="6.964190164580941">
        <ele>1471.920000000000073</ele>
        <time>2014-06-15T15:37:44Z</time>
      </trkpt>
      <trkpt lat="46.440391167998314" lon="6.96417348459363">
        <ele>1471.440000000000055</ele>
        <time>2014-06-15T15:37:45Z</time>
      </trkpt>
      <trkpt lat="46.440373733639717" lon="6.96416174992919">
        <ele>1471.440000000000055</ele>
        <time>2014-06-15T15:37:46Z</time>
      </trkpt>
      <trkpt lat="46.440354790538549" lon="6.964152865111828">
        <ele>1470.950000000000045</ele>
        <time>2014-06-15T15:37:47Z</time>
      </trkpt>
      <trkpt lat="46.440161671489477" lon="6.964241545647383">
        <ele>1469.029999999999973</ele>
        <time>2014-06-15T15:37:57Z</time>
      </trkpt>
      <trkpt lat="46.440143147483468" lon="6.964250011369586">
        <ele>1469.029999999999973</ele>
        <time>2014-06-15T15:37:58Z</time>
      </trkpt>
      <trkpt lat="46.440126383677125" lon="6.964258560910821">
        <ele>1469.029999999999973</ele>
        <time>2014-06-15T15:37:59Z</time>
      </trkpt>
      <trkpt lat="46.440106770023704" lon="6.964264009147882">
        <ele>1469.029999999999973</ele>
        <time>2014-06-15T15:38:00Z</time>
      </trkpt>
      <trkpt lat="46.44008263014257" lon="6.964267864823341">
        <ele>1469.029999999999973</ele>
        <time>2014-06-15T15:38:01Z</time>
      </trkpt>
      <trkpt lat="46.439773505553603" lon="6.964375991374254">
        <ele>1467.1099999999999</ele>
        <time>2014-06-15T15:38:14Z</time>
      </trkpt>
      <trkpt lat="46.439326498657465" lon="6.964448913931847">
        <ele>1464.710000000000036</ele>
        <time>2014-06-15T15:38:29Z</time>
      </trkpt>
      <trkpt lat="46.438779328018427" lon="6.964428378269076">
        <ele>1463.259999999999991</ele>
        <time>2014-06-15T15:38:43Z</time>
      </trkpt>
      <trkpt lat="46.438529547303915" lon="6.964402562007308">
        <ele>1462.779999999999973</ele>
        <time>2014-06-15T15:38:55Z</time>
      </trkpt>
      <trkpt lat="46.438508341088891" lon="6.964438101276755">
        <ele>1464.230000000000018</ele>
        <time>2014-06-15T15:39:24Z</time>
      </trkpt>
      <trkpt lat="46.438536923378706" lon="6.964408261701465">
        <ele>1463.259999999999991</ele>
        <time>2014-06-15T15:39:53Z</time>
      </trkpt>
      <trkpt lat="46.438463162630796" lon="6.964376075193286">
        <ele>1464.230000000000018</ele>
        <time>2014-06-15T15:40:09Z</time>
      </trkpt>
      <trkpt lat="46.438456289470196" lon="6.964385965839028">
        <ele>1463.259999999999991</ele>
        <time>2014-06-15T15:40:19Z</time>
      </trkpt>
      <trkpt lat="46.43842913210392" lon="6.964396527037024">
        <ele>1462.779999999999973</ele>
        <time>2014-06-15T15:40:26Z</time>
      </trkpt>
      <trkpt lat="46.438413457944989" lon="6.964402729645371">
        <ele>1462.779999999999973</ele>
        <time>2014-06-15T15:40:27Z</time>
      </trkpt>
      <trkpt lat="46.438166946172714" lon="6.964420834556222">
        <ele>1458.460000000000036</ele>
        <time>2014-06-15T15:40:40Z</time>
      </trkpt>
      <trkpt lat="46.438134256750345" lon="6.964407088235021">
        <ele>1457.019999999999982</ele>
        <time>2014-06-15T15:40:43Z</time>
      </trkpt>
      <trkpt lat="46.438123779371381" lon="6.964397616684437">
        <ele>1456.529999999999973</ele>
        <time>2014-06-15T15:40:44Z</time>
      </trkpt>
      <trkpt lat="46.438110200688243" lon="6.964381858706474">
        <ele>1456.049999999999955</ele>
        <time>2014-06-15T15:40:45Z</time>
      </trkpt>
      <trkpt lat="46.438095783814788" lon="6.964365933090448">
        <ele>1455.569999999999936</ele>
        <time>2014-06-15T15:40:46Z</time>
      </trkpt>
      <trkpt lat="46.438083378598094" lon="6.964351935312152">
        <ele>1455.089999999999918</ele>
        <time>2014-06-15T15:40:47Z</time>
      </trkpt>
      <trkpt lat="46.438069883733988" lon="6.964337769895792">
        <ele>1454.6099999999999</ele>
        <time>2014-06-15T15:40:48Z</time>
      </trkpt>
      <trkpt lat="46.437950944527984" lon="6.964222518727183">
        <ele>1448.3599999999999</ele>
        <time>2014-06-15T15:41:00Z</time>
      </trkpt>
      <trkpt lat="46.437934851273894" lon="6.964192427694798">
        <ele>1446.920000000000073</ele>
        <time>2014-06-15T15:41:08Z</time>
      </trkpt>
      <trkpt lat="46.437882715836167" lon="6.964215394109488">
        <ele>1444.519999999999982</ele>
        <time>2014-06-15T15:41:19Z</time>
      </trkpt>
      <trkpt lat="46.437869723886251" lon="6.96421941742301">
        <ele>1444.039999999999964</ele>
        <time>2014-06-15T15:41:20Z</time>
      </trkpt>
      <trkpt lat="46.437755646184087" lon="6.964323855936527">
        <ele>1445.480000000000018</ele>
        <time>2014-06-15T15:41:33Z</time>
      </trkpt>
      <trkpt lat="46.437749024480581" lon="6.964332405477762">
        <ele>1445.960000000000036</ele>
        <time>2014-06-15T15:41:34Z</time>
      </trkpt>
      <trkpt lat="46.437665121629834" lon="6.96427121758461">
        <ele>1451.730000000000018</ele>
        <time>2014-06-15T15:41:47Z</time>
      </trkpt>
      <trkpt lat="46.437657913193107" lon="6.964198211207986">
        <ele>1454.6099999999999</ele>
        <time>2014-06-15T15:41:54Z</time>
      </trkpt>
      <trkpt lat="46.437636623159051" lon="6.964154541492462">
        <ele>1455.569999999999936</ele>
        <time>2014-06-15T15:41:57Z</time>
      </trkpt>
      <trkpt lat="46.437467392534018" lon="6.964008193463087">
        <ele>1454.130000000000109</ele>
        <time>2014-06-15T15:42:11Z</time>
      </trkpt>
      <trkpt lat="46.437445851042867" lon="6.96396142244339">
        <ele>1455.569999999999936</ele>
        <time>2014-06-15T15:42:15Z</time>
      </trkpt>
      <trkpt lat="46.43742305226624" lon="6.963702253997326">
        <ele>1460.8599999999999</ele>
        <time>2014-06-15T15:42:29Z</time>
      </trkpt>
      <trkpt lat="46.437391703948379" lon="6.963486755266786">
        <ele>1464.230000000000018</ele>
        <time>2014-06-15T15:42:42Z</time>
      </trkpt>
      <trkpt lat="46.437387010082603" lon="6.963474182412028">
        <ele>1464.230000000000018</ele>
        <time>2014-06-15T15:42:43Z</time>
      </trkpt>
      <trkpt lat="46.437279973179102" lon="6.963289612904191">
        <ele>1465.670000000000073</ele>
        <time>2014-06-15T15:43:01Z</time>
      </trkpt>
      <trkpt lat="46.43723395653069" lon="6.963147036731243">
        <ele>1467.589999999999918</ele>
        <time>2014-06-15T15:43:16Z</time>
      </trkpt>
      <trkpt lat="46.437225826084614" lon="6.963134799152613">
        <ele>1467.589999999999918</ele>
        <time>2014-06-15T15:43:17Z</time>
      </trkpt>
      <trkpt lat="46.437170589342713" lon="6.963046789169312">
        <ele>1469.509999999999991</ele>
        <time>2014-06-15T15:43:23Z</time>
      </trkpt>
      <trkpt lat="46.437053829431534" lon="6.962920054793358">
        <ele>1471.440000000000055</ele>
        <time>2014-06-15T15:43:37Z</time>
      </trkpt>
      <trkpt lat="46.436974368989468" lon="6.962865991517901">
        <ele>1473.3599999999999</ele>
        <time>2014-06-15T15:43:52Z</time>
      </trkpt>
      <trkpt lat="46.436899853870273" lon="6.962821818888187">
        <ele>1475.759999999999991</ele>
        <time>2014-06-15T15:44:06Z</time>
      </trkpt>
      <trkpt lat="46.436771610751748" lon="6.962742106989026">
        <ele>1477.680000000000064</ele>
        <time>2014-06-15T15:44:22Z</time>
      </trkpt>
      <trkpt lat="46.436625430360436" lon="6.962647307664156">
        <ele>1479.130000000000109</ele>
        <time>2014-06-15T15:44:40Z</time>
      </trkpt>
      <trkpt lat="46.43651420250535" lon="6.962560638785362">
        <ele>1480.089999999999918</ele>
        <time>2014-06-15T15:44:53Z</time>
      </trkpt>
      <trkpt lat="46.436395347118378" lon="6.96245008148253">
        <ele>1481.049999999999955</ele>
        <time>2014-06-15T15:45:09Z</time>
      </trkpt>
      <trkpt lat="46.436284370720387" lon="6.962423594668508">
        <ele>1480.089999999999918</ele>
        <time>2014-06-15T15:45:16Z</time>
      </trkpt>
      <trkpt lat="46.43626400269568" lon="6.962403897196054">
        <ele>1480.089999999999918</ele>
        <time>2014-06-15T15:45:18Z</time>
      </trkpt>
      <trkpt lat="46.436259895563126" lon="6.962358048185706">
        <ele>1479.6099999999999</ele>
        <time>2014-06-15T15:45:20Z</time>
      </trkpt>
      <trkpt lat="46.436176160350442" lon="6.961956219747663">
        <ele>1471.920000000000073</ele>
        <time>2014-06-15T15:45:33Z</time>
      </trkpt>
      <trkpt lat="46.43606903962791" lon="6.96155690588057">
        <ele>1463.740000000000009</ele>
        <time>2014-06-15T15:45:45Z</time>
      </trkpt>
      <trkpt lat="46.436001062393188" lon="6.96120360866189">
        <ele>1457.5</ele>
        <time>2014-06-15T15:45:55Z</time>
      </trkpt>
      <trkpt lat="46.435984382405877" lon="6.961178127676249">
        <ele>1457.019999999999982</ele>
        <time>2014-06-15T15:45:56Z</time>
      </trkpt>
      <trkpt lat="46.435972983017564" lon="6.961145186796784">
        <ele>1456.529999999999973</ele>
        <time>2014-06-15T15:45:57Z</time>
      </trkpt>
      <trkpt lat="46.435970636084676" lon="6.961112497374415">
        <ele>1456.049999999999955</ele>
        <time>2014-06-15T15:45:58Z</time>
      </trkpt>
      <trkpt lat="46.435973737388849" lon="6.961085675284266">
        <ele>1455.569999999999936</ele>
        <time>2014-06-15T15:45:59Z</time>
      </trkpt>
      <trkpt lat="46.435979017987847" lon="6.961062122136354">
        <ele>1455.089999999999918</ele>
        <time>2014-06-15T15:46:00Z</time>
      </trkpt>
      <trkpt lat="46.435984633862972" lon="6.961043598130345">
        <ele>1454.6099999999999</ele>
        <time>2014-06-15T15:46:01Z</time>
      </trkpt>
      <trkpt lat="46.436010701581836" lon="6.960971765220165">
        <ele>1452.690000000000055</ele>
        <time>2014-06-15T15:46:09Z</time>
      </trkpt>
      <trkpt lat="46.436022017151117" lon="6.960947960615158">
        <ele>1451.730000000000018</ele>
        <time>2014-06-15T15:46:21Z</time>
      </trkpt>
      <trkpt lat="46.436040541157126" lon="6.960953492671251">
        <ele>1450.769999999999982</ele>
        <time>2014-06-15T15:46:33Z</time>
      </trkpt>
      <trkpt lat="46.436064261943102" lon="6.960879480466247">
        <ele>1448.839999999999918</ele>
        <time>2014-06-15T15:46:48Z</time>
      </trkpt>
      <trkpt lat="46.436070129275322" lon="6.960828518494964">
        <ele>1447.880000000000109</ele>
        <time>2014-06-15T15:46:55Z</time>
      </trkpt>
      <trkpt lat="46.436068788170815" lon="6.960796164348722">
        <ele>1447.400000000000091</ele>
        <time>2014-06-15T15:46:56Z</time>
      </trkpt>
      <trkpt lat="46.436068117618561" lon="6.960763474926353">
        <ele>1446.920000000000073</ele>
        <time>2014-06-15T15:46:57Z</time>
      </trkpt>
      <trkpt lat="46.436065603047609" lon="6.960734473541379">
        <ele>1446.440000000000055</ele>
        <time>2014-06-15T15:46:58Z</time>
      </trkpt>
      <trkpt lat="46.43606124445796" lon="6.960710501298308">
        <ele>1446.440000000000055</ele>
        <time>2014-06-15T15:46:59Z</time>
      </trkpt>
      <trkpt lat="46.436055712401867" lon="6.960692899301648">
        <ele>1446.440000000000055</ele>
        <time>2014-06-15T15:47:00Z</time>
      </trkpt>
      <trkpt lat="46.436057472601533" lon="6.960653336718678">
        <ele>1446.440000000000055</ele>
        <time>2014-06-15T15:47:03Z</time>
      </trkpt>
      <trkpt lat="46.436056802049279" lon="6.960631459951401">
        <ele>1446.440000000000055</ele>
        <time>2014-06-15T15:47:04Z</time>
      </trkpt>
      <trkpt lat="46.436052359640598" lon="6.960599441081285">
        <ele>1445.960000000000036</ele>
        <time>2014-06-15T15:47:05Z</time>
      </trkpt>
      <trkpt lat="46.436042049899697" lon="6.960565075278282">
        <ele>1445.960000000000036</ele>
        <time>2014-06-15T15:47:06Z</time>
      </trkpt>
      <trkpt lat="46.436028303578496" lon="6.960531547665596">
        <ele>1445.480000000000018</ele>
        <time>2014-06-15T15:47:07Z</time>
      </trkpt>
      <trkpt lat="46.435874830931425" lon="6.960247149690986">
        <ele>1442.599999999999909</ele>
        <time>2014-06-15T15:47:17Z</time>
      </trkpt>
      <trkpt lat="46.435866951942444" lon="6.960224434733391">
        <ele>1442.1099999999999</ele>
        <time>2014-06-15T15:47:18Z</time>
      </trkpt>
      <trkpt lat="46.435863012447953" lon="6.960194846615195">
        <ele>1441.630000000000109</ele>
        <time>2014-06-15T15:47:19Z</time>
      </trkpt>
      <trkpt lat="46.43585748039186" lon="6.960164336487651">
        <ele>1440.670000000000073</ele>
        <time>2014-06-15T15:47:20Z</time>
      </trkpt>
      <trkpt lat="46.435846332460642" lon="6.960140867158771">
        <ele>1440.190000000000055</ele>
        <time>2014-06-15T15:47:21Z</time>
      </trkpt>
      <trkpt lat="46.435838118195534" lon="6.960122091695666">
        <ele>1439.710000000000036</ele>
        <time>2014-06-15T15:47:22Z</time>
      </trkpt>
      <trkpt lat="46.435833591967821" lon="6.960096945986152">
        <ele>1439.230000000000018</ele>
        <time>2014-06-15T15:47:23Z</time>
      </trkpt>
      <trkpt lat="46.435812637209892" lon="6.959952777251601">
        <ele>1436.349999999999909</ele>
        <time>2014-06-15T15:47:28Z</time>
      </trkpt>
      <trkpt lat="46.435776930302382" lon="6.959856217727065">
        <ele>1433.940000000000055</ele>
        <time>2014-06-15T15:47:32Z</time>
      </trkpt>
      <trkpt lat="46.435784893110394" lon="6.959837023168802">
        <ele>1432.980000000000018</ele>
        <time>2014-06-15T15:47:33Z</time>
      </trkpt>
      <trkpt lat="46.435808697715402" lon="6.959777260199189">
        <ele>1431.539999999999964</ele>
        <time>2014-06-15T15:47:36Z</time>
      </trkpt>
      <trkpt lat="46.43580081872642" lon="6.9597611669451">
        <ele>1431.059999999999945</ele>
        <time>2014-06-15T15:47:37Z</time>
      </trkpt>
      <trkpt lat="46.435789167881012" lon="6.959736105054617">
        <ele>1430.099999999999909</ele>
        <time>2014-06-15T15:47:39Z</time>
      </trkpt>
      <trkpt lat="46.435789586976171" lon="6.959719927981496">
        <ele>1430.099999999999909</ele>
        <time>2014-06-15T15:47:40Z</time>
      </trkpt>
      <trkpt lat="46.43579687923193" lon="6.95970207452774">
        <ele>1429.619999999999891</ele>
        <time>2014-06-15T15:47:41Z</time>
      </trkpt>
      <trkpt lat="46.435810038819909" lon="6.959682879969478">
        <ele>1429.1400000000001</ele>
        <time>2014-06-15T15:47:42Z</time>
      </trkpt>
      <trkpt lat="46.43582521006465" lon="6.959663769230247">
        <ele>1428.180000000000064</ele>
        <time>2014-06-15T15:47:43Z</time>
      </trkpt>
      <trkpt lat="46.435838453471661" lon="6.959650442004204">
        <ele>1427.700000000000045</ele>
        <time>2014-06-15T15:47:44Z</time>
      </trkpt>
      <trkpt lat="46.435851193964481" lon="6.959639629349113">
        <ele>1427.700000000000045</ele>
        <time>2014-06-15T15:47:45Z</time>
      </trkpt>
      <trkpt lat="46.435863934457302" lon="6.959630073979497">
        <ele>1427.210000000000036</ele>
        <time>2014-06-15T15:47:46Z</time>
      </trkpt>
      <trkpt lat="46.435921182855964" lon="6.95960140787065">
        <ele>1424.329999999999927</ele>
        <time>2014-06-15T15:47:56Z</time>
      </trkpt>
      <trkpt lat="46.435887403786182" lon="6.959516918286681">
        <ele>1422.410000000000082</ele>
        <time>2014-06-15T15:48:08Z</time>
      </trkpt>
      <trkpt lat="46.435877764597535" lon="6.959508787840605">
        <ele>1421.930000000000064</ele>
        <time>2014-06-15T15:48:09Z</time>
      </trkpt>
      <trkpt lat="46.435832753777504" lon="6.959433266893029">
        <ele>1419.519999999999982</ele>
        <time>2014-06-15T15:48:21Z</time>
      </trkpt>
      <trkpt lat="46.435826634988189" lon="6.959421532228589">
        <ele>1419.039999999999964</ele>
        <time>2014-06-15T15:48:22Z</time>
      </trkpt>
      <trkpt lat="46.435799142345786" lon="6.959387753158808">
        <ele>1417.599999999999909</ele>
        <time>2014-06-15T15:48:28Z</time>
      </trkpt>
      <trkpt lat="46.435784054920077" lon="6.959376269951463">
        <ele>1417.119999999999891</ele>
        <time>2014-06-15T15:48:29Z</time>
      </trkpt>
      <trkpt lat="46.435593450441957" lon="6.959360176697373">
        <ele>1415.200000000000045</ele>
        <time>2014-06-15T15:48:40Z</time>
      </trkpt>
      <trkpt lat="46.435457998886704" lon="6.959436116740108">
        <ele>1410.3900000000001</ele>
        <time>2014-06-15T15:48:51Z</time>
      </trkpt>
      <trkpt lat="46.435429081320763" lon="6.959470147266984">
        <ele>1406.069999999999936</ele>
        <time>2014-06-15T15:49:03Z</time>
      </trkpt>
      <trkpt lat="46.435387171804905" lon="6.95951490662992">
        <ele>1404.1400000000001</ele>
        <time>2014-06-15T15:49:16Z</time>
      </trkpt>
      <trkpt lat="46.435327995568514" lon="6.959517169743776">
        <ele>1404.619999999999891</ele>
        <time>2014-06-15T15:49:28Z</time>
      </trkpt>
      <trkpt lat="46.43531072884798" lon="6.959429662674665">
        <ele>1402.220000000000027</ele>
        <time>2014-06-15T15:49:47Z</time>
      </trkpt>
      <trkpt lat="46.435270579531789" lon="6.959355399012566">
        <ele>1400.299999999999955</ele>
        <time>2014-06-15T15:49:58Z</time>
      </trkpt>
      <trkpt lat="46.435251217335463" lon="6.959321368485689">
        <ele>1399.819999999999936</ele>
        <time>2014-06-15T15:50:05Z</time>
      </trkpt>
      <trkpt lat="46.435259683057666" lon="6.959301335737109">
        <ele>1399.339999999999918</ele>
        <time>2014-06-15T15:50:06Z</time>
      </trkpt>
      <trkpt lat="46.435292204841971" lon="6.959224306046963">
        <ele>1396.450000000000045</ele>
        <time>2014-06-15T15:50:15Z</time>
      </trkpt>
      <trkpt lat="46.435296647250652" lon="6.959193963557482">
        <ele>1395.970000000000027</ele>
        <time>2014-06-15T15:50:17Z</time>
      </trkpt>
      <trkpt lat="46.435298658907413" lon="6.959176110103726">
        <ele>1395.970000000000027</ele>
        <time>2014-06-15T15:50:18Z</time>
      </trkpt>
      <trkpt lat="46.435300335288048" lon="6.959157502278686">
        <ele>1395.490000000000009</ele>
        <time>2014-06-15T15:50:19Z</time>
      </trkpt>
      <trkpt lat="46.43529312685132" lon="6.959066977724433">
        <ele>1393.569999999999936</ele>
        <time>2014-06-15T15:50:23Z</time>
      </trkpt>
      <trkpt lat="46.435297736898065" lon="6.95902138017118">
        <ele>1392.6099999999999</ele>
        <time>2014-06-15T15:50:25Z</time>
      </trkpt>
      <trkpt lat="46.435294551774859" lon="6.958997659385204">
        <ele>1391.650000000000091</ele>
        <time>2014-06-15T15:50:26Z</time>
      </trkpt>
      <trkpt lat="46.435286337509751" lon="6.958974022418261">
        <ele>1391.170000000000073</ele>
        <time>2014-06-15T15:50:27Z</time>
      </trkpt>
      <trkpt lat="46.435283403843641" lon="6.958952229470015">
        <ele>1390.680000000000064</ele>
        <time>2014-06-15T15:50:28Z</time>
      </trkpt>
      <trkpt lat="46.435287930071354" lon="6.958931526169181">
        <ele>1390.200000000000045</ele>
        <time>2014-06-15T15:50:29Z</time>
      </trkpt>
      <trkpt lat="46.435290444642305" lon="6.95890755392611">
        <ele>1389.720000000000027</ele>
        <time>2014-06-15T15:50:30Z</time>
      </trkpt>
      <trkpt lat="46.43529555760324" lon="6.958883665502071">
        <ele>1389.240000000000009</ele>
        <time>2014-06-15T15:50:31Z</time>
      </trkpt>
      <trkpt lat="46.435299832373857" lon="6.958862794563174">
        <ele>1389.240000000000009</ele>
        <time>2014-06-15T15:50:32Z</time>
      </trkpt>
      <trkpt lat="46.435283990576863" lon="6.9588269200176">
        <ele>1388.279999999999973</ele>
        <time>2014-06-15T15:50:35Z</time>
      </trkpt>
      <trkpt lat="46.435302430763841" lon="6.958771012723446">
        <ele>1385.880000000000109</ele>
        <time>2014-06-15T15:50:39Z</time>
      </trkpt>
      <trkpt lat="46.435316260904074" lon="6.958760032430291">
        <ele>1384.920000000000073</ele>
        <time>2014-06-15T15:50:40Z</time>
      </trkpt>
      <trkpt lat="46.435326989740133" lon="6.958742262795568">
        <ele>1383.960000000000036</ele>
        <time>2014-06-15T15:50:41Z</time>
      </trkpt>
      <trkpt lat="46.435305783525109" lon="6.958706555888057">
        <ele>1379.630000000000109</ele>
        <time>2014-06-15T15:50:50Z</time>
      </trkpt>
      <trkpt lat="46.435295976698399" lon="6.958713093772531">
        <ele>1379.150000000000091</ele>
        <time>2014-06-15T15:50:51Z</time>
      </trkpt>
      <trkpt lat="46.435285331681371" lon="6.958718793466687">
        <ele>1379.150000000000091</ele>
        <time>2014-06-15T15:50:52Z</time>
      </trkpt>
      <trkpt lat="46.435191370546818" lon="6.958726085722446">
        <ele>1377.710000000000036</ele>
        <time>2014-06-15T15:50:58Z</time>
      </trkpt>
      <trkpt lat="46.435169242322445" lon="6.958748884499073">
        <ele>1377.230000000000018</ele>
        <time>2014-06-15T15:50:59Z</time>
      </trkpt>
      <trkpt lat="46.435146946460009" lon="6.958766486495733">
        <ele>1376.75</ele>
        <time>2014-06-15T15:51:00Z</time>
      </trkpt>
      <trkpt lat="46.43508056178689" lon="6.958789620548487">
        <ele>1374.819999999999936</ele>
        <time>2014-06-15T15:51:05Z</time>
      </trkpt>
      <trkpt lat="46.435080645605922" lon="6.958750309422612">
        <ele>1373.380000000000109</ele>
        <time>2014-06-15T15:51:08Z</time>
      </trkpt>
      <trkpt lat="46.4350869320333" lon="6.958731701597571">
        <ele>1372.900000000000091</ele>
        <time>2014-06-15T15:51:09Z</time>
      </trkpt>
      <trkpt lat="46.43509279936552" lon="6.958714267238975">
        <ele>1372.900000000000091</ele>
        <time>2014-06-15T15:51:10Z</time>
      </trkpt>
      <trkpt lat="46.43509766086936" lon="6.958697084337473">
        <ele>1372.420000000000073</ele>
        <time>2014-06-15T15:51:11Z</time>
      </trkpt>
      <trkpt lat="46.435099253430963" lon="6.958675794303417">
        <ele>1371.460000000000036</ele>
        <time>2014-06-15T15:51:12Z</time>
      </trkpt>
      <trkpt lat="46.435098750516772" lon="6.958648804575205">
        <ele>1370.5</ele>
        <time>2014-06-15T15:51:13Z</time>
      </trkpt>
      <trkpt lat="46.43510059453547" lon="6.958615779876709">
        <ele>1369.539999999999964</ele>
        <time>2014-06-15T15:51:14Z</time>
      </trkpt>
      <trkpt lat="46.435105036944151" lon="6.958584683015943">
        <ele>1369.049999999999955</ele>
        <time>2014-06-15T15:51:15Z</time>
      </trkpt>
      <trkpt lat="46.435109144076705" lon="6.958556938916445">
        <ele>1368.089999999999918</ele>
        <time>2014-06-15T15:51:16Z</time>
      </trkpt>
      <trkpt lat="46.43511475995183" lon="6.95852936245501">
        <ele>1367.6099999999999</ele>
        <time>2014-06-15T15:51:17Z</time>
      </trkpt>
      <trkpt lat="46.435119369998574" lon="6.95850245654583">
        <ele>1367.130000000000109</ele>
        <time>2014-06-15T15:51:18Z</time>
      </trkpt>
      <trkpt lat="46.435124147683382" lon="6.958477729931474">
        <ele>1366.650000000000091</ele>
        <time>2014-06-15T15:51:19Z</time>
      </trkpt>
      <trkpt lat="46.435133116319776" lon="6.958454260602593">
        <ele>1366.170000000000073</ele>
        <time>2014-06-15T15:51:20Z</time>
      </trkpt>
      <trkpt lat="46.435137391090393" lon="6.958427941426635">
        <ele>1365.690000000000055</ele>
        <time>2014-06-15T15:51:21Z</time>
      </trkpt>
      <trkpt lat="46.435144850984216" lon="6.958401957526803">
        <ele>1365.210000000000036</ele>
        <time>2014-06-15T15:51:22Z</time>
      </trkpt>
      <trkpt lat="46.435157423838973" lon="6.958369435742497">
        <ele>1364.730000000000018</ele>
        <time>2014-06-15T15:51:23Z</time>
      </trkpt>
      <trkpt lat="46.435168739408255" lon="6.958335153758526">
        <ele>1364.25</ele>
        <time>2014-06-15T15:51:24Z</time>
      </trkpt>
      <trkpt lat="46.435199668630958" lon="6.95824789814651">
        <ele>1362.329999999999927</ele>
        <time>2014-06-15T15:51:31Z</time>
      </trkpt>
      <trkpt lat="46.435237051919103" lon="6.958119655027986">
        <ele>1359.440000000000055</ele>
        <time>2014-06-15T15:51:36Z</time>
      </trkpt>
      <trkpt lat="46.435248535126448" lon="6.958107920363545">
        <ele>1358.960000000000036</ele>
        <time>2014-06-15T15:51:37Z</time>
      </trkpt>
      <trkpt lat="46.435259934514761" lon="6.958087300881743">
        <ele>1358.480000000000018</ele>
        <time>2014-06-15T15:51:39Z</time>
      </trkpt>
      <trkpt lat="46.435265801846981" lon="6.958062741905451">
        <ele>1357.519999999999982</ele>
        <time>2014-06-15T15:51:40Z</time>
      </trkpt>
      <trkpt lat="46.435274267569184" lon="6.958040446043015">
        <ele>1357.519999999999982</ele>
        <time>2014-06-15T15:51:41Z</time>
      </trkpt>
      <trkpt lat="46.435271920636296" lon="6.958030303940177">
        <ele>1356.079999999999927</ele>
        <time>2014-06-15T15:51:51Z</time>
      </trkpt>
      <trkpt lat="46.435293797403574" lon="6.958026280626655">
        <ele>1357.039999999999964</ele>
        <time>2014-06-15T15:52:19Z</time>
      </trkpt>
      <trkpt lat="46.435303771868348" lon="6.95799526758492">
        <ele>1355.119999999999891</ele>
        <time>2014-06-15T15:52:54Z</time>
      </trkpt>
      <trkpt lat="46.435282230377197" lon="6.957974145188928">
        <ele>1353.670000000000073</ele>
        <time>2014-06-15T15:53:00Z</time>
      </trkpt>
      <trkpt lat="46.435269825160503" lon="6.957965428009629">
        <ele>1353.190000000000055</ele>
        <time>2014-06-15T15:53:01Z</time>
      </trkpt>
      <trkpt lat="46.435256497934461" lon="6.957959644496441">
        <ele>1353.190000000000055</ele>
        <time>2014-06-15T15:53:02Z</time>
      </trkpt>
      <trkpt lat="46.435242919251323" lon="6.957956543192267">
        <ele>1352.710000000000036</ele>
        <time>2014-06-15T15:53:03Z</time>
      </trkpt>
      <trkpt lat="46.435227077454329" lon="6.957962075248361">
        <ele>1352.230000000000018</ele>
        <time>2014-06-15T15:53:04Z</time>
      </trkpt>
      <trkpt lat="46.435211235657334" lon="6.957975151017308">
        <ele>1352.230000000000018</ele>
        <time>2014-06-15T15:53:05Z</time>
      </trkpt>
      <trkpt lat="46.435195812955499" lon="6.957994261756539">
        <ele>1351.75</ele>
        <time>2014-06-15T15:53:06Z</time>
      </trkpt>
      <trkpt lat="46.435185084119439" lon="6.958005828782916">
        <ele>1351.269999999999982</ele>
        <time>2014-06-15T15:53:07Z</time>
      </trkpt>
      <trkpt lat="46.435174942016602" lon="6.957979928702116">
        <ele>1351.269999999999982</ele>
        <time>2014-06-15T15:53:15Z</time>
      </trkpt>
      <trkpt lat="46.435196064412594" lon="6.957897869870067">
        <ele>1350.309999999999945</ele>
        <time>2014-06-15T15:53:23Z</time>
      </trkpt>
      <trkpt lat="46.435201680287719" lon="6.957816816866398">
        <ele>1346.460000000000036</ele>
        <time>2014-06-15T15:53:36Z</time>
      </trkpt>
      <trkpt lat="46.435194220393896" lon="6.957768285647035">
        <ele>1345.019999999999982</ele>
        <time>2014-06-15T15:53:50Z</time>
      </trkpt>
      <trkpt lat="46.435184413567185" lon="6.95771967060864">
        <ele>1342.619999999999891</ele>
        <time>2014-06-15T15:54:00Z</time>
      </trkpt>
      <trkpt lat="46.435183407738805" lon="6.95770550519228">
        <ele>1342.1400000000001</ele>
        <time>2014-06-15T15:54:01Z</time>
      </trkpt>
      <trkpt lat="46.435182150453329" lon="6.957691172137856">
        <ele>1342.1400000000001</ele>
        <time>2014-06-15T15:54:02Z</time>
      </trkpt>
      <trkpt lat="46.435176115483046" lon="6.95768010802567">
        <ele>1341.660000000000082</ele>
        <time>2014-06-15T15:54:03Z</time>
      </trkpt>
      <trkpt lat="46.435168823227286" lon="6.957655968144536">
        <ele>1340.700000000000045</ele>
        <time>2014-06-15T15:54:04Z</time>
      </trkpt>
      <trkpt lat="46.435164213180542" lon="6.957625541836023">
        <ele>1340.220000000000027</ele>
        <time>2014-06-15T15:54:05Z</time>
      </trkpt>
      <trkpt lat="46.435158681124449" lon="6.95759947411716">
        <ele>1339.730000000000018</ele>
        <time>2014-06-15T15:54:06Z</time>
      </trkpt>
      <trkpt lat="46.435157423838973" lon="6.957575334236026">
        <ele>1338.769999999999982</ele>
        <time>2014-06-15T15:54:07Z</time>
      </trkpt>
      <trkpt lat="46.435157340019941" lon="6.957547925412655">
        <ele>1338.289999999999964</ele>
        <time>2014-06-15T15:54:08Z</time>
      </trkpt>
      <trkpt lat="46.435174103826284" lon="6.957448348402977">
        <ele>1336.849999999999909</ele>
        <time>2014-06-15T15:54:14Z</time>
      </trkpt>
      <trkpt lat="46.435173936188221" lon="6.95742747746408">
        <ele>1336.369999999999891</ele>
        <time>2014-06-15T15:54:15Z</time>
      </trkpt>
      <trkpt lat="46.435174774378538" lon="6.957398056983948">
        <ele>1335.410000000000082</ele>
        <time>2014-06-15T15:54:16Z</time>
      </trkpt>
      <trkpt lat="46.435147700831294" lon="6.957139810547233">
        <ele>1328.680000000000064</ele>
        <time>2014-06-15T15:54:27Z</time>
      </trkpt>
      <trkpt lat="46.435146108269691" lon="6.957076443359256">
        <ele>1326.759999999999991</ele>
        <time>2014-06-15T15:54:30Z</time>
      </trkpt>
      <trkpt lat="46.435148706659675" lon="6.957051968201995">
        <ele>1326.279999999999973</ele>
        <time>2014-06-15T15:54:31Z</time>
      </trkpt>
      <trkpt lat="46.435149377211928" lon="6.957022547721863">
        <ele>1325.309999999999945</ele>
        <time>2014-06-15T15:54:32Z</time>
      </trkpt>
      <trkpt lat="46.435141414403915" lon="6.95669892244041">
        <ele>1316.660000000000082</ele>
        <time>2014-06-15T15:54:44Z</time>
      </trkpt>
      <trkpt lat="46.435138313099742" lon="6.956518376246095">
        <ele>1311.380000000000109</ele>
        <time>2014-06-15T15:54:52Z</time>
      </trkpt>
      <trkpt lat="46.435147114098072" lon="6.956445286050439">
        <ele>1309.930000000000064</ele>
        <time>2014-06-15T15:54:55Z</time>
      </trkpt>
      <trkpt lat="46.435147617012262" lon="6.956418799236417">
        <ele>1309.450000000000045</ele>
        <time>2014-06-15T15:54:56Z</time>
      </trkpt>
      <trkpt lat="46.435157088562846" lon="6.956335818395019">
        <ele>1307.049999999999955</ele>
        <time>2014-06-15T15:55:00Z</time>
      </trkpt>
      <trkpt lat="46.435162285342813" lon="6.956313690170646">
        <ele>1307.049999999999955</ele>
        <time>2014-06-15T15:55:01Z</time>
      </trkpt>
      <trkpt lat="46.435162955895066" lon="6.956288460642099">
        <ele>1306.569999999999936</ele>
        <time>2014-06-15T15:55:02Z</time>
      </trkpt>
      <trkpt lat="46.435160273686051" lon="6.956262812018394">
        <ele>1306.089999999999918</ele>
        <time>2014-06-15T15:55:03Z</time>
      </trkpt>
      <trkpt lat="46.435157004743814" lon="6.956239845603704">
        <ele>1305.130000000000109</ele>
        <time>2014-06-15T15:55:04Z</time>
      </trkpt>
      <trkpt lat="46.4351543225348" lon="6.956191901117563">
        <ele>1303.690000000000055</ele>
        <time>2014-06-15T15:55:06Z</time>
      </trkpt>
      <trkpt lat="46.435156920924783" lon="6.956171533092856">
        <ele>1302.720000000000027</ele>
        <time>2014-06-15T15:55:07Z</time>
      </trkpt>
      <trkpt lat="46.435158178210258" lon="6.956141693517566">
        <ele>1302.240000000000009</ele>
        <time>2014-06-15T15:55:08Z</time>
      </trkpt>
      <trkpt lat="46.435194052755833" lon="6.955748833715916">
        <ele>1293.1099999999999</ele>
        <time>2014-06-15T15:55:20Z</time>
      </trkpt>
      <trkpt lat="46.435212912037969" lon="6.95565328001976">
        <ele>1290.230000000000018</ele>
        <time>2014-06-15T15:55:30Z</time>
      </trkpt>
      <trkpt lat="46.435267562046647" lon="6.955610197037458">
        <ele>1289.75</ele>
        <time>2014-06-15T15:55:40Z</time>
      </trkpt>
      <trkpt lat="46.435418520122766" lon="6.955355471000075">
        <ele>1288.299999999999955</ele>
        <time>2014-06-15T15:55:49Z</time>
      </trkpt>
      <trkpt lat="46.435327241197228" lon="6.954863704741001">
        <ele>1278.690000000000055</ele>
        <time>2014-06-15T15:56:00Z</time>
      </trkpt>
      <trkpt lat="46.435315255075693" lon="6.954363556578755">
        <ele>1274.3599999999999</ele>
        <time>2014-06-15T15:56:10Z</time>
      </trkpt>
      <trkpt lat="46.435345010831952" lon="6.953987209126353">
        <ele>1270.519999999999982</ele>
        <time>2014-06-15T15:56:16Z</time>
      </trkpt>
      <trkpt lat="46.435351967811584" lon="6.953919315710664">
        <ele>1269.559999999999945</ele>
        <time>2014-06-15T15:56:17Z</time>
      </trkpt>
      <trkpt lat="46.435396643355489" lon="6.953563336282969">
        <ele>1265.230000000000018</ele>
        <time>2014-06-15T15:56:22Z</time>
      </trkpt>
      <trkpt lat="46.435403516516089" lon="6.953499969094992">
        <ele>1264.269999999999982</ele>
        <time>2014-06-15T15:56:23Z</time>
      </trkpt>
      <trkpt lat="46.435410054400563" lon="6.953446241095662">
        <ele>1263.309999999999945</ele>
        <time>2014-06-15T15:56:24Z</time>
      </trkpt>
      <trkpt lat="46.435419274494052" lon="6.953393518924713">
        <ele>1262.829999999999927</ele>
        <time>2014-06-15T15:56:25Z</time>
      </trkpt>
      <trkpt lat="46.435425980016589" lon="6.953325709328055">
        <ele>1261.869999999999891</ele>
        <time>2014-06-15T15:56:26Z</time>
      </trkpt>
      <trkpt lat="46.43543092533946" lon="6.953250775113702">
        <ele>1261.3900000000001</ele>
        <time>2014-06-15T15:56:27Z</time>
      </trkpt>
      <trkpt lat="46.435471074655652" lon="6.952924467623234">
        <ele>1258.980000000000018</ele>
        <time>2014-06-15T15:56:32Z</time>
      </trkpt>
      <trkpt lat="46.435484904795885" lon="6.952856238931417">
        <ele>1258.5</ele>
        <time>2014-06-15T15:56:33Z</time>
      </trkpt>
      <trkpt lat="46.435498232021928" lon="6.952791782096028">
        <ele>1258.019999999999982</ele>
        <time>2014-06-15T15:56:34Z</time>
      </trkpt>
      <trkpt lat="46.43561415374279" lon="6.95232474245131">
        <ele>1253.220000000000027</ele>
        <time>2014-06-15T15:56:40Z</time>
      </trkpt>
      <trkpt lat="46.435632510110736" lon="6.952250311151147">
        <ele>1252.25</ele>
        <time>2014-06-15T15:56:41Z</time>
      </trkpt>
      <trkpt lat="46.435706522315741" lon="6.951942779123783">
        <ele>1248.410000000000082</ele>
        <time>2014-06-15T15:56:45Z</time>
      </trkpt>
      <trkpt lat="46.435721274465322" lon="6.951872454956174">
        <ele>1247.450000000000045</ele>
        <time>2014-06-15T15:56:46Z</time>
      </trkpt>
      <trkpt lat="46.43579444848001" lon="6.951602222397923">
        <ele>1245.039999999999964</ele>
        <time>2014-06-15T15:56:50Z</time>
      </trkpt>
      <trkpt lat="46.435831328853965" lon="6.951456377282739">
        <ele>1243.119999999999891</ele>
        <time>2014-06-15T15:56:52Z</time>
      </trkpt>
      <trkpt lat="46.43583744764328" lon="6.951392171904445">
        <ele>1242.160000000000082</ele>
        <time>2014-06-15T15:56:53Z</time>
      </trkpt>
      <trkpt lat="46.43584088422358" lon="6.951257809996605">
        <ele>1239.759999999999991</ele>
        <time>2014-06-15T15:56:55Z</time>
      </trkpt>
      <trkpt lat="46.435830742120743" lon="6.951185641810298">
        <ele>1238.319999999999936</ele>
        <time>2014-06-15T15:56:56Z</time>
      </trkpt>
      <trkpt lat="46.43581205047667" lon="6.951106013730168">
        <ele>1236.869999999999891</ele>
        <time>2014-06-15T15:56:57Z</time>
      </trkpt>
      <trkpt lat="46.435801070183516" lon="6.951023116707802">
        <ele>1235.430000000000064</ele>
        <time>2014-06-15T15:56:58Z</time>
      </trkpt>
      <trkpt lat="46.435795286670327" lon="6.950938291847706">
        <ele>1233.990000000000009</ele>
        <time>2014-06-15T15:56:59Z</time>
      </trkpt>
      <trkpt lat="46.435796543955803" lon="6.950852628797293">
        <ele>1232.549999999999955</ele>
        <time>2014-06-15T15:57:00Z</time>
      </trkpt>
      <trkpt lat="46.435800986364484" lon="6.950772162526846">
        <ele>1231.1099999999999</ele>
        <time>2014-06-15T15:57:01Z</time>
      </trkpt>
      <trkpt lat="46.43581104464829" lon="6.950601423159242">
        <ele>1229.180000000000064</ele>
        <time>2014-06-15T15:57:03Z</time>
      </trkpt>
      <trkpt lat="46.435832753777504" lon="6.95042883977294">
        <ele>1226.779999999999973</ele>
        <time>2014-06-15T15:57:05Z</time>
      </trkpt>
      <trkpt lat="46.43597180955112" lon="6.949432315304875">
        <ele>1213.799999999999955</ele>
        <time>2014-06-15T15:57:17Z</time>
      </trkpt>
      <trkpt lat="46.435923697426915" lon="6.948581552132964">
        <ele>1199.8599999999999</ele>
        <time>2014-06-15T15:57:28Z</time>
      </trkpt>
      <trkpt lat="46.435888409614563" lon="6.94842841476202">
        <ele>1196.980000000000018</ele>
        <time>2014-06-15T15:57:30Z</time>
      </trkpt>
      <trkpt lat="46.435864269733429" lon="6.94835658185184">
        <ele>1196.019999999999982</ele>
        <time>2014-06-15T15:57:31Z</time>
      </trkpt>
      <trkpt lat="46.435833005234599" lon="6.948289107531309">
        <ele>1194.579999999999927</ele>
        <time>2014-06-15T15:57:32Z</time>
      </trkpt>
      <trkpt lat="46.435791430994868" lon="6.948231356218457">
        <ele>1193.6099999999999</ele>
        <time>2014-06-15T15:57:33Z</time>
      </trkpt>
      <trkpt lat="46.435736026614904" lon="6.948175868019462">
        <ele>1192.170000000000073</ele>
        <time>2014-06-15T15:57:34Z</time>
      </trkpt>
      <trkpt lat="46.435664780437946" lon="6.948114261031151">
        <ele>1190.730000000000018</ele>
        <time>2014-06-15T15:57:35Z</time>
      </trkpt>
      <trkpt lat="46.43493982963264" lon="6.947762724012136">
        <ele>1178.230000000000018</ele>
        <time>2014-06-15T15:57:44Z</time>
      </trkpt>
      <trkpt lat="46.434751572087407" lon="6.947669349610806">
        <ele>1174.3900000000001</ele>
        <time>2014-06-15T15:57:47Z</time>
      </trkpt>
      <trkpt lat="46.434541689231992" lon="6.947484528645873">
        <ele>1170.059999999999945</ele>
        <time>2014-06-15T15:57:51Z</time>
      </trkpt>
      <trkpt lat="46.434501288458705" lon="6.947427364066243">
        <ele>1169.099999999999909</ele>
        <time>2014-06-15T15:57:52Z</time>
      </trkpt>
      <trkpt lat="46.434376062825322" lon="6.947244387120008">
        <ele>1166.220000000000027</ele>
        <time>2014-06-15T15:57:55Z</time>
      </trkpt>
      <trkpt lat="46.434339266270399" lon="6.947169536724687">
        <ele>1165.259999999999991</ele>
        <time>2014-06-15T15:57:56Z</time>
      </trkpt>
      <trkpt lat="46.434063501656055" lon="6.946381470188498">
        <ele>1158.529999999999973</ele>
        <time>2014-06-15T15:58:07Z</time>
      </trkpt>
      <trkpt lat="46.434008600190282" lon="6.9460429251194">
        <ele>1156.599999999999909</ele>
        <time>2014-06-15T15:58:13Z</time>
      </trkpt>
      <trkpt lat="46.433984208852053" lon="6.945978049188852">
        <ele>1156.599999999999909</ele>
        <time>2014-06-15T15:58:14Z</time>
      </trkpt>
      <trkpt lat="46.433905335143209" lon="6.94578442722559">
        <ele>1155.6400000000001</ele>
        <time>2014-06-15T15:58:17Z</time>
      </trkpt>
      <trkpt lat="46.433537872508168" lon="6.944689834490418">
        <ele>1149.3900000000001</ele>
        <time>2014-06-15T15:58:28Z</time>
      </trkpt>
      <trkpt lat="46.433453466743231" lon="6.944396216422319">
        <ele>1147.470000000000027</ele>
        <time>2014-06-15T15:58:31Z</time>
      </trkpt>
      <trkpt lat="46.433445252478123" lon="6.944283982738853">
        <ele>1146.509999999999991</ele>
        <time>2014-06-15T15:58:32Z</time>
      </trkpt>
      <trkpt lat="46.433452544733882" lon="6.944162528961897">
        <ele>1145.549999999999955</ele>
        <time>2014-06-15T15:58:33Z</time>
      </trkpt>
      <trkpt lat="46.43347249366343" lon="6.944037806242704">
        <ele>1145.069999999999936</ele>
        <time>2014-06-15T15:58:34Z</time>
      </trkpt>
      <trkpt lat="46.433498142287135" lon="6.943912329152226">
        <ele>1144.1099999999999</ele>
        <time>2014-06-15T15:58:35Z</time>
      </trkpt>
      <trkpt lat="46.433564778417349" lon="6.943437494337559">
        <ele>1140.259999999999991</ele>
        <time>2014-06-15T15:58:39Z</time>
      </trkpt>
      <trkpt lat="46.433559246361256" lon="6.943304473534226">
        <ele>1138.819999999999936</ele>
        <time>2014-06-15T15:58:40Z</time>
      </trkpt>
      <trkpt lat="46.433546170592308" lon="6.943183438852429">
        <ele>1137.8599999999999</ele>
        <time>2014-06-15T15:58:41Z</time>
      </trkpt>
      <trkpt lat="46.433522533625364" lon="6.943042455241084">
        <ele>1136.900000000000091</ele>
        <time>2014-06-15T15:58:42Z</time>
      </trkpt>
      <trkpt lat="46.433495376259089" lon="6.942945225164294">
        <ele>1135.940000000000055</ele>
        <time>2014-06-15T15:58:43Z</time>
      </trkpt>
      <trkpt lat="46.433450952172279" lon="6.942829973995686">
        <ele>1134.970000000000027</ele>
        <time>2014-06-15T15:58:44Z</time>
      </trkpt>
      <trkpt lat="46.433392949402332" lon="6.942719584330916">
        <ele>1134.009999999999991</ele>
        <time>2014-06-15T15:58:45Z</time>
      </trkpt>
      <trkpt lat="46.433322709053755" lon="6.942614139989018">
        <ele>1133.049999999999955</ele>
        <time>2014-06-15T15:58:46Z</time>
      </trkpt>
      <trkpt lat="46.433246349915862" lon="6.942517748102546">
        <ele>1132.089999999999918</ele>
        <time>2014-06-15T15:58:47Z</time>
      </trkpt>
      <trkpt lat="46.433171331882477" lon="6.94243292324245">
        <ele>1131.130000000000109</ele>
        <time>2014-06-15T15:58:48Z</time>
      </trkpt>
      <trkpt lat="46.433030851185322" lon="6.942281881347299">
        <ele>1129.210000000000036</ele>
        <time>2014-06-15T15:58:50Z</time>
      </trkpt>
      <trkpt lat="46.432957509532571" lon="6.942225974053144">
        <ele>1128.240000000000009</ele>
        <time>2014-06-15T15:58:51Z</time>
      </trkpt>
      <trkpt lat="46.43287930637598" lon="6.942195296287537">
        <ele>1127.279999999999973</ele>
        <time>2014-06-15T15:58:52Z</time>
      </trkpt>
      <trkpt lat="46.432799259200692" lon="6.942191524431109">
        <ele>1126.319999999999936</ele>
        <time>2014-06-15T15:58:53Z</time>
      </trkpt>
      <trkpt lat="46.432720720767975" lon="6.942209713160992">
        <ele>1125.839999999999918</ele>
        <time>2014-06-15T15:58:54Z</time>
      </trkpt>
      <trkpt lat="46.432647462934256" lon="6.942250616848469">
        <ele>1124.880000000000109</ele>
        <time>2014-06-15T15:58:55Z</time>
      </trkpt>
      <trkpt lat="46.43258267082274" lon="6.942315995693207">
        <ele>1124.400000000000091</ele>
        <time>2014-06-15T15:58:56Z</time>
      </trkpt>
      <trkpt lat="46.432526344433427" lon="6.942406184971333">
        <ele>1123.440000000000055</ele>
        <time>2014-06-15T15:58:57Z</time>
      </trkpt>
      <trkpt lat="46.432479238137603" lon="6.942510874941945">
        <ele>1122.480000000000018</ele>
        <time>2014-06-15T15:58:58Z</time>
      </trkpt>
      <trkpt lat="46.432436238974333" lon="6.942625287920237">
        <ele>1121.519999999999982</ele>
        <time>2014-06-15T15:58:59Z</time>
      </trkpt>
      <trkpt lat="46.432392736896873" lon="6.942746406421065">
        <ele>1120.549999999999955</ele>
        <time>2014-06-15T15:59:00Z</time>
      </trkpt>
      <trkpt lat="46.432166593149304" lon="6.943403631448746">
        <ele>1114.789999999999964</ele>
        <time>2014-06-15T15:59:05Z</time>
      </trkpt>
      <trkpt lat="46.432142201811075" lon="6.943546961992979">
        <ele>1113.819999999999936</ele>
        <time>2014-06-15T15:59:06Z</time>
      </trkpt>
      <trkpt lat="46.432125773280859" lon="6.94369699805975">
        <ele>1112.8599999999999</ele>
        <time>2014-06-15T15:59:07Z</time>
      </trkpt>
      <trkpt lat="46.43208235502243" lon="6.944389259442687">
        <ele>1106.130000000000109</ele>
        <time>2014-06-15T15:59:14Z</time>
      </trkpt>
      <trkpt lat="46.432048324495554" lon="6.944420104846358">
        <ele>1105.170000000000073</ele>
        <time>2014-06-15T15:59:15Z</time>
      </trkpt>
      <trkpt lat="46.432003229856491" lon="6.944407029077411">
        <ele>1104.210000000000036</ele>
        <time>2014-06-15T15:59:16Z</time>
      </trkpt>
      <trkpt lat="46.431967187672853" lon="6.9443488586694">
        <ele>1103.25</ele>
        <time>2014-06-15T15:59:17Z</time>
      </trkpt>
      <trkpt lat="46.43194891512394" lon="6.944264285266399">
        <ele>1102.289999999999964</ele>
        <time>2014-06-15T15:59:18Z</time>
      </trkpt>
      <trkpt lat="46.431943047791719" lon="6.944170072674751">
        <ele>1101.809999999999945</ele>
        <time>2014-06-15T15:59:19Z</time>
      </trkpt>
      <trkpt lat="46.431937096640468" lon="6.944068400189281">
        <ele>1101.329999999999927</ele>
        <time>2014-06-15T15:59:20Z</time>
      </trkpt>
      <trkpt lat="46.431925194337964" lon="6.943844519555569">
        <ele>1099.8900000000001</ele>
        <time>2014-06-15T15:59:22Z</time>
      </trkpt>
      <trkpt lat="46.432033823803067" lon="6.942535853013396">
        <ele>1093.160000000000082</ele>
        <time>2014-06-15T15:59:31Z</time>
      </trkpt>
      <trkpt lat="46.432041618973017" lon="6.942360335960984">
        <ele>1092.200000000000045</ele>
        <time>2014-06-15T15:59:32Z</time>
      </trkpt>
      <trkpt lat="46.431963918730617" lon="6.941028283908963">
        <ele>1082.579999999999927</ele>
        <time>2014-06-15T15:59:41Z</time>
      </trkpt>
      <trkpt lat="46.431931648403406" lon="6.940892077982426">
        <ele>1081.619999999999891</ele>
        <time>2014-06-15T15:59:42Z</time>
      </trkpt>
      <trkpt lat="46.431826371699572" lon="6.940501062199473">
        <ele>1078.740000000000009</ele>
        <time>2014-06-15T15:59:45Z</time>
      </trkpt>
      <trkpt lat="46.431573322042823" lon="6.938954768702388">
        <ele>1068.6400000000001</ele>
        <time>2014-06-15T15:59:55Z</time>
      </trkpt>
      <trkpt lat="46.431521605700254" lon="6.938586886972189">
        <ele>1065.279999999999973</ele>
        <time>2014-06-15T15:59:58Z</time>
      </trkpt>
      <trkpt lat="46.43153409473598" lon="6.938469707965851">
        <ele>1064.319999999999936</ele>
        <time>2014-06-15T15:59:59Z</time>
      </trkpt>
      <trkpt lat="46.431556474417448" lon="6.938396198675036">
        <ele>1063.839999999999918</ele>
        <time>2014-06-15T16:00:00Z</time>
      </trkpt>
      <trkpt lat="46.431588912382722" lon="6.938317911699414">
        <ele>1062.869999999999891</ele>
        <time>2014-06-15T16:00:01Z</time>
      </trkpt>
      <trkpt lat="46.431635599583387" lon="6.938253873959184">
        <ele>1062.3900000000001</ele>
        <time>2014-06-15T16:00:02Z</time>
      </trkpt>
      <trkpt lat="46.431691674515605" lon="6.938209868967533">
        <ele>1061.430000000000064</ele>
        <time>2014-06-15T16:00:03Z</time>
      </trkpt>
      <trkpt lat="46.431754203513265" lon="6.938186986371875">
        <ele>1059.990000000000009</ele>
        <time>2014-06-15T16:00:04Z</time>
      </trkpt>
      <trkpt lat="46.431820169091225" lon="6.938185812905431">
        <ele>1059.029999999999973</ele>
        <time>2014-06-15T16:00:05Z</time>
      </trkpt>
      <trkpt lat="46.43188588321209" lon="6.938208024948835">
        <ele>1058.549999999999955</ele>
        <time>2014-06-15T16:00:06Z</time>
      </trkpt>
      <trkpt lat="46.43195578828454" lon="6.93824683316052">
        <ele>1057.589999999999918</ele>
        <time>2014-06-15T16:00:07Z</time>
      </trkpt>
      <trkpt lat="46.432029716670513" lon="6.938298884779215">
        <ele>1056.630000000000109</ele>
        <time>2014-06-15T16:00:08Z</time>
      </trkpt>
      <trkpt lat="46.43210238777101" lon="6.938347332179546">
        <ele>1056.150000000000091</ele>
        <time>2014-06-15T16:00:09Z</time>
      </trkpt>
      <trkpt lat="46.432171957567334" lon="6.938374657183886">
        <ele>1055.670000000000073</ele>
        <time>2014-06-15T16:00:10Z</time>
      </trkpt>
      <trkpt lat="46.432241443544626" lon="6.938379602506757">
        <ele>1055.180000000000064</ele>
        <time>2014-06-15T16:00:11Z</time>
      </trkpt>
      <trkpt lat="46.432315539568663" lon="6.93835873156786">
        <ele>1054.220000000000027</ele>
        <time>2014-06-15T16:00:12Z</time>
      </trkpt>
      <trkpt lat="46.432371698319912" lon="6.938329311087728">
        <ele>1054.220000000000027</ele>
        <time>2014-06-15T16:00:13Z</time>
      </trkpt>
      <trkpt lat="46.432430958375335" lon="6.938286144286394">
        <ele>1053.740000000000009</ele>
        <time>2014-06-15T16:00:14Z</time>
      </trkpt>
      <trkpt lat="46.432484267279506" lon="6.938232081010938">
        <ele>1053.259999999999991</ele>
        <time>2014-06-15T16:00:15Z</time>
      </trkpt>
      <trkpt lat="46.432525590062141" lon="6.938172150403261">
        <ele>1052.779999999999973</ele>
        <time>2014-06-15T16:00:16Z</time>
      </trkpt>
      <trkpt lat="46.432553753256798" lon="6.938103921711445">
        <ele>1052.299999999999955</ele>
        <time>2014-06-15T16:00:17Z</time>
      </trkpt>
      <trkpt lat="46.432563224807382" lon="6.93802404217422">
        <ele>1051.819999999999936</ele>
        <time>2014-06-15T16:00:18Z</time>
      </trkpt>
      <trkpt lat="46.432559872046113" lon="6.937937708571553">
        <ele>1051.339999999999918</ele>
        <time>2014-06-15T16:00:19Z</time>
      </trkpt>
      <trkpt lat="46.432558447122574" lon="6.937838802114129">
        <ele>1050.8599999999999</ele>
        <time>2014-06-15T16:00:20Z</time>
      </trkpt>
      <trkpt lat="46.43256121315062" lon="6.937726652249694">
        <ele>1049.900000000000091</ele>
        <time>2014-06-15T16:00:21Z</time>
      </trkpt>
      <trkpt lat="46.432558363303542" lon="6.93759941495955">
        <ele>1049.420000000000073</ele>
        <time>2014-06-15T16:00:22Z</time>
      </trkpt>
      <trkpt lat="46.432541431859136" lon="6.937501179054379">
        <ele>1048.450000000000045</ele>
        <time>2014-06-15T16:00:23Z</time>
      </trkpt>
      <trkpt lat="46.432519303634763" lon="6.93738684989512">
        <ele>1047.490000000000009</ele>
        <time>2014-06-15T16:00:24Z</time>
      </trkpt>
      <trkpt lat="46.432505808770657" lon="6.937262797728181">
        <ele>1046.529999999999973</ele>
        <time>2014-06-15T16:00:25Z</time>
      </trkpt>
      <trkpt lat="46.432467000558972" lon="6.936871111392975">
        <ele>1044.6099999999999</ele>
        <time>2014-06-15T16:00:28Z</time>
      </trkpt>
      <trkpt lat="46.432470856234431" lon="6.936751417815685">
        <ele>1044.130000000000109</ele>
        <time>2014-06-15T16:00:29Z</time>
      </trkpt>
      <trkpt lat="46.432498265057802" lon="6.936633568257093">
        <ele>1043.170000000000073</ele>
        <time>2014-06-15T16:00:30Z</time>
      </trkpt>
      <trkpt lat="46.432541348040104" lon="6.936519406735897">
        <ele>1042.690000000000055</ele>
        <time>2014-06-15T16:00:31Z</time>
      </trkpt>
      <trkpt lat="46.432596500962973" lon="6.936411447823048">
        <ele>1042.210000000000036</ele>
        <time>2014-06-15T16:00:32Z</time>
      </trkpt>
      <trkpt lat="46.432663891464472" lon="6.936315055936575">
        <ele>1041.730000000000018</ele>
        <time>2014-06-15T16:00:33Z</time>
      </trkpt>
      <trkpt lat="46.432743100449443" lon="6.936216065660119">
        <ele>1041.730000000000018</ele>
        <time>2014-06-15T16:00:34Z</time>
      </trkpt>
      <trkpt lat="46.432833792641759" lon="6.936115985736251">
        <ele>1042.210000000000036</ele>
        <time>2014-06-15T16:00:35Z</time>
      </trkpt>
      <trkpt lat="46.432935381308198" lon="6.936041386798024">
        <ele>1042.690000000000055</ele>
        <time>2014-06-15T16:00:36Z</time>
      </trkpt>
      <trkpt lat="46.433038646355271" lon="6.93599034100771">
        <ele>1043.650000000000091</ele>
        <time>2014-06-15T16:00:37Z</time>
      </trkpt>
      <trkpt lat="46.433135541155934" lon="6.9359649438411">
        <ele>1044.130000000000109</ele>
        <time>2014-06-15T16:00:38Z</time>
      </trkpt>
      <trkpt lat="46.433229669928551" lon="6.935975588858128">
        <ele>1045.089999999999918</ele>
        <time>2014-06-15T16:00:39Z</time>
      </trkpt>
      <trkpt lat="46.433323798701167" lon="6.936026383191347">
        <ele>1044.6099999999999</ele>
        <time>2014-06-15T16:00:40Z</time>
      </trkpt>
      <trkpt lat="46.433416418731213" lon="6.936099641025066">
        <ele>1043.650000000000091</ele>
        <time>2014-06-15T16:00:41Z</time>
      </trkpt>
      <trkpt lat="46.433506356552243" lon="6.936180694028735">
        <ele>1042.690000000000055</ele>
        <time>2014-06-15T16:00:42Z</time>
      </trkpt>
      <trkpt lat="46.433737194165587" lon="6.936365514993668">
        <ele>1040.279999999999973</ele>
        <time>2014-06-15T16:00:45Z</time>
      </trkpt>
      <trkpt lat="46.433798717334867" lon="6.936364592984319">
        <ele>1039.319999999999936</ele>
        <time>2014-06-15T16:00:46Z</time>
      </trkpt>
      <trkpt lat="46.433839621022344" lon="6.936311116442084">
        <ele>1038.839999999999918</ele>
        <time>2014-06-15T16:00:47Z</time>
      </trkpt>
      <trkpt lat="46.43384138122201" lon="6.93623274564743">
        <ele>1037.880000000000109</ele>
        <time>2014-06-15T16:00:48Z</time>
      </trkpt>
      <trkpt lat="46.433804165571928" lon="6.936157643795013">
        <ele>1037.400000000000091</ele>
        <time>2014-06-15T16:00:49Z</time>
      </trkpt>
      <trkpt lat="46.433740044012666" lon="6.936112800613046">
        <ele>1035.960000000000036</ele>
        <time>2014-06-15T16:00:50Z</time>
      </trkpt>
      <trkpt lat="46.433667037636042" lon="6.936063515022397">
        <ele>1035</ele>
        <time>2014-06-15T16:00:51Z</time>
      </trkpt>
      <trkpt lat="46.433454137295485" lon="6.935866540297866">
        <ele>1032.1099999999999</ele>
        <time>2014-06-15T16:00:54Z</time>
      </trkpt>
      <trkpt lat="46.433149287477136" lon="6.935545261949301">
        <ele>1027.789999999999964</ele>
        <time>2014-06-15T16:00:58Z</time>
      </trkpt>
      <trkpt lat="46.433050632476807" lon="6.935482565313578">
        <ele>1026.339999999999918</ele>
        <time>2014-06-15T16:00:59Z</time>
      </trkpt>
      <trkpt lat="46.432942589744925" lon="6.935439398512244">
        <ele>1025.380000000000109</ele>
        <time>2014-06-15T16:01:00Z</time>
      </trkpt>
      <trkpt lat="46.432832451537251" lon="6.935413246974349">
        <ele>1024.420000000000073</ele>
        <time>2014-06-15T16:01:01Z</time>
      </trkpt>
      <trkpt lat="46.432720636948943" lon="6.935396231710911">
        <ele>1022.980000000000018</ele>
        <time>2014-06-15T16:01:02Z</time>
      </trkpt>
      <trkpt lat="46.432430623099208" lon="6.935402937233448">
        <ele>1019.620000000000005</ele>
        <time>2014-06-15T16:01:05Z</time>
      </trkpt>
      <trkpt lat="46.432343786582351" lon="6.935454150661826">
        <ele>1018.649999999999977</ele>
        <time>2014-06-15T16:01:06Z</time>
      </trkpt>
      <trkpt lat="46.432261224836111" lon="6.935541657730937">
        <ele>1017.210000000000036</ele>
        <time>2014-06-15T16:01:07Z</time>
      </trkpt>
      <trkpt lat="46.432192912325263" lon="6.935651041567326">
        <ele>1016.25</ele>
        <time>2014-06-15T16:01:08Z</time>
      </trkpt>
      <trkpt lat="46.432133568450809" lon="6.935759000480175">
        <ele>1014.809999999999945</ele>
        <time>2014-06-15T16:01:09Z</time>
      </trkpt>
      <trkpt lat="46.432077744975686" lon="6.935846423730254">
        <ele>1013.850000000000023</ele>
        <time>2014-06-15T16:01:10Z</time>
      </trkpt>
      <trkpt lat="46.432016557082534" lon="6.935906270518899">
        <ele>1012.409999999999968</ele>
        <time>2014-06-15T16:01:11Z</time>
      </trkpt>
      <trkpt lat="46.431951681151986" lon="6.935938876122236">
        <ele>1011.440000000000055</ele>
        <time>2014-06-15T16:01:12Z</time>
      </trkpt>
      <trkpt lat="46.431876327842474" lon="6.935937954112887">
        <ele>1010</ele>
        <time>2014-06-15T16:01:13Z</time>
      </trkpt>
      <trkpt lat="46.431796364486217" lon="6.935912556946278">
        <ele>1009.039999999999964</ele>
        <time>2014-06-15T16:01:14Z</time>
      </trkpt>
      <trkpt lat="46.431633671745658" lon="6.935881376266479">
        <ele>1007.600000000000023</ele>
        <time>2014-06-15T16:01:16Z</time>
      </trkpt>
      <trkpt lat="46.431553456932306" lon="6.935894619673491">
        <ele>1006.639999999999986</ele>
        <time>2014-06-15T16:01:17Z</time>
      </trkpt>
      <trkpt lat="46.430960185825825" lon="6.936149429529905">
        <ele>999.42999999999995</ele>
        <time>2014-06-15T16:01:23Z</time>
      </trkpt>
      <trkpt lat="46.430555004626513" lon="6.936475737020373">
        <ele>994.620000000000005</ele>
        <time>2014-06-15T16:01:27Z</time>
      </trkpt>
      <trkpt lat="46.430471688508987" lon="6.936572464182973">
        <ele>993.659999999999968</ele>
        <time>2014-06-15T16:01:28Z</time>
      </trkpt>
      <trkpt lat="46.43023531883955" lon="6.936868093907833">
        <ele>989.809999999999945</ele>
        <time>2014-06-15T16:01:32Z</time>
      </trkpt>
      <trkpt lat="46.430183099582791" lon="6.936884438619018">
        <ele>989.330000000000041</ele>
        <time>2014-06-15T16:01:33Z</time>
      </trkpt>
      <trkpt lat="46.430139681324363" lon="6.936851497739553">
        <ele>988.370000000000005</ele>
        <time>2014-06-15T16:01:34Z</time>
      </trkpt>
      <trkpt lat="46.430119816213846" lon="6.93678829818964">
        <ele>987.409999999999968</ele>
        <time>2014-06-15T16:01:35Z</time>
      </trkpt>
      <trkpt lat="46.43013565801084" lon="6.936718728393316">
        <ele>986.450000000000045</ele>
        <time>2014-06-15T16:01:36Z</time>
      </trkpt>
      <trkpt lat="46.430182848125696" lon="6.936653349548578">
        <ele>985.490000000000009</ele>
        <time>2014-06-15T16:01:37Z</time>
      </trkpt>
      <trkpt lat="46.430242862552404" lon="6.936586713418365">
        <ele>984.529999999999973</ele>
        <time>2014-06-15T16:01:38Z</time>
      </trkpt>
      <trkpt lat="46.430302457883954" lon="6.936508677899837">
        <ele>983.57000000000005</ele>
        <time>2014-06-15T16:01:39Z</time>
      </trkpt>
      <trkpt lat="46.430479316040874" lon="6.936213886365294">
        <ele>980.67999999999995</ele>
        <time>2014-06-15T16:01:42Z</time>
      </trkpt>
      <trkpt lat="46.430526589974761" lon="6.936088241636753">
        <ele>979.720000000000027</ele>
        <time>2014-06-15T16:01:43Z</time>
      </trkpt>
      <trkpt lat="46.430621892213821" lon="6.935832006856799">
        <ele>977.799999999999955</ele>
        <time>2014-06-15T16:01:45Z</time>
      </trkpt>
      <trkpt lat="46.430691797286272" lon="6.935716168954968">
        <ele>976.840000000000032</ele>
        <time>2014-06-15T16:01:46Z</time>
      </trkpt>
      <trkpt lat="46.430775532498956" lon="6.935607371851802">
        <ele>975.389999999999986</ele>
        <time>2014-06-15T16:01:47Z</time>
      </trkpt>
      <trkpt lat="46.430871924385428" lon="6.935508381575346">
        <ele>974.42999999999995</ele>
        <time>2014-06-15T16:01:48Z</time>
      </trkpt>
      <trkpt lat="46.430983068421483" lon="6.935425484552979">
        <ele>972.990000000000009</ele>
        <time>2014-06-15T16:01:49Z</time>
      </trkpt>
      <trkpt lat="46.431103684008121" lon="6.935360105708241">
        <ele>972.029999999999973</ele>
        <time>2014-06-15T16:01:50Z</time>
      </trkpt>
      <trkpt lat="46.431230083107948" lon="6.935298331081867">
        <ele>970.590000000000032</ele>
        <time>2014-06-15T16:01:51Z</time>
      </trkpt>
      <trkpt lat="46.431577680632472" lon="6.935098255053163">
        <ele>967.220000000000027</ele>
        <time>2014-06-15T16:01:54Z</time>
      </trkpt>
      <trkpt lat="46.431679436936975" lon="6.9350047968328">
        <ele>965.779999999999973</ele>
        <time>2014-06-15T16:01:55Z</time>
      </trkpt>
      <trkpt lat="46.431762920692563" lon="6.934882756322622">
        <ele>964.340000000000032</ele>
        <time>2014-06-15T16:01:56Z</time>
      </trkpt>
      <trkpt lat="46.431821594014764" lon="6.934752501547337">
        <ele>963.379999999999995</ele>
        <time>2014-06-15T16:01:57Z</time>
      </trkpt>
      <trkpt lat="46.431874232366681" lon="6.934589724987745">
        <ele>962.419999999999959</ele>
        <time>2014-06-15T16:01:58Z</time>
      </trkpt>
      <trkpt lat="46.431917482987046" lon="6.934413705021143">
        <ele>960.980000000000018</ele>
        <time>2014-06-15T16:01:59Z</time>
      </trkpt>
      <trkpt lat="46.431951932609081" lon="6.934228297322989">
        <ele>959.529999999999973</ele>
        <time>2014-06-15T16:02:00Z</time>
      </trkpt>
      <trkpt lat="46.431975988671184" lon="6.934039872139692">
        <ele>958.090000000000032</ele>
        <time>2014-06-15T16:02:01Z</time>
      </trkpt>
      <trkpt lat="46.431991495192051" lon="6.933856811374426">
        <ele>957.129999999999995</ele>
        <time>2014-06-15T16:02:02Z</time>
      </trkpt>
      <trkpt lat="46.432002559304237" lon="6.9336923584342">
        <ele>955.690000000000055</ele>
        <time>2014-06-15T16:02:03Z</time>
      </trkpt>
      <trkpt lat="46.432015635073185" lon="6.933542909100652">
        <ele>954.25</ele>
        <time>2014-06-15T16:02:04Z</time>
      </trkpt>
      <trkpt lat="46.432039188221097" lon="6.933415923267603">
        <ele>953.279999999999973</ele>
        <time>2014-06-15T16:02:05Z</time>
      </trkpt>
      <trkpt lat="46.432080091908574" lon="6.933318106457591">
        <ele>952.32000000000005</ele>
        <time>2014-06-15T16:02:06Z</time>
      </trkpt>
      <trkpt lat="46.432140441611409" lon="6.933240657672286">
        <ele>950.879999999999995</ele>
        <time>2014-06-15T16:02:07Z</time>
      </trkpt>
      <trkpt lat="46.432206658646464" lon="6.933183996006846">
        <ele>949.919999999999959</ele>
        <time>2014-06-15T16:02:08Z</time>
      </trkpt>
      <trkpt lat="46.432264996692538" lon="6.933132028207183">
        <ele>948.960000000000036</ele>
        <time>2014-06-15T16:02:09Z</time>
      </trkpt>
      <trkpt lat="46.432296512648463" lon="6.933065140619874">
        <ele>948</ele>
        <time>2014-06-15T16:02:10Z</time>
      </trkpt>
      <trkpt lat="46.432289471849799" lon="6.932987356558442">
        <ele>947.039999999999964</ele>
        <time>2014-06-15T16:02:11Z</time>
      </trkpt>
      <trkpt lat="46.432247059419751" lon="6.93292859941721">
        <ele>946.07000000000005</ele>
        <time>2014-06-15T16:02:12Z</time>
      </trkpt>
      <trkpt lat="46.432188637554646" lon="6.932923821732402">
        <ele>945.110000000000014</ele>
        <time>2014-06-15T16:02:13Z</time>
      </trkpt>
      <trkpt lat="46.432127365842462" lon="6.932972688227892">
        <ele>944.149999999999977</ele>
        <time>2014-06-15T16:02:14Z</time>
      </trkpt>
      <trkpt lat="46.432065507397056" lon="6.93304686807096">
        <ele>943.669999999999959</ele>
        <time>2014-06-15T16:02:15Z</time>
      </trkpt>
      <trkpt lat="46.432000966742635" lon="6.933138314634562">
        <ele>943.190000000000055</ele>
        <time>2014-06-15T16:02:16Z</time>
      </trkpt>
      <trkpt lat="46.431941287592053" lon="6.933243842795491">
        <ele>942.230000000000018</ele>
        <time>2014-06-15T16:02:17Z</time>
      </trkpt>
      <trkpt lat="46.431886302307248" lon="6.933364626020193">
        <ele>941.75</ele>
        <time>2014-06-15T16:02:18Z</time>
      </trkpt>
      <trkpt lat="46.431833663955331" lon="6.933491611853242">
        <ele>940.789999999999964</ele>
        <time>2014-06-15T16:02:19Z</time>
      </trkpt>
      <trkpt lat="46.431600647047162" lon="6.934022689238191">
        <ele>937.419999999999959</ele>
        <time>2014-06-15T16:02:23Z</time>
      </trkpt>
      <trkpt lat="46.431516744196415" lon="6.934136850759387">
        <ele>936.460000000000036</ele>
        <time>2014-06-15T16:02:24Z</time>
      </trkpt>
      <trkpt lat="46.431414987891912" lon="6.934227291494608">
        <ele>935.980000000000018</ele>
        <time>2014-06-15T16:02:25Z</time>
      </trkpt>
      <trkpt lat="46.43130149692297" lon="6.934291580691934">
        <ele>935.019999999999982</ele>
        <time>2014-06-15T16:02:26Z</time>
      </trkpt>
      <trkpt lat="46.431182390078902" lon="6.934340531006455">
        <ele>934.059999999999945</ele>
        <time>2014-06-15T16:02:27Z</time>
      </trkpt>
      <trkpt lat="46.431067558005452" lon="6.934378920122981">
        <ele>932.620000000000005</ele>
        <time>2014-06-15T16:02:28Z</time>
      </trkpt>
      <trkpt lat="46.430701185017824" lon="6.934533063322306">
        <ele>929.730000000000018</ele>
        <time>2014-06-15T16:02:31Z</time>
      </trkpt>
      <trkpt lat="46.430586939677596" lon="6.934612356126308">
        <ele>928.289999999999964</ele>
        <time>2014-06-15T16:02:32Z</time>
      </trkpt>
      <trkpt lat="46.429513553157449" lon="6.935498071834445">
        <ele>915.789999999999964</ele>
        <time>2014-06-15T16:02:41Z</time>
      </trkpt>
      <trkpt lat="46.429436774924397" lon="6.935596643015742">
        <ele>914.350000000000023</ele>
        <time>2014-06-15T16:02:42Z</time>
      </trkpt>
      <trkpt lat="46.429373072460294" lon="6.935697058215737">
        <ele>912.909999999999968</ele>
        <time>2014-06-15T16:02:43Z</time>
      </trkpt>
      <trkpt lat="46.429314147680998" lon="6.935793031007051">
        <ele>911.950000000000045</ele>
        <time>2014-06-15T16:02:44Z</time>
      </trkpt>
      <trkpt lat="46.429256983101368" lon="6.935864612460136">
        <ele>910.509999999999991</ele>
        <time>2014-06-15T16:02:45Z</time>
      </trkpt>
      <trkpt lat="46.429201243445277" lon="6.935883304104209">
        <ele>909.059999999999945</ele>
        <time>2014-06-15T16:02:46Z</time>
      </trkpt>
      <trkpt lat="46.429156819358468" lon="6.935852793976665">
        <ele>908.100000000000023</ele>
        <time>2014-06-15T16:02:47Z</time>
      </trkpt>
      <trkpt lat="46.429146844893694" lon="6.935794455930591">
        <ele>907.139999999999986</ele>
        <time>2014-06-15T16:02:48Z</time>
      </trkpt>
      <trkpt lat="46.42917450517416" lon="6.935729747638106">
        <ele>906.17999999999995</ele>
        <time>2014-06-15T16:02:49Z</time>
      </trkpt>
      <trkpt lat="46.429222533479333" lon="6.935658166185021">
        <ele>905.700000000000045</ele>
        <time>2014-06-15T16:02:50Z</time>
      </trkpt>
      <trkpt lat="46.429278608411551" lon="6.935571832582355">
        <ele>904.259999999999991</ele>
        <time>2014-06-15T16:02:51Z</time>
      </trkpt>
      <trkpt lat="46.42933719791472" lon="6.935476614162326">
        <ele>903.299999999999955</ele>
        <time>2014-06-15T16:02:52Z</time>
      </trkpt>
      <trkpt lat="46.430109087377787" lon="6.93424254655838">
        <ele>891.759999999999991</ele>
        <time>2014-06-15T16:03:02Z</time>
      </trkpt>
      <trkpt lat="46.430494654923677" lon="6.933603594079614">
        <ele>885.990000000000009</ele>
        <time>2014-06-15T16:03:07Z</time>
      </trkpt>
      <trkpt lat="46.430560117587447" lon="6.933547854423523">
        <ele>885.029999999999973</ele>
        <time>2014-06-15T16:03:08Z</time>
      </trkpt>
      <trkpt lat="46.430661119520664" lon="6.933462023735046">
        <ele>882.629999999999995</ele>
        <time>2014-06-15T16:03:10Z</time>
      </trkpt>
      <trkpt lat="46.430680230259895" lon="6.933397483080626">
        <ele>881.669999999999959</ele>
        <time>2014-06-15T16:03:11Z</time>
      </trkpt>
      <trkpt lat="46.430666903033853" lon="6.933321123942733">
        <ele>881.190000000000055</ele>
        <time>2014-06-15T16:03:12Z</time>
      </trkpt>
      <trkpt lat="46.430627424269915" lon="6.933259768411517">
        <ele>880.220000000000027</ele>
        <time>2014-06-15T16:03:13Z</time>
      </trkpt>
      <trkpt lat="46.43057931214571" lon="6.93321643397212">
        <ele>879.259999999999991</ele>
        <time>2014-06-15T16:03:14Z</time>
      </trkpt>
      <trkpt lat="46.430530361831188" lon="6.933197323232889">
        <ele>878.779999999999973</ele>
        <time>2014-06-15T16:03:15Z</time>
      </trkpt>
      <trkpt lat="46.430463893339038" lon="6.933214087039232">
        <ele>878.299999999999955</ele>
        <time>2014-06-15T16:03:16Z</time>
      </trkpt>
      <trkpt lat="46.430378817021847" lon="6.933268569409847">
        <ele>877.340000000000032</ele>
        <time>2014-06-15T16:03:17Z</time>
      </trkpt>
      <trkpt lat="46.430289885029197" lon="6.933342246338725">
        <ele>876.860000000000014</ele>
        <time>2014-06-15T16:03:18Z</time>
      </trkpt>
      <trkpt lat="46.430188715457916" lon="6.933429418131709">
        <ele>874.940000000000055</ele>
        <time>2014-06-15T16:03:19Z</time>
      </trkpt>
      <trkpt lat="46.429978581145406" lon="6.933580208569765">
        <ele>872.529999999999973</ele>
        <time>2014-06-15T16:03:21Z</time>
      </trkpt>
      <trkpt lat="46.429703989997506" lon="6.933758826926351">
        <ele>869.169999999999959</ele>
        <time>2014-06-15T16:03:24Z</time>
      </trkpt>
      <trkpt lat="46.429633582010865" lon="6.933771818876266">
        <ele>868.210000000000036</ele>
        <time>2014-06-15T16:03:25Z</time>
      </trkpt>
      <trkpt lat="46.429574070498347" lon="6.933745751157403">
        <ele>867.730000000000018</ele>
        <time>2014-06-15T16:03:26Z</time>
      </trkpt>
      <trkpt lat="46.429547499865294" lon="6.933678947389126">
        <ele>866.769999999999982</ele>
        <time>2014-06-15T16:03:27Z</time>
      </trkpt>
      <trkpt lat="46.429558731615543" lon="6.933599403128028">
        <ele>866.289999999999964</ele>
        <time>2014-06-15T16:03:28Z</time>
      </trkpt>
      <trkpt lat="46.429600808769464" lon="6.933526480570436">
        <ele>865.32000000000005</ele>
        <time>2014-06-15T16:03:29Z</time>
      </trkpt>
      <trkpt lat="46.429659649729729" lon="6.933454647660255">
        <ele>864.840000000000032</ele>
        <time>2014-06-15T16:03:30Z</time>
      </trkpt>
      <trkpt lat="46.430406644940376" lon="6.932581253349781">
        <ele>855.710000000000036</ele>
        <time>2014-06-15T16:03:39Z</time>
      </trkpt>
      <trkpt lat="46.431377017870545" lon="6.931255487725139">
        <ele>842.25</ele>
        <time>2014-06-15T16:03:49Z</time>
      </trkpt>
      <trkpt lat="46.432460630312562" lon="6.930125188082457">
        <ele>827.830000000000041</ele>
        <time>2014-06-15T16:03:59Z</time>
      </trkpt>
      <trkpt lat="46.432570684701204" lon="6.930081266909838">
        <ele>826.389999999999986</ele>
        <time>2014-06-15T16:04:00Z</time>
      </trkpt>
      <trkpt lat="46.432687025517225" lon="6.930064922198653">
        <ele>824.950000000000045</ele>
        <time>2014-06-15T16:04:01Z</time>
      </trkpt>
      <trkpt lat="46.432805461809039" lon="6.930067855864763">
        <ele>823.990000000000009</ele>
        <time>2014-06-15T16:04:02Z</time>
      </trkpt>
      <trkpt lat="46.432926915585995" lon="6.930083027109504">
        <ele>822.549999999999955</ele>
        <time>2014-06-15T16:04:03Z</time>
      </trkpt>
      <trkpt lat="46.43305029720068" lon="6.930108591914177">
        <ele>821.100000000000023</ele>
        <time>2014-06-15T16:04:04Z</time>
      </trkpt>
      <trkpt lat="46.434022095054388" lon="6.930496674031019">
        <ele>811.490000000000009</ele>
        <time>2014-06-15T16:04:13Z</time>
      </trkpt>
      <trkpt lat="46.434092419221997" lon="6.930466582998633">
        <ele>811.009999999999991</ele>
        <time>2014-06-15T16:04:14Z</time>
      </trkpt>
      <trkpt lat="46.434143213555217" lon="6.93041411228478">
        <ele>811.009999999999991</ele>
        <time>2014-06-15T16:04:15Z</time>
      </trkpt>
      <trkpt lat="46.434155534952879" lon="6.930354852229357">
        <ele>810.529999999999973</ele>
        <time>2014-06-15T16:04:16Z</time>
      </trkpt>
      <trkpt lat="46.434109015390277" lon="6.930301794782281">
        <ele>809.57000000000005</ele>
        <time>2014-06-15T16:04:17Z</time>
      </trkpt>
      <trkpt lat="46.434004744514823" lon="6.930260136723518">
        <ele>808.129999999999995</ele>
        <time>2014-06-15T16:04:18Z</time>
      </trkpt>
      <trkpt lat="46.433903072029352" lon="6.930221496149898">
        <ele>807.159999999999968</ele>
        <time>2014-06-15T16:04:19Z</time>
      </trkpt>
      <trkpt lat="46.433803997933865" lon="6.93015662021935">
        <ele>806.200000000000045</ele>
        <time>2014-06-15T16:04:20Z</time>
      </trkpt>
      <trkpt lat="46.433709617704153" lon="6.930074477568269">
        <ele>805.240000000000009</ele>
        <time>2014-06-15T16:04:21Z</time>
      </trkpt>
      <trkpt lat="46.43272440880537" lon="6.929031936451793">
        <ele>795.149999999999977</ele>
        <time>2014-06-15T16:04:31Z</time>
      </trkpt>
      <trkpt lat="46.432521231472492" lon="6.928779976442456">
        <ele>792.740000000000009</ele>
        <time>2014-06-15T16:04:33Z</time>
      </trkpt>
      <trkpt lat="46.43216977827251" lon="6.928484765812755">
        <ele>788.899999999999977</ele>
        <time>2014-06-15T16:04:36Z</time>
      </trkpt>
      <trkpt lat="46.43203835003078" lon="6.928432798013091">
        <ele>787.460000000000036</ele>
        <time>2014-06-15T16:04:37Z</time>
      </trkpt>
      <trkpt lat="46.431899629533291" lon="6.928414274007082">
        <ele>785.529999999999973</ele>
        <time>2014-06-15T16:04:38Z</time>
      </trkpt>
      <trkpt lat="46.431760070845485" lon="6.928429780527949">
        <ele>784.090000000000032</ele>
        <time>2014-06-15T16:04:39Z</time>
      </trkpt>
      <trkpt lat="46.431627720594406" lon="6.928480658680201">
        <ele>782.649999999999977</ele>
        <time>2014-06-15T16:04:40Z</time>
      </trkpt>
      <trkpt lat="46.431506266817451" lon="6.928564310073853">
        <ele>781.210000000000036</ele>
        <time>2014-06-15T16:04:41Z</time>
      </trkpt>
      <trkpt lat="46.431400654837489" lon="6.928666904568672">
        <ele>779.769999999999982</ele>
        <time>2014-06-15T16:04:42Z</time>
      </trkpt>
      <trkpt lat="46.431314991787076" lon="6.928774444386363">
        <ele>778.32000000000005</ele>
        <time>2014-06-15T16:04:43Z</time>
      </trkpt>
      <trkpt lat="46.431246008723974" lon="6.928874105215073">
        <ele>776.879999999999995</ele>
        <time>2014-06-15T16:04:44Z</time>
      </trkpt>
      <trkpt lat="46.431133607402444" lon="6.929010897874832">
        <ele>774</ele>
        <time>2014-06-15T16:04:46Z</time>
      </trkpt>
      <trkpt lat="46.431083902716637" lon="6.929006204009056">
        <ele>773.039999999999964</ele>
        <time>2014-06-15T16:04:47Z</time>
      </trkpt>
      <trkpt lat="46.43105523660779" lon="6.928948620334268">
        <ele>771.600000000000023</ele>
        <time>2014-06-15T16:04:48Z</time>
      </trkpt>
      <trkpt lat="46.431070575490594" lon="6.928865974768996">
        <ele>770.149999999999977</ele>
        <time>2014-06-15T16:04:49Z</time>
      </trkpt>
      <trkpt lat="46.431114077568054" lon="6.928803278133273">
        <ele>769.190000000000055</ele>
        <time>2014-06-15T16:04:50Z</time>
      </trkpt>
      <trkpt lat="46.431168895214796" lon="6.92874007858336">
        <ele>768.230000000000018</ele>
        <time>2014-06-15T16:04:51Z</time>
      </trkpt>
      <trkpt lat="46.431449269875884" lon="6.928375801071525">
        <ele>764.389999999999986</ele>
        <time>2014-06-15T16:04:55Z</time>
      </trkpt>
      <trkpt lat="46.431515319272876" lon="6.928255436941981">
        <ele>763.419999999999959</ele>
        <time>2014-06-15T16:04:56Z</time>
      </trkpt>
      <trkpt lat="46.431647166609764" lon="6.927988473325968">
        <ele>761.019999999999982</ele>
        <time>2014-06-15T16:04:58Z</time>
      </trkpt>
      <trkpt lat="46.43172662705183" lon="6.927863666787744">
        <ele>760.059999999999945</ele>
        <time>2014-06-15T16:04:59Z</time>
      </trkpt>
      <trkpt lat="46.431815139949322" lon="6.927745481953025">
        <ele>759.100000000000023</ele>
        <time>2014-06-15T16:05:00Z</time>
      </trkpt>
      <trkpt lat="46.431911448016763" lon="6.927634589374065">
        <ele>757.659999999999968</ele>
        <time>2014-06-15T16:05:01Z</time>
      </trkpt>
      <trkpt lat="46.432028124108911" lon="6.927524618804455">
        <ele>756.210000000000036</ele>
        <time>2014-06-15T16:05:02Z</time>
      </trkpt>
      <trkpt lat="46.432132478803396" lon="6.927451193332672">
        <ele>755.25</ele>
        <time>2014-06-15T16:05:03Z</time>
      </trkpt>
      <trkpt lat="46.432245634496212" lon="6.927384389564395">
        <ele>753.809999999999945</ele>
        <time>2014-06-15T16:05:04Z</time>
      </trkpt>
      <trkpt lat="46.432363064959645" lon="6.927335103973746">
        <ele>752.370000000000005</ele>
        <time>2014-06-15T16:05:05Z</time>
      </trkpt>
      <trkpt lat="46.432484099641442" lon="6.9273098744452">
        <ele>750.92999999999995</ele>
        <time>2014-06-15T16:05:06Z</time>
      </trkpt>
      <trkpt lat="46.432619132101536" lon="6.927303168922663">
        <ele>749.490000000000009</ele>
        <time>2014-06-15T16:05:07Z</time>
      </trkpt>
      <trkpt lat="46.43274444155395" lon="6.927312472835183">
        <ele>748.039999999999964</ele>
        <time>2014-06-15T16:05:08Z</time>
      </trkpt>
      <trkpt lat="46.432871678844094" lon="6.927336109802127">
        <ele>746.600000000000023</ele>
        <time>2014-06-15T16:05:09Z</time>
      </trkpt>
      <trkpt lat="46.433005286380649" lon="6.927370894700289">
        <ele>745.159999999999968</ele>
        <time>2014-06-15T16:05:10Z</time>
      </trkpt>
      <trkpt lat="46.433425303548574" lon="6.927534006536007">
        <ele>740.350000000000023</ele>
        <time>2014-06-15T16:05:14Z</time>
      </trkpt>
      <trkpt lat="46.433497220277786" lon="6.927574994042516">
        <ele>738.909999999999968</ele>
        <time>2014-06-15T16:05:15Z</time>
      </trkpt>
      <trkpt lat="46.433558659628034" lon="6.927575413137674">
        <ele>737.950000000000045</ele>
        <time>2014-06-15T16:05:16Z</time>
      </trkpt>
      <trkpt lat="46.433596881106496" lon="6.927527971565723">
        <ele>736.990000000000009</ele>
        <time>2014-06-15T16:05:17Z</time>
      </trkpt>
      <trkpt lat="46.433593360707164" lon="6.927441218867898">
        <ele>736.029999999999973</ele>
        <time>2014-06-15T16:05:18Z</time>
      </trkpt>
      <trkpt lat="46.433544242754579" lon="6.927368547767401">
        <ele>735.07000000000005</ele>
        <time>2014-06-15T16:05:19Z</time>
      </trkpt>
      <trkpt lat="46.433491352945566" lon="6.927334014326334">
        <ele>734.580000000000041</ele>
        <time>2014-06-15T16:05:20Z</time>
      </trkpt>
      <trkpt lat="46.43342019058764" lon="6.927300486713648">
        <ele>733.620000000000005</ele>
        <time>2014-06-15T16:05:21Z</time>
      </trkpt>
      <trkpt lat="46.433017775416374" lon="6.927021956071258">
        <ele>730.259999999999991</ele>
        <time>2014-06-15T16:05:26Z</time>
      </trkpt>
      <trkpt lat="46.432942254468799" lon="6.926926486194134">
        <ele>729.299999999999955</ele>
        <time>2014-06-15T16:05:27Z</time>
      </trkpt>
      <trkpt lat="46.43276447430253" lon="6.926688523963094">
        <ele>727.370000000000005</ele>
        <time>2014-06-15T16:05:29Z</time>
      </trkpt>
      <trkpt lat="46.43269557505846" lon="6.926623815670609">
        <ele>726.409999999999968</ele>
        <time>2014-06-15T16:05:30Z</time>
      </trkpt>
      <trkpt lat="46.432598680257797" lon="6.926549132913351">
        <ele>725.450000000000045</ele>
        <time>2014-06-15T16:05:31Z</time>
      </trkpt>
      <trkpt lat="46.432418134063482" lon="6.926422901451588">
        <ele>723.049999999999955</ele>
        <time>2014-06-15T16:05:33Z</time>
      </trkpt>
      <trkpt lat="46.432347306981683" lon="6.926338328048587">
        <ele>722.090000000000032</ele>
        <time>2014-06-15T16:05:34Z</time>
      </trkpt>
      <trkpt lat="46.432294920086861" lon="6.926219807937741">
        <ele>720.649999999999977</ele>
        <time>2014-06-15T16:05:35Z</time>
      </trkpt>
      <trkpt lat="46.432272288948298" lon="6.926094330847263">
        <ele>719.200000000000045</ele>
        <time>2014-06-15T16:05:36Z</time>
      </trkpt>
      <trkpt lat="46.432270277291536" lon="6.925974301993847">
        <ele>718.240000000000009</ele>
        <time>2014-06-15T16:05:37Z</time>
      </trkpt>
      <trkpt lat="46.432282766327262" lon="6.925843628123403">
        <ele>717.279999999999973</ele>
        <time>2014-06-15T16:05:38Z</time>
      </trkpt>
      <trkpt lat="46.432308331131935" lon="6.925701387226582">
        <ele>715.360000000000014</ele>
        <time>2014-06-15T16:05:39Z</time>
      </trkpt>
      <trkpt lat="46.432333309203386" lon="6.925583034753799">
        <ele>714.399999999999977</ele>
        <time>2014-06-15T16:05:40Z</time>
      </trkpt>
      <trkpt lat="46.432570181787014" lon="6.92443672567606">
        <ele>704.779999999999973</ele>
        <time>2014-06-15T16:05:48Z</time>
      </trkpt>
      <trkpt lat="46.432612426578999" lon="6.924305213615298">
        <ele>703.82000000000005</ele>
        <time>2014-06-15T16:05:49Z</time>
      </trkpt>
      <trkpt lat="46.433191196992993" lon="6.923038037493825">
        <ele>690.360000000000014</ele>
        <time>2014-06-15T16:05:58Z</time>
      </trkpt>
      <trkpt lat="46.43328633159399" lon="6.922777025029063">
        <ele>687</ele>
        <time>2014-06-15T16:06:00Z</time>
      </trkpt>
      <trkpt lat="46.433300916105509" lon="6.922622295096517">
        <ele>685.559999999999945</ele>
        <time>2014-06-15T16:06:01Z</time>
      </trkpt>
      <trkpt lat="46.433287421241403" lon="6.922497823834419">
        <ele>684.120000000000005</ele>
        <time>2014-06-15T16:06:02Z</time>
      </trkpt>
      <trkpt lat="46.433247020468116" lon="6.922373436391354">
        <ele>682.669999999999959</ele>
        <time>2014-06-15T16:06:03Z</time>
      </trkpt>
      <trkpt lat="46.433179546147585" lon="6.922263717278838">
        <ele>681.230000000000018</ele>
        <time>2014-06-15T16:06:04Z</time>
      </trkpt>
      <trkpt lat="46.43308793194592" lon="6.922171013429761">
        <ele>679.309999999999945</ele>
        <time>2014-06-15T16:06:05Z</time>
      </trkpt>
      <trkpt lat="46.432984247803688" lon="6.922096917405725">
        <ele>677.389999999999986</ele>
        <time>2014-06-15T16:06:06Z</time>
      </trkpt>
      <trkpt lat="46.43287586979568" lon="6.922025755047798">
        <ele>675.460000000000036</ele>
        <time>2014-06-15T16:06:07Z</time>
      </trkpt>
      <trkpt lat="46.432648887857795" lon="6.92189390771091">
        <ele>672.100000000000023</ele>
        <time>2014-06-15T16:06:09Z</time>
      </trkpt>
      <trkpt lat="46.432536067441106" lon="6.921848561614752">
        <ele>670.17999999999995</ele>
        <time>2014-06-15T16:06:10Z</time>
      </trkpt>
      <trkpt lat="46.432428946718574" lon="6.921823415905237">
        <ele>668.25</ele>
        <time>2014-06-15T16:06:11Z</time>
      </trkpt>
      <trkpt lat="46.432324340566993" lon="6.921816291287541">
        <ele>666.330000000000041</ele>
        <time>2014-06-15T16:06:12Z</time>
      </trkpt>
      <trkpt lat="46.432224763557315" lon="6.921829786151648">
        <ele>664.409999999999968</ele>
        <time>2014-06-15T16:06:13Z</time>
      </trkpt>
      <trkpt lat="46.432128706946969" lon="6.921868426725268">
        <ele>662.490000000000009</ele>
        <time>2014-06-15T16:06:14Z</time>
      </trkpt>
      <trkpt lat="46.432040110230446" lon="6.921926429495215">
        <ele>660.080000000000041</ele>
        <time>2014-06-15T16:06:15Z</time>
      </trkpt>
      <trkpt lat="46.431954530999064" lon="6.922001447528601">
        <ele>658.159999999999968</ele>
        <time>2014-06-15T16:06:16Z</time>
      </trkpt>
      <trkpt lat="46.431872136890888" lon="6.92208694294095">
        <ele>656.240000000000009</ele>
        <time>2014-06-15T16:06:17Z</time>
      </trkpt>
      <trkpt lat="46.431788317859173" lon="6.922193644568324">
        <ele>654.309999999999945</ele>
        <time>2014-06-15T16:06:18Z</time>
      </trkpt>
      <trkpt lat="46.431701900437474" lon="6.922316858544946">
        <ele>652.870000000000005</ele>
        <time>2014-06-15T16:06:19Z</time>
      </trkpt>
      <trkpt lat="46.431615147739649" lon="6.9224539026618">
        <ele>650.950000000000045</ele>
        <time>2014-06-15T16:06:20Z</time>
      </trkpt>
      <trkpt lat="46.430954234674573" lon="6.923490408807993">
        <ele>635.57000000000005</ele>
        <time>2014-06-15T16:06:28Z</time>
      </trkpt>
      <trkpt lat="46.430765222758055" lon="6.923846723511815">
        <ele>628.840000000000032</ele>
        <time>2014-06-15T16:06:34Z</time>
      </trkpt>
      <trkpt lat="46.430799420922995" lon="6.923853680491447">
        <ele>629.799999999999955</ele>
        <time>2014-06-15T16:06:47Z</time>
      </trkpt>
      <trkpt lat="46.430792380124331" lon="6.923877485096455">
        <ele>634.129999999999995</ele>
        <time>2014-06-15T16:07:20Z</time>
      </trkpt>
      <trkpt lat="46.430788189172745" lon="6.923903301358223">
        <ele>637.009999999999991</ele>
        <time>2014-06-15T16:07:51Z</time>
      </trkpt>
      <trkpt lat="46.430735886096954" lon="6.924028191715479">
        <ele>636.049999999999955</ele>
        <time>2014-06-15T16:07:54Z</time>
      </trkpt>
      <trkpt lat="46.430715769529343" lon="6.924064736813307">
        <ele>636.049999999999955</ele>
        <time>2014-06-15T16:07:55Z</time>
      </trkpt>
      <trkpt lat="46.430530529469252" lon="6.924364138394594">
        <ele>634.610000000000014</ele>
        <time>2014-06-15T16:07:59Z</time>
      </trkpt>
      <trkpt lat="46.430460289120674" lon="6.924437144771218">
        <ele>633.649999999999977</ele>
        <time>2014-06-15T16:08:00Z</time>
      </trkpt>
      <trkpt lat="46.430377895012498" lon="6.924497410655022">
        <ele>633.169999999999959</ele>
        <time>2014-06-15T16:08:01Z</time>
      </trkpt>
      <trkpt lat="46.430290890857577" lon="6.924538733437657">
        <ele>632.200000000000045</ele>
        <time>2014-06-15T16:08:02Z</time>
      </trkpt>
      <trkpt lat="46.43019768409431" lon="6.924577541649342">
        <ele>631.720000000000027</ele>
        <time>2014-06-15T16:08:03Z</time>
      </trkpt>
      <trkpt lat="46.430105315521359" lon="6.924629928544164">
        <ele>630.759999999999991</ele>
        <time>2014-06-15T16:08:04Z</time>
      </trkpt>
      <trkpt lat="46.430015796795487" lon="6.924694133922458">
        <ele>629.799999999999955</ele>
        <time>2014-06-15T16:08:05Z</time>
      </trkpt>
      <trkpt lat="46.429567784070969" lon="6.925082467496395">
        <ele>624.990000000000009</ele>
        <time>2014-06-15T16:08:10Z</time>
      </trkpt>
      <trkpt lat="46.429488491266966" lon="6.925185732543468">
        <ele>624.029999999999973</ele>
        <time>2014-06-15T16:08:11Z</time>
      </trkpt>
      <trkpt lat="46.428866637870669" lon="6.926044709980488">
        <ele>615.860000000000014</ele>
        <time>2014-06-15T16:08:18Z</time>
      </trkpt>
      <trkpt lat="46.428802851587534" lon="6.926179742440581">
        <ele>614.419999999999959</ele>
        <time>2014-06-15T16:08:19Z</time>
      </trkpt>
      <trkpt lat="46.428750632330775" lon="6.926338663324714">
        <ele>612.980000000000018</ele>
        <time>2014-06-15T16:08:20Z</time>
      </trkpt>
      <trkpt lat="46.428564386442304" lon="6.927004186436534">
        <ele>608.169999999999959</ele>
        <time>2014-06-15T16:08:24Z</time>
      </trkpt>
      <trkpt lat="46.428494900465012" lon="6.927153468132019">
        <ele>607.210000000000036</ele>
        <time>2014-06-15T16:08:25Z</time>
      </trkpt>
      <trkpt lat="46.428414098918438" lon="6.927294954657555">
        <ele>605.769999999999982</ele>
        <time>2014-06-15T16:08:26Z</time>
      </trkpt>
      <trkpt lat="46.428327681496739" lon="6.927430238574743">
        <ele>604.809999999999945</ele>
        <time>2014-06-15T16:08:27Z</time>
      </trkpt>
      <trkpt lat="46.428242437541485" lon="6.927558649331331">
        <ele>603.360000000000014</ele>
        <time>2014-06-15T16:08:28Z</time>
      </trkpt>
      <trkpt lat="46.428170520812273" lon="6.927683120593429">
        <ele>602.399999999999977</ele>
        <time>2014-06-15T16:08:29Z</time>
      </trkpt>
      <trkpt lat="46.428113775327802" lon="6.927815806120634">
        <ele>600.960000000000036</ele>
        <time>2014-06-15T16:08:30Z</time>
      </trkpt>
      <trkpt lat="46.428069854155183" lon="6.927971625700593">
        <ele>599.519999999999982</ele>
        <time>2014-06-15T16:08:31Z</time>
      </trkpt>
      <trkpt lat="46.42787522636354" lon="6.928701186552644">
        <ele>592.789999999999964</ele>
        <time>2014-06-15T16:08:36Z</time>
      </trkpt>
      <trkpt lat="46.427818397060037" lon="6.928769163787365">
        <ele>591.350000000000023</ele>
        <time>2014-06-15T16:08:37Z</time>
      </trkpt>
      <trkpt lat="46.427758550271392" lon="6.928794393315911">
        <ele>590.389999999999986</ele>
        <time>2014-06-15T16:08:38Z</time>
      </trkpt>
      <trkpt lat="46.427685627713799" lon="6.928799254819751">
        <ele>588.950000000000045</ele>
        <time>2014-06-15T16:08:39Z</time>
      </trkpt>
      <trkpt lat="46.427603317424655" lon="6.928774947300553">
        <ele>587.5</ele>
        <time>2014-06-15T16:08:40Z</time>
      </trkpt>
      <trkpt lat="46.42751656472683" lon="6.928738234564662">
        <ele>586.539999999999964</ele>
        <time>2014-06-15T16:08:41Z</time>
      </trkpt>
      <trkpt lat="46.427417909726501" lon="6.928711077198386">
        <ele>585.580000000000041</ele>
        <time>2014-06-15T16:08:42Z</time>
      </trkpt>
      <trkpt lat="46.426141681149602" lon="6.92863505333662">
        <ele>573.559999999999945</ele>
        <time>2014-06-15T16:08:53Z</time>
      </trkpt>
      <trkpt lat="46.425706576555967" lon="6.928755920380354">
        <ele>568.279999999999973</ele>
        <time>2014-06-15T16:08:58Z</time>
      </trkpt>
      <trkpt lat="46.425643796101213" lon="6.928754663094878">
        <ele>567.799999999999955</ele>
        <time>2014-06-15T16:08:59Z</time>
      </trkpt>
      <trkpt lat="46.425629211589694" lon="6.928717195987701">
        <ele>566.830000000000041</ele>
        <time>2014-06-15T16:09:00Z</time>
      </trkpt>
      <trkpt lat="46.425653854385018" lon="6.928667072206736">
        <ele>566.350000000000023</ele>
        <time>2014-06-15T16:09:01Z</time>
      </trkpt>
      <trkpt lat="46.425696769729257" lon="6.92862331867218">
        <ele>565.870000000000005</ele>
        <time>2014-06-15T16:09:02Z</time>
      </trkpt>
      <trkpt lat="46.425753263756633" lon="6.928580403327942">
        <ele>565.389999999999986</ele>
        <time>2014-06-15T16:09:03Z</time>
      </trkpt>
      <trkpt lat="46.425818726420403" lon="6.928506558761001">
        <ele>564.909999999999968</ele>
        <time>2014-06-15T16:09:04Z</time>
      </trkpt>
      <trkpt lat="46.425884775817394" lon="6.928425338119268">
        <ele>564.42999999999995</ele>
        <time>2014-06-15T16:09:05Z</time>
      </trkpt>
      <trkpt lat="46.426034141331911" lon="6.928266333416104">
        <ele>563.470000000000027</ele>
        <time>2014-06-15T16:09:07Z</time>
      </trkpt>
      <trkpt lat="46.426123911514878" lon="6.92820506170392">
        <ele>562.990000000000009</ele>
        <time>2014-06-15T16:09:08Z</time>
      </trkpt>
      <trkpt lat="46.42622365616262" lon="6.92816206254065">
        <ele>562.029999999999973</ele>
        <time>2014-06-15T16:09:09Z</time>
      </trkpt>
      <trkpt lat="46.4272556360811" lon="6.92796022631228">
        <ele>555.299999999999955</ele>
        <time>2014-06-15T16:09:18Z</time>
      </trkpt>
      <trkpt lat="46.427358565852046" lon="6.927893003448844">
        <ele>554.340000000000032</ele>
        <time>2014-06-15T16:09:19Z</time>
      </trkpt>
      <trkpt lat="46.427440121769905" lon="6.927783954888582">
        <ele>553.860000000000014</ele>
        <time>2014-06-15T16:09:20Z</time>
      </trkpt>
      <trkpt lat="46.427493346855044" lon="6.927635846659541">
        <ele>552.899999999999977</ele>
        <time>2014-06-15T16:09:21Z</time>
      </trkpt>
      <trkpt lat="46.427517486736178" lon="6.92746820859611">
        <ele>552.409999999999968</ele>
        <time>2014-06-15T16:09:22Z</time>
      </trkpt>
      <trkpt lat="46.427526790648699" lon="6.927303252741694">
        <ele>551.92999999999995</ele>
        <time>2014-06-15T16:09:23Z</time>
      </trkpt>
      <trkpt lat="46.427789479494095" lon="6.925823846831918">
        <ele>536.07000000000005</ele>
        <time>2014-06-15T16:09:31Z</time>
      </trkpt>
      <trkpt lat="46.428428515791893" lon="6.924247881397605">
        <ele>513.960000000000036</ele>
        <time>2014-06-15T16:09:40Z</time>
      </trkpt>
      <trkpt lat="46.428534965962172" lon="6.92396616563201">
        <ele>510.120000000000005</ele>
        <time>2014-06-15T16:09:42Z</time>
      </trkpt>
      <trkpt lat="46.428572935983539" lon="6.923826690763235">
        <ele>508.670000000000016</ele>
        <time>2014-06-15T16:09:43Z</time>
      </trkpt>
      <trkpt lat="46.428648373112082" lon="6.923567270860076">
        <ele>505.310000000000002</ele>
        <time>2014-06-15T16:09:45Z</time>
      </trkpt>
      <trkpt lat="46.428704531863332" lon="6.923468615859747">
        <ele>503.870000000000005</ele>
        <time>2014-06-15T16:09:46Z</time>
      </trkpt>
      <trkpt lat="46.428775945678353" lon="6.923389574512839">
        <ele>502.430000000000007</ele>
        <time>2014-06-15T16:09:47Z</time>
      </trkpt>
      <trkpt lat="46.428852891549468" lon="6.923314221203327">
        <ele>500.980000000000018</ele>
        <time>2014-06-15T16:09:48Z</time>
      </trkpt>
      <trkpt lat="46.428925227373838" lon="6.923222690820694">
        <ele>499.54000000000002</ele>
        <time>2014-06-15T16:09:49Z</time>
      </trkpt>
      <trkpt lat="46.428980631753802" lon="6.923134177923203">
        <ele>498.100000000000023</ele>
        <time>2014-06-15T16:09:50Z</time>
      </trkpt>
      <trkpt lat="46.429033521562815" lon="6.923038708046079">
        <ele>496.660000000000025</ele>
        <time>2014-06-15T16:09:51Z</time>
      </trkpt>
      <trkpt lat="46.429162183776498" lon="6.922816503793001">
        <ele>492.329999999999984</ele>
        <time>2014-06-15T16:09:54Z</time>
      </trkpt>
      <trkpt lat="46.429179450497031" lon="6.922757914289832">
        <ele>491.370000000000005</ele>
        <time>2014-06-15T16:09:55Z</time>
      </trkpt>
      <trkpt lat="46.429167883470654" lon="6.922708293423057">
        <ele>490.410000000000025</ele>
        <time>2014-06-15T16:09:56Z</time>
      </trkpt>
      <trkpt lat="46.429133601486683" lon="6.922684824094176">
        <ele>489.930000000000007</ele>
        <time>2014-06-15T16:09:57Z</time>
      </trkpt>
      <trkpt lat="46.429102839902043" lon="6.922703851014376">
        <ele>488.970000000000027</ele>
        <time>2014-06-15T16:09:58Z</time>
      </trkpt>
      <trkpt lat="46.429084148257971" lon="6.922728409990668">
        <ele>488.490000000000009</ele>
        <time>2014-06-15T16:09:59Z</time>
      </trkpt>
      <trkpt lat="46.429057912901044" lon="6.922775683924556">
        <ele>487.529999999999973</ele>
        <time>2014-06-15T16:10:00Z</time>
      </trkpt>
      <trkpt lat="46.429028660058975" lon="6.922834692522883">
        <ele>486.560000000000002</ele>
        <time>2014-06-15T16:10:01Z</time>
      </trkpt>
      <trkpt lat="46.428988594561815" lon="6.922905771061778">
        <ele>485.600000000000023</ele>
        <time>2014-06-15T16:10:02Z</time>
      </trkpt>
      <trkpt lat="46.428944505751133" lon="6.92297425121069">
        <ele>485.120000000000005</ele>
        <time>2014-06-15T16:10:03Z</time>
      </trkpt>
      <trkpt lat="46.428894549608231" lon="6.923040468245745">
        <ele>484.639999999999986</ele>
        <time>2014-06-15T16:10:04Z</time>
      </trkpt>
      <trkpt lat="46.428829841315746" lon="6.923112636432052">
        <ele>484.639999999999986</ele>
        <time>2014-06-15T16:10:05Z</time>
      </trkpt>
      <trkpt lat="46.42875574529171" lon="6.923185475170612">
        <ele>484.160000000000025</ele>
        <time>2014-06-15T16:10:06Z</time>
      </trkpt>
      <trkpt lat="46.428420720621943" lon="6.923560565337539">
        <ele>480.800000000000011</ele>
        <time>2014-06-15T16:10:11Z</time>
      </trkpt>
      <trkpt lat="46.428342685103416" lon="6.923600630834699">
        <ele>480.319999999999993</ele>
        <time>2014-06-15T16:10:12Z</time>
      </trkpt>
      <trkpt lat="46.428259871900082" lon="6.923633487895131">
        <ele>479.839999999999975</ele>
        <time>2014-06-15T16:10:13Z</time>
      </trkpt>
      <trkpt lat="46.428170772269368" lon="6.923693250864744">
        <ele>478.870000000000005</ele>
        <time>2014-06-15T16:10:14Z</time>
      </trkpt>
      <trkpt lat="46.428090557456017" lon="6.923767933622003">
        <ele>477.910000000000025</ele>
        <time>2014-06-15T16:10:15Z</time>
      </trkpt>
      <trkpt lat="46.427992321550846" lon="6.923860386013985">
        <ele>476.470000000000027</ele>
        <time>2014-06-15T16:10:16Z</time>
      </trkpt>
      <trkpt lat="46.426924718543887" lon="6.924515264108777">
        <ele>460.129999999999995</ele>
        <time>2014-06-15T16:10:26Z</time>
      </trkpt>
      <trkpt lat="46.426354749128222" lon="6.924716429784894">
        <ele>450.029999999999973</ele>
        <time>2014-06-15T16:10:31Z</time>
      </trkpt>
      <trkpt lat="46.426251819357276" lon="6.924786670133471">
        <ele>448.589999999999975</ele>
        <time>2014-06-15T16:10:32Z</time>
      </trkpt>
      <trkpt lat="46.42613179050386" lon="6.924869567155838">
        <ele>447.149999999999977</ele>
        <time>2014-06-15T16:10:33Z</time>
      </trkpt>
      <trkpt lat="46.426050234586" lon="6.924926647916436">
        <ele>445.70999999999998</ele>
        <time>2014-06-15T16:10:34Z</time>
      </trkpt>
      <trkpt lat="46.425953591242433" lon="6.925005773082376">
        <ele>444.269999999999982</ele>
        <time>2014-06-15T16:10:35Z</time>
      </trkpt>
      <trkpt lat="46.425854852423072" lon="6.925088753923774">
        <ele>443.310000000000002</ele>
        <time>2014-06-15T16:10:36Z</time>
      </trkpt>
      <trkpt lat="46.425566850230098" lon="6.925336439162493">
        <ele>438.5</ele>
        <time>2014-06-15T16:10:39Z</time>
      </trkpt>
      <trkpt lat="46.42547657713294" lon="6.925449008122087">
        <ele>437.54000000000002</ele>
        <time>2014-06-15T16:10:40Z</time>
      </trkpt>
      <trkpt lat="46.425238195806742" lon="6.925751678645611">
        <ele>435.129999999999995</ele>
        <time>2014-06-15T16:10:43Z</time>
      </trkpt>
      <trkpt lat="46.425144402310252" lon="6.925825858488679">
        <ele>434.170000000000016</ele>
        <time>2014-06-15T16:10:44Z</time>
      </trkpt>
      <trkpt lat="46.425042226910591" lon="6.92588159814477">
        <ele>433.689999999999998</ele>
        <time>2014-06-15T16:10:45Z</time>
      </trkpt>
      <trkpt lat="46.424640147015452" lon="6.926080165430903">
        <ele>431.29000000000002</ele>
        <time>2014-06-15T16:10:49Z</time>
      </trkpt>
      <trkpt lat="46.424535792320967" lon="6.926178652793169">
        <ele>431.29000000000002</ele>
        <time>2014-06-15T16:10:50Z</time>
      </trkpt>
      <trkpt lat="46.424471167847514" lon="6.926257191225886">
        <ele>431.29000000000002</ele>
        <time>2014-06-15T16:10:51Z</time>
      </trkpt>
      <trkpt lat="46.424099933356047" lon="6.926691122353077">
        <ele>430.810000000000002</ele>
        <time>2014-06-15T16:10:56Z</time>
      </trkpt>
      <trkpt lat="46.423696428537369" lon="6.926968563348055">
        <ele>431.29000000000002</ele>
        <time>2014-06-15T16:11:01Z</time>
      </trkpt>
      <trkpt lat="46.423597438260913" lon="6.92699714563787">
        <ele>431.29000000000002</ele>
        <time>2014-06-15T16:11:02Z</time>
      </trkpt>
      <trkpt lat="46.423490066081285" lon="6.926994547247887">
        <ele>431.29000000000002</ele>
        <time>2014-06-15T16:11:03Z</time>
      </trkpt>
      <trkpt lat="46.423402391374111" lon="6.926969233900309">
        <ele>431.769999999999982</ele>
        <time>2014-06-15T16:11:04Z</time>
      </trkpt>
      <trkpt lat="46.423319997265935" lon="6.926920870319009">
        <ele>431.29000000000002</ele>
        <time>2014-06-15T16:11:05Z</time>
      </trkpt>
      <trkpt lat="46.42321614548564" lon="6.92683101631701">
        <ele>431.29000000000002</ele>
        <time>2014-06-15T16:11:06Z</time>
      </trkpt>
      <trkpt lat="46.423129225149751" lon="6.926738061010838">
        <ele>430.810000000000002</ele>
        <time>2014-06-15T16:11:07Z</time>
      </trkpt>
      <trkpt lat="46.423078933730721" lon="6.926666731014848">
        <ele>429.850000000000023</ele>
        <time>2014-06-15T16:11:08Z</time>
      </trkpt>
      <trkpt lat="46.423015315085649" lon="6.926564304158092">
        <ele>429.370000000000005</ele>
        <time>2014-06-15T16:11:09Z</time>
      </trkpt>
      <trkpt lat="46.422880617901683" lon="6.926344698294997">
        <ele>427.920000000000016</ele>
        <time>2014-06-15T16:11:11Z</time>
      </trkpt>
      <trkpt lat="46.422800486907363" lon="6.926238667219877">
        <ele>426.95999999999998</ele>
        <time>2014-06-15T16:11:12Z</time>
      </trkpt>
      <trkpt lat="46.422472754493356" lon="6.9258972723037">
        <ele>423.600000000000023</ele>
        <time>2014-06-15T16:11:16Z</time>
      </trkpt>
      <trkpt lat="46.4223772007972" lon="6.925835916772485">
        <ele>423.120000000000005</ele>
        <time>2014-06-15T16:11:17Z</time>
      </trkpt>
      <trkpt lat="46.422261195257306" lon="6.925798198208213">
        <ele>422.639999999999986</ele>
        <time>2014-06-15T16:11:18Z</time>
      </trkpt>
      <trkpt lat="46.422161785885692" lon="6.925795264542103">
        <ele>422.160000000000025</ele>
        <time>2014-06-15T16:11:19Z</time>
      </trkpt>
      <trkpt lat="46.422062292695045" lon="6.925804736092687">
        <ele>421.680000000000007</ele>
        <time>2014-06-15T16:11:20Z</time>
      </trkpt>
      <trkpt lat="46.421839334070683" lon="6.925810100510716">
        <ele>418.79000000000002</ele>
        <time>2014-06-15T16:11:23Z</time>
      </trkpt>
      <trkpt lat="46.421796837821603" lon="6.925780093297362">
        <ele>417.350000000000023</ele>
        <time>2014-06-15T16:11:24Z</time>
      </trkpt>
      <trkpt lat="46.421764651313424" lon="6.925730723887682">
        <ele>416.389999999999986</ele>
        <time>2014-06-15T16:11:25Z</time>
      </trkpt>
      <trkpt lat="46.421748641878366" lon="6.92567934282124">
        <ele>415.430000000000007</ele>
        <time>2014-06-15T16:11:26Z</time>
      </trkpt>
      <trkpt lat="46.421738667413592" lon="6.925639025866985">
        <ele>414.949999999999989</ele>
        <time>2014-06-15T16:11:27Z</time>
      </trkpt>
      <trkpt lat="46.421726681292057" lon="6.925587896257639">
        <ele>412.060000000000002</ele>
        <time>2014-06-15T16:11:36Z</time>
      </trkpt>
      <trkpt lat="46.421717964112759" lon="6.925574485212564">
        <ele>412.060000000000002</ele>
        <time>2014-06-15T16:11:37Z</time>
      </trkpt>
      <trkpt lat="46.421355195343494" lon="6.925615053623915">
        <ele>409.180000000000007</ele>
        <time>2014-06-15T16:11:47Z</time>
      </trkpt>
      <trkpt lat="46.420292453840375" lon="6.925986623391509">
        <ele>407.740000000000009</ele>
        <time>2014-06-15T16:12:04Z</time>
      </trkpt>
      <trkpt lat="46.420155074447393" lon="6.926045380532742">
        <ele>407.740000000000009</ele>
        <time>2014-06-15T16:12:06Z</time>
      </trkpt>
      <trkpt lat="46.420090449973941" lon="6.926084607839584">
        <ele>407.740000000000009</ele>
        <time>2014-06-15T16:12:07Z</time>
      </trkpt>
      <trkpt lat="46.420027166604996" lon="6.92613129504025">
        <ele>407.740000000000009</ele>
        <time>2014-06-15T16:12:08Z</time>
      </trkpt>
      <trkpt lat="46.419968577101827" lon="6.926185106858611">
        <ele>407.740000000000009</ele>
        <time>2014-06-15T16:12:09Z</time>
      </trkpt>
      <trkpt lat="46.419905796647072" lon="6.926249312236905">
        <ele>407.259999999999991</ele>
        <time>2014-06-15T16:12:10Z</time>
      </trkpt>
      <trkpt lat="46.419852990657091" lon="6.926312008872628">
        <ele>406.769999999999982</ele>
        <time>2014-06-15T16:12:11Z</time>
      </trkpt>
      <trkpt lat="46.41936625353992" lon="6.927195461466908">
        <ele>404.850000000000023</ele>
        <time>2014-06-15T16:12:21Z</time>
      </trkpt>
      <trkpt lat="46.418916648253798" lon="6.928096432238817">
        <ele>402.449999999999989</ele>
        <time>2014-06-15T16:12:30Z</time>
      </trkpt>
      <trkpt lat="46.418844731524587" lon="6.928171282634139">
        <ele>401.970000000000027</ele>
        <time>2014-06-15T16:12:31Z</time>
      </trkpt>
      <trkpt lat="46.418766779825091" lon="6.928228698670864">
        <ele>401.490000000000009</ele>
        <time>2014-06-15T16:12:32Z</time>
      </trkpt>
      <trkpt lat="46.418681787326932" lon="6.928268428891897">
        <ele>401.490000000000009</ele>
        <time>2014-06-15T16:12:33Z</time>
      </trkpt>
      <trkpt lat="46.418594364076853" lon="6.928302710875869">
        <ele>401.009999999999991</ele>
        <time>2014-06-15T16:12:34Z</time>
      </trkpt>
      <trkpt lat="46.418209634721279" lon="6.928386781364679">
        <ele>399.569999999999993</ele>
        <time>2014-06-15T16:12:38Z</time>
      </trkpt>
      <trkpt lat="46.418146016076207" lon="6.928379237651825">
        <ele>399.079999999999984</ele>
        <time>2014-06-15T16:12:39Z</time>
      </trkpt>
      <trkpt lat="46.418058006092906" lon="6.92835652269423">
        <ele>398.600000000000023</ele>
        <time>2014-06-15T16:12:40Z</time>
      </trkpt>
      <trkpt lat="46.417972175404429" lon="6.928327521309257">
        <ele>398.120000000000005</ele>
        <time>2014-06-15T16:12:41Z</time>
      </trkpt>
      <trkpt lat="46.417883997783065" lon="6.928288294002414">
        <ele>397.639999999999986</ele>
        <time>2014-06-15T16:12:42Z</time>
      </trkpt>
      <trkpt lat="46.417805710807443" lon="6.928246384486556">
        <ele>397.639999999999986</ele>
        <time>2014-06-15T16:12:43Z</time>
      </trkpt>
      <trkpt lat="46.417338168248534" lon="6.9280144572258">
        <ele>396.199999999999989</ele>
        <time>2014-06-15T16:12:49Z</time>
      </trkpt>
      <trkpt lat="46.417261641472578" lon="6.928001800552011">
        <ele>396.199999999999989</ele>
        <time>2014-06-15T16:12:50Z</time>
      </trkpt>
      <trkpt lat="46.417182683944702" lon="6.928001213818789">
        <ele>396.199999999999989</ele>
        <time>2014-06-15T16:12:51Z</time>
      </trkpt>
      <trkpt lat="46.415625913068652" lon="6.928080590441823">
        <ele>392.360000000000014</ele>
        <time>2014-06-15T16:13:10Z</time>
      </trkpt>
      <trkpt lat="46.414598291739821" lon="6.928346380591393">
        <ele>389.949999999999989</ele>
        <time>2014-06-15T16:13:23Z</time>
      </trkpt>
      <trkpt lat="46.413882561028004" lon="6.928920457139611">
        <ele>389.470000000000027</ele>
        <time>2014-06-15T16:13:34Z</time>
      </trkpt>
      <trkpt lat="46.412806492298841" lon="6.929954616352916">
        <ele>387.069999999999993</ele>
        <time>2014-06-15T16:13:52Z</time>
      </trkpt>
      <trkpt lat="46.412757374346256" lon="6.929988814517856">
        <ele>387.069999999999993</ele>
        <time>2014-06-15T16:13:53Z</time>
      </trkpt>
      <trkpt lat="46.412713117897511" lon="6.930026365444064">
        <ele>387.069999999999993</ele>
        <time>2014-06-15T16:13:54Z</time>
      </trkpt>
      <trkpt lat="46.412394773215055" lon="6.930304644629359">
        <ele>388.990000000000009</ele>
        <time>2014-06-15T16:14:03Z</time>
      </trkpt>
      <trkpt lat="46.412388067692518" lon="6.930288383737206">
        <ele>388.990000000000009</ele>
        <time>2014-06-15T16:14:07Z</time>
      </trkpt>
    </trkseg>
  </trk>

</gpx>
